# Wetter Temperatur Luftdruck Luftfeuchtigkeit Sichtweite Windgeschwindigkeit Windrichtung Zeit
1 Clouds 32 1015 55 10000 5.1 100 21:19 12.07.2020
2 Clouds 32 1015 55 10000 5.1 100 21:19 12.07.2020
3 Clouds 33 1016 49 10000 5.1 360 20:42 12.07.2020
4 Clouds 33 1016 49 10000 5.1 360 20:20 12.07.2020
5 Clouds 33 1016 55 10000 5.1 40 19:59 12.07.2020
6 Clouds 33 1016 55 10000 5.1 40 19:40 12.07.2020
7 Clouds 34 1016 55 10000 5.1 40 19:20 12.07.2020
8 Clouds 33 1017 55 10000 5.1 360 18:54 12.07.2020
9 Clouds 33 1017 55 10000 5.1 360 18:36 12.07.2020
10 Clouds 33 1017 55 10000 5.1 360 18:18 12.07.2020
11 Clouds 32 1017 59 10000 5.1 30 17:38 12.07.2020
12 Clouds 32 1017 59 10000 5.1 30 17:20 12.07.2020
13 Clouds 31 1017 70 10000 2.1 40 16:48 12.07.2020
14 Clouds 30 1017 70 10000 2.1 40 16:23 12.07.2020
15 Clouds 30 1017 78 10000 3.1 360 15:51 12.07.2020
16 Clouds 28 1017 78 10000 3.1 360 15:31 12.07.2020
17 Clouds 28 1017 88 10000 2.6 360 14:58 12.07.2020
18 Clouds 27 1017 88 10000 2.6 360 14:40 12.07.2020
19 Clouds 27 1017 88 10000 2.6 360 14:40 12.07.2020
20 Clouds 27 1017 88 10000 2.6 360 14:21 12.07.2020
21 Clear 26 1019 100 0 3.14 2 13:40 12.07.2020
22 Clear 26 1019 100 0 2.73 348 13:21 12.07.2020
23 Clouds 25 1016 94 10000 2.1 20 12:56 12.07.2020
24 Clouds 25 1016 94 10000 2.1 20 12:38 12.07.2020
25 Clouds 26 1016 94 10000 2.1 20 12:18 12.07.2020
26 Clouds 26 1015 94 10000 2.1 20 11:44 12.07.2020
27 Clouds 26 1015 94 10000 2.1 20 11:21 12.07.2020
28 Clouds 26 1015 100 10000 2.34 341 10:44 12.07.2020
29 Clouds 26 1015 100 10000 2.17 338 10:23 12.07.2020
30 Clouds 26 1015 100 10000 2.1 30 09:58 12.07.2020
31 Clouds 26 1015 100 10000 2.1 30 09:40 12.07.2020
32 Clouds 26 1015 100 10000 2.1 30 09:20 12.07.2020
33 Clouds 26 1016 88 10000 2.1 20 08:55 12.07.2020
34 Clouds 26 1016 88 10000 2.1 20 08:36 12.07.2020
35 Clouds 26 1016 88 10000 2.1 20 08:18 12.07.2020
36 Clouds 26 1016 88 10000 2.1 40 07:45 12.07.2020
37 Clouds 27 1016 88 10000 2.1 40 07:22 12.07.2020
38 Clouds 27 1017 88 10000 2.1 30 06:51 12.07.2020
39 Clouds 27 1017 88 10000 2.1 30 06:22 12.07.2020
40 Rain 28 1020 94 0 1.73 35 05:42 12.07.2020
41 Rain 28 1019 94 0 1.88 41 04:56 12.07.2020
42 Rain 29 1019 94 0 1.56 72 04:26 12.07.2020
43 Clouds 29 1015 83 10000 3.1 110 03:34 12.07.2020
44 Clouds 29 1015 78 10000 3.1 120 02:55 12.07.2020
45 Clouds 30 1014 74 10000 3.1 150 01:46 12.07.2020
46 Clouds 30 1014 66 10000 4.1 170 00:52 12.07.2020
47 Clouds 30 1014 66 10000 4.1 170 00:23 12.07.2020
48 Clouds 31 1014 62 10000 5.1 150 23:57 11.07.2020
49 Clouds 31 1014 62 10000 5.1 150 23:39 11.07.2020
50 Clouds 31 1014 62 10000 5.1 150 23:20 11.07.2020
51 Clouds 31 1015 59 10000 6.2 180 22:55 11.07.2020
52 Clouds 32 1015 59 10000 6.2 180 22:37 11.07.2020
53 Clouds 32 1015 59 10000 6.2 180 22:18 11.07.2020
54 Clouds 32 1015 56 10000 5.1 160 21:41 11.07.2020
55 Clouds 32 1015 56 10000 5.1 160 21:23 11.07.2020
56 Clouds 32 1015 53 10000 6.2 150 20:57 11.07.2020
57 Clouds 32 1015 53 10000 6.2 150 20:38 11.07.2020
58 Clouds 32 1015 53 10000 6.2 150 20:20 11.07.2020
59 Clouds 32 1016 52 10000 5.1 180 19:57 11.07.2020
60 Clouds 32 1016 52 10000 5.1 180 19:39 11.07.2020
61 Clouds 32 1016 52 10000 5.1 180 19:20 11.07.2020
62 Clouds 32 1017 59 10000 3.1 360 18:55 11.07.2020
63 Clouds 32 1017 59 10000 3.1 360 18:37 11.07.2020
64 Clouds 32 1017 59 10000 3.1 360 18:18 11.07.2020
65 Clouds 31 1017 62 10000 5.1 60 17:42 11.07.2020
66 Clouds 31 1017 62 10000 5.1 60 17:42 11.07.2020
67 Clouds 31 1017 62 10000 5.1 60 17:21 11.07.2020
68 Clouds 31 1017 70 10000 2.63 62 16:59 11.07.2020
69 Clouds 31 1017 70 10000 2.63 62 16:38 11.07.2020
70 Clouds 30 1017 70 10000 2.87 56 16:19 11.07.2020
71 Clouds 30 1017 74 10000 3.1 90 15:57 11.07.2020
72 Clouds 29 1017 74 10000 3.1 90 15:37 11.07.2020
73 Clouds 29 1017 74 10000 3.1 90 15:18 11.07.2020
74 Clouds 28 1017 78 10000 3.1 360 14:44 11.07.2020
75 Clouds 28 1017 78 10000 3.1 360 14:23 11.07.2020
76 Rain 27 1019 100 0 2.29 347 13:55 11.07.2020
77 Rain 27 1019 100 0 2.29 347 13:37 11.07.2020
78 Rain 26 1019 100 0 2.14 341 13:19 11.07.2020
79 Rain 26 1018 100 0 2.14 341 12:42 11.07.2020
80 Rain 26 1018 100 0 1.94 346 12:23 11.07.2020
81 Rain 26 1018 100 0 1.94 346 11:58 11.07.2020
82 Rain 26 1018 100 0 1.94 346 11:40 11.07.2020
83 Clear 26 1018 100 0 1.97 348 11:19 11.07.2020
84 Clear 26 1018 100 0 1.97 348 10:46 11.07.2020
85 Clear 26 1018 100 0 2.02 335 10:27 11.07.2020
86 Clear 26 1018 100 0 2.02 335 09:56 11.07.2020
87 Clear 26 1018 100 0 2.02 335 09:37 11.07.2020
88 Rain 26 1018 100 0 2.08 331 09:18 11.07.2020
89 Rain 26 1018 100 0 2.08 331 08:39 11.07.2020
90 Rain 26 1018 100 0 1.91 337 08:20 11.07.2020
91 Rain 27 1019 100 0 1.91 337 07:50 11.07.2020
92 Clouds 27 1019 100 0 1.53 357 07:27 11.07.2020
93 Clouds 27 1019 100 0 1.53 357 06:59 11.07.2020
94 Clouds 27 1020 100 0 1.65 19 06:23 11.07.2020
95 Clouds 26 1020 100 0 1.65 19 05:46 11.07.2020
96 Clouds 26 1020 100 0 1.65 19 05:46 11.07.2020
97 Rain 27 1020 100 0 1.94 15 04:59 11.07.2020
98 Rain 26 1020 100 0 1.94 15 04:37 11.07.2020
99 Rain 26 1020 100 0 2.09 10 04:18 11.07.2020
100 Clouds 28 1019 95 0 1.67 17 02:51 11.07.2020
101 Clouds 28 1016 78 10000 2.1 30 01:56 11.07.2020
102 Clouds 28 1016 78 10000 2.1 30 01:21 11.07.2020
103 Clouds 29 1016 79 10000 1.67 43 00:41 11.07.2020
104 Clouds 29 1016 79 10000 1.67 43 00:41 11.07.2020
105 Clouds 29 1016 79 10000 1.63 64 00:22 11.07.2020
106 Clouds 30 1016 70 10000 1.63 64 23:58 10.07.2020
107 Clouds 30 1016 70 10000 1.63 64 23:58 10.07.2020
108 Clouds 30 1016 70 10000 1.63 64 23:40 10.07.2020
109 Clouds 30 1016 70 10000 2.08 71 23:21 10.07.2020
110 Clouds 31 1016 70 10000 2.08 71 22:47 10.07.2020
111 Clouds 30 1016 70 10000 2.4 61 22:23 10.07.2020
112 Rain 30 1016 74 8000 4.1 150 21:59 10.07.2020
113 Rain 30 1016 74 8000 4.1 150 21:38 10.07.2020
114 Rain 30 1016 74 8000 4.1 150 21:19 10.07.2020
115 Clouds 30 1016 74 10000 5.1 180 20:43 10.07.2020
116 Clouds 31 1016 74 10000 5.1 180 20:24 10.07.2020
117 Rain 31 1017 74 8000 2.17 92 19:59 10.07.2020
118 Rain 31 1017 74 8000 2.17 92 19:41 10.07.2020
119 Rain 32 1017 74 8000 2.7 123 19:21 10.07.2020
120 Clouds 32 1017 59 10000 2.6 90 18:42 10.07.2020
121 Clouds 33 1017 59 10000 2.6 90 18:22 10.07.2020
122 Clouds 32 1018 59 10000 3.1 60 17:59 10.07.2020
123 Clouds 32 1018 59 10000 3.1 60 17:41 10.07.2020
124 Clouds 32 1018 59 10000 3.1 60 17:22 10.07.2020
125 Clouds 32 1018 59 10000 3.1 60 17:22 10.07.2020
126 Clouds 31 1018 70 10000 3.6 60 16:44 10.07.2020
127 Clouds 31 1018 70 10000 3.6 60 16:21 10.07.2020
128 Clouds 30 1018 74 10000 2.6 90 15:57 10.07.2020
129 Clouds 30 1018 74 10000 2.6 90 15:39 10.07.2020
130 Clouds 29 1018 74 10000 2.6 90 15:18 10.07.2020
131 Clouds 28 1018 83 10000 2.6 20 14:41 10.07.2020
132 Clouds 28 1018 83 10000 2.6 20 14:21 10.07.2020
133 Rain 28 1020 97 0 2.23 356 13:58 10.07.2020
134 Rain 27 1019 99 0 2.23 356 13:39 10.07.2020
135 Rain 27 1019 99 0 2.13 354 13:21 10.07.2020
136 Rain 27 1019 99 0 2.13 354 12:57 10.07.2020
137 Clouds 26 1016 88 10000 2.1 30 12:37 10.07.2020
138 Clouds 26 1016 88 10000 2.1 30 12:19 10.07.2020
139 Clouds 26 1016 94 10000 2.1 30 11:42 10.07.2020
140 Clouds 26 1016 94 10000 2.1 30 11:21 10.07.2020
141 Clouds 26 1016 88 10000 2.1 20 10:57 10.07.2020
142 Clouds 26 1016 88 10000 2.1 20 10:38 10.07.2020
143 Clouds 26 1016 88 10000 2.1 20 10:19 10.07.2020
144 Clouds 25 1016 88 10000 2.1 20 09:40 10.07.2020
145 Clouds 27 1016 88 10000 2.1 60 09:22 10.07.2020
146 Clouds 27 1016 88 10000 2.1 60 08:58 10.07.2020
147 Clouds 26 1016 88 10000 2.1 60 08:40 10.07.2020
148 Clouds 26 1016 88 10000 2.1 60 08:22 10.07.2020
149 Clouds 26 1016 88 10000 2.1 50 07:44 10.07.2020
150 Clouds 26 1016 88 10000 2.1 50 07:23 10.07.2020
151 Clouds 27 1016 83 10000 2.1 70 06:54 10.07.2020
152 Clouds 27 1016 83 10000 2.1 70 06:32 10.07.2020
153 Clouds 27 1016 83 10000 2.1 80 05:20 10.07.2020
154 Clouds 29 1018 95 0 0.74 344 03:43 10.07.2020
155 Clouds 29 1017 95 0 0.3 286 02:53 10.07.2020
156 Clouds 29 1015 74 10000 0.68 174 01:53 10.07.2020
157 Clouds 30 1014 66 10000 5.1 180 00:53 10.07.2020
158 Clouds 30 1014 66 10000 5.1 180 00:22 10.07.2020
159 Clouds 31 1014 59 10000 5.1 180 23:55 09.07.2020
160 Clouds 31 1014 59 10000 5.1 180 23:37 09.07.2020
161 Clouds 31 1014 59 10000 5.1 180 23:18 09.07.2020
162 Clouds 31 1015 59 10000 5.1 180 22:55 09.07.2020
163 Clouds 31 1015 59 10000 5.1 180 22:37 09.07.2020
164 Clouds 31 1015 59 10000 5.1 180 22:37 09.07.2020
165 Clouds 31 1015 59 10000 5.1 180 22:18 09.07.2020
166 Clouds 32 1015 52 10000 5.1 180 21:39 09.07.2020
167 Clouds 32 1015 52 10000 5.1 180 21:19 09.07.2020
168 Clouds 32 1016 52 10000 5.1 180 20:58 09.07.2020
169 Clouds 32 1016 52 10000 5.1 180 20:39 09.07.2020
170 Clouds 32 1016 52 10000 5.1 180 20:21 09.07.2020
171 Clouds 32 1017 62 10000 5.1 180 19:43 09.07.2020
172 Clouds 32 1017 62 10000 5.1 180 19:21 09.07.2020
173 Clouds 32 1017 59 10000 5.1 180 18:56 09.07.2020
174 Clouds 32 1017 59 10000 5.1 180 18:38 09.07.2020
175 Clouds 31 1017 59 10000 5.1 180 18:18 09.07.2020
176 Clouds 31 1017 62 10000 5.1 90 17:42 09.07.2020
177 Clouds 31 1017 62 10000 5.1 90 17:22 09.07.2020
178 Clouds 31 1016 66 10000 3.1 90 16:56 09.07.2020
179 Clouds 31 1016 66 10000 3.1 90 16:38 09.07.2020
180 Clouds 31 1016 66 10000 3.1 90 16:19 09.07.2020
181 Clouds 30 1016 83 10000 2.1 90 15:56 09.07.2020
182 Clouds 29 1016 83 10000 2.1 90 15:37 09.07.2020
183 Clouds 28 1016 83 10000 2.1 90 15:18 09.07.2020
184 Rain 29 1019 100 0 1.22 81 14:57 09.07.2020
185 Rain 29 1019 100 0 1.22 81 14:39 09.07.2020
186 Rain 28 1019 100 0 0.36 358 14:20 09.07.2020
187 Rain 28 1019 100 0 0.36 358 13:56 09.07.2020
188 Rain 28 1018 100 0 0.36 358 13:37 09.07.2020
189 Clouds 27 1018 100 0 0.69 332 13:18 09.07.2020
190 Clouds 27 1016 90 0 0.89 2 12:41 09.07.2020
191 Clouds 27 1015 90 0 0.89 39 12:22 09.07.2020
192 Clouds 26 1014 94 10000 2.1 60 11:56 09.07.2020
193 Clouds 26 1014 94 10000 2.1 60 11:38 09.07.2020
194 Clouds 27 1014 94 10000 2.1 60 11:18 09.07.2020
195 Rain 27 1015 90 0 0.89 54 10:55 09.07.2020
196 Clouds 27 1014 94 10000 2.1 30 10:37 09.07.2020
197 Clouds 26 1014 94 10000 2.1 30 10:18 09.07.2020
198 Clouds 26 1014 94 10000 2.1 30 09:41 09.07.2020
199 Clouds 27 1014 94 10000 2.1 30 09:22 09.07.2020
200 Clouds 27 1015 94 0 2.6 60 08:49 09.07.2020
201 Rain 28 1017 99 0 0.58 142 08:26 09.07.2020
202 Rain 28 1017 99 0 0.58 142 07:50 09.07.2020
203 Clouds 29 1017 99 0 0.58 142 07:30 09.07.2020
204 Rain 29 1017 99 0 0.54 163 06:57 09.07.2020
205 Rain 29 1017 99 0 1.07 166 06:20 09.07.2020
206 Rain 29 1017 99 0 1.07 166 05:46 09.07.2020
207 Rain 29 1017 99 0 1.12 155 04:28 09.07.2020
208 Clouds 29 1014 78 10000 2.1 180 02:37 09.07.2020
209 Clouds 29 1014 78 10000 2.1 180 01:40 09.07.2020
210 Clouds 29 1013 70 10000 3.1 160 00:56 09.07.2020
211 Clouds 30 1013 70 10000 3.1 160 00:25 09.07.2020
212 Clouds 30 1013 66 10000 4.1 180 23:58 08.07.2020
213 Clouds 30 1013 66 10000 4.1 180 23:39 08.07.2020
214 Clouds 30 1013 66 10000 4.1 180 23:21 08.07.2020
215 Rain 30 1016 94 0 2.88 144 22:42 08.07.2020
216 Clouds 31 1013 59 10000 5.1 180 22:23 08.07.2020
217 Clouds 31 1013 59 10000 5.1 180 21:58 08.07.2020
218 Clouds 31 1013 59 10000 5.1 180 21:39 08.07.2020
219 Clouds 32 1013 59 10000 5.1 180 21:21 08.07.2020
220 Clouds 32 1014 59 10000 6.2 180 20:56 08.07.2020
221 Clouds 32 1014 59 10000 6.2 180 20:38 08.07.2020
222 Clouds 32 1014 59 10000 6.2 180 20:20 08.07.2020
223 Clouds 31 1014 66 10000 6.2 180 19:43 08.07.2020
224 Clouds 31 1014 66 10000 6.2 180 19:24 08.07.2020
225 Clouds 31 1015 63 10000 5.1 180 18:57 08.07.2020
226 Clouds 31 1015 63 10000 5.1 180 18:39 08.07.2020
227 Clouds 32 1015 63 10000 5.1 180 18:20 08.07.2020
228 Clouds 32 1015 66 10000 2.1 130 17:56 08.07.2020
229 Clouds 31 1015 66 10000 2.1 130 17:37 08.07.2020
230 Clouds 31 1016 70 10000 3.14 114 17:19 08.07.2020
231 Clouds 30 1016 70 10000 3.14 114 16:43 08.07.2020
232 Clouds 30 1016 70 10000 2.18 83 16:24 08.07.2020
233 Clouds 30 1015 74 10000 2.18 83 15:59 08.07.2020
234 Clouds 30 1015 74 10000 2.18 83 15:41 08.07.2020
235 Clouds 29 1015 74 10000 1.97 14 15:20 08.07.2020
236 Clouds 29 1017 100 0 1.97 14 14:57 08.07.2020
237 Clouds 29 1017 99 0 1.97 14 14:39 08.07.2020
238 Rain 28 1017 100 0 2.11 343 14:18 08.07.2020
239 Rain 27 1017 100 0 2.11 343 13:42 08.07.2020
240 Rain 27 1017 100 0 1.95 337 13:23 08.07.2020
241 Clouds 26 1012 94 10000 2.1 30 12:46 08.07.2020
242 Clouds 26 1012 94 10000 2.1 30 12:21 08.07.2020
243 Clouds 26 1013 94 10000 2.1 10 11:59 08.07.2020
244 Clouds 26 1013 94 10000 2.1 10 11:38 08.07.2020
245 Clouds 26 1013 94 10000 2.1 10 11:20 08.07.2020
246 Clouds 26 1013 94 10000 2.1 20 10:45 08.07.2020
247 Clouds 26 1013 94 10000 2.1 20 10:26 08.07.2020
248 Clouds 26 1013 94 10000 2.1 30 09:59 08.07.2020
249 Clouds 26 1013 94 10000 2.1 30 09:40 08.07.2020
250 Clouds 26 1013 94 10000 2.1 30 09:20 08.07.2020
251 Clouds 26 1013 88 10000 1.5 0 08:42 08.07.2020
252 Clouds 26 1014 88 10000 2.1 10 08:24 08.07.2020
253 Rain 27 1016 99 0 2.68 340 07:46 08.07.2020
254 Clouds 27 1016 99 0 2.69 339 07:23 08.07.2020
255 Clouds 27 1017 99 0 2.69 339 06:54 08.07.2020
256 Clouds 27 1017 99 0 2.69 339 06:35 08.07.2020
257 Rain 28 1017 99 0 2.68 342 05:54 08.07.2020
258 Rain 28 1017 99 0 2.64 357 05:18 08.07.2020
259 Rain 28 1018 100 0 2.82 4 04:20 08.07.2020
260 Clouds 28 1014 83 10000 3.1 360 02:20 08.07.2020
261 Clouds 28 1014 83 10000 3.1 360 01:39 08.07.2020
262 Rain 29 1016 100 0 3.54 29 00:59 08.07.2020
263 Clouds 27 1014 94 10000 4 38 00:22 08.07.2020
264 Clouds 27 1014 94 10000 4 38 00:22 08.07.2020
265 Clouds 27 1014 94 10000 4 38 23:44 07.07.2020
266 Clouds 27 1014 94 10000 4.59 48 23:24 07.07.2020
267 Rain 27 1015 94 8000 4.59 48 22:58 07.07.2020
268 Rain 27 1015 94 8000 4.59 48 22:40 07.07.2020
269 Rain 26 1015 94 8000 4.87 65 22:20 07.07.2020
270 Thunderstorm 25 1015 94 6000 3.1 120 21:58 07.07.2020
271 Thunderstorm 25 1015 94 6000 3.1 120 21:38 07.07.2020
272 Thunderstorm 25 1015 94 6000 3.1 120 21:19 07.07.2020
273 Clouds 33 1015 56 10000 7.2 360 20:56 07.07.2020
274 Clouds 31 1015 56 10000 7.2 360 20:36 07.07.2020
275 Clouds 31 1015 56 10000 7.2 360 20:18 07.07.2020
276 Clouds 33 1015 59 10000 6.2 360 19:39 07.07.2020
277 Clouds 33 1015 59 10000 6.2 360 19:20 07.07.2020
278 Clouds 34 1016 52 10000 5.1 60 18:55 07.07.2020
279 Clouds 33 1016 52 10000 5.1 60 18:37 07.07.2020
280 Clouds 33 1016 59 10000 5.1 30 18:19 07.07.2020
281 Clouds 33 1016 59 10000 5.1 30 17:56 07.07.2020
282 Clouds 32 1016 59 10000 5.1 30 17:37 07.07.2020
283 Clouds 32 1016 59 10000 5.1 30 17:18 07.07.2020
284 Clouds 32 1016 62 10000 5.1 360 16:42 07.07.2020
285 Clouds 32 1016 62 10000 5.1 360 16:22 07.07.2020
286 Clouds 31 1016 74 10000 5.1 360 15:56 07.07.2020
287 Clouds 30 1016 74 10000 5.1 360 15:37 07.07.2020
288 Clouds 30 1016 74 10000 5.1 360 15:19 07.07.2020
289 Clouds 29 1016 74 10000 5.1 360 14:45 07.07.2020
290 Clouds 29 1016 74 10000 5.1 360 14:24 07.07.2020
291 Clouds 27 1015 88 10000 2.1 10 13:46 07.07.2020
292 Clouds 26 1015 88 10000 2.1 10 13:21 07.07.2020
293 Clouds 26 1015 88 10000 2.1 50 12:57 07.07.2020
294 Clouds 26 1015 88 10000 2.1 50 12:38 07.07.2020
295 Clouds 26 1015 88 10000 2.1 50 12:20 07.07.2020
296 Clouds 26 1015 88 10000 3.27 347 11:44 07.07.2020
297 Clouds 26 1015 88 10000 2.92 342 11:22 07.07.2020
298 Clouds 26 1015 88 10000 2.1 10 10:58 07.07.2020
299 Clouds 26 1015 88 10000 2.1 10 10:58 07.07.2020
300 Clouds 26 1015 88 10000 2.1 10 10:40 07.07.2020
301 Clouds 26 1015 88 10000 2.1 10 10:21 07.07.2020
302 Clouds 26 1015 88 10000 2.1 10 09:43 07.07.2020
303 Clouds 27 1015 83 10000 2.53 330 09:22 07.07.2020
304 Clouds 27 1015 83 10000 2.53 330 08:57 07.07.2020
305 Clouds 27 1015 83 10000 2.53 330 08:39 07.07.2020
306 Clouds 27 1015 83 10000 2.13 345 08:19 07.07.2020
307 Clouds 27 1016 78 10000 2.1 20 07:38 07.07.2020
308 Clouds 26 1016 78 10000 2.1 20 07:19 07.07.2020
309 Clouds 27 1016 83 10000 2.1 40 06:45 07.07.2020
310 Clouds 27 1016 83 10000 2.1 40 06:26 07.07.2020
311 Clouds 28 1016 78 10000 3.1 50 05:43 07.07.2020
312 Clouds 28 1016 74 10000 3.6 50 04:52 07.07.2020
313 Clouds 29 1016 74 10000 2.1 80 03:43 07.07.2020
314 Clouds 29 1016 74 10000 2.1 80 03:23 07.07.2020
315 Clouds 30 1015 66 10000 1.17 76 01:41 07.07.2020
316 Clouds 31 1015 62 10000 3.6 210 00:59 07.07.2020
317 Clouds 31 1015 62 10000 3.6 210 00:40 07.07.2020
318 Clouds 31 1015 62 10000 3.6 210 00:20 07.07.2020
319 Clouds 31 1015 62 10000 5.1 180 23:44 06.07.2020
320 Clouds 31 1015 62 10000 5.1 180 23:25 06.07.2020
321 Clouds 31 1015 62 10000 5.1 180 23:25 06.07.2020
322 Clouds 31 1015 62 10000 5.1 180 22:57 06.07.2020
323 Clouds 31 1015 62 10000 5.1 180 22:38 06.07.2020
324 Clouds 32 1015 62 10000 5.1 180 22:18 06.07.2020
325 Clouds 32 1015 59 10000 5.1 180 21:56 06.07.2020
326 Clouds 32 1015 59 10000 5.1 180 21:36 06.07.2020
327 Clouds 32 1015 59 10000 5.1 180 21:18 06.07.2020
328 Clouds 32 1015 59 10000 3.1 180 20:40 06.07.2020
329 Clouds 32 1015 59 10000 3.1 180 20:20 06.07.2020
330 Clouds 32 1017 59 10000 5.1 180 19:58 06.07.2020
331 Clouds 32 1017 59 10000 5.1 180 19:40 06.07.2020
332 Clouds 32 1017 59 10000 5.1 180 19:22 06.07.2020
333 Clouds 32 1018 59 10000 3.15 121 18:57 06.07.2020
334 Clouds 32 1018 59 10000 3.15 121 18:57 06.07.2020
335 Clouds 32 1018 59 10000 3.15 121 18:39 06.07.2020
336 Clouds 32 1018 59 10000 1.86 90 18:21 06.07.2020
337 Clouds 31 1018 62 10000 1.86 90 17:46 06.07.2020
338 Clouds 31 1018 62 10000 1.86 54 17:28 06.07.2020
339 Clouds 31 1018 66 10000 5.1 90 16:59 06.07.2020
340 Clouds 31 1018 66 10000 5.1 90 16:41 06.07.2020
341 Clouds 31 1018 66 10000 5.1 90 16:22 06.07.2020
342 Clouds 30 1017 74 10000 2.65 39 15:44 06.07.2020
343 Clouds 29 1017 74 10000 2.93 19 15:25 06.07.2020
344 Clouds 28 1017 83 10000 2.93 19 14:57 06.07.2020
345 Clouds 28 1017 83 10000 2.93 19 14:38 06.07.2020
346 Clouds 28 1017 83 10000 2.38 348 14:20 06.07.2020
347 Clouds 27 1019 100 0 2.38 348 13:57 06.07.2020
348 Clouds 27 1019 100 0 2.38 348 13:38 06.07.2020
349 Clouds 26 1018 100 0 2.33 342 13:19 06.07.2020
350 Clouds 25 1015 100 10000 2.1 20 12:43 06.07.2020
351 Clouds 25 1015 100 10000 2.1 20 12:19 06.07.2020
352 Clouds 25 1015 100 10000 2.1 30 11:58 06.07.2020
353 Clouds 25 1015 100 10000 2.1 30 11:39 06.07.2020
354 Clouds 25 1015 100 10000 2.1 30 11:20 06.07.2020
355 Clouds 25 1015 100 10000 2.37 341 10:56 06.07.2020
356 Clouds 25 1015 100 10000 2.37 341 10:38 06.07.2020
357 Clouds 25 1015 100 10000 2.12 342 10:18 06.07.2020
358 Clouds 27 1018 100 0 2.12 342 09:42 06.07.2020
359 Clear 27 1018 100 0 2.16 342 09:21 06.07.2020
360 Clouds 27 1018 100 0 2.17 345 08:56 06.07.2020
361 Clouds 27 1018 100 0 2.17 345 08:38 06.07.2020
362 Clouds 27 1018 100 0 2.11 352 08:19 06.07.2020
363 Clouds 27 1018 100 0 2.11 352 07:43 06.07.2020
364 Clouds 27 1018 100 0 1.91 17 07:23 06.07.2020
365 Clouds 27 1019 100 0 1.91 17 06:40 06.07.2020
366 Clouds 27 1019 100 0 2.04 24 06:21 06.07.2020
367 Clouds 27 1019 100 0 2.04 24 05:38 06.07.2020
368 Clouds 27 1019 100 0 1.68 11 04:54 06.07.2020
369 Clouds 27 1018 100 0 1.01 354 03:40 06.07.2020
370 Clouds 28 1014 70 10000 1.23 77 02:22 06.07.2020
371 Clouds 29 1014 70 10000 1.93 99 01:28 06.07.2020
372 Clouds 30 1014 66 10000 1.93 99 00:36 06.07.2020
373 Clouds 30 1014 66 10000 2.41 123 00:18 06.07.2020
374 Clouds 30 1013 62 10000 2.41 123 23:41 05.07.2020
375 Clouds 30 1013 62 10000 2.88 133 23:23 05.07.2020
376 Thunderstorm 30 1013 62 10000 5.1 360 22:59 05.07.2020
377 Thunderstorm 31 1013 62 10000 5.1 360 22:40 05.07.2020
378 Thunderstorm 31 1013 62 10000 5.1 360 22:20 05.07.2020
379 Thunderstorm 31 1014 56 10000 5.7 360 21:57 05.07.2020
380 Thunderstorm 32 1014 56 10000 5.7 360 21:38 05.07.2020
381 Thunderstorm 32 1014 56 10000 5.7 360 21:18 05.07.2020
382 Clouds 32 1015 53 10000 5.1 180 20:57 05.07.2020
383 Clouds 32 1015 53 10000 5.1 180 20:38 05.07.2020
384 Clouds 33 1015 53 10000 5.1 180 20:20 05.07.2020
385 Clouds 33 1016 59 10000 5.1 360 19:42 05.07.2020
386 Clouds 32 1016 59 10000 5.1 360 19:21 05.07.2020
387 Clouds 32 1016 59 10000 5.1 360 18:56 05.07.2020
388 Clouds 32 1016 59 10000 5.1 360 18:37 05.07.2020
389 Clouds 32 1016 59 10000 5.1 360 18:19 05.07.2020
390 Clouds 32 1016 63 10000 2.1 40 17:43 05.07.2020
391 Clouds 32 1016 63 10000 2.1 40 17:20 05.07.2020
392 Clouds 31 1016 66 10000 2.1 40 16:59 05.07.2020
393 Clouds 30 1016 66 10000 2.1 40 16:40 05.07.2020
394 Clouds 30 1016 66 10000 2.1 40 16:21 05.07.2020
395 Clouds 29 1015 74 10000 4.1 360 15:40 05.07.2020
396 Clouds 29 1015 74 10000 4.1 360 15:20 05.07.2020
397 Clouds 28 1015 88 10000 2.33 18 14:56 05.07.2020
398 Clouds 28 1015 88 10000 2.33 18 14:38 05.07.2020
399 Clouds 27 1015 88 10000 2.25 350 14:20 05.07.2020
400 Clouds 26 1014 94 10000 1.5 0 13:41 05.07.2020
401 Clouds 26 1014 94 10000 1.5 0 13:23 05.07.2020
402 Clouds 25 1014 94 10000 1.5 0 12:45 05.07.2020
403 Clouds 25 1014 94 10000 1 0 12:21 05.07.2020
404 Clouds 25 1014 94 10000 1 0 11:56 05.07.2020
405 Clouds 25 1014 94 10000 1 0 11:38 05.07.2020
406 Clouds 25 1014 94 10000 1 0 11:19 05.07.2020
407 Clouds 25 1014 94 10000 2.1 30 10:55 05.07.2020
408 Clouds 26 1014 94 10000 2.1 30 10:36 05.07.2020
409 Clouds 27 1017 92 0 1.47 354 10:18 05.07.2020
410 Clouds 27 1017 92 0 1.47 354 09:41 05.07.2020
411 Clouds 26 1014 94 10000 2.1 20 09:20 05.07.2020
412 Clouds 27 1017 92 0 1.43 356 08:56 05.07.2020
413 Clouds 26 1014 88 10000 2.1 40 08:37 05.07.2020
414 Clouds 28 1017 92 0 1.42 346 08:18 05.07.2020
415 Clouds 28 1017 92 0 1.42 346 07:39 05.07.2020
416 Rain 28 1017 92 0 0.87 1 07:21 05.07.2020
417 Clouds 27 1015 83 10000 2.6 60 06:30 05.07.2020
418 Clear 28 1018 92 0 0.3 148 04:24 05.07.2020
419 Clear 29 1017 96 0 0.69 191 02:59 05.07.2020
420 Clouds 29 1014 78 10000 0.69 191 02:37 05.07.2020
421 Clouds 29 1014 78 10000 1.79 139 01:44 05.07.2020
422 Clouds 29 1014 78 10000 2.44 151 01:26 05.07.2020
423 Clouds 30 1013 66 10000 6.2 180 00:51 05.07.2020
424 Clouds 30 1013 66 10000 6.2 180 00:30 05.07.2020
425 Clouds 31 1013 62 10000 5.1 180 23:56 04.07.2020
426 Clouds 31 1013 62 10000 5.1 180 23:32 04.07.2020
427 Clouds 32 1013 59 10000 6.2 180 22:59 04.07.2020
428 Clouds 32 1013 59 10000 6.2 180 22:40 04.07.2020
429 Clouds 32 1013 59 10000 6.2 180 22:22 04.07.2020
430 Clouds 32 1013 52 10000 5.1 180 21:58 04.07.2020
431 Clouds 32 1013 52 10000 5.1 180 21:40 04.07.2020
432 Clouds 32 1013 52 10000 5.1 180 21:22 04.07.2020
433 Clouds 32 1013 52 10000 5.1 180 20:42 04.07.2020
434 Clouds 32 1013 52 10000 5.1 180 20:21 04.07.2020
435 Clouds 32 1014 55 10000 5.1 180 19:56 04.07.2020
436 Clouds 32 1014 55 10000 5.1 180 19:38 04.07.2020
437 Clouds 32 1014 55 10000 5.1 180 19:20 04.07.2020
438 Clouds 32 1015 59 10000 5.1 160 18:43 04.07.2020
439 Clouds 32 1015 59 10000 5.1 160 18:22 04.07.2020
440 Clouds 32 1015 62 10000 4.1 180 17:46 04.07.2020
441 Clouds 32 1015 62 10000 4.1 180 17:28 04.07.2020
442 Clouds 31 1015 70 10000 2.1 90 16:59 04.07.2020
443 Clouds 31 1015 70 10000 2.1 90 16:39 04.07.2020
444 Clouds 31 1015 70 10000 2.1 90 16:39 04.07.2020
445 Clouds 31 1015 70 10000 2.1 90 16:21 04.07.2020
446 Clouds 30 1015 78 10000 1.6 99 15:58 04.07.2020
447 Clouds 30 1015 78 10000 1.6 99 15:40 04.07.2020
448 Clouds 29 1015 78 10000 1.08 63 15:21 04.07.2020
449 Clouds 28 1014 88 10000 1.08 63 14:55 04.07.2020
450 Clouds 28 1014 88 10000 1.08 63 14:55 04.07.2020
451 Clouds 28 1014 88 10000 1.08 63 14:55 04.07.2020
452 Clouds 28 1014 88 10000 1.11 63 14:36 04.07.2020
453 Clouds 28 1014 88 10000 0.85 6 14:18 04.07.2020
454 Clouds 28 1017 100 0 0.94 11 13:41 04.07.2020
455 Clouds 27 1017 100 0 1.1 342 13:19 04.07.2020
456 Clouds 26 1013 94 10000 2.1 60 12:43 04.07.2020
457 Clouds 26 1013 94 10000 2.1 60 12:43 04.07.2020
458 Clouds 26 1013 94 10000 2.1 60 12:43 04.07.2020
459 Clouds 25 1013 94 10000 2.1 60 12:24 04.07.2020
460 Clouds 25 1013 94 10000 2.1 30 11:59 04.07.2020
461 Clouds 25 1013 94 10000 2.1 30 11:40 04.07.2020
462 Clouds 25 1013 94 10000 2.1 30 11:22 04.07.2020
463 Clouds 26 1013 94 10000 1.25 322 10:55 04.07.2020
464 Clouds 26 1013 94 10000 1.25 322 10:36 04.07.2020
465 Clouds 25 1013 94 10000 1.12 317 10:18 04.07.2020
466 Clouds 25 1014 94 10000 1.12 317 09:40 04.07.2020
467 Clouds 26 1014 94 10000 1.21 311 09:21 04.07.2020
468 Clouds 26 1014 94 10000 1.31 312 08:50 04.07.2020
469 Clouds 26 1014 94 10000 1.31 312 08:32 04.07.2020
470 Clouds 26 1015 88 10000 2.1 80 07:55 04.07.2020
471 Clouds 26 1015 88 10000 2.1 80 07:36 04.07.2020
472 Clouds 27 1015 88 10000 2.1 80 06:57 04.07.2020
473 Clouds 27 1015 88 10000 2.1 80 06:23 04.07.2020
474 Clouds 28 1015 83 10000 2.1 100 05:41 04.07.2020
475 Clouds 28 1015 83 10000 2.1 120 04:57 04.07.2020
476 Clouds 29 1017 94 0 0.69 153 03:34 04.07.2020
477 Rain 29 1013 78 8000 2.1 130 02:35 04.07.2020
478 Rain 29 1013 78 8000 2.1 130 01:37 04.07.2020
479 Clouds 30 1013 66 10000 3.1 180 00:45 04.07.2020
480 Clouds 30 1013 66 10000 3.1 180 00:26 04.07.2020
481 Clouds 31 1013 62 10000 3.1 180 23:41 03.07.2020
482 Clouds 31 1013 62 10000 3.1 180 23:19 03.07.2020
483 Clouds 32 1013 59 10000 4.1 180 22:59 03.07.2020
484 Clouds 32 1013 59 10000 4.1 180 22:39 03.07.2020
485 Clouds 32 1013 59 10000 4.1 180 22:39 03.07.2020
486 Clouds 32 1013 59 10000 4.1 180 22:21 03.07.2020
487 Clouds 32 1013 59 10000 5.1 180 21:54 03.07.2020
488 Clouds 32 1013 59 10000 5.1 180 21:36 03.07.2020
489 Clouds 32 1013 59 10000 5.1 180 21:18 03.07.2020
490 Clouds 32 1014 56 10000 5.1 180 20:42 03.07.2020
491 Clouds 32 1014 56 10000 5.1 180 20:23 03.07.2020
492 Clouds 32 1014 59 10000 5.1 180 19:42 03.07.2020
493 Clouds 32 1014 59 10000 5.1 180 19:21 03.07.2020
494 Clouds 32 1014 59 10000 5.1 180 19:21 03.07.2020
495 Clouds 32 1015 62 10000 5.1 160 18:57 03.07.2020
496 Clouds 32 1015 62 10000 5.1 160 18:39 03.07.2020
497 Clouds 32 1015 62 10000 5.1 160 18:21 03.07.2020
498 Clouds 31 1016 62 10000 5.1 160 17:44 03.07.2020
499 Clouds 32 1016 62 10000 5.1 160 17:23 03.07.2020
500 Clouds 31 1016 66 10000 4.1 90 16:51 03.07.2020
501 Clouds 31 1016 66 10000 4.1 90 16:31 03.07.2020
502 Clouds 30 1016 74 10000 1.64 53 15:57 03.07.2020
503 Clouds 30 1016 74 10000 1.64 53 15:39 03.07.2020
504 Clouds 29 1016 74 10000 1.82 17 15:20 03.07.2020
505 Clouds 28 1015 83 10000 1.82 17 14:41 03.07.2020
506 Clouds 28 1015 83 10000 1.74 347 14:23 03.07.2020
507 Clouds 28 1018 100 0 1.71 357 13:59 03.07.2020
508 Clouds 27 1017 100 0 1.71 357 13:40 03.07.2020
509 Clear 26 1017 100 0 1.89 341 13:22 03.07.2020
510 Clear 26 1017 100 0 1.89 341 12:40 03.07.2020
511 Clear 26 1017 100 0 2.01 343 12:22 03.07.2020
512 Clear 27 1017 100 0 2.01 343 11:44 03.07.2020
513 Clear 27 1017 100 0 1.67 350 11:25 03.07.2020
514 Clear 26 1017 100 0 1.67 350 10:59 03.07.2020
515 Clear 26 1017 100 0 1.67 350 10:41 03.07.2020
516 Clear 26 1016 100 0 1.54 340 10:21 03.07.2020
517 Clear 27 1016 100 0 1.54 340 09:58 03.07.2020
518 Clear 27 1017 100 0 1.54 340 09:38 03.07.2020
519 Clouds 27 1017 100 0 1.37 326 09:19 03.07.2020
520 Clouds 26 1017 100 0 1.37 326 08:55 03.07.2020
521 Clouds 27 1017 100 0 1.37 326 08:37 03.07.2020
522 Clouds 27 1017 100 0 1.37 326 08:37 03.07.2020
523 Clouds 27 1017 100 0 1.3 317 08:18 03.07.2020
524 Clouds 26 1018 100 0 1.3 317 07:41 03.07.2020
525 Clouds 26 1018 100 0 1.05 310 07:21 03.07.2020
526 Clouds 26 1018 100 0 0.53 305 06:25 03.07.2020
527 Clouds 27 1018 100 0 0.31 274 05:28 03.07.2020
528 Clouds 27 1018 100 0 0.26 179 03:54 03.07.2020
529 Rain 27 1017 100 0 0.77 135 02:50 03.07.2020
530 Thunderstorm 27 1015 83 8000 0.54 108 02:30 03.07.2020
531 Thunderstorm 27 1015 83 8000 1.32 115 01:30 03.07.2020
532 Thunderstorm 27 1014 78 10000 1.74 108 00:56 03.07.2020
533 Rain 27 1014 78 10000 1.74 108 00:37 03.07.2020
534 Rain 28 1016 95 0 2.2 125 23:52 02.07.2020
535 Rain 28 1014 88 8000 3.06 135 23:21 02.07.2020
536 Rain 28 1014 88 8000 3.06 135 22:59 02.07.2020
537 Rain 28 1014 88 8000 3.06 135 22:40 02.07.2020
538 Rain 28 1014 88 8000 3.54 140 22:20 02.07.2020
539 Thunderstorm 28 1014 94 8000 3.54 140 21:57 02.07.2020
540 Thunderstorm 28 1014 94 8000 3.54 140 21:39 02.07.2020
541 Thunderstorm 29 1015 83 8000 2.6 30 21:19 02.07.2020
542 Thunderstorm 29 1015 83 8000 2.6 30 20:57 02.07.2020
543 Thunderstorm 28 1015 83 8000 2.6 30 20:39 02.07.2020
544 Thunderstorm 28 1015 83 8000 2.6 30 20:39 02.07.2020
545 Thunderstorm 29 1015 83 8000 2.6 30 20:18 02.07.2020
546 Thunderstorm 29 1015 78 8000 4.1 60 19:42 02.07.2020
547 Thunderstorm 30 1015 78 8000 4.1 60 19:23 02.07.2020
548 Thunderstorm 30 1015 78 8000 4.1 60 19:23 02.07.2020
549 Clouds 32 1015 63 10000 2.6 120 18:58 02.07.2020
550 Clouds 32 1015 63 10000 2.6 120 18:40 02.07.2020
551 Clouds 32 1015 63 10000 2.6 120 18:21 02.07.2020
552 Rain 31 1017 87 0 2.71 117 17:54 02.07.2020
553 Clouds 31 1015 70 10000 4.1 60 17:36 02.07.2020
554 Clouds 31 1015 70 10000 4.1 60 17:36 02.07.2020
555 Clouds 31 1015 70 10000 4.1 60 17:18 02.07.2020
556 Clouds 31 1015 70 10000 4.1 60 16:40 02.07.2020
557 Clouds 31 1015 70 10000 4.1 60 16:20 02.07.2020
558 Clouds 30 1015 83 10000 2.6 360 15:55 02.07.2020
559 Clouds 29 1015 83 10000 2.6 360 15:36 02.07.2020
560 Clouds 27 1015 94 10000 2.41 3 15:18 02.07.2020
561 Clouds 28 1015 94 10000 2.41 3 14:43 02.07.2020
562 Clouds 28 1015 94 10000 2.29 351 14:20 02.07.2020
563 Clouds 28 1017 95 0 2.29 351 13:56 02.07.2020
564 Clouds 27 1017 100 0 2.29 351 13:37 02.07.2020
565 Clouds 27 1017 97 0 2.33 339 13:18 02.07.2020
566 Clouds 26 1014 94 10000 2.1 40 12:41 02.07.2020
567 Clouds 25 1014 94 10000 2.1 40 12:22 02.07.2020
568 Clouds 26 1014 100 10000 2.1 10 11:46 02.07.2020
569 Clouds 26 1014 100 10000 2.1 10 11:27 02.07.2020
570 Clouds 25 1012 94 10000 2.1 20 10:59 02.07.2020
571 Clouds 25 1012 94 10000 2.1 20 10:41 02.07.2020
572 Clouds 25 1012 94 10000 2.1 20 10:23 02.07.2020
573 Clouds 27 1016 97 0 2.12 329 09:44 02.07.2020
574 Clouds 27 1016 97 0 2.08 338 09:22 02.07.2020
575 Clouds 27 1016 97 0 2.09 332 08:58 02.07.2020
576 Clouds 27 1016 97 0 2.09 332 08:40 02.07.2020
577 Clouds 27 1017 97 0 1.91 336 08:19 02.07.2020
578 Clouds 26 1014 88 10000 2.1 20 07:42 02.07.2020
579 Clouds 27 1017 97 0 1.83 345 07:21 02.07.2020
580 Clouds 27 1017 97 0 1.83 345 06:45 02.07.2020
581 Clouds 27 1017 97 0 1.82 11 06:26 02.07.2020
582 Clouds 27 1018 97 0 1.82 11 05:48 02.07.2020
583 Clouds 27 1017 97 0 1.77 22 04:50 02.07.2020
584 Clouds 27 1017 97 0 1.52 19 03:34 02.07.2020
585 Clouds 28 1014 74 8000 3.1 30 01:50 02.07.2020
586 Thunderstorm 29 1014 70 8000 3.1 60 00:28 02.07.2020
587 Rain 30 1014 62 7000 3.1 60 23:57 01.07.2020
588 Rain 30 1014 62 7000 3.1 60 23:39 01.07.2020
589 Rain 30 1014 62 7000 3.1 60 23:39 01.07.2020
590 Rain 31 1014 62 7000 3.1 60 23:21 01.07.2020
591 Clouds 30 1014 66 10000 4.1 150 22:55 01.07.2020
592 Clouds 31 1014 66 10000 4.1 150 22:37 01.07.2020
593 Clouds 31 1014 66 10000 4.1 150 22:18 01.07.2020
594 Clouds 31 1014 74 10000 5.1 90 21:55 01.07.2020
595 Clouds 31 1014 74 10000 5.1 90 21:55 01.07.2020
596 Clouds 31 1014 74 10000 5.1 90 21:37 01.07.2020
597 Clouds 31 1014 74 10000 5.1 90 21:19 01.07.2020
598 Rain 30 1015 83 8000 4.1 153 20:45 01.07.2020
599 Rain 30 1015 83 8000 3.93 145 20:26 01.07.2020
600 Rain 30 1015 79 6000 5.1 120 19:57 01.07.2020
601 Rain 30 1015 79 6000 5.1 120 19:39 01.07.2020
602 Rain 30 1015 79 6000 5.1 120 19:20 01.07.2020
603 Clouds 30 1016 94 10000 3.1 210 18:54 01.07.2020
604 Clouds 30 1016 94 10000 3.1 210 18:36 01.07.2020
605 Clouds 30 1016 94 10000 3.1 210 18:18 01.07.2020
606 Clouds 31 1016 66 10000 3.1 30 17:41 01.07.2020
607 Clouds 30 1016 66 10000 3.1 30 17:20 01.07.2020
608 Clouds 30 1015 74 10000 3.1 90 16:48 01.07.2020
609 Clouds 30 1015 74 10000 3.1 90 16:29 01.07.2020
610 Clouds 30 1015 74 10000 3.1 60 15:58 01.07.2020
611 Clouds 29 1015 74 10000 3.1 60 15:40 01.07.2020
612 Clouds 29 1015 74 10000 3.1 60 15:21 01.07.2020
613 Clouds 28 1015 83 10000 3.1 360 14:47 01.07.2020
614 Clouds 28 1015 83 10000 3.1 360 14:22 01.07.2020
615 Clear 27 1017 100 0 2.01 346 13:59 01.07.2020
616 Clear 27 1017 99 0 2.01 346 13:40 01.07.2020
617 Clear 26 1017 100 0 2.1 334 13:21 01.07.2020
618 Clear 26 1017 100 0 2.1 334 12:58 01.07.2020
619 Clouds 25 1014 94 10000 2.1 334 12:39 01.07.2020
620 Clouds 25 1014 94 10000 2.23 329 12:20 01.07.2020
621 Clouds 25 1014 94 10000 2.23 329 11:55 01.07.2020
622 Clouds 25 1014 94 10000 2.23 329 11:37 01.07.2020
623 Clouds 25 1014 94 10000 2.07 330 11:18 01.07.2020
624 Clear 26 1014 85 0 2.07 330 10:41 01.07.2020
625 Clear 26 1014 85 0 2.03 339 10:23 01.07.2020
626 Clear 26 1014 85 0 2.03 339 09:58 01.07.2020
627 Clouds 26 1014 94 10000 2.1 10 09:37 01.07.2020
628 Clear 26 1016 95 0 1.48 338 09:18 01.07.2020
629 Clear 26 1016 95 0 1.48 338 08:41 01.07.2020
630 Clouds 26 1017 95 0 1.53 335 08:23 01.07.2020
631 Clouds 26 1017 95 0 1.53 335 07:58 01.07.2020
632 Clouds 26 1017 95 0 1.53 335 07:38 01.07.2020
633 Clouds 27 1017 95 0 1.53 343 07:20 01.07.2020
634 Clouds 27 1017 95 0 1.53 343 06:49 01.07.2020
635 Clouds 27 1017 95 0 1.63 350 06:27 01.07.2020
636 Clouds 27 1017 95 0 1.53 356 04:32 01.07.2020
637 Rain 27 1018 95 0 1.09 26 03:47 01.07.2020
638 Rain 27 1018 95 0 1.15 64 03:26 01.07.2020
639 Rain 28 1017 92 0 1.15 64 02:41 01.07.2020
640 Clouds 29 1014 74 10000 1.03 66 01:47 01.07.2020
641 Clouds 29 1013 66 10000 3.1 40 00:42 01.07.2020
642 Clouds 30 1013 66 10000 3.1 40 00:23 01.07.2020
643 Clouds 30 1013 70 10000 2.6 40 23:41 30.06.2020
644 Clouds 30 1013 70 10000 2.6 40 23:22 30.06.2020
645 Rain 31 1013 62 8000 5.1 360 22:56 30.06.2020
646 Rain 31 1013 62 8000 5.1 360 22:38 30.06.2020
647 Rain 31 1013 62 8000 5.1 360 22:18 30.06.2020
648 Clouds 31 1013 62 0 5.1 180 21:40 30.06.2020
649 Clouds 31 1013 62 0 5.1 180 21:19 30.06.2020
650 Clouds 31 1014 66 10000 5.1 180 20:43 30.06.2020
651 Clouds 31 1014 66 10000 5.1 180 20:43 30.06.2020
652 Clouds 31 1014 66 10000 5.1 180 20:21 30.06.2020
653 Clouds 31 1014 74 10000 5.1 180 19:55 30.06.2020
654 Clouds 31 1014 74 10000 5.1 180 19:36 30.06.2020
655 Clouds 31 1014 74 10000 5.1 180 19:18 30.06.2020
656 Clouds 31 1015 66 10000 3.1 130 18:42 30.06.2020
657 Clouds 31 1015 66 10000 3.1 130 18:20 30.06.2020
658 Clouds 31 1016 66 10000 2.82 68 17:54 30.06.2020
659 Clouds 31 1016 66 10000 2.82 68 17:36 30.06.2020
660 Clouds 31 1016 66 10000 2.86 51 17:18 30.06.2020
661 Clouds 30 1015 74 10000 2.6 40 16:41 30.06.2020
662 Clouds 30 1015 74 10000 2.6 40 16:21 30.06.2020
663 Clouds 30 1015 79 10000 2.94 35 15:56 30.06.2020
664 Clouds 29 1015 79 10000 2.94 35 15:38 30.06.2020
665 Clouds 28 1015 79 10000 2.68 13 15:19 30.06.2020
666 Clouds 27 1014 88 10000 2.68 13 14:43 30.06.2020
667 Clouds 27 1014 88 10000 2.64 350 14:22 30.06.2020
668 Clear 27 1017 96 0 2.6 351 13:58 30.06.2020
669 Clear 26 1017 99 0 2.6 351 13:37 30.06.2020
670 Clear 26 1017 100 0 2.52 341 13:19 30.06.2020
671 Clear 26 1017 100 0 2.52 341 13:19 30.06.2020
672 Clear 26 1017 100 0 2.52 341 12:56 30.06.2020
673 Clouds 25 1013 94 10000 1.5 0 12:38 30.06.2020
674 Clouds 25 1013 94 10000 1.5 0 12:19 30.06.2020
675 Clouds 25 1013 94 10000 1.5 0 12:19 30.06.2020
676 Clouds 25 1013 94 10000 1.5 0 11:56 30.06.2020
677 Clouds 25 1013 94 10000 1.5 0 11:38 30.06.2020
678 Clouds 25 1013 94 10000 1.5 0 11:18 30.06.2020
679 Clouds 30 1016 74 10000 2.43 58 16:47 28.06.2020
680 Clouds 30 1016 74 10000 2.56 46 16:28 28.06.2020
681 Clouds 30 1016 79 10000 3.1 360 15:59 28.06.2020
682 Clouds 30 1016 79 10000 3.1 360 15:59 28.06.2020
683 Clouds 29 1016 79 10000 3.1 360 15:40 28.06.2020
684 Clouds 29 1016 79 10000 3.1 360 15:20 28.06.2020
685 Clouds 28 1016 94 10000 2.44 25 14:58 28.06.2020
686 Clouds 28 1016 94 10000 2.44 25 14:39 28.06.2020
687 Clouds 28 1016 94 10000 2.19 354 14:21 28.06.2020
688 Clouds 27 1015 94 10000 1.88 4 13:40 28.06.2020
689 Clouds 27 1015 94 10000 1.88 4 13:40 28.06.2020
690 Clouds 27 1015 94 10000 2.14 352 13:21 28.06.2020
691 Clouds 27 1017 100 0 2.14 352 12:58 28.06.2020
692 Clouds 26 1014 94 10000 2.14 352 12:38 28.06.2020
693 Clouds 26 1014 94 10000 2.25 345 12:19 28.06.2020
694 Clouds 26 1014 94 10000 2.25 345 11:58 28.06.2020
695 Clouds 26 1014 94 10000 2.25 345 11:39 28.06.2020
696 Clouds 26 1014 94 10000 2.25 345 11:39 28.06.2020
697 Clouds 26 1014 94 10000 2.18 337 11:20 28.06.2020
698 Clouds 27 1015 82 0 1.79 356 10:57 28.06.2020
699 Clouds 27 1015 83 0 1.79 353 10:38 28.06.2020
700 Clouds 27 1014 83 0 1.79 348 10:19 28.06.2020
701 Clouds 27 1014 83 0 1.34 355 09:40 28.06.2020
702 Clouds 27 1014 88 10000 1.5 20 09:21 28.06.2020
703 Clouds 27 1014 88 10000 1.5 20 08:51 28.06.2020
704 Clouds 27 1014 88 10000 1.5 20 08:32 28.06.2020
705 Clouds 28 1015 82 0 1.79 359 07:53 28.06.2020
706 Clouds 28 1015 82 0 1.79 356 07:30 28.06.2020
707 Clouds 28 1018 93 0 2.36 343 06:45 28.06.2020
708 Clouds 28 1016 83 10000 2.08 351 06:26 28.06.2020
709 Clouds 28 1016 83 10000 2.1 3 05:27 28.06.2020
710 Clouds 29 1018 93 0 2.58 28 03:45 28.06.2020
711 Clouds 29 1014 74 10000 1.5 60 02:49 28.06.2020
712 Clouds 29 1014 74 10000 2.6 100 02:18 28.06.2020
713 Clouds 30 1014 74 10000 2.6 100 01:27 28.06.2020
714 Clouds 31 1014 70 10000 2.1 30 00:51 28.06.2020
715 Clouds 31 1014 63 10000 4.1 150 00:27 28.06.2020
716 Clouds 32 1014 63 10000 4.1 150 23:43 27.06.2020
717 Clouds 32 1014 63 10000 4.1 150 23:24 27.06.2020
718 Rain 32 1014 59 8000 5.1 90 22:58 27.06.2020
719 Rain 32 1014 59 8000 5.1 90 22:40 27.06.2020
720 Rain 32 1014 59 8000 5.1 90 22:21 27.06.2020
721 Clouds 33 1014 53 10000 5.1 150 21:55 27.06.2020
722 Clouds 33 1014 53 10000 5.1 150 21:37 27.06.2020
723 Clouds 33 1014 53 10000 5.1 150 21:19 27.06.2020
724 Clouds 33 1014 53 10000 7.7 190 20:43 27.06.2020
725 Clouds 33 1014 53 10000 7.7 190 20:19 27.06.2020
726 Clouds 33 1015 56 10000 6.2 120 19:55 27.06.2020
727 Clouds 33 1015 56 10000 6.2 120 19:36 27.06.2020
728 Clouds 33 1015 56 10000 6.2 120 19:18 27.06.2020
729 Clouds 33 1015 56 10000 6.2 120 19:18 27.06.2020
730 Clouds 33 1016 59 10000 2.61 99 18:45 27.06.2020
731 Clouds 33 1016 59 10000 2.9 84 18:25 27.06.2020
732 Clouds 33 1017 59 10000 7.7 360 17:57 27.06.2020
733 Clouds 32 1017 59 10000 7.7 360 17:38 27.06.2020
734 Clouds 32 1017 59 10000 7.7 360 17:19 27.06.2020
735 Clouds 31 1017 70 10000 5.1 30 16:46 27.06.2020
736 Clouds 31 1017 70 10000 5.1 30 16:27 27.06.2020
737 Clouds 30 1017 74 10000 3.6 360 15:55 27.06.2020
738 Clouds 30 1017 74 10000 3.6 360 15:55 27.06.2020
739 Clouds 30 1017 74 10000 3.6 360 15:37 27.06.2020
740 Clouds 30 1017 74 10000 3.6 360 15:18 27.06.2020
741 Clouds 28 1017 83 10000 3.1 360 14:41 27.06.2020
742 Clouds 28 1017 83 10000 3.1 360 14:23 27.06.2020
743 Clouds 28 1019 99 0 2.76 22 13:57 27.06.2020
744 Clouds 27 1018 100 0 2.76 22 13:37 27.06.2020
745 Clouds 27 1018 100 0 2.24 3 13:19 27.06.2020
746 Clouds 27 1018 100 0 2.24 3 13:19 27.06.2020
747 Clouds 26 1018 100 0 2.24 3 12:56 27.06.2020
748 Clouds 27 1018 100 0 2.24 3 12:37 27.06.2020
749 Clouds 27 1018 100 0 2.18 8 12:19 27.06.2020
750 Clouds 27 1018 100 0 2.18 8 11:41 27.06.2020
751 Clouds 27 1018 100 0 2.03 11 11:23 27.06.2020
752 Clouds 27 1018 100 0 2.03 11 10:57 27.06.2020
753 Clouds 27 1018 100 0 2.03 11 10:38 27.06.2020
754 Rain 27 1018 100 0 1.95 17 10:18 27.06.2020
755 Rain 27 1018 100 0 1.95 17 09:41 27.06.2020
756 Rain 27 1018 100 0 1.63 357 09:21 27.06.2020
757 Rain 27 1019 100 0 1.63 357 08:46 27.06.2020
758 Rain 27 1019 100 0 2.26 360 08:23 27.06.2020
759 Rain 27 1019 100 0 2.26 360 07:55 27.06.2020
760 Rain 27 1019 100 0 2.26 360 07:37 27.06.2020
761 Rain 27 1019 100 0 2.39 360 07:18 27.06.2020
762 Rain 27 1019 100 0 2.39 360 06:35 27.06.2020
763 Rain 27 1019 100 0 2.7 1 05:33 27.06.2020
764 Rain 27 1019 100 0 3.06 1 04:19 27.06.2020
765 Rain 27 1019 100 0 3.06 1 03:51 27.06.2020
766 Clouds 28 1019 100 0 3.17 0 02:47 27.06.2020
767 Clouds 28 1019 100 0 3.36 359 02:27 27.06.2020
768 Rain 28 1018 97 0 2.89 7 01:40 27.06.2020
769 Rain 29 1018 95 0 2.66 7 00:52 27.06.2020
770 Clouds 30 1016 74 10000 5.1 360 23:58 26.06.2020
771 Clouds 30 1016 74 10000 5.1 360 23:40 26.06.2020
772 Clouds 31 1016 70 10000 5.1 360 23:21 26.06.2020
773 Clouds 31 1016 70 10000 5.1 360 22:45 26.06.2020
774 Clouds 31 1016 70 10000 5.1 360 22:26 26.06.2020
775 Clouds 31 1017 70 10000 5.1 90 21:58 26.06.2020
776 Clouds 30 1017 70 10000 5.1 90 21:40 26.06.2020
777 Clouds 30 1017 70 10000 5.1 90 21:21 26.06.2020
778 Clouds 29 1017 66 10000 3.1 90 20:59 26.06.2020
779 Clouds 29 1017 66 10000 3.1 90 20:40 26.06.2020
780 Clouds 29 1017 66 10000 3.1 90 20:18 26.06.2020
781 Thunderstorm 27 1010 78 7000 5.1 180 19:41 26.06.2020
782 Thunderstorm 27 1010 78 7000 5.1 180 19:23 26.06.2020
783 Rain 29 1019 62 8000 5.1 360 18:44 26.06.2020
784 Clouds 29 1019 62 10000 5.1 360 18:25 26.06.2020
785 Clouds 31 1019 62 10000 5.1 360 17:57 26.06.2020
786 -273 0 0 0 0 0 17:39 26.06.2020
787 Clouds 31 1019 62 10000 5.1 360 17:21 26.06.2020
788 Clouds 31 1019 70 10000 5.1 360 16:43 26.06.2020
789 Clouds 30 1019 70 10000 5.1 360 16:23 26.06.2020
790 Clouds 29 1018 78 10000 3.1 360 15:41 26.06.2020
791 Clouds 29 1018 78 10000 3.1 360 15:22 26.06.2020
792 Clouds 28 1018 83 10000 2.1 270 14:59 26.06.2020
793 Clouds 28 1018 83 10000 2.1 270 14:59 26.06.2020
794 Clouds 27 1018 83 10000 2.1 270 14:40 26.06.2020
795 Clouds 27 1018 83 10000 2.1 270 14:22 26.06.2020
796 Clouds 27 1020 100 0 3.02 8 13:57 26.06.2020
797 Clouds 26 1020 100 0 3.02 8 13:38 26.06.2020
798 Clouds 26 1020 100 0 2.68 344 13:18 26.06.2020
799 Clouds 25 1018 89 0 1.79 351 12:41 26.06.2020
800 Thunderstorm 25 1017 100 8000 2.1 80 12:23 26.06.2020
801 Thunderstorm 25 1017 100 8000 2.1 80 11:57 26.06.2020
802 Thunderstorm 25 1017 100 8000 2.1 80 11:39 26.06.2020
803 Thunderstorm 25 1017 100 8000 2.1 80 11:20 26.06.2020
804 Clouds 25 1018 91 0 0.89 30 10:57 26.06.2020
805 Clouds 25 1018 91 0 1.34 357 10:38 26.06.2020
806 Rain 25 1018 90 0 1.34 11 10:18 26.06.2020
807 Rain 25 1018 91 0 0.89 8 09:43 26.06.2020
808 Rain 25 1018 94 8000 5.1 10 09:23 26.06.2020
809 Rain 25 1018 94 8000 5.1 10 08:55 26.06.2020
810 Rain 26 1018 94 8000 5.1 10 08:28 26.06.2020
811 Rain 27 1018 85 0 1.97 5 07:53 26.06.2020
812 Rain 27 1018 83 0 1.96 24 07:24 26.06.2020
813 Rain 27 1018 83 0 1.96 24 06:58 26.06.2020
814 Clouds 27 1018 78 10000 2.1 50 06:36 26.06.2020
815 Clouds 27 1018 78 10000 2.1 50 05:59 26.06.2020
816 Rain 28 1021 97 0 2.44 21 05:33 26.06.2020
817 Clouds 29 1016 74 10000 3.1 110 02:42 26.06.2020
818 Rain 29 1019 91 0 1.81 54 02:22 26.06.2020
819 Rain 30 1018 91 0 1.37 113 00:58 26.06.2020
820 Rain 30 1018 90 0 1.37 113 00:39 26.06.2020
821 Clouds 31 1015 59 10000 5.1 180 23:48 25.06.2020
822 Clouds 31 1015 59 10000 5.1 180 23:24 25.06.2020
823 Clouds 31 1015 62 10000 5.1 180 22:59 25.06.2020
824 Clouds 31 1015 62 10000 5.1 180 22:40 25.06.2020
825 Clouds 31 1015 62 10000 5.1 180 22:40 25.06.2020
826 Clouds 31 1015 62 10000 5.1 180 22:21 25.06.2020
827 Rain 31 1016 66 8000 5.1 150 21:58 25.06.2020
828 Rain 31 1016 66 8000 5.1 150 21:40 25.06.2020
829 Rain 31 1016 66 8000 5.1 150 21:21 25.06.2020
830 Clouds 32 1017 52 10000 6.2 180 20:59 25.06.2020
831 Clouds 32 1017 52 10000 6.2 180 20:41 25.06.2020
832 Clouds 32 1017 52 10000 6.2 180 20:22 25.06.2020
833 Clouds 32 1017 59 10000 5.1 180 19:56 25.06.2020
834 Clouds 32 1017 59 10000 5.1 180 19:37 25.06.2020
835 Clouds 32 1017 62 10000 5.1 90 19:18 25.06.2020
836 Clouds 32 1017 62 10000 5.1 90 18:40 25.06.2020
837 Clouds 32 1017 62 10000 5.1 90 18:21 25.06.2020
838 Clouds 31 1018 62 10000 5.1 40 17:55 25.06.2020
839 Clouds 31 1018 62 10000 5.1 40 17:37 25.06.2020
840 Clouds 31 1018 62 10000 5.1 40 17:18 25.06.2020
841 Clouds 30 1018 70 10000 2.69 96 16:40 25.06.2020
842 Clouds 30 1018 70 10000 2.22 63 16:20 25.06.2020
843 Clouds 30 1017 79 10000 2.6 40 15:45 25.06.2020
844 Clouds 29 1017 79 10000 2.6 40 15:27 25.06.2020
845 Clouds 28 1016 83 10000 2.03 18 14:57 25.06.2020
846 Clouds 28 1016 83 10000 2.03 18 14:39 25.06.2020
847 Clouds 28 1016 83 10000 2.06 355 14:21 25.06.2020
848 Clouds 28 1020 95 0 2.06 355 13:55 25.06.2020
849 Clouds 27 1019 97 0 2.06 355 13:37 25.06.2020
850 Rain 27 1019 97 0 2.38 340 13:19 25.06.2020
851 Rain 27 1019 100 0 2.38 340 12:43 25.06.2020
852 Clouds 25 1015 94 10000 2.1 40 12:20 25.06.2020
853 Clouds 25 1015 94 10000 2.1 40 11:44 25.06.2020
854 Clouds 25 1015 94 10000 2.1 40 11:25 25.06.2020
855 Rain 26 1016 86 0 2.57 343 10:58 25.06.2020
856 Rain 26 1016 85 0 2.57 343 10:40 25.06.2020
857 Rain 27 1015 80 0 1.34 44 10:21 25.06.2020
858 Rain 26 1015 85 0 2.91 348 09:41 25.06.2020
859 Clouds 26 1015 88 10000 2.72 358 09:23 25.06.2020
860 Clouds 26 1015 88 10000 2.72 358 08:47 25.06.2020
861 Clouds 27 1015 88 10000 2.74 357 08:20 25.06.2020
862 Rain 27 1016 78 0 1.34 58 07:46 25.06.2020
863 Rain 27 1016 79 0 2.24 39 07:28 25.06.2020
864 Rain 27 1016 82 0 2.58 0 06:53 25.06.2020
865 Clouds 27 1016 83 10000 2.1 50 06:27 25.06.2020
866 Clouds 27 1016 83 10000 2.1 50 05:51 25.06.2020
867 Rain 28 1018 90 0 3.07 20 04:29 25.06.2020
868 Rain 29 1018 90 0 3.07 20 03:34 25.06.2020
869 Rain 29 1017 94 0 3.5 25 02:42 25.06.2020
870 Rain 29 1017 95 0 4.24 35 01:59 25.06.2020
871 Rain 29 1016 95 0 4.41 51 01:26 25.06.2020
872 Clouds 30 1013 70 10000 2.6 100 00:44 25.06.2020
873 Clouds 30 1014 62 10000 5.1 360 00:21 25.06.2020
874 Clouds 30 1014 62 10000 5.1 360 23:44 24.06.2020
875 Clouds 30 1014 62 10000 5.1 360 23:26 24.06.2020
876 Clouds 31 1014 59 10000 5.1 360 22:59 24.06.2020
877 Clouds 31 1014 59 10000 5.1 360 22:41 24.06.2020
878 Clouds 31 1014 59 10000 5.1 360 22:20 24.06.2020
879 Clouds 32 1015 52 10000 5.1 360 21:56 24.06.2020
880 Clouds 32 1015 52 10000 5.1 360 21:37 24.06.2020
881 Clouds 32 1015 52 10000 5.1 360 21:18 24.06.2020
882 Clouds 32 1015 52 10000 4.1 20 20:58 24.06.2020
883 Clouds 32 1015 52 10000 4.1 20 20:38 24.06.2020
884 Clouds 32 1015 52 10000 4.1 20 20:20 24.06.2020
885 Clouds 33 1015 50 10000 5.1 20 19:56 24.06.2020
886 Clouds 33 1015 50 10000 5.1 20 19:36 24.06.2020
887 Clouds 33 1015 50 10000 5.1 20 19:18 24.06.2020
888 Clouds 33 1016 56 10000 6.2 360 18:57 24.06.2020
889 Clouds 33 1016 56 10000 6.2 360 18:38 24.06.2020
890 Clouds 34 1016 56 10000 6.2 360 18:19 24.06.2020
891 Clouds 33 1018 78 0 3.05 52 17:43 24.06.2020
892 Clouds 32 1017 66 10000 5.1 360 17:21 24.06.2020
893 Clouds 32 1017 66 10000 5.1 360 16:59 24.06.2020
894 Clouds 31 1017 66 10000 5.1 360 16:40 24.06.2020
895 Clouds 31 1017 66 10000 5.1 360 16:22 24.06.2020
896 Clouds 30 1016 74 10000 5.1 360 15:58 24.06.2020
897 Clouds 30 1016 74 10000 5.1 360 15:39 24.06.2020
898 Clouds 29 1016 74 10000 5.1 360 15:20 24.06.2020
899 Clouds 28 1016 88 10000 4.1 360 14:54 24.06.2020
900 Clouds 28 1016 88 10000 4.1 360 14:36 24.06.2020
901 Dust 28 1015 88 5000 2.1 360 14:18 24.06.2020
902 Dust 27 1015 88 5000 2.1 360 13:41 24.06.2020
903 Dust 27 1015 88 5000 2.1 360 13:20 24.06.2020
904 Clear 27 1016 81 0 1.34 1 12:41 24.06.2020
905 Dust 26 1015 88 5000 2.1 10 12:21 24.06.2020
906 Dust 26 1015 88 5000 2.1 10 11:57 24.06.2020
907 Dust 26 1015 88 5000 2.1 10 11:39 24.06.2020
908 Dust 26 1015 88 5000 2.1 10 11:21 24.06.2020
909 Clear 27 1015 81 0 1.34 346 10:44 24.06.2020
910 Clear 27 1015 83 0 2.83 341 10:19 24.06.2020
911 Clear 27 1015 82 0 2.83 341 09:45 24.06.2020
912 Dust 27 1018 83 5000 2.1 20 09:23 24.06.2020
913 Dust 27 1018 83 5000 2.1 20 08:54 24.06.2020
914 Dust 27 1018 83 5000 2.1 20 08:36 24.06.2020
915 Dust 27 1018 83 5000 2.1 20 08:18 24.06.2020
916 Clear 28 1015 80 0 1.79 14 07:42 24.06.2020
917 Clear 28 1015 80 0 1.79 16 07:23 24.06.2020
918 Clear 27 1015 82 0 2.88 352 06:40 24.06.2020
919 Dust 27 1015 83 5000 2.6 40 06:22 24.06.2020
920 Dust 27 1015 83 5000 2.6 40 05:38 24.06.2020
921 Clear 25 1016 81 0 2.95 10 04:38 24.06.2020
922 Dust 30 1014 74 3000 3.07 18 03:37 24.06.2020
923 Dust 30 1014 74 3000 2.84 33 02:53 24.06.2020
924 Dust 30 1014 74 3000 2.1 130 01:59 24.06.2020
925 Dust 30 1013 66 3000 5.1 100 00:51 24.06.2020
926 Dust 31 1014 66 2000 4.1 160 00:33 24.06.2020
927 Dust 31 1014 66 2000 4.1 160 23:47 23.06.2020
928 Dust 31 1014 66 2000 4.1 160 23:21 23.06.2020
929 Dust 32 1014 63 2000 4.1 170 22:57 23.06.2020
930 Dust 32 1014 63 2000 4.1 170 22:39 23.06.2020
931 Dust 32 1014 63 2000 4.1 170 22:18 23.06.2020
932 Dust 33 1014 59 2000 5.1 180 21:42 23.06.2020
933 Dust 32 1014 59 2000 5.1 180 21:20 23.06.2020
934 Dust 33 1015 53 2000 4.1 110 20:56 23.06.2020
935 Dust 33 1015 53 2000 4.1 110 20:38 23.06.2020
936 Dust 33 1015 53 2000 4.1 110 20:19 23.06.2020
937 Dust 33 1016 56 2000 3.12 91 19:49 23.06.2020
938 Dust 33 1016 56 2000 3.14 71 19:28 23.06.2020
939 Dust 32 1017 59 2000 3.1 80 18:55 23.06.2020
940 Dust 33 1017 59 2000 3.1 80 18:37 23.06.2020
941 Dust 33 1017 59 2000 3.1 80 18:18 23.06.2020
942 Dust 33 1017 59 2000 3.1 60 17:39 23.06.2020
943 Dust 33 1017 59 2000 3.1 60 17:21 23.06.2020
944 Dust 32 1017 66 5000 3.1 60 16:56 23.06.2020
945 Dust 32 1017 66 5000 3.1 60 16:38 23.06.2020
946 Dust 32 1017 66 5000 3.1 60 16:38 23.06.2020
947 Dust 31 1017 66 5000 3.1 60 16:20 23.06.2020
948 Dust 30 1018 74 5000 3.1 30 15:45 23.06.2020
949 Dust 30 1018 74 5000 3.1 30 15:25 23.06.2020
950 Dust 29 1017 83 5000 3.47 28 14:59 23.06.2020
951 Dust 28 1017 83 5000 3.47 28 14:41 23.06.2020
952 Dust 28 1017 83 5000 3.23 352 14:18 23.06.2020
953 Dust 27 1016 94 3000 2.1 40 13:55 23.06.2020
954 Dust 27 1016 94 3000 2.1 40 13:37 23.06.2020
955 Dust 27 1016 94 3000 2.1 40 13:19 23.06.2020
956 Clouds 27 1017 84 0 0.89 331 12:41 23.06.2020
957 Dust 26 1016 88 4000 1.5 0 12:22 23.06.2020
958 Dust 26 1016 88 4000 1.5 0 11:54 23.06.2020
959 Clouds 27 1016 86 0 2.8 340 11:36 23.06.2020
960 Clouds 27 1016 86 0 2.55 341 11:18 23.06.2020
961 Clouds 27 1016 85 0 2.55 341 10:41 23.06.2020
962 Clear 27 1016 85 0 2.2 345 10:22 23.06.2020
963 Clear 27 1016 85 0 2.2 345 09:59 23.06.2020
964 Clear 28 1016 83 0 1.34 354 09:41 23.06.2020
965 Dust 27 1016 88 4000 2.1 50 09:20 23.06.2020
966 Dust 27 1016 88 4000 2.1 50 08:47 23.06.2020
967 Dust 28 1016 88 4000 2.1 50 08:27 23.06.2020
968 Clouds 28 1017 80 0 1.79 31 07:56 23.06.2020
969 Clouds 28 1017 80 0 1.79 35 07:38 23.06.2020
970 Clouds 28 1017 80 0 1.75 16 07:19 23.06.2020
971 Clouds 28 1017 80 0 1.75 16 07:19 23.06.2020
972 Clouds 28 1017 80 0 1.75 16 06:43 23.06.2020
973 Dust 28 1018 83 4000 2.1 60 06:25 23.06.2020
974 Dust 28 1018 83 4000 2.1 60 05:29 23.06.2020
975 Dust 29 1016 74 4000 3.1 120 03:23 23.06.2020
976 Dust 29 1016 74 4000 3.1 120 02:53 23.06.2020
977 Dust 29 1016 74 4000 3.1 120 02:34 23.06.2020
978 Dust 30 1016 70 4000 4.1 130 01:46 23.06.2020
979 Dust 30 1016 70 4000 4.1 130 01:25 23.06.2020
980 Dust 30 1016 66 4000 4.1 130 00:49 23.06.2020
981 Dust 31 1016 63 3000 6.2 160 00:21 23.06.2020
982 Dust 31 1016 63 3000 6.2 160 23:55 22.06.2020
983 Dust 32 1016 63 3000 6.2 160 23:36 22.06.2020
984 Dust 32 1016 63 3000 6.2 160 23:18 22.06.2020
985 Dust 33 1016 56 3000 5.1 170 22:55 22.06.2020
986 Dust 33 1016 56 3000 5.1 170 22:36 22.06.2020
987 Dust 33 1016 56 3000 5.1 170 22:18 22.06.2020
988 Dust 33 1016 53 4000 7.2 180 21:41 22.06.2020
989 Dust 33 1016 53 4000 7.2 180 21:22 22.06.2020
990 Dust 33 1017 50 4000 3.1 180 20:59 22.06.2020
991 Dust 33 1017 50 4000 3.1 180 20:41 22.06.2020
992 Dust 34 1017 50 4000 3.1 180 20:21 22.06.2020
993 Dust 33 1018 53 4000 4.05 141 19:44 22.06.2020
994 Dust 33 1019 59 5000 5.1 60 19:20 22.06.2020
995 Dust 33 1019 59 5000 5.1 60 18:58 22.06.2020
996 Dust 33 1019 59 5000 5.1 60 18:38 22.06.2020
997 Dust 33 1019 59 5000 5.1 60 18:20 22.06.2020
998 Clouds 32 1019 63 10000 5.1 40 17:56 22.06.2020
999 Clouds 33 1019 63 10000 5.1 40 17:37 22.06.2020
1000 Clouds 33 1019 63 10000 5.1 40 17:19 22.06.2020
1001 Clouds 32 1019 66 10000 5.1 30 16:43 22.06.2020
1002 Clouds 31 1019 66 10000 5.1 30 16:20 22.06.2020
1003 Dust 31 1019 70 10000 2.6 50 15:59 22.06.2020
1004 Dust 30 1019 70 10000 2.6 50 15:39 22.06.2020
1005 Dust 30 1019 70 10000 2.6 50 15:21 22.06.2020
1006 Clouds 29 1019 79 10000 2.37 56 14:40 22.06.2020
1007 Clouds 29 1019 79 10000 1.48 59 14:21 22.06.2020
1008 Clouds 28 1018 88 10000 2.1 30 13:58 22.06.2020
1009 Clouds 28 1018 88 10000 2.1 30 13:39 22.06.2020
1010 Clouds 27 1018 88 10000 2.1 30 13:20 22.06.2020
1011 Rain 28 1018 82 0 0.89 16 12:44 22.06.2020
1012 Clouds 26 1017 94 10000 2.1 20 12:24 22.06.2020
1013 Clouds 26 1017 94 10000 2.1 20 11:59 22.06.2020
1014 Clouds 26 1017 94 10000 2.1 20 11:37 22.06.2020
1015 Clouds 27 1017 94 10000 2.1 20 11:18 22.06.2020
1016 Rain 28 1018 82 0 1.34 37 10:55 22.06.2020
1017 Rain 28 1018 82 0 1.34 9 10:36 22.06.2020
1018 Rain 28 1018 83 0 1.34 25 10:18 22.06.2020
1019 Rain 28 1017 83 0 1.79 1 09:54 22.06.2020
1020 Clouds 27 1017 94 10000 1.5 50 09:36 22.06.2020
1021 Clouds 28 1017 94 10000 1.5 50 09:18 22.06.2020
1022 Clouds 28 1017 94 10000 1.5 50 08:39 22.06.2020
1023 Clouds 28 1017 94 10000 1.5 50 08:21 22.06.2020
1024 Clouds 28 1017 94 10000 1.5 50 08:20 22.06.2020
1025 Clouds 28 1017 94 10000 1.66 17 07:53 22.06.2020
1026 Clouds 28 1017 94 10000 1.66 17 07:33 22.06.2020
1027 Clouds 29 1018 83 0 1.34 54 06:47 22.06.2020
1028 Clouds 28 1018 88 10000 1.5 30 06:27 22.06.2020
1029 Clouds 28 1018 88 10000 1.5 30 05:58 22.06.2020
1030 Clouds 28 1018 88 10000 1.5 30 05:30 22.06.2020
1031 Clouds 29 1016 83 10000 0.44 113 02:56 22.06.2020
1032 Clouds 30 1015 79 10000 2.1 130 01:34 22.06.2020
1033 Clouds 30 1015 79 10000 2.1 130 00:41 22.06.2020
1034 Clouds 31 1016 59 10000 6.2 180 00:18 22.06.2020
1035 Clouds 31 1016 59 10000 6.2 180 23:40 21.06.2020
1036 Clouds 31 1016 59 10000 6.2 180 23:22 21.06.2020
1037 Clouds 31 1016 59 10000 5.1 180 22:57 21.06.2020
1038 Clouds 32 1016 59 10000 5.1 180 22:38 21.06.2020
1039 Clouds 32 1016 59 10000 5.1 180 22:19 21.06.2020
1040 Clouds 33 1017 52 10000 6.2 180 21:59 21.06.2020
1041 Clouds 32 1017 52 10000 6.2 180 21:40 21.06.2020
1042 Clouds 33 1017 52 10000 6.2 180 21:21 21.06.2020
1043 Clouds 33 1017 52 10000 5.1 180 20:59 21.06.2020
1044 Clouds 33 1017 52 10000 5.1 180 20:38 21.06.2020
1045 Clouds 33 1017 52 10000 5.1 180 20:19 21.06.2020
1046 Clouds 32 1017 55 10000 5.1 180 19:56 21.06.2020
1047 Clouds 32 1017 55 10000 5.1 180 19:38 21.06.2020
1048 Clouds 32 1017 55 10000 5.1 180 19:19 21.06.2020
1049 Clouds 32 1018 59 10000 3.1 180 18:54 21.06.2020
1050 Clouds 32 1018 59 10000 3.1 180 18:54 21.06.2020
1051 Clouds 32 1018 59 10000 3.1 180 18:36 21.06.2020
1052 Clouds 32 1018 59 10000 3.1 180 18:18 21.06.2020
1053 Clouds 31 1018 66 10000 5.1 160 17:40 21.06.2020
1054 Clouds 31 1018 66 10000 5.1 160 17:40 21.06.2020
1055 Clouds 31 1018 66 10000 5.1 160 17:20 21.06.2020
1056 Clouds 31 1018 70 10000 3.1 30 16:43 21.06.2020
1057 Clouds 31 1018 70 10000 3.1 30 16:24 21.06.2020
1058 Clouds 30 1018 78 10000 1.82 78 15:59 21.06.2020
1059 Clouds 30 1018 78 10000 1.82 78 15:37 21.06.2020
1060 Clouds 28 1018 78 10000 2.29 30 15:19 21.06.2020
1061 Clouds 28 1017 83 10000 2.29 30 14:39 21.06.2020
1062 Clouds 28 1017 83 10000 2.45 356 14:20 21.06.2020
1063 Clouds 27 1017 83 10000 2.1 20 13:59 21.06.2020
1064 Clouds 27 1017 83 10000 2.1 20 13:59 21.06.2020
1065 Clouds 27 1017 83 10000 2.1 20 13:41 21.06.2020
1066 Clouds 27 1017 83 10000 2.1 20 13:22 21.06.2020
1067 Clear 27 1018 79 0 1.34 353 12:54 21.06.2020
1068 Clouds 26 1016 88 10000 2.62 336 12:36 21.06.2020
1069 Clouds 26 1016 88 10000 2.68 333 12:18 21.06.2020
1070 Clouds 26 1016 88 10000 2.68 333 11:41 21.06.2020
1071 Clouds 26 1016 88 10000 2.55 330 11:23 21.06.2020
1072 Clear 26 1016 79 0 1.34 351 10:58 21.06.2020
1073 Clear 26 1016 79 0 0.89 346 10:39 21.06.2020
1074 Clear 26 1017 79 0 1.34 347 10:20 21.06.2020
1075 Clear 26 1016 79 0 1.79 3 09:44 21.06.2020
1076 Clouds 26 1017 88 10000 2.1 30 09:22 21.06.2020
1077 Clouds 26 1017 88 10000 2.1 30 08:57 21.06.2020
1078 Clouds 26 1017 88 10000 2.1 30 08:39 21.06.2020
1079 Clouds 26 1017 88 10000 2.1 30 08:19 21.06.2020
1080 Clear 27 1017 81 0 1.48 2 07:42 21.06.2020
1081 Clear 27 1017 80 0 1.13 17 07:23 21.06.2020
1082 Clear 27 1017 80 0 1.13 17 06:50 21.06.2020
1083 Clouds 27 1017 83 10000 3.1 60 06:28 21.06.2020
1084 Clouds 27 1017 83 10000 3.1 60 05:57 21.06.2020
1085 Clear 29 1017 77 0 1.34 61 04:34 21.06.2020
1086 Clouds 29 1015 78 10000 3.1 140 03:19 21.06.2020
1087 Clouds 29 1015 78 10000 3.1 140 02:33 21.06.2020
1088 Clouds 29 1015 66 10000 4.1 150 01:37 21.06.2020
1089 Clouds 30 1015 66 10000 4.1 150 01:18 21.06.2020
1090 Clouds 31 1015 59 10000 3.1 150 00:42 21.06.2020
1091 Clouds 31 1015 59 10000 6.2 180 00:23 21.06.2020
1092 Clouds 31 1015 59 10000 6.2 180 23:45 20.06.2020
1093 Clouds 32 1015 59 10000 6.2 180 23:22 20.06.2020
1094 Clouds 31 1015 59 10000 4.1 160 22:57 20.06.2020
1095 Clouds 32 1015 59 10000 4.1 160 22:39 20.06.2020
1096 Clouds 32 1015 59 10000 4.1 160 22:20 20.06.2020
1097 Clouds 32 1015 59 10000 6.2 180 21:58 20.06.2020
1098 Clouds 32 1015 59 10000 6.2 180 21:39 20.06.2020
1099 Clouds 32 1015 59 10000 6.2 180 21:20 20.06.2020
1100 Clouds 32 1015 59 10000 6.2 180 21:20 20.06.2020
1101 Clouds 32 1015 62 10000 5.1 180 20:58 20.06.2020
1102 Clouds 32 1015 62 10000 5.1 180 20:40 20.06.2020
1103 Clouds 31 1015 62 10000 5.1 180 20:20 20.06.2020
1104 Clouds 32 1016 62 10000 6.2 180 19:55 20.06.2020
1105 Clouds 32 1016 62 10000 6.2 180 19:37 20.06.2020
1106 Clouds 32 1016 62 10000 6.2 180 19:19 20.06.2020
1107 Clouds 31 1016 66 10000 6.2 130 18:42 20.06.2020
1108 Clouds 31 1016 66 10000 6.2 130 18:20 20.06.2020
1109 Clouds 31 1017 66 10000 5.1 90 17:57 20.06.2020
1110 Clouds 31 1017 66 10000 5.1 90 17:57 20.06.2020
1111 Clouds 31 1017 66 10000 5.1 90 17:39 20.06.2020
1112 Clouds 31 1017 66 10000 5.1 90 17:20 20.06.2020
1113 Clouds 30 1017 74 10000 2.6 90 16:42 20.06.2020
1114 Clouds 30 1017 74 10000 2.6 90 16:19 20.06.2020
1115 Clouds 29 1016 83 10000 2.6 40 15:57 20.06.2020
1116 Clouds 29 1016 83 10000 2.6 40 15:39 20.06.2020
1117 Clouds 29 1016 83 10000 2.6 40 15:18 20.06.2020
1118 Clouds 28 1016 88 10000 2.34 19 14:42 20.06.2020
1119 Clouds 28 1016 88 10000 2.03 355 14:21 20.06.2020
1120 Clouds 27 1016 88 10000 2.1 20 13:42 20.06.2020
1121 Clouds 27 1016 88 10000 2.1 20 13:21 20.06.2020
1122 Clear 26 1016 81 0 1.34 5 12:57 20.06.2020
1123 Clouds 26 1016 83 10000 2.1 20 12:38 20.06.2020
1124 Clouds 26 1016 83 10000 2.1 20 12:19 20.06.2020
1125 Clouds 26 1016 83 10000 2.1 20 11:41 20.06.2020
1126 Clouds 26 1016 83 10000 2.1 20 11:21 20.06.2020
1127 Clear 26 1016 86 0 1.98 334 10:59 20.06.2020
1128 Clear 26 1016 86 0 1.98 334 10:41 20.06.2020
1129 Clear 26 1016 86 0 1.85 339 10:20 20.06.2020
1130 Clear 26 1016 86 0 1.85 339 09:43 20.06.2020
1131 Clouds 26 1016 94 10000 2.1 60 09:25 20.06.2020
1132 Clouds 26 1016 94 10000 2.1 60 08:58 20.06.2020
1133 Clouds 26 1016 94 10000 2.1 60 08:39 20.06.2020
1134 Clouds 26 1016 94 10000 2.1 60 08:21 20.06.2020
1135 Clear 27 1016 82 0 1.39 353 07:50 20.06.2020
1136 Clear 27 1017 81 0 1.79 90 07:25 20.06.2020
1137 Clear 28 1017 79 0 2.24 65 06:49 20.06.2020
1138 Clouds 28 1017 83 10000 3.1 80 06:21 20.06.2020
1139 Clouds 27 1017 83 10000 3.1 80 05:48 20.06.2020
1140 Clear 29 1017 79 0 2.24 106 03:55 20.06.2020
1141 Clouds 30 1015 74 10000 3.6 130 01:55 20.06.2020
1142 Clouds 30 1015 74 10000 3.6 130 01:37 20.06.2020
1143 Clouds 30 1014 70 10000 4.1 140 00:47 20.06.2020
1144 Clouds 31 1015 59 10000 5.1 180 00:20 20.06.2020
1145 Clouds 31 1015 59 10000 5.1 180 23:44 19.06.2020
1146 Clouds 31 1015 59 10000 5.1 180 23:20 19.06.2020
1147 Clouds 32 1015 55 10000 5.7 180 22:56 19.06.2020
1148 Clouds 32 1015 55 10000 5.7 180 22:37 19.06.2020
1149 Clouds 32 1015 55 10000 5.7 180 22:19 19.06.2020
1150 Clouds 32 1015 52 10000 5.1 180 21:55 19.06.2020
1151 Clouds 32 1015 52 10000 5.1 180 21:37 19.06.2020
1152 Clouds 32 1015 52 10000 5.1 180 21:18 19.06.2020
1153 Clouds 33 1016 50 10000 6.2 180 20:56 19.06.2020
1154 Clouds 33 1016 50 10000 6.2 180 20:38 19.06.2020
1155 Clouds 33 1016 50 10000 6.2 180 20:20 19.06.2020
1156 Clouds 32 1016 52 10000 5.1 180 19:54 19.06.2020
1157 Clouds 32 1016 52 10000 5.1 180 19:36 19.06.2020
1158 Clouds 32 1016 52 10000 5.1 180 19:18 19.06.2020
1159 Clouds 32 1016 59 10000 2.1 100 18:40 19.06.2020
1160 Clouds 32 1016 59 10000 2.1 100 18:21 19.06.2020
1161 Clouds 31 1017 62 10000 3.1 90 17:42 19.06.2020
1162 Clouds 31 1017 62 10000 3.1 90 17:23 19.06.2020
1163 Clouds 31 1016 70 10000 2.1 130 16:58 19.06.2020
1164 Clouds 31 1016 70 10000 2.1 130 16:40 19.06.2020
1165 Clouds 30 1016 70 10000 2.1 130 16:22 19.06.2020
1166 Clouds 26 1016 100 10000 2.55 92 15:47 19.06.2020
1167 Clouds 23 1016 100 10000 1.9 48 15:27 19.06.2020
1168 Clouds 28 1017 83 10000 2.1 30 14:58 19.06.2020
1169 Clouds 28 1017 83 10000 2.1 30 14:40 19.06.2020
1170 Clouds 28 1017 83 10000 2.1 30 14:21 19.06.2020
1171 Clouds 27 1016 100 10000 2.1 40 13:58 19.06.2020
1172 Clouds 26 1016 100 10000 2.1 40 13:40 19.06.2020
1173 Clouds 26 1016 100 10000 2.1 40 13:22 19.06.2020
1174 Clouds 26 1017 84 0 1.34 9 12:45 19.06.2020
1175 Clouds 26 1015 88 10000 2.1 30 12:22 19.06.2020
1176 Clouds 26 1015 88 10000 2.1 30 11:56 19.06.2020
1177 Clouds 25 1015 88 10000 2.1 30 11:36 19.06.2020
1178 Clouds 26 1015 88 10000 2.1 30 11:18 19.06.2020
1179 Rain 26 1015 83 0 1.34 13 10:41 19.06.2020
1180 Clouds 26 1015 84 0 1.34 10 10:21 19.06.2020
1181 Clouds 26 1015 83 0 0.89 3 09:55 19.06.2020
1182 Clouds 26 1015 88 10000 2.1 50 09:37 19.06.2020
1183 Clouds 26 1015 88 10000 2.1 50 09:18 19.06.2020
1184 Clouds 26 1015 88 10000 2.1 50 08:41 19.06.2020
1185 Clouds 26 1015 88 10000 2.1 50 08:23 19.06.2020
1186 Clouds 27 1016 81 0 1.34 35 07:41 19.06.2020
1187 Clouds 27 1016 81 0 0.89 44 07:22 19.06.2020
1188 Clouds 27 1016 80 0 0.89 39 06:50 19.06.2020
1189 Clouds 27 1016 83 10000 1.1 56 06:22 19.06.2020
1190 Clouds 28 1016 83 10000 1.05 63 05:29 19.06.2020
1191 Clouds 28 1016 82 0 1.79 115 03:50 19.06.2020
1192 Clouds 29 1015 78 10000 3.1 80 02:22 19.06.2020
1193 Clouds 29 1013 74 10000 6.2 150 00:45 19.06.2020
1194 Clouds 29 1013 74 10000 6.2 150 00:45 19.06.2020
1195 Clouds 30 1014 66 10000 5.1 180 00:22 19.06.2020
1196 Clouds 30 1014 66 10000 5.1 180 00:22 19.06.2020
1197 Clouds 30 1014 66 10000 5.1 180 23:58 18.06.2020
1198 Clouds 30 1014 66 10000 5.1 180 23:39 18.06.2020
1199 Clouds 30 1014 66 10000 5.1 180 23:21 18.06.2020
1200 Clouds 31 1014 62 10000 7.2 180 22:41 18.06.2020
1201 Clouds 31 1014 62 10000 7.2 180 22:20 18.06.2020
1202 Clouds 32 1015 59 10000 7.2 180 21:57 18.06.2020
1203 Clouds 32 1015 59 10000 7.2 180 21:38 18.06.2020
1204 Clouds 32 1015 59 10000 7.2 180 21:19 18.06.2020
1205 Clouds 32 1015 52 10000 6.2 180 20:41 18.06.2020
1206 Clouds 32 1015 52 10000 6.2 180 20:22 18.06.2020
1207 Clouds 32 1015 52 10000 4.1 150 19:58 18.06.2020
1208 Clouds 32 1015 52 10000 4.1 150 19:40 18.06.2020
1209 Clouds 32 1015 52 10000 4.1 150 19:20 18.06.2020
1210 Clouds 32 1016 59 10000 3.1 60 18:41 18.06.2020
1211 Clouds 32 1016 59 10000 3.1 60 18:23 18.06.2020
1212 Clouds 31 1016 62 10000 3.1 60 17:55 18.06.2020
1213 Clouds 31 1016 62 10000 3.1 60 17:37 18.06.2020
1214 Clouds 30 1016 62 10000 3.1 60 17:19 18.06.2020
1215 Clouds 30 1016 66 10000 3.1 30 16:43 18.06.2020
1216 Clouds 30 1016 66 10000 3.1 30 16:25 18.06.2020
1217 Clouds 30 1016 66 10000 3.1 30 16:25 18.06.2020
1218 Clouds 29 1016 74 10000 3.19 33 15:58 18.06.2020
1219 Clouds 30 1016 74 10000 3.19 33 15:39 18.06.2020
1220 Clouds 29 1016 74 10000 3.13 25 15:20 18.06.2020
1221 Clouds 28 1016 83 10000 3.1 330 14:57 18.06.2020
1222 Clouds 28 1016 83 10000 3.1 330 14:38 18.06.2020
1223 Clouds 27 1016 83 10000 3.1 330 14:20 18.06.2020
1224 Clouds 27 1015 88 10000 1.5 0 13:47 18.06.2020
1225 Clouds 26 1015 88 10000 1.5 0 13:28 18.06.2020
1226 Clear 26 1016 82 0 1.34 339 12:57 18.06.2020
1227 Clouds 25 1015 94 10000 2.6 30 12:39 18.06.2020
1228 Clouds 25 1015 94 10000 2.6 30 12:39 18.06.2020
1229 Clouds 25 1015 94 10000 2.6 30 12:20 18.06.2020
1230 Clouds 25 1015 94 10000 2.6 30 11:57 18.06.2020
1231 Clouds 25 1015 94 10000 2.6 30 11:38 18.06.2020
1232 Clouds 26 1015 94 10000 2.6 30 11:18 18.06.2020
1233 Rain 26 1015 84 0 1.79 28 10:40 18.06.2020
1234 Rain 26 1015 84 0 1.79 28 10:18 18.06.2020
1235 Rain 26 1015 84 0 1.79 21 09:46 18.06.2020
1236 Clouds 26 1016 88 10000 3.1 40 09:27 18.06.2020
1237 Clouds 26 1016 88 10000 3.1 40 08:57 18.06.2020
1238 Clouds 26 1016 88 10000 3.1 40 08:37 18.06.2020
1239 Clouds 26 1016 88 10000 3.1 40 08:19 18.06.2020
1240 Clouds 27 1016 82 0 1.34 43 07:44 18.06.2020
1241 Clouds 27 1016 82 0 1.79 40 07:25 18.06.2020
1242 Clouds 27 1017 83 10000 3.1 40 06:37 18.06.2020
1243 Clouds 28 1017 83 10000 3.1 40 05:25 18.06.2020
1244 Rain 28 1017 77 0 1.79 62 04:18 18.06.2020
1245 Clouds 29 1015 70 10000 4.1 120 01:44 18.06.2020
1246 Clouds 29 1015 70 10000 4.1 120 01:22 18.06.2020
1247 Clouds 30 1014 66 10000 4.1 120 00:52 18.06.2020
1248 Clouds 29 1015 88 0 1.97 136 00:30 18.06.2020
1249 Clouds 29 1015 88 0 2.62 147 23:55 17.06.2020
1250 Clouds 29 1015 88 0 2.62 147 23:36 17.06.2020
1251 Clouds 29 1015 88 0 3.09 151 23:18 17.06.2020
1252 Clouds 31 1015 62 10000 7.2 180 22:54 17.06.2020
1253 Clouds 31 1015 62 10000 7.2 180 22:36 17.06.2020
1254 Clouds 31 1015 62 10000 7.2 180 22:18 17.06.2020
1255 Clouds 32 1013 59 10000 5.1 180 21:40 17.06.2020
1256 Clouds 32 1013 59 10000 5.1 180 21:21 17.06.2020
1257 Clouds 32 1016 59 10000 5.1 180 20:56 17.06.2020
1258 Clouds 32 1016 59 10000 5.1 180 20:37 17.06.2020
1259 Clouds 32 1016 59 10000 5.1 180 20:19 17.06.2020
1260 Clouds 31 1016 62 10000 6.7 150 19:43 17.06.2020
1261 Clouds 31 1016 62 10000 6.7 150 19:21 17.06.2020
1262 Clouds 31 1016 66 10000 2.6 120 18:56 17.06.2020
1263 Clouds 31 1016 66 10000 2.6 120 18:37 17.06.2020
1264 Clouds 31 1016 66 10000 2.6 120 18:37 17.06.2020
1265 Clouds 31 1016 66 10000 2.6 120 18:19 17.06.2020
1266 Clouds 31 1017 66 10000 2.6 60 17:42 17.06.2020
1267 Rain 31 1017 66 10000 2.6 60 17:21 17.06.2020
1268 Rain 30 1017 78 10000 1.58 91 16:56 17.06.2020
1269 Rain 29 1017 78 10000 1.58 91 16:38 17.06.2020
1270 Clouds 29 1017 78 10000 1.43 68 16:19 17.06.2020
1271 Clouds 28 1016 78 10000 1.5 0 15:40 17.06.2020
1272 Clouds 27 1017 94 10000 1.72 42 15:21 17.06.2020
1273 Clouds 26 1017 94 10000 1.72 42 14:58 17.06.2020
1274 Clouds 26 1017 94 10000 1.72 42 14:40 17.06.2020
1275 Clouds 26 1017 94 10000 1.95 4 14:20 17.06.2020
1276 Clouds 25 1016 88 10000 1.95 4 13:58 17.06.2020
1277 Rain 25 1016 88 10000 1.95 4 13:40 17.06.2020
1278 Rain 25 1016 88 10000 2.16 349 13:21 17.06.2020
1279 Rain 24 1016 94 10000 2.16 349 12:55 17.06.2020
1280 Rain 24 1016 94 8000 2.16 349 12:36 17.06.2020
1281 Rain 24 1016 94 8000 2.13 352 12:18 17.06.2020
1282 Clouds 25 1015 94 10000 2.6 40 11:43 17.06.2020
1283 Clouds 25 1015 94 10000 2.6 40 11:23 17.06.2020
1284 Rain 26 1016 81 0 2.24 75 10:39 17.06.2020
1285 Rain 26 1016 82 0 2.24 66 10:19 17.06.2020
1286 Rain 26 1016 82 0 2.24 66 10:19 17.06.2020
1287 Rain 27 1016 85 0 1.99 348 09:58 17.06.2020
1288 Rain 27 1016 85 0 1.99 348 09:58 17.06.2020
1289 Rain 27 1016 84 0 1.99 348 09:40 17.06.2020
1290 Clouds 26 1015 83 10000 3.1 50 09:21 17.06.2020
1291 Clouds 25 1015 83 10000 3.1 50 08:47 17.06.2020
1292 Clouds 25 1015 83 10000 3.1 50 08:21 17.06.2020
1293 Rain 25 1016 85 0 1.74 355 07:57 17.06.2020
1294 Rain 25 1016 85 0 1.74 355 07:39 17.06.2020
1295 Clouds 25 1017 84 0 1.75 356 07:21 17.06.2020
1296 Clouds 25 1017 84 0 1.75 356 06:55 17.06.2020
1297 Clouds 27 1016 78 10000 2.1 60 06:37 17.06.2020
1298 Clouds 27 1016 78 10000 2.1 60 06:19 17.06.2020
1299 Clouds 28 1017 78 0 1.38 5 04:56 17.06.2020
1300 Clouds 29 1015 74 10000 2.6 120 02:55 17.06.2020
1301 Clouds 29 1014 70 10000 2.6 150 01:29 17.06.2020
1302 Clouds 30 1015 66 10000 4.1 180 00:38 17.06.2020
1303 Clouds 30 1015 66 10000 4.1 180 00:20 17.06.2020
1304 Clouds 30 1015 66 10000 4.1 180 23:56 16.06.2020
1305 Clouds 30 1015 66 10000 4.1 180 23:37 16.06.2020
1306 Clouds 31 1015 66 10000 4.1 180 23:19 16.06.2020
1307 Clouds 31 1015 62 10000 4.1 180 22:54 16.06.2020
1308 Clouds 31 1015 62 10000 4.1 180 22:36 16.06.2020
1309 Clouds 31 1015 62 10000 4.1 180 22:18 16.06.2020
1310 Clouds 32 1015 59 10000 5.1 160 21:44 16.06.2020
1311 Clouds 32 1015 59 10000 5.1 160 21:23 16.06.2020
1312 Clouds 32 1016 55 10000 5.1 180 20:57 16.06.2020
1313 Clouds 32 1016 55 10000 5.1 180 20:39 16.06.2020
1314 Clouds 32 1016 55 10000 5.1 180 20:18 16.06.2020
1315 Clouds 32 1016 59 10000 5.1 160 19:56 16.06.2020
1316 Clouds 32 1016 59 10000 5.1 160 19:38 16.06.2020
1317 Clouds 32 1016 59 10000 5.1 160 19:19 16.06.2020
1318 Clouds 32 1017 62 10000 4.1 160 18:45 16.06.2020
1319 Clouds 32 1017 62 10000 4.1 160 18:45 16.06.2020
1320 Clouds 31 1017 62 10000 4.1 160 18:21 16.06.2020
1321 Clouds 31 1017 66 10000 5.1 90 17:58 16.06.2020
1322 Clouds 31 1017 66 10000 5.1 90 17:39 16.06.2020
1323 Clouds 31 1017 66 10000 5.1 90 17:21 16.06.2020
1324 Clouds 30 1017 70 10000 2.78 117 16:58 16.06.2020
1325 Clouds 30 1017 70 10000 2.78 117 16:40 16.06.2020
1326 Clouds 30 1017 70 10000 2.42 96 16:20 16.06.2020
1327 Clouds 29 1016 74 10000 2.42 96 15:57 16.06.2020
1328 Clouds 29 1016 74 10000 2.42 96 15:39 16.06.2020
1329 Clouds 28 1016 74 10000 1.87 52 15:21 16.06.2020
1330 Clouds 28 1016 83 10000 1.87 52 14:56 16.06.2020
1331 Clouds 27 1016 83 10000 1.87 52 14:37 16.06.2020
1332 Clouds 27 1016 83 10000 1.42 26 14:19 16.06.2020
1333 Clouds 26 1016 83 10000 2.1 60 13:45 16.06.2020
1334 Clouds 26 1016 83 10000 2.1 60 13:24 16.06.2020
1335 Clouds 26 1016 82 0 1.34 339 12:43 16.06.2020
1336 Clouds 26 1015 88 10000 2.1 40 12:23 16.06.2020
1337 Clouds 26 1015 88 10000 2.1 40 11:58 16.06.2020
1338 Clouds 26 1015 88 10000 2.1 40 11:40 16.06.2020
1339 Clouds 26 1015 88 10000 2.1 40 11:22 16.06.2020
1340 Clouds 26 1016 82 0 1.34 37 10:58 16.06.2020
1341 Clouds 26 1016 82 0 1.34 32 10:38 16.06.2020
1342 Rain 26 1016 81 0 1.79 51 10:20 16.06.2020
1343 Rain 26 1016 81 0 2.24 63 09:44 16.06.2020
1344 Clouds 26 1016 83 10000 2.1 60 09:22 16.06.2020
1345 Clouds 27 1016 83 10000 2.1 60 08:51 16.06.2020
1346 Clouds 27 1016 83 10000 2.1 60 08:32 16.06.2020
1347 Rain 27 1016 79 0 1.34 117 07:51 16.06.2020
1348 Rain 28 1016 77 0 0.89 99 07:29 16.06.2020
1349 Rain 28 1016 77 0 0.89 97 06:56 16.06.2020
1350 Clouds 28 1017 88 10000 0.35 348 06:33 16.06.2020
1351 Clouds 27 1017 88 10000 0.55 329 05:50 16.06.2020
1352 Rain 28 1017 78 0 0.45 139 04:54 16.06.2020
1353 Clouds 29 1017 78 0 0.89 159 03:55 16.06.2020
1354 Clouds 29 1015 74 10000 1.2 159 02:33 16.06.2020
1355 Clouds 29 1014 70 10000 5.1 140 01:33 16.06.2020
1356 Clouds 30 1014 66 10000 5.1 160 00:52 16.06.2020
1357 Clouds 30 1013 70 10000 5.1 180 00:22 16.06.2020
1358 Clouds 30 1013 70 10000 5.1 180 23:43 15.06.2020
1359 Clouds 31 1013 70 10000 5.1 180 23:24 15.06.2020
1360 Clouds 31 1013 66 10000 5.1 180 22:59 15.06.2020
1361 Clouds 31 1013 66 10000 5.1 180 22:41 15.06.2020
1362 Clouds 31 1013 66 10000 5.1 180 22:41 15.06.2020
1363 Clouds 31 1013 66 10000 5.1 180 22:21 15.06.2020
1364 Clouds 31 1013 62 10000 5.1 180 21:57 15.06.2020
1365 Clouds 31 1013 62 10000 5.1 180 21:38 15.06.2020
1366 Clouds 32 1013 62 10000 5.1 180 21:19 15.06.2020
1367 Clouds 32 1014 63 10000 6.2 180 20:57 15.06.2020
1368 Clouds 33 1014 63 10000 6.2 180 20:38 15.06.2020
1369 Clouds 33 1014 63 10000 6.2 180 20:19 15.06.2020
1370 Clouds 32 1014 66 10000 6.2 180 19:56 15.06.2020
1371 Clouds 32 1014 66 10000 6.2 180 19:38 15.06.2020
1372 Clouds 32 1014 66 10000 6.2 180 19:20 15.06.2020
1373 Clouds 32 1015 66 10000 6.2 180 18:56 15.06.2020
1374 Clouds 32 1015 66 10000 6.2 180 18:37 15.06.2020
1375 Clouds 32 1015 66 10000 6.2 180 18:19 15.06.2020
1376 Clouds 31 1015 70 10000 4.1 130 17:42 15.06.2020
1377 Clouds 31 1015 70 10000 4.1 130 17:22 15.06.2020
1378 Clouds 31 1016 66 10000 2.6 90 16:59 15.06.2020
1379 Clouds 31 1016 66 10000 2.6 90 16:40 15.06.2020
1380 Clouds 31 1016 66 10000 2.6 90 16:19 15.06.2020
1381 Clouds 30 1016 74 10000 1.96 85 15:56 15.06.2020
1382 Clouds 30 1016 74 10000 1.96 85 15:37 15.06.2020
1383 Clouds 29 1016 74 10000 1.65 54 15:18 15.06.2020
1384 Clouds 28 1015 83 10000 1.65 54 14:42 15.06.2020
1385 Clouds 28 1015 83 10000 1.64 22 14:21 15.06.2020
1386 Clouds 28 1015 83 10000 1.64 22 14:21 15.06.2020
1387 Clouds 28 1015 88 10000 3.1 40 13:59 15.06.2020
1388 Clouds 27 1015 88 10000 3.1 40 13:40 15.06.2020
1389 Clouds 27 1015 88 10000 3.1 40 13:22 15.06.2020
1390 Clouds 27 1015 81 0 1.34 33 12:56 15.06.2020
1391 Clouds 26 1015 88 10000 1.82 357 12:38 15.06.2020
1392 Clouds 26 1015 88 10000 1.27 356 12:19 15.06.2020
1393 Clouds 26 1015 88 10000 1.27 356 11:43 15.06.2020
1394 Clouds 26 1015 88 10000 1.37 343 11:24 15.06.2020
1395 Clouds 27 1015 81 0 0.89 334 10:44 15.06.2020
1396 Clouds 27 1015 81 0 0.89 10 10:22 15.06.2020
1397 Clouds 27 1015 82 0 1.42 346 09:48 15.06.2020
1398 Clouds 27 1015 88 10000 2.1 40 09:27 15.06.2020
1399 Clouds 27 1015 88 10000 2.1 40 08:58 15.06.2020
1400 Clouds 26 1015 88 10000 2.1 40 08:39 15.06.2020
1401 Clouds 26 1015 88 10000 2.1 40 08:39 15.06.2020
1402 Clouds 26 1015 88 10000 2.1 40 08:20 15.06.2020
1403 Clouds 27 1016 83 10000 2.1 30 07:45 15.06.2020
1404 Clouds 28 1016 83 10000 2.1 30 07:22 15.06.2020
1405 Clouds 28 1016 78 0 1.06 16 06:42 15.06.2020
1406 Thunderstorm 27 1016 78 10000 2.1 50 06:20 15.06.2020
1407 Thunderstorm 27 1016 78 10000 2.1 50 05:43 15.06.2020
1408 Thunderstorm 28 1016 78 10000 2.1 50 05:24 15.06.2020
1409 Thunderstorm 28 1016 78 10000 2.1 60 04:19 15.06.2020
1410 Clouds 29 1017 78 0 0.89 88 03:41 15.06.2020
1411 Thunderstorm 29 1015 78 10000 2.1 80 02:34 15.06.2020
1412 Clouds 29 1015 70 10000 2.1 120 01:53 15.06.2020
1413 Clouds 29 1015 70 10000 2.1 120 01:32 15.06.2020
1414 Clouds 29 1014 66 10000 3.1 140 00:58 15.06.2020
1415 Clouds 30 1013 62 10000 5.1 180 00:39 15.06.2020
1416 Clouds 30 1013 62 10000 5.1 180 00:19 15.06.2020
1417 Clouds 30 1013 62 10000 5.1 180 23:46 14.06.2020
1418 Clouds 31 1013 62 10000 5.1 180 23:24 14.06.2020
1419 Clouds 31 1013 59 10000 6.2 180 22:58 14.06.2020
1420 Clouds 31 1013 59 10000 6.2 180 22:39 14.06.2020
1421 Clouds 31 1013 59 10000 6.2 180 22:19 14.06.2020
1422 Clouds 32 1014 56 10000 6.2 180 21:57 14.06.2020
1423 Clouds 32 1014 56 10000 6.2 180 21:38 14.06.2020
1424 Clouds 32 1014 56 10000 6.2 180 21:19 14.06.2020
1425 Clouds 32 1014 56 10000 6.2 180 20:58 14.06.2020
1426 Clouds 32 1014 56 10000 6.2 180 20:38 14.06.2020
1427 Clouds 32 1014 56 10000 6.2 180 20:19 14.06.2020
1428 Clouds 32 1015 59 10000 5.1 180 19:57 14.06.2020
1429 Clouds 32 1015 59 10000 5.1 180 19:37 14.06.2020
1430 Clouds 32 1015 59 10000 5.1 180 19:19 14.06.2020
1431 Clouds 32 1015 63 10000 5.1 180 18:56 14.06.2020
1432 Clouds 32 1015 63 10000 5.1 180 18:56 14.06.2020
1433 Clouds 32 1015 63 10000 5.1 180 18:37 14.06.2020
1434 Clouds 32 1015 63 10000 5.1 180 18:19 14.06.2020
1435 Clouds 31 1016 70 10000 2.1 130 17:56 14.06.2020
1436 Clouds 31 1016 70 10000 2.1 130 17:38 14.06.2020
1437 Clouds 31 1016 70 10000 2.1 130 17:19 14.06.2020
1438 Clouds 30 1016 74 10000 3.1 170 16:40 14.06.2020
1439 Clouds 30 1016 74 10000 3.1 170 16:20 14.06.2020
1440 Clouds 29 1016 78 10000 2.75 140 15:58 14.06.2020
1441 Clouds 30 1016 78 10000 2.75 140 15:40 14.06.2020
1442 Clouds 29 1016 78 10000 1.95 131 15:18 14.06.2020
1443 Clouds 28 1015 88 10000 1.95 131 14:58 14.06.2020
1444 Clouds 28 1015 88 10000 1.95 131 14:58 14.06.2020
1445 Clouds 28 1015 88 10000 1.95 131 14:40 14.06.2020
1446 Clouds 28 1015 88 10000 1.02 106 14:19 14.06.2020
1447 Clouds 28 1015 82 0 0.89 116 13:42 14.06.2020
1448 Rain 28 1015 83 0 0.89 68 13:22 14.06.2020
1449 Rain 28 1015 83 0 0.89 68 13:22 14.06.2020
1450 Rain 27 1015 84 0 1.79 42 12:59 14.06.2020
1451 Rain 27 1014 85 0 1.34 107 12:41 14.06.2020
1452 Rain 27 1014 85 0 0.45 112 12:23 14.06.2020
1453 Rain 27 1014 84 0 0.89 119 11:59 14.06.2020
1454 Rain 28 1014 84 0 0.45 117 11:40 14.06.2020
1455 Rain 28 1014 83 0 0.89 130 11:22 14.06.2020
1456 Rain 27 1014 86 0 0.89 115 11:00 14.06.2020
1457 Rain 27 1014 86 0 1.34 104 10:40 14.06.2020
1458 Rain 27 1014 85 0 0.89 136 10:18 14.06.2020
1459 Rain 28 1014 84 0 0.89 122 09:44 14.06.2020
1460 Rain 28 1014 87 0 0.65 193 09:24 14.06.2020
1461 Rain 28 1014 87 0 0.89 178 08:43 14.06.2020
1462 Clouds 27 1014 87 0 0.45 179 08:22 14.06.2020
1463 Clouds 28 1014 85 0 0.89 219 07:55 14.06.2020
1464 Clouds 28 1014 82 0 1.34 182 07:35 14.06.2020
1465 Clouds 28 1015 87 0 0.45 139 06:58 14.06.2020
1466 Clouds 28 1015 83 10000 0.78 148 05:56 14.06.2020
1467 Clouds 28 1015 83 10000 0.78 148 05:34 14.06.2020
1468 Rain 27 1015 89 0 0.45 118 04:39 14.06.2020
1469 Rain 27 1015 86 0 0.45 227 03:55 14.06.2020
1470 Clouds 28 1013 78 10000 2.1 150 02:40 14.06.2020
1471 Clouds 28 1013 78 10000 2.1 150 02:18 14.06.2020
1472 Clouds 29 1013 74 10000 3.1 140 01:27 14.06.2020
1473 Clouds 30 1012 70 10000 2.6 150 00:47 14.06.2020
1474 Clouds 30 1012 66 10000 5.1 180 00:20 14.06.2020
1475 Clouds 30 1012 66 10000 5.1 180 00:20 14.06.2020
1476 Clouds 31 1012 66 10000 5.1 180 23:46 13.06.2020
1477 Clouds 31 1012 66 10000 5.1 180 23:26 13.06.2020
1478 Clouds 31 1012 62 10000 5.1 180 22:58 13.06.2020
1479 Clouds 31 1012 62 10000 5.1 180 22:38 13.06.2020
1480 Clouds 31 1012 62 10000 5.1 180 22:18 13.06.2020
1481 Clouds 31 1012 66 10000 6.2 180 21:57 13.06.2020
1482 Clouds 31 1012 66 10000 6.2 180 21:39 13.06.2020
1483 Clouds 31 1012 66 10000 6.2 180 21:21 13.06.2020
1484 Clouds 31 1012 59 10000 7.2 180 20:44 13.06.2020
1485 Clouds 31 1012 59 10000 7.2 180 20:20 13.06.2020
1486 Clouds 32 1013 59 10000 6.2 180 19:58 13.06.2020
1487 Clouds 32 1013 59 10000 6.2 180 19:37 13.06.2020
1488 Clouds 32 1013 59 10000 6.2 180 19:18 13.06.2020
1489 Clouds 31 1013 62 10000 5.1 180 18:55 13.06.2020
1490 Clouds 32 1013 62 10000 5.1 180 18:37 13.06.2020
1491 Clouds 32 1013 62 10000 5.1 180 18:18 13.06.2020
1492 Clouds 31 1015 70 10000 5.1 180 17:42 13.06.2020
1493 Clouds 31 1015 70 10000 5.1 180 17:23 13.06.2020
1494 Clouds 30 1014 74 10000 4.1 180 16:58 13.06.2020
1495 Clouds 31 1014 74 10000 4.1 180 16:40 13.06.2020
1496 Clouds 30 1014 74 10000 4.1 180 16:19 13.06.2020
1497 Clouds 30 1014 79 10000 2.6 120 15:59 13.06.2020
1498 Clouds 30 1014 79 10000 2.6 120 15:39 13.06.2020
1499 Clouds 29 1014 79 10000 2.6 120 15:20 13.06.2020
1500 Clouds 29 1013 83 10000 1.06 111 14:43 13.06.2020
1501 Clouds 29 1013 83 10000 0.62 16 14:22 13.06.2020
1502 Clouds 27 1013 100 10000 2.1 70 13:56 13.06.2020
1503 Clouds 26 1013 100 10000 2.1 70 13:37 13.06.2020
1504 Clouds 26 1013 100 10000 2.1 70 13:18 13.06.2020
1505 Rain 26 1012 100 8000 2.1 40 12:42 13.06.2020
1506 Rain 26 1012 100 8000 2.1 40 12:24 13.06.2020
1507 Clouds 25 1012 94 10000 2.1 50 11:40 13.06.2020
1508 Clouds 26 1012 94 10000 2.1 50 11:20 13.06.2020
1509 Clouds 27 1013 83 0 0.89 329 10:58 13.06.2020
1510 Clouds 27 1013 83 0 0.89 27 10:40 13.06.2020
1511 Clouds 27 1013 83 0 1.34 43 10:22 13.06.2020
1512 Clouds 27 1012 84 0 1.07 270 09:54 13.06.2020
1513 Clouds 26 1012 94 10000 2.1 40 09:36 13.06.2020
1514 Clouds 26 1012 94 10000 2.1 40 09:18 13.06.2020
1515 Clouds 27 1012 94 10000 2.1 40 08:42 13.06.2020
1516 Clouds 27 1012 94 10000 2.1 40 08:24 13.06.2020
1517 Clouds 28 1013 83 0 0.45 224 07:43 13.06.2020
1518 Clouds 28 1013 83 0 0.45 174 07:25 13.06.2020
1519 Clouds 28 1013 82 0 0.45 181 06:44 13.06.2020
1520 Clouds 27 1014 88 10000 0.62 261 06:25 13.06.2020
1521 Clouds 27 1014 88 10000 0.36 247 05:28 13.06.2020
1522 Clouds 28 1014 80 0 0.45 223 04:37 13.06.2020
1523 Clouds 28 1013 78 10000 2.1 160 03:33 13.06.2020
1524 Clouds 28 1013 78 10000 2.1 160 02:39 13.06.2020
1525 Clouds 29 1012 74 10000 2.1 180 01:48 13.06.2020
1526 Clouds 29 1012 74 10000 2.1 180 01:22 13.06.2020
1527 Clouds 29 1012 66 10000 4.1 160 00:53 13.06.2020
1528 Clouds 30 1012 59 10000 4.1 200 00:27 13.06.2020
1529 Clouds 31 1012 59 10000 4.1 200 23:58 12.06.2020
1530 Clouds 31 1012 59 10000 4.1 200 23:38 12.06.2020
1531 Clouds 31 1012 59 10000 4.1 200 23:18 12.06.2020
1532 Clouds 31 1012 59 10000 6.2 180 22:42 12.06.2020
1533 Clouds 31 1012 59 10000 6.2 180 22:19 12.06.2020
1534 Clouds 31 1012 55 10000 6.2 180 21:54 12.06.2020
1535 Clouds 32 1012 55 10000 6.2 180 21:36 12.06.2020
1536 Clouds 31 1012 55 10000 6.2 180 21:18 12.06.2020
1537 Clouds 32 1013 52 10000 4.1 170 20:55 12.06.2020
1538 Clouds 32 1013 52 10000 4.1 170 20:36 12.06.2020
1539 Clouds 32 1013 52 10000 4.1 170 20:18 12.06.2020
1540 Clouds 32 1014 52 10000 5.1 180 19:39 12.06.2020
1541 Clouds 32 1014 52 10000 5.1 180 19:20 12.06.2020
1542 Clouds 31 1014 59 10000 4.1 180 18:39 12.06.2020
1543 Clouds 31 1015 62 10000 5.1 180 18:19 12.06.2020
1544 Clouds 31 1015 62 10000 5.1 180 17:59 12.06.2020
1545 Clouds 31 1015 62 10000 5.1 180 17:39 12.06.2020
1546 Clouds 31 1015 62 10000 5.1 180 17:21 12.06.2020
1547 Clouds 31 1015 70 10000 2.18 136 16:45 12.06.2020
1548 Clouds 30 1015 70 10000 1.62 124 16:21 12.06.2020
1549 Clouds 29 1015 78 10000 2.1 290 15:49 12.06.2020
1550 Clouds 29 1015 78 10000 2.1 290 15:27 12.06.2020
1551 Clouds 27 1015 94 10000 1.05 99 14:58 12.06.2020
1552 Clouds 27 1015 94 10000 1.05 99 14:39 12.06.2020
1553 Clouds 27 1015 94 10000 0.81 34 14:21 12.06.2020
1554 Clouds 26 1014 94 10000 2.1 60 13:42 12.06.2020
1555 Clouds 26 1014 94 10000 2.1 60 13:22 12.06.2020
1556 Clouds 26 1014 82 0 0.45 138 12:41 12.06.2020
1557 Clouds 25 1014 94 10000 2.6 50 12:20 12.06.2020
1558 Clouds 25 1014 94 10000 2.6 50 11:59 12.06.2020
1559 Clouds 25 1014 94 10000 2.6 50 11:40 12.06.2020
1560 Clouds 25 1014 94 10000 2.6 50 11:22 12.06.2020
1561 Clouds 26 1014 84 0 0.91 344 10:47 12.06.2020
1562 Clouds 27 1014 81 0 1.34 20 10:25 12.06.2020
1563 Clouds 26 1014 83 0 1.16 350 09:48 12.06.2020
1564 Rain 26 1014 94 8000 1.01 13 09:22 12.06.2020
1565 Rain 27 1014 94 8000 1.01 13 08:46 12.06.2020
1566 Rain 26 1014 94 8000 0.91 20 08:25 12.06.2020
1567 Rain 27 1014 88 8000 0.91 20 07:57 12.06.2020
1568 Rain 27 1014 88 8000 0.91 20 07:39 12.06.2020
1569 Rain 27 1014 88 8000 0.94 18 07:20 12.06.2020
1570 Clouds 27 1015 88 10000 0.94 18 06:38 12.06.2020
1571 Clouds 27 1015 88 10000 0.94 15 06:19 12.06.2020
1572 Clouds 27 1015 88 10000 0.94 15 05:47 12.06.2020
1573 Clouds 27 1015 88 10000 0.53 4 05:20 12.06.2020
1574 Clouds 28 1015 78 0 0.22 334 03:43 12.06.2020
1575 Clouds 29 1013 70 10000 2.1 150 01:58 12.06.2020
1576 Clouds 29 1013 70 10000 2.1 150 01:32 12.06.2020
1577 Clouds 30 1013 66 10000 3.1 150 00:55 12.06.2020
1578 Clouds 30 1013 66 10000 5.1 180 00:37 12.06.2020
1579 Clouds 30 1013 66 10000 5.1 180 00:18 12.06.2020
1580 Clouds 31 1013 66 10000 5.1 180 23:41 11.06.2020
1581 Clouds 31 1013 66 10000 5.1 180 23:22 11.06.2020
1582 Clouds 32 1014 59 10000 5.1 180 22:59 11.06.2020
1583 Clouds 32 1014 59 10000 5.1 180 22:39 11.06.2020
1584 Clouds 32 1014 59 10000 5.1 180 22:20 11.06.2020
1585 Clouds 32 1014 59 10000 5.1 180 22:20 11.06.2020
1586 Clouds 32 1014 59 10000 5.1 180 21:56 11.06.2020
1587 Clouds 32 1014 59 10000 5.1 180 21:38 11.06.2020
1588 Clouds 32 1014 59 10000 5.1 180 21:20 11.06.2020
1589 Clouds 32 1014 59 10000 5.1 180 21:20 11.06.2020
1590 Clouds 33 1014 52 10000 6.2 180 20:45 11.06.2020
1591 Clouds 33 1014 52 10000 6.2 180 20:22 11.06.2020
1592 Clouds 32 1015 55 10000 6.2 180 19:58 11.06.2020
1593 Clouds 32 1015 55 10000 6.2 180 19:40 11.06.2020
1594 Clouds 32 1015 55 10000 6.2 180 19:22 11.06.2020
1595 Clouds 32 1015 62 10000 5.1 180 18:42 11.06.2020
1596 Clouds 32 1015 62 10000 5.1 180 18:24 11.06.2020
1597 Clouds 32 1016 62 10000 5.1 180 17:57 11.06.2020
1598 Clouds 31 1016 62 10000 5.1 180 17:38 11.06.2020
1599 Clouds 32 1016 62 10000 5.1 180 17:20 11.06.2020
1600 Clouds 30 1016 66 10000 4.1 120 16:57 11.06.2020
1601 Clouds 30 1016 66 10000 4.1 120 16:38 11.06.2020
1602 Clouds 31 1016 66 10000 4.1 120 16:20 11.06.2020
1603 Clouds 29 1016 74 10000 1.67 61 15:43 11.06.2020
1604 Clouds 29 1016 74 10000 1.73 27 15:25 11.06.2020
1605 Clouds 27 1015 83 10000 1.73 27 14:58 11.06.2020
1606 Clouds 27 1015 83 10000 1.73 27 14:39 11.06.2020
1607 Clouds 27 1015 83 10000 1.73 27 14:39 11.06.2020
1608 Clouds 27 1015 83 10000 1.76 6 14:20 11.06.2020
1609 Clouds 25 1015 88 10000 2.1 20 13:55 11.06.2020
1610 Clouds 25 1015 88 10000 2.1 20 13:37 11.06.2020
1611 Clouds 25 1015 88 10000 2.1 20 13:18 11.06.2020
1612 Clouds 24 1015 87 0 1.9 353 12:54 11.06.2020
1613 Clouds 24 1014 88 10000 2.6 50 12:36 11.06.2020
1614 Clouds 24 1014 88 10000 2.6 50 12:18 11.06.2020
1615 Clouds 24 1014 88 10000 2.6 50 11:41 11.06.2020
1616 Clouds 24 1014 88 10000 2.6 50 11:23 11.06.2020
1617 Clouds 25 1015 86 0 1.31 7 10:59 11.06.2020
1618 Clouds 25 1015 86 0 1.31 7 10:41 11.06.2020
1619 Clouds 25 1014 85 0 0.99 11 10:18 11.06.2020
1620 Clouds 26 1014 83 0 0.99 11 09:44 11.06.2020
1621 Clouds 25 1014 88 10000 2.1 70 09:26 11.06.2020
1622 Clouds 25 1014 88 10000 2.1 70 08:44 11.06.2020
1623 Clouds 25 1014 88 10000 2.1 70 08:21 11.06.2020
1624 -273 0 0 0 0 0 08:00 11.06.2020
1625 Clouds 26 1015 80 0 0.88 10 07:41 11.06.2020
1626 Clouds 26 1015 80 0 0.88 10 07:41 11.06.2020
1627 Rain 26 1015 80 0 0.64 8 07:22 11.06.2020
1628 Rain 26 1015 80 0 0.64 8 07:22 11.06.2020
1629 Clouds 26 1015 83 10000 2.1 50 06:31 11.06.2020
1630 Clouds 26 1015 83 10000 2.1 50 05:50 11.06.2020
1631 Clouds 27 1016 80 0 0.5 351 03:59 11.06.2020
1632 Clouds 27 1013 78 10000 0.38 161 03:24 11.06.2020
1633 Clouds 27 1013 78 10000 0.38 161 02:40 11.06.2020
1634 Rain 28 1014 78 8000 4.1 110 01:55 11.06.2020
1635 Rain 28 1014 78 8000 4.1 110 01:31 11.06.2020
1636 Rain 29 1014 66 8000 3.6 130 00:51 11.06.2020
1637 Clouds 30 1013 62 10000 8.2 150 00:30 11.06.2020
1638 Clouds 31 1013 62 10000 8.2 150 23:50 10.06.2020
1639 Clouds 31 1013 62 10000 8.2 150 23:27 10.06.2020
1640 Clouds 32 1013 55 10000 5.1 150 22:59 10.06.2020
1641 Clouds 32 1013 55 10000 5.1 150 22:40 10.06.2020
1642 Clouds 32 1013 55 10000 5.1 150 22:20 10.06.2020
1643 Clouds 32 1013 55 10000 5.1 180 21:58 10.06.2020
1644 Clouds 32 1013 55 10000 5.1 180 21:40 10.06.2020
1645 Clouds 32 1013 55 10000 5.1 180 21:19 10.06.2020
1646 Clouds 33 1014 49 10000 5.1 210 20:57 10.06.2020
1647 Clouds 33 1014 49 10000 5.1 210 20:39 10.06.2020
1648 Clouds 33 1014 49 10000 5.1 210 20:21 10.06.2020
1649 Clouds 33 1014 52 10000 3.28 127 19:42 10.06.2020
1650 Clouds 32 1014 52 10000 2.63 109 19:20 10.06.2020
1651 Clouds 32 1014 52 10000 2.63 109 19:00 10.06.2020
1652 Clouds 32 1014 52 10000 2.63 109 18:41 10.06.2020
1653 Clouds 32 1014 52 10000 2.11 86 18:20 10.06.2020
1654 Clouds 32 1014 59 10000 3.1 180 17:58 10.06.2020
1655 Clouds 32 1014 59 10000 3.1 180 17:58 10.06.2020
1656 Clouds 32 1014 59 10000 3.1 180 17:40 10.06.2020
1657 Clouds 30 1014 66 10000 3.1 360 17:19 10.06.2020
1658 Clouds 30 1014 66 10000 3.1 360 16:58 10.06.2020
1659 Clouds 30 1014 66 10000 3.1 360 16:39 10.06.2020
1660 Clouds 30 1014 66 10000 3.1 360 16:20 10.06.2020
1661 Clouds 29 1015 70 10000 3.1 360 15:55 10.06.2020
1662 Clouds 29 1015 70 10000 3.1 360 15:36 10.06.2020
1663 Clouds 29 1015 70 10000 3.1 360 15:18 10.06.2020
1664 Clouds 27 1015 78 10000 2.59 20 14:40 10.06.2020
1665 Clouds 27 1015 78 10000 2.59 20 14:40 10.06.2020
1666 Clouds 27 1015 78 10000 2.78 353 14:20 10.06.2020
1667 Clouds 25 1013 94 10000 2.1 20 13:41 10.06.2020
1668 Clouds 25 1013 94 10000 2.1 20 13:22 10.06.2020
1669 Clouds 26 1014 84 0 2.53 342 12:46 10.06.2020
1670 Clouds 25 1013 88 10000 2.32 339 12:23 10.06.2020
1671 Clouds 25 1013 88 10000 2.32 339 11:59 10.06.2020
1672 Clouds 25 1013 88 10000 2.32 339 11:41 10.06.2020
1673 Clouds 25 1013 88 10000 2.24 337 11:20 10.06.2020
1674 Clouds 26 1013 84 0 2.24 337 10:58 10.06.2020
1675 Clouds 26 1013 84 0 2.24 337 10:58 10.06.2020
1676 Clouds 26 1013 84 0 2.24 337 10:39 10.06.2020
1677 Clouds 26 1013 84 0 2.24 337 10:39 10.06.2020
1678 Clouds 26 1013 83 0 2.23 344 10:21 10.06.2020
1679 Clouds 26 1013 84 0 0.89 353 09:42 10.06.2020
1680 Clouds 26 1013 88 10000 2.1 70 09:23 10.06.2020
1681 Clouds 26 1013 88 10000 2.1 70 08:57 10.06.2020
1682 Clouds 26 1013 88 10000 2.1 70 08:39 10.06.2020
1683 Clouds 26 1013 88 10000 2.1 70 08:20 10.06.2020
1684 Clouds 27 1014 83 0 2.25 12 07:39 10.06.2020
1685 Clouds 27 1014 83 0 2.31 26 07:21 10.06.2020
1686 Clouds 28 1014 80 0 1.34 112 06:46 10.06.2020
1687 Clouds 28 1016 95 0 2.55 27 06:24 10.06.2020
1688 Clouds 28 1016 95 0 2.55 27 05:58 10.06.2020
1689 Clouds 28 1016 95 0 2.49 33 05:26 10.06.2020
1690 Clouds 28 1016 95 0 2.49 33 04:36 10.06.2020
1691 Clouds 28 1015 95 0 0.85 72 02:57 10.06.2020
1692 Clouds 29 1015 95 0 1.25 102 02:22 10.06.2020
1693 Clouds 29 1014 93 0 1.25 102 01:37 10.06.2020
1694 Rain 29 1014 94 0 2 121 00:40 10.06.2020
1695 Clouds 30 1012 55 10000 4.1 180 00:22 10.06.2020
1696 Clouds 30 1012 55 10000 4.1 180 23:57 09.06.2020
1697 Clouds 31 1012 55 10000 4.1 180 23:38 09.06.2020
1698 Clouds 31 1012 55 10000 4.1 180 23:20 09.06.2020
1699 Clouds 31 1012 55 10000 4.1 180 22:56 09.06.2020
1700 Clouds 31 1012 55 10000 4.1 180 22:37 09.06.2020
1701 Clouds 31 1012 55 10000 4.1 180 22:19 09.06.2020
1702 Clouds 31 1013 52 10000 5.1 180 21:56 09.06.2020
1703 Clouds 31 1013 52 10000 5.1 180 21:56 09.06.2020
1704 Clouds 32 1013 52 10000 5.1 180 21:37 09.06.2020
1705 Clouds 32 1013 52 10000 5.1 180 21:19 09.06.2020
1706 Clouds 32 1013 55 10000 3.1 180 20:56 09.06.2020
1707 Clouds 32 1013 55 10000 3.1 180 20:38 09.06.2020
1708 Clouds 32 1013 55 10000 3.1 180 20:18 09.06.2020
1709 Clouds 32 1014 49 10000 4.1 20 19:56 09.06.2020
1710 Clouds 32 1014 49 10000 4.1 20 19:38 09.06.2020
1711 Clouds 32 1014 49 10000 4.1 20 19:19 09.06.2020
1712 Clouds 31 1015 55 10000 4.1 180 18:45 09.06.2020
1713 Clouds 32 1015 55 10000 4.1 180 18:26 09.06.2020
1714 Clouds 31 1015 59 10000 4.1 40 17:58 09.06.2020
1715 Clouds 31 1015 59 10000 4.1 40 17:40 09.06.2020
1716 Clouds 31 1015 59 10000 4.1 40 17:22 09.06.2020
1717 Clouds 31 1015 66 10000 3.15 43 16:57 09.06.2020
1718 Clouds 31 1015 66 10000 3.15 43 16:39 09.06.2020
1719 Clouds 31 1015 66 10000 3.05 38 16:20 09.06.2020
1720 Clouds 29 1014 74 10000 3.1 40 15:40 09.06.2020
1721 Clouds 28 1014 74 10000 3.1 40 15:22 09.06.2020
1722 Clouds 27 1014 83 10000 2.1 350 14:57 09.06.2020
1723 Clouds 28 1014 83 10000 2.1 350 14:39 09.06.2020
1724 Clouds 28 1014 83 10000 2.1 350 14:39 09.06.2020
1725 Clouds 27 1014 83 10000 2.1 350 14:19 09.06.2020
1726 Clouds 27 1016 100 0 2.83 18 13:54 09.06.2020
1727 Clouds 27 1016 100 0 2.83 18 13:36 09.06.2020
1728 Clouds 26 1016 100 0 2.3 5 13:18 09.06.2020
1729 Clouds 26 1014 82 0 1.34 16 12:42 09.06.2020
1730 Clouds 25 1013 88 10000 2.6 30 12:20 09.06.2020
1731 Clouds 25 1013 88 10000 2.6 30 11:56 09.06.2020
1732 Clouds 25 1013 88 10000 2.6 30 11:38 09.06.2020
1733 Clouds 25 1013 88 10000 2.6 30 11:38 09.06.2020
1734 Clouds 26 1014 82 0 1.34 22 11:20 09.06.2020
1735 Clouds 26 1014 81 0 1.34 31 10:54 09.06.2020
1736 Clouds 26 1014 81 0 1.34 46 10:36 09.06.2020
1737 Clouds 26 1014 81 0 1.79 48 10:18 09.06.2020
1738 Clouds 26 1013 83 0 2.39 17 09:40 09.06.2020
1739 Clouds 26 1014 88 10000 2.1 50 09:19 09.06.2020
1740 Clouds 26 1014 88 10000 2.1 50 08:40 09.06.2020
1741 Clouds 26 1014 88 10000 2.1 50 08:21 09.06.2020
1742 Clouds 27 1014 79 0 2.54 13 07:44 09.06.2020
1743 Clouds 27 1015 79 0 2.35 11 07:23 09.06.2020
1744 Clouds 26 1015 79 0 2.35 11 06:56 09.06.2020
1745 Clouds 26 1015 78 10000 2.6 40 06:37 09.06.2020
1746 Clouds 27 1015 78 10000 2.6 40 05:53 09.06.2020
1747 Rain 28 1015 80 0 1.79 115 04:22 09.06.2020
1748 Clouds 28 1017 95 0 1.01 356 02:47 09.06.2020
1749 Clouds 29 1016 96 0 0.59 132 01:38 09.06.2020
1750 Clouds 29 1016 96 0 1.37 136 01:19 09.06.2020
1751 Clouds 29 1016 94 0 1.37 136 00:44 09.06.2020
1752 Clouds 30 1013 66 10000 4.1 150 00:19 09.06.2020
1753 Clouds 30 1013 66 10000 4.1 150 23:42 08.06.2020
1754 Clouds 30 1013 66 10000 4.1 150 23:22 08.06.2020
1755 Clouds 31 1014 62 10000 5.1 180 22:59 08.06.2020
1756 Clouds 31 1014 62 10000 5.1 180 22:59 08.06.2020
1757 Clouds 31 1014 62 10000 5.1 180 22:39 08.06.2020
1758 Clouds 31 1014 62 10000 5.1 180 22:20 08.06.2020
1759 Clouds 31 1015 59 10000 5.1 180 21:56 08.06.2020
1760 Clouds 32 1015 52 10000 5.1 180 21:38 08.06.2020
1761 Clouds 32 1015 52 10000 5.1 180 21:19 08.06.2020
1762 Clouds 32 1015 52 10000 5.1 180 20:55 08.06.2020
1763 Clouds 32 1015 52 10000 5.1 180 20:37 08.06.2020
1764 Clouds 32 1015 52 10000 5.1 180 20:18 08.06.2020
1765 Clouds 31 1016 59 10000 4.1 150 19:43 08.06.2020
1766 Clouds 31 1016 59 10000 4.1 150 19:21 08.06.2020
1767 Clouds 31 1016 62 10000 3.1 180 18:44 08.06.2020
1768 Clouds 31 1016 62 10000 3.1 180 18:22 08.06.2020
1769 Clouds 31 1016 59 10000 5.1 180 17:58 08.06.2020
1770 Clouds 31 1016 59 10000 5.1 180 17:40 08.06.2020
1771 Clouds 31 1016 59 10000 5.1 180 17:22 08.06.2020
1772 Clouds 30 1016 66 10000 2 81 16:58 08.06.2020
1773 Clouds 30 1016 66 10000 2 81 16:58 08.06.2020
1774 Clouds 30 1016 66 10000 2 81 16:40 08.06.2020
1775 Clouds 30 1016 66 10000 2.04 68 16:21 08.06.2020
1776 Clouds 30 1016 74 10000 2.04 68 15:44 08.06.2020
1777 Clouds 27 1016 78 10000 1.83 30 15:22 08.06.2020
1778 Clouds 28 1016 78 10000 1.83 30 14:58 08.06.2020
1779 Clouds 28 1016 78 10000 1.83 30 14:39 08.06.2020
1780 Clouds 28 1016 78 10000 2.12 357 14:19 08.06.2020
1781 Clouds 27 1018 100 0 2.12 357 13:44 08.06.2020
1782 Clouds 27 1018 100 0 1.84 342 13:24 08.06.2020
1783 Clouds 26 1018 100 0 1.84 342 12:43 08.06.2020
1784 Clouds 25 1015 88 10000 2.1 20 12:21 08.06.2020
1785 Clouds 25 1015 88 10000 2.1 20 11:59 08.06.2020
1786 Clouds 25 1015 88 10000 2.1 20 11:41 08.06.2020
1787 Clouds 25 1015 88 10000 2.1 20 11:22 08.06.2020
1788 Clouds 25 1015 86 0 1.72 344 10:58 08.06.2020
1789 Clouds 26 1015 86 0 1.72 344 10:38 08.06.2020
1790 Clouds 26 1015 84 0 1.34 4 10:20 08.06.2020
1791 Clouds 26 1015 83 0 0.45 43 09:57 08.06.2020
1792 Clouds 26 1015 83 0 0.45 27 09:57 08.06.2020
1793 Clouds 26 1015 88 10000 2.1 40 09:39 08.06.2020
1794 Clouds 26 1015 88 10000 2.1 40 09:20 08.06.2020
1795 Clouds 26 1015 88 10000 2.1 40 08:44 08.06.2020
1796 Clouds 26 1015 88 10000 2.1 40 08:21 08.06.2020
1797 Clouds 26 1016 84 0 1.67 1 07:46 08.06.2020
1798 Clouds 26 1016 83 0 1.6 9 07:21 08.06.2020
1799 Clouds 27 1016 81 0 1.6 9 06:49 08.06.2020
1800 Clouds 27 1016 83 10000 3.1 60 06:28 08.06.2020
1801 Clouds 27 1016 83 10000 3.1 60 05:46 08.06.2020
1802 Rain 28 1018 96 0 0.85 73 04:29 08.06.2020
1803 Rain 28 1017 95 0 0.83 104 02:32 08.06.2020
1804 Rain 28 1017 96 0 1.3 131 01:45 08.06.2020
1805 Clouds 29 1017 95 0 2.1 143 01:26 08.06.2020
1806 Clouds 29 1016 94 0 2.1 143 00:30 08.06.2020
1807 Clouds 29 1016 94 0 3.28 155 23:41 07.06.2020
1808 Clouds 29 1016 93 0 3.75 158 23:20 07.06.2020
1809 Clouds 30 1016 90 0 3.75 158 22:59 07.06.2020
1810 Clouds 30 1016 90 0 3.75 158 22:39 07.06.2020
1811 Clouds 30 1016 92 0 3.95 158 22:19 07.06.2020
1812 Clouds 30 1017 90 0 3.95 158 21:58 07.06.2020
1813 Clouds 31 1016 62 10000 5.1 180 21:38 07.06.2020
1814 Clouds 31 1016 62 10000 5.1 180 21:19 07.06.2020
1815 Clouds 31 1016 62 10000 5.1 180 20:54 07.06.2020
1816 Clouds 31 1016 62 10000 5.1 180 20:36 07.06.2020
1817 Clouds 31 1016 62 10000 5.1 180 20:18 07.06.2020
1818 Clouds 31 1016 59 10000 5.1 180 19:54 07.06.2020
1819 Clouds 31 1016 59 10000 5.1 180 19:36 07.06.2020
1820 Clouds 31 1016 59 10000 5.1 180 19:18 07.06.2020
1821 Clouds 31 1019 84 0 3.75 150 18:40 07.06.2020
1822 Clouds 31 1017 62 10000 3.12 141 18:21 07.06.2020
1823 Clouds 31 1017 62 10000 3.12 141 17:59 07.06.2020
1824 Clouds 31 1017 62 10000 3.12 141 17:40 07.06.2020
1825 Clouds 30 1017 62 10000 2.3 125 17:21 07.06.2020
1826 Clouds 30 1017 66 10000 2.6 360 16:44 07.06.2020
1827 Clouds 30 1017 66 10000 2.6 360 16:22 07.06.2020
1828 Clouds 29 1017 74 10000 1.83 93 15:44 07.06.2020
1829 Clouds 28 1017 83 10000 2.6 300 15:23 07.06.2020
1830 Clouds 27 1017 83 10000 2.6 300 14:59 07.06.2020
1831 Clouds 27 1017 83 10000 2.6 300 14:36 07.06.2020
1832 Clouds 27 1017 83 10000 2.6 300 14:18 07.06.2020
1833 Clouds 27 1017 83 10000 2.6 300 14:18 07.06.2020
1834 Clouds 26 1019 100 0 1.76 12 13:44 07.06.2020
1835 Clouds 26 1019 100 0 1.76 12 13:44 07.06.2020
1836 Clouds 26 1019 100 0 1.76 12 13:44 07.06.2020
1837 Clouds 26 1019 100 0 1.76 12 13:44 07.06.2020
1838 Clouds 26 1019 100 0 2.01 344 13:19 07.06.2020
1839 Clouds 26 1019 100 0 2.01 344 12:44 07.06.2020
1840 Clouds 26 1020 100 0 2.03 339 12:25 07.06.2020
1841 Clouds 26 1019 100 0 2.03 339 11:56 07.06.2020
1842 Clouds 26 1019 100 0 2.03 339 11:38 07.06.2020
1843 Clouds 26 1019 100 0 1.84 347 11:20 07.06.2020
1844 Clouds 26 1019 100 0 1.84 347 10:57 07.06.2020
1845 Clouds 26 1019 100 0 1.84 347 10:39 07.06.2020
1846 Clouds 26 1019 100 0 1.82 355 10:19 07.06.2020
1847 Clouds 26 1019 100 0 1.82 355 09:54 07.06.2020
1848 Clouds 26 1019 100 0 1.82 355 09:36 07.06.2020
1849 Clouds 25 1017 88 10000 2.1 354 09:18 07.06.2020
1850 Clouds 25 1017 88 10000 1.56 12 08:41 07.06.2020
1851 Rain 27 1019 100 0 1.76 9 08:23 07.06.2020
1852 Rain 27 1019 100 0 1.76 9 08:23 07.06.2020
1853 Rain 27 1019 100 0 1.76 9 07:44 07.06.2020
1854 Rain 27 1020 100 0 1.84 3 07:26 07.06.2020
1855 Rain 27 1020 100 0 2.18 16 06:24 07.06.2020
1856 Rain 27 1020 100 0 2.18 16 05:28 07.06.2020
1857 Rain 27 1020 100 0 2.82 46 04:19 07.06.2020
1858 Rain 29 1019 91 0 2.41 51 02:30 07.06.2020
1859 Clouds 29 1018 89 0 1.38 107 01:43 07.06.2020
1860 Rain 29 1018 88 0 1.78 136 01:24 07.06.2020
1861 Rain 29 1018 90 0 1.78 136 00:40 07.06.2020
1862 Clouds 30 1015 59 10000 5.1 180 00:18 07.06.2020
1863 Clouds 30 1015 59 10000 5.1 180 23:55 06.06.2020
1864 Clouds 30 1015 59 10000 5.1 180 23:36 06.06.2020
1865 Clouds 30 1015 59 10000 5.1 180 23:18 06.06.2020
1866 Clouds 31 1016 55 10000 5.1 180 22:55 06.06.2020
1867 Clouds 31 1016 55 10000 5.1 180 22:37 06.06.2020
1868 Clouds 31 1016 55 10000 5.1 180 22:18 06.06.2020
1869 Clouds 31 1016 55 10000 5.1 180 21:42 06.06.2020
1870 Clouds 32 1016 55 10000 5.1 180 21:20 06.06.2020
1871 Clouds 32 1017 59 10000 5.1 160 20:41 06.06.2020
1872 Clouds 32 1017 59 10000 5.1 160 20:21 06.06.2020
1873 Clouds 31 1018 62 10000 5.1 160 19:59 06.06.2020
1874 Clouds 31 1018 62 10000 5.1 160 19:41 06.06.2020
1875 Clouds 31 1018 62 10000 5.1 160 19:23 06.06.2020
1876 Clouds 31 1018 66 10000 5.1 90 18:59 06.06.2020
1877 Clouds 31 1018 66 10000 5.1 90 18:41 06.06.2020
1878 Clouds 31 1018 66 10000 5.1 90 18:22 06.06.2020
1879 Clouds 31 1019 66 10000 5.1 30 17:44 06.06.2020
1880 Clouds 30 1019 66 10000 5.1 30 17:21 06.06.2020
1881 Clouds 30 1018 66 10000 4.1 30 16:58 06.06.2020
1882 Clouds 30 1018 66 10000 4.1 30 16:39 06.06.2020
1883 Clouds 30 1018 66 10000 4.1 30 16:21 06.06.2020
1884 Clouds 29 1018 78 10000 3.1 90 15:54 06.06.2020
1885 Clouds 29 1018 78 10000 3.1 90 15:36 06.06.2020
1886 Clouds 28 1018 78 10000 3.1 90 15:18 06.06.2020
1887 Clouds 28 1017 83 10000 2.1 30 14:39 06.06.2020
1888 Clouds 27 1017 83 10000 2.1 30 14:20 06.06.2020
1889 Rain 27 1020 100 0 2.94 35 13:49 06.06.2020
1890 Rain 26 1020 100 0 2.33 14 13:20 06.06.2020
1891 Rain 26 1018 85 0 1.79 26 12:59 06.06.2020
1892 Rain 25 1017 87 0 1.34 356 12:40 06.06.2020
1893 Clouds 26 1016 94 10000 2.6 40 12:21 06.06.2020
1894 Clouds 26 1016 94 10000 2.6 40 12:21 06.06.2020
1895 Clouds 26 1016 94 10000 2.6 40 11:57 06.06.2020
1896 Clouds 26 1016 94 10000 2.6 40 11:38 06.06.2020
1897 Clouds 26 1016 94 10000 2.6 40 11:19 06.06.2020
1898 Rain 26 1017 81 0 1.89 1 10:57 06.06.2020
1899 Rain 26 1017 81 0 1.89 1 10:38 06.06.2020
1900 Rain 26 1017 81 0 1.64 353 10:20 06.06.2020
1901 Rain 26 1017 81 0 1.64 353 09:44 06.06.2020
1902 Clouds 26 1017 78 10000 2.1 50 09:25 06.06.2020
1903 Clouds 26 1017 78 10000 2.1 50 08:49 06.06.2020
1904 Clouds 27 1017 78 10000 2.1 50 08:25 06.06.2020
1905 Rain 27 1018 79 0 1.89 20 07:57 06.06.2020
1906 Rain 27 1018 79 0 1.89 20 07:39 06.06.2020
1907 Rain 27 1018 78 0 2.24 60 07:20 06.06.2020
1908 Rain 28 1018 77 0 2.68 66 06:45 06.06.2020
1909 Clouds 27 1018 74 10000 3.1 80 06:26 06.06.2020
1910 Clouds 28 1018 74 10000 3.1 80 05:44 06.06.2020
1911 Clouds 28 1018 74 10000 3.1 80 05:23 06.06.2020
1912 Clouds 29 1020 93 0 1.84 32 04:24 06.06.2020
1913 Clouds 29 1019 94 0 0.88 65 02:36 06.06.2020
1914 Clouds 29 1018 92 0 2.37 144 01:24 06.06.2020
1915 Clouds 29 1018 89 0 2.37 144 00:59 06.06.2020
1916 Clouds 30 1018 89 0 2.37 144 00:40 06.06.2020
1917 Clouds 30 1015 59 10000 5.1 180 00:22 06.06.2020
1918 Clouds 31 1015 59 10000 5.1 180 23:40 05.06.2020
1919 Clouds 31 1015 59 10000 5.1 180 23:20 05.06.2020
1920 Clouds 31 1018 87 0 4.27 152 22:58 05.06.2020
1921 Clouds 31 1018 87 0 4.27 152 22:39 05.06.2020
1922 Clouds 32 1016 52 10000 6.2 180 22:21 05.06.2020
1923 Clouds 32 1016 52 10000 6.2 180 21:55 05.06.2020
1924 Clouds 32 1016 52 10000 6.2 180 21:37 05.06.2020
1925 Clouds 32 1016 52 10000 6.2 180 21:18 05.06.2020
1926 Clouds 32 1017 55 10000 5.1 180 20:44 05.06.2020
1927 Clouds 32 1017 55 10000 5.1 180 20:22 05.06.2020
1928 Clouds 32 1017 62 10000 5.1 180 19:57 05.06.2020
1929 Clouds 32 1017 62 10000 5.1 180 19:39 05.06.2020
1930 Clouds 32 1017 62 10000 5.1 180 19:20 05.06.2020
1931 Clouds 32 1018 59 10000 5.1 140 18:40 05.06.2020
1932 Clouds 32 1018 59 10000 5.1 140 18:21 05.06.2020
1933 Clouds 32 1019 59 10000 5.1 30 17:59 05.06.2020
1934 Clouds 32 1019 59 10000 5.1 30 17:40 05.06.2020
1935 Clouds 32 1019 59 10000 5.1 30 17:20 05.06.2020
1936 Clouds 31 1018 66 10000 2.6 40 16:45 05.06.2020
1937 Clouds 31 1018 66 10000 2.6 40 16:26 05.06.2020
1938 Clouds 30 1018 79 10000 2.45 55 15:59 05.06.2020
1939 Clouds 30 1018 79 10000 2.45 55 15:38 05.06.2020
1940 Clouds 29 1018 79 10000 2.29 27 15:20 05.06.2020
1941 Clouds 28 1018 78 10000 2.29 27 14:57 05.06.2020
1942 Clouds 28 1018 78 10000 2.29 27 14:39 05.06.2020
1943 Clouds 28 1018 78 10000 2 6 14:21 05.06.2020
1944 Clouds 34 1017 18 10000 2.6 50 13:44 05.06.2020
1945 Clouds 33 1017 18 10000 2.6 50 13:26 05.06.2020
1946 Clouds 27 1020 100 0 2.16 352 12:55 05.06.2020
1947 Clouds 26 1016 94 10000 2.1 70 12:37 05.06.2020
1948 Clouds 24 1016 94 10000 2.1 70 12:18 05.06.2020
1949 Clouds 24 1016 94 10000 2.1 70 11:42 05.06.2020
1950 Clouds 25 1016 94 10000 2.1 70 11:23 05.06.2020
1951 Clouds 26 1016 84 0 1.87 345 10:57 05.06.2020
1952 Clouds 26 1016 84 0 1.87 345 10:38 05.06.2020
1953 Clouds 26 1016 82 0 1.79 40 10:19 05.06.2020
1954 Clouds 26 1016 82 0 1.79 29 09:56 05.06.2020
1955 Clouds 26 1016 88 10000 2.1 10 09:37 05.06.2020
1956 Clouds 26 1016 88 10000 2.1 10 09:37 05.06.2020
1957 Clouds 26 1016 88 10000 2.1 10 09:18 05.06.2020
1958 Clouds 26 1016 88 10000 2.1 10 08:56 05.06.2020
1959 Clouds 26 1016 88 10000 2.1 10 08:38 05.06.2020
1960 Clouds 26 1016 88 10000 2.1 10 08:38 05.06.2020
1961 Clouds 27 1016 88 10000 2.1 10 08:18 05.06.2020
1962 Rain 27 1017 80 0 1.79 53 07:43 05.06.2020
1963 Clouds 27 1017 79 0 1.79 54 07:23 05.06.2020
1964 Clouds 27 1017 83 10000 2.6 60 06:20 05.06.2020
1965 Clouds 28 1020 93 0 2.47 45 05:21 05.06.2020
1966 Clouds 29 1020 94 0 2.4 57 04:26 05.06.2020
1967 Clouds 29 1016 79 10000 4.1 120 02:56 05.06.2020
1968 Clouds 29 1016 79 10000 4.1 120 02:25 05.06.2020
1969 Clouds 29 1015 74 10000 5.1 140 01:55 05.06.2020
1970 Clouds 29 1015 74 10000 5.1 140 01:26 05.06.2020
1971 Clouds 30 1015 70 10000 5.1 130 00:42 05.06.2020
1972 Clouds 31 1015 59 10000 5.1 180 00:20 05.06.2020
1973 Clouds 31 1015 59 10000 5.1 180 23:46 04.06.2020
1974 Clouds 31 1015 59 10000 5.1 180 23:27 04.06.2020
1975 Clouds 31 1015 52 10000 5.1 180 22:55 04.06.2020
1976 Clouds 31 1015 52 10000 5.1 180 22:36 04.06.2020
1977 Clouds 31 1015 52 10000 5.1 180 22:18 04.06.2020
1978 Clouds 31 1016 49 10000 5.1 180 21:55 04.06.2020
1979 Clouds 31 1016 49 10000 5.1 180 21:36 04.06.2020
1980 Clouds 31 1016 49 10000 5.1 180 21:18 04.06.2020
1981 Clouds 32 1016 49 10000 5.1 180 20:40 04.06.2020
1982 Clouds 32 1016 49 10000 5.1 180 20:21 04.06.2020
1983 Clouds 32 1017 55 10000 5.1 180 19:59 04.06.2020
1984 Clouds 32 1017 55 10000 5.1 180 19:38 04.06.2020
1985 Clouds 32 1017 55 10000 5.1 180 19:20 04.06.2020
1986 Clouds 31 1017 59 10000 4.1 180 18:54 04.06.2020
1987 Clouds 31 1017 59 10000 4.1 180 18:36 04.06.2020
1988 Clouds 31 1017 59 10000 4.1 180 18:18 04.06.2020
1989 Clouds 31 1018 66 10000 4.6 180 17:41 04.06.2020
1990 Clouds 31 1018 66 10000 4.6 180 17:21 04.06.2020
1991 Clouds 30 1017 74 10000 2.1 170 16:41 04.06.2020
1992 Clouds 30 1017 74 10000 2.1 170 16:21 04.06.2020
1993 Clouds 28 1017 94 10000 3.43 126 15:58 04.06.2020
1994 Clouds 28 1017 94 10000 3.43 126 15:40 04.06.2020
1995 Clouds 28 1017 94 10000 2.64 120 15:22 04.06.2020
1996 Clouds 28 1017 94 10000 2.64 120 15:22 04.06.2020
1997 Clouds 27 1016 100 10000 2.1 60 14:39 04.06.2020
1998 Clouds 27 1016 100 10000 2.1 60 14:19 04.06.2020
1999 Clouds 26 1015 94 10000 2.1 50 13:56 04.06.2020
2000 Clouds 25 1015 94 10000 2.1 50 13:37 04.06.2020
2001 Clouds 25 1015 94 10000 2.1 50 13:18 04.06.2020
2002 Rain 26 1018 100 0 1.44 19 12:42 04.06.2020
2003 Clouds 25 1014 94 10000 2.1 30 12:23 04.06.2020
2004 Clouds 25 1014 94 10000 2.1 30 12:00 04.06.2020
2005 Clouds 25 1014 94 10000 2.1 30 11:39 04.06.2020
2006 Clouds 25 1014 94 10000 2.1 30 11:20 04.06.2020
2007 Clouds 25 1014 94 10000 2.1 30 11:20 04.06.2020
2008 Rain 26 1015 89 0 1.94 333 10:57 04.06.2020
2009 Rain 26 1015 89 0 1.94 333 10:38 04.06.2020
2010 Clouds 26 1015 87 0 2.25 323 10:19 04.06.2020
2011 Clouds 26 1015 84 0 2.25 323 09:45 04.06.2020
2012 Clouds 26 1015 88 10000 2.21 322 09:27 04.06.2020
2013 Clouds 26 1015 88 10000 2.21 322 08:46 04.06.2020
2014 Clouds 26 1015 88 10000 1.9 333 08:27 04.06.2020
2015 Clouds 27 1015 79 0 1.9 333 07:52 04.06.2020
2016 Clouds 27 1015 80 0 1.9 333 07:29 04.06.2020
2017 Clouds 24 1016 84 0 1.31 351 06:44 04.06.2020
2018 Clouds 27 1016 83 10000 1.5 50 06:26 04.06.2020
2019 Clouds 27 1016 83 10000 1.5 50 05:39 04.06.2020
2020 Clouds 28 1016 83 10000 1.5 50 05:20 04.06.2020
2021 Clouds 28 1014 83 10000 4.1 140 03:25 04.06.2020
2022 Clouds 29 1014 70 10000 3.1 140 01:57 04.06.2020
2023 Clouds 29 1014 70 10000 3.1 140 01:20 04.06.2020
2024 Clouds 29 1013 66 10000 4.1 120 00:49 04.06.2020
2025 Clouds 31 1014 59 10000 5.1 150 23:48 03.06.2020
2026 Clouds 31 1014 59 10000 5.1 150 23:21 03.06.2020
2027 Clouds 31 1014 59 10000 5.1 180 22:59 03.06.2020
2028 Clouds 31 1014 59 10000 5.1 180 22:39 03.06.2020
2029 Clouds 31 1014 59 10000 5.1 180 22:19 03.06.2020
2030 Clouds 32 1015 52 10000 5.1 180 21:57 03.06.2020
2031 Clouds 32 1015 52 10000 5.1 180 21:39 03.06.2020
2032 Clouds 32 1015 52 10000 5.1 180 21:21 03.06.2020
2033 Clouds 32 1015 52 10000 6.2 180 20:56 03.06.2020
2034 Clouds 32 1015 52 10000 6.2 180 20:37 03.06.2020
2035 Clouds 32 1015 52 10000 6.2 180 20:19 03.06.2020
2036 Clouds 32 1015 62 10000 5.1 180 19:56 03.06.2020
2037 Clouds 31 1015 62 10000 5.1 180 19:36 03.06.2020
2038 Clouds 31 1015 62 10000 5.1 180 19:18 03.06.2020
2039 Clouds 31 1016 59 10000 4.1 150 18:43 03.06.2020
2040 Clouds 31 1016 59 10000 4.1 150 18:22 03.06.2020
2041 Clouds 31 1019 86 0 3.73 134 17:57 03.06.2020
2042 Clouds 31 1017 70 10000 2.6 30 17:37 03.06.2020
2043 Clouds 31 1017 70 10000 2.6 30 17:19 03.06.2020
2044 Clouds 31 1017 70 10000 2.6 30 16:42 03.06.2020
2045 Clouds 30 1017 70 10000 2.6 30 16:21 03.06.2020
2046 Clouds 29 1017 74 10000 1.98 73 15:59 03.06.2020
2047 Clouds 29 1017 74 10000 1.98 73 15:41 03.06.2020
2048 Clouds 28 1017 74 10000 2.08 24 15:20 03.06.2020
2049 Clouds 28 1017 74 10000 2.08 24 15:20 03.06.2020
2050 Clouds 27 1017 88 10000 2.08 24 14:46 03.06.2020
2051 Clouds 27 1017 88 10000 2.23 354 14:24 03.06.2020
2052 Clouds 26 1016 88 10000 2.1 20 13:56 03.06.2020
2053 Clouds 26 1016 88 10000 2.1 20 13:38 03.06.2020
2054 Clouds 25 1016 88 10000 2.1 20 13:18 03.06.2020
2055 Clouds 27 1019 93 0 2.33 344 12:42 03.06.2020
2056 Clouds 25 1015 94 10000 1.5 0 12:21 03.06.2020
2057 Clouds 25 1015 94 10000 1.5 0 11:45 03.06.2020
2058 Clouds 25 1015 94 10000 1.5 0 11:26 03.06.2020
2059 Clouds 26 1015 85 0 2.43 333 10:56 03.06.2020
2060 Clouds 26 1015 85 0 2.43 333 10:38 03.06.2020
2061 Clouds 26 1015 86 0 2.53 332 10:20 03.06.2020
2062 Clouds 26 1015 86 0 2.53 332 09:42 03.06.2020
2063 Clouds 25 1015 94 10000 2.1 20 09:19 03.06.2020
2064 Clouds 25 1015 94 10000 2.1 20 08:47 03.06.2020
2065 Clouds 26 1015 94 10000 2.1 20 08:24 03.06.2020
2066 Rain 27 1018 93 0 2.08 349 07:58 03.06.2020
2067 Rain 27 1018 93 0 2.08 349 07:39 03.06.2020
2068 Clouds 27 1018 93 0 1.91 10 07:18 03.06.2020
2069 Clouds 27 1018 93 0 1.91 10 06:45 03.06.2020
2070 Clouds 26 1016 94 10000 3.1 30 06:27 03.06.2020
2071 Clouds 26 1016 94 10000 3.1 30 05:45 03.06.2020
2072 Rain 27 1019 93 0 1.96 37 04:30 03.06.2020
2073 Rain 27 1018 93 0 1.94 1 03:42 03.06.2020
2074 Clouds 28 1015 78 10000 2.1 110 02:42 03.06.2020
2075 Clouds 28 1014 66 10000 1.5 110 01:46 03.06.2020
2076 Clouds 29 1014 74 10000 2.6 110 00:39 03.06.2020
2077 Rain 29 1015 74 8000 1.23 95 00:21 03.06.2020
2078 Rain 29 1015 74 8000 1.23 95 23:46 02.06.2020
2079 Rain 29 1015 74 8000 1.62 125 23:27 02.06.2020
2080 Rain 30 1014 62 8000 5.1 120 22:55 02.06.2020
2081 Rain 30 1014 62 8000 5.1 120 22:36 02.06.2020
2082 Rain 30 1014 62 8000 5.1 120 22:18 02.06.2020
2083 Clouds 31 1014 59 10000 6.2 150 21:54 02.06.2020
2084 Clouds 31 1014 59 10000 6.2 150 21:36 02.06.2020
2085 Clouds 31 1014 59 10000 6.2 150 21:18 02.06.2020
2086 Clouds 31 1015 59 10000 5.1 180 20:42 02.06.2020
2087 Clouds 31 1015 59 10000 5.1 180 20:23 02.06.2020
2088 Clouds 31 1015 59 10000 5.1 180 20:23 02.06.2020
2089 Rain 31 1016 66 8000 5.1 180 19:58 02.06.2020
2090 Rain 31 1016 66 8000 5.1 180 19:39 02.06.2020
2091 Rain 30 1016 66 8000 5.1 180 19:21 02.06.2020
2092 Clouds 31 1016 62 10000 4.1 90 18:55 02.06.2020
2093 Clouds 30 1016 62 10000 4.1 90 18:37 02.06.2020
2094 Clouds 30 1016 62 10000 4.1 90 18:18 02.06.2020
2095 Clouds 30 1017 62 10000 4.1 360 17:42 02.06.2020
2096 Clouds 30 1017 66 10000 5.1 360 17:23 02.06.2020
2097 Clouds 30 1017 66 10000 5.1 360 16:57 02.06.2020
2098 Clouds 30 1017 66 10000 5.1 360 16:38 02.06.2020
2099 Clouds 30 1017 66 10000 5.1 360 16:20 02.06.2020
2100 Clouds 29 1017 78 10000 4.1 360 15:46 02.06.2020
2101 Clouds 29 1017 78 10000 4.1 360 15:24 02.06.2020
2102 Clouds 28 1016 83 10000 2.6 300 14:50 02.06.2020
2103 Clouds 27 1016 83 10000 2.6 300 14:31 02.06.2020
2104 Clouds 26 1016 94 10000 2.1 20 13:58 02.06.2020
2105 Clouds 26 1016 94 10000 2.1 20 13:39 02.06.2020
2106 Clouds 25 1016 94 10000 2.1 20 13:19 02.06.2020
2107 Clouds 27 1018 95 0 2.43 349 12:58 02.06.2020
2108 Clouds 27 1018 95 0 2.43 349 12:39 02.06.2020
2109 Clouds 25 1015 94 10000 2.1 10 12:20 02.06.2020
2110 Clouds 25 1015 94 10000 2.1 10 11:55 02.06.2020
2111 Clouds 25 1015 94 10000 2.1 10 11:37 02.06.2020
2112 Clouds 25 1015 94 10000 2.1 10 11:18 02.06.2020
2113 Clouds 26 1015 84 0 1.86 358 10:46 02.06.2020
2114 Clouds 26 1015 84 0 2.03 347 10:28 02.06.2020
2115 Clouds 26 1015 84 0 2.03 347 09:55 02.06.2020
2116 Clouds 26 1015 94 10000 2.1 40 09:36 02.06.2020
2117 Clouds 26 1015 94 10000 2.1 40 09:18 02.06.2020
2118 Clouds 26 1015 94 10000 2.1 40 08:45 02.06.2020
2119 Clouds 27 1018 95 0 1.99 2 08:20 02.06.2020
2120 Clouds 27 1018 95 0 1.99 2 07:39 02.06.2020
2121 Clouds 27 1018 95 0 1.83 23 07:20 02.06.2020
2122 Clouds 27 1018 95 0 1.83 23 06:43 02.06.2020
2123 Clouds 27 1017 83 10000 2.1 40 05:46 02.06.2020
2124 Rain 27 1019 95 0 1.84 48 04:54 02.06.2020
2125 Clouds 28 1016 78 10000 3.1 120 03:20 02.06.2020
2126 Clouds 28 1016 78 10000 3.1 120 02:19 02.06.2020
2127 Rain 29 1017 92 0 2.16 158 00:53 02.06.2020
2128 Clouds 30 1015 62 10000 5.1 180 00:22 02.06.2020
2129 Clouds 30 1015 62 10000 5.1 180 23:39 01.06.2020
2130 Clouds 31 1015 62 10000 5.1 180 23:21 01.06.2020
2131 Clouds 31 1015 59 10000 5.1 180 22:58 01.06.2020
2132 Clouds 31 1015 59 10000 5.1 180 22:39 01.06.2020
2133 Clouds 31 1015 59 10000 5.1 180 22:20 01.06.2020
2134 Clouds 31 1015 59 10000 5.1 180 22:20 01.06.2020
2135 Clouds 32 1015 52 10000 5.1 180 21:55 01.06.2020
2136 Clouds 32 1015 52 10000 5.1 180 21:36 01.06.2020
2137 Clouds 32 1015 52 10000 5.1 180 21:36 01.06.2020
2138 Clouds 32 1016 52 10000 6.2 180 21:18 01.06.2020
2139 Clouds 32 1016 52 10000 6.2 180 20:54 01.06.2020
2140 Clouds 32 1016 52 10000 6.2 180 20:36 01.06.2020
2141 Clouds 32 1017 55 10000 5.1 180 20:18 01.06.2020
2142 Clouds 32 1017 55 10000 5.1 180 20:18 01.06.2020
2143 Clouds 32 1017 55 10000 5.1 180 19:42 01.06.2020
2144 Clouds 32 1017 55 10000 5.1 180 19:20 01.06.2020
2145 Clouds 32 1017 59 10000 4.1 40 18:58 01.06.2020
2146 Clouds 32 1017 59 10000 4.1 40 18:39 01.06.2020
2147 Clouds 32 1017 59 10000 4.1 40 18:19 01.06.2020
2148 Clouds 31 1017 62 10000 4.1 90 17:55 01.06.2020
2149 Clouds 31 1017 62 10000 4.1 90 17:36 01.06.2020
2150 Clouds 31 1017 62 10000 4.1 90 17:18 01.06.2020
2151 Clouds 31 1017 70 10000 4.1 120 16:39 01.06.2020
2152 Clouds 30 1017 70 10000 4.1 120 16:20 01.06.2020
2153 Clouds 29 1016 78 10000 1.67 97 15:55 01.06.2020
2154 Clouds 29 1016 78 10000 1.67 97 15:37 01.06.2020
2155 Clouds 29 1016 78 10000 1.38 55 15:18 01.06.2020
2156 Clouds 28 1015 88 10000 1.38 55 14:56 01.06.2020
2157 Clouds 28 1015 88 10000 1.38 55 14:37 01.06.2020
2158 Clouds 27 1015 88 10000 1.38 3 14:18 01.06.2020
2159 Clouds 27 1019 97 0 1.38 3 13:42 01.06.2020
2160 Clouds 26 1019 100 0 1.56 345 13:21 01.06.2020
2161 Clouds 26 1019 99 0 1.56 345 12:58 01.06.2020
2162 Clouds 26 1019 99 0 1.56 345 12:40 01.06.2020
2163 Clouds 26 1019 99 0 1.56 345 12:40 01.06.2020
2164 Clouds 25 1015 94 10000 2.1 30 12:21 01.06.2020
2165 Clouds 25 1015 94 10000 2.1 30 11:56 01.06.2020
2166 Clouds 25 1015 94 10000 2.1 30 11:36 01.06.2020
2167 Clouds 25 1015 94 10000 2.1 30 11:18 01.06.2020
2168 Clear 26 1016 85 0 1.63 328 10:40 01.06.2020
2169 Clear 26 1016 84 0 1.4 327 10:20 01.06.2020
2170 Clear 26 1016 82 0 1.4 327 09:58 01.06.2020
2171 Clear 26 1016 83 0 1.4 327 09:40 01.06.2020
2172 Clouds 25 1016 88 10000 2.1 50 09:20 01.06.2020
2173 Clouds 25 1016 88 10000 2.1 50 08:52 01.06.2020
2174 Clouds 25 1016 88 10000 2.1 50 08:30 01.06.2020
2175 Clear 27 1017 81 0 0.89 333 07:54 01.06.2020
2176 Clear 27 1017 81 0 0.89 333 07:36 01.06.2020
2177 Clear 27 1017 81 0 0.36 348 07:18 01.06.2020
2178 Clear 24 1016 83 0 0.36 348 06:43 01.06.2020
2179 Clouds 27 1017 83 10000 0.3 127 05:54 01.06.2020
2180 Clear 28 1017 79 0 0.76 156 04:46 01.06.2020
2181 Clear 28 1019 93 0 0.81 158 03:49 01.06.2020
2182 Clear 28 1019 94 0 0.98 155 03:27 01.06.2020
2183 Clear 28 1018 95 0 1.11 157 02:29 01.06.2020
2184 Clear 29 1017 94 0 1.8 154 01:34 01.06.2020
2185 Clear 29 1017 93 0 2.26 161 00:58 01.06.2020
2186 Clear 29 1017 93 0 2.26 161 00:40 01.06.2020
2187 Clear 30 1017 92 0 2.84 165 00:21 01.06.2020
2188 Clear 30 1017 91 0 2.84 165 23:57 31.05.2020
2189 Clear 30 1017 91 0 2.84 165 23:38 31.05.2020
2190 Clear 30 1017 91 0 3.2 166 23:20 31.05.2020
2191 Clear 30 1017 91 0 3.2 166 23:20 31.05.2020
2192 Clear 31 1017 89 0 3.2 166 22:44 31.05.2020
2193 Clear 31 1017 89 0 3.2 166 22:44 31.05.2020
2194 Clear 31 1017 89 0 3.66 163 22:26 31.05.2020
2195 Clear 31 1017 89 0 3.66 163 21:58 31.05.2020
2196 Clear 31 1017 89 0 3.66 163 21:40 31.05.2020
2197 Clouds 32 1016 56 10000 5.1 180 21:22 31.05.2020
2198 Clouds 32 1016 56 10000 5.1 180 20:57 31.05.2020
2199 Clouds 32 1016 56 10000 5.1 180 20:57 31.05.2020
2200 Clouds 32 1016 56 10000 5.1 180 20:38 31.05.2020
2201 Clouds 32 1016 56 10000 5.1 180 20:19 31.05.2020
2202 Clouds 32 1017 56 10000 5.1 180 19:54 31.05.2020
2203 Clouds 32 1017 56 10000 5.1 180 19:36 31.05.2020
2204 Clouds 32 1017 56 10000 5.1 180 19:18 31.05.2020
2205 Clouds 32 1017 59 10000 3.1 180 18:43 31.05.2020
2206 Clouds 31 1017 59 10000 3.1 180 18:25 31.05.2020
2207 Clouds 31 1018 62 10000 3.1 180 17:45 31.05.2020
2208 Clouds 31 1018 62 10000 3.1 180 17:25 31.05.2020
2209 Clouds 31 1018 62 10000 3.1 180 17:25 31.05.2020
2210 Clouds 30 1018 70 10000 2.55 134 16:58 31.05.2020
2211 Clouds 30 1018 70 10000 2.55 134 16:40 31.05.2020
2212 Clouds 30 1018 70 10000 1.93 111 16:19 31.05.2020
2213 Clouds 29 1017 78 10000 1.93 111 15:39 31.05.2020
2214 Clouds 28 1017 78 10000 1.13 52 15:21 31.05.2020
2215 Clouds 28 1017 83 10000 1.13 52 14:47 31.05.2020
2216 Clouds 27 1017 83 10000 1.48 355 14:22 31.05.2020
2217 Clear 27 1019 100 0 1.28 3 13:56 31.05.2020
2218 Clear 26 1019 100 0 1.28 3 13:38 31.05.2020
2219 Clear 26 1019 100 0 1.59 339 13:20 31.05.2020
2220 Clear 25 1019 100 0 1.59 339 12:57 31.05.2020
2221 Clouds 25 1015 100 10000 1.5 40 12:37 31.05.2020
2222 Clouds 24 1015 100 10000 1.5 40 12:19 31.05.2020
2223 Clouds 25 1015 100 10000 1.5 40 11:47 31.05.2020
2224 Clouds 25 1015 100 10000 1.5 40 11:23 31.05.2020
2225 Clouds 26 1016 84 0 0.45 354 10:56 31.05.2020
2226 Clouds 26 1016 83 0 0.45 340 10:38 31.05.2020
2227 Clouds 26 1016 84 0 0.89 359 10:18 31.05.2020
2228 Rain 26 1015 85 0 0.89 47 09:42 31.05.2020
2229 Rain 25 1015 94 10000 2.1 60 09:22 31.05.2020
2230 Rain 25 1015 94 10000 2.1 60 08:57 31.05.2020
2231 Rain 25 1015 94 10000 2.1 60 08:37 31.05.2020
2232 Rain 25 1015 94 10000 2.1 60 08:19 31.05.2020
2233 Clear 27 1015 83 0 1.21 279 07:42 31.05.2020
2234 Clear 27 1016 82 0 1.21 252 07:20 31.05.2020
2235 Clear 24 1017 81 0 1.21 252 06:53 31.05.2020
2236 Clouds 25 1016 88 10000 1.21 252 06:31 31.05.2020
2237 Clouds 25 1016 88 10000 1.02 240 05:41 31.05.2020
2238 Clear 28 1018 95 0 0.97 217 04:25 31.05.2020
2239 Clear 28 1018 95 0 0.97 217 03:48 31.05.2020
2240 Clear 28 1018 94 0 1.06 208 02:59 31.05.2020
2241 Clear 29 1017 94 0 1.71 171 01:48 31.05.2020
2242 Clear 29 1017 93 0 2.38 167 01:00 31.05.2020
2243 Clouds 29 1013 66 10000 4.1 180 00:29 31.05.2020
2244 Clouds 30 1013 66 10000 4.1 180 23:45 30.05.2020
2245 Clouds 30 1013 66 10000 4.1 180 23:27 30.05.2020
2246 Clouds 31 1014 59 10000 5.1 180 22:59 30.05.2020
2247 Clouds 31 1014 59 10000 5.1 180 22:40 30.05.2020
2248 Clouds 31 1014 59 10000 5.1 180 22:40 30.05.2020
2249 Clouds 31 1014 59 10000 5.1 180 22:40 30.05.2020
2250 Clouds 31 1014 59 10000 5.1 180 22:21 30.05.2020
2251 Clouds 31 1015 59 10000 5.1 180 21:55 30.05.2020
2252 Clouds 31 1015 59 10000 5.1 180 21:37 30.05.2020
2253 Clouds 31 1015 59 10000 5.1 180 21:18 30.05.2020
2254 Clouds 31 1015 59 10000 5.1 180 20:56 30.05.2020
2255 Clouds 31 1015 59 10000 5.1 180 20:37 30.05.2020
2256 Clouds 31 1015 59 10000 5.1 180 20:19 30.05.2020
2257 Clouds 31 1015 62 10000 6.2 180 19:41 30.05.2020
2258 Clouds 31 1015 62 10000 6.2 180 19:21 30.05.2020
2259 Clouds 31 1015 62 10000 6.2 180 19:21 30.05.2020
2260 Clouds 31 1016 62 10000 6.2 180 18:45 30.05.2020
2261 Clouds 31 1016 62 10000 6.2 180 18:22 30.05.2020
2262 Clouds 30 1017 74 10000 5.1 180 17:46 30.05.2020
2263 Clouds 30 1017 74 10000 5.1 180 17:46 30.05.2020
2264 Clouds 30 1017 74 10000 5.1 180 17:27 30.05.2020
2265 Rain 29 1016 79 8000 3.1 130 16:59 30.05.2020
2266 Rain 29 1016 79 8000 3.1 130 16:41 30.05.2020
2267 Rain 29 1016 79 8000 3.1 130 16:21 30.05.2020
2268 Clouds 29 1015 74 10000 3.79 157 15:48 30.05.2020
2269 Clouds 29 1015 74 10000 2.49 166 15:28 30.05.2020
2270 Clouds 28 1016 88 10000 2.1 80 14:46 30.05.2020
2271 Clouds 27 1016 88 10000 2.1 80 14:27 30.05.2020
2272 Clouds 27 1019 100 0 2.29 179 13:46 30.05.2020
2273 Clouds 27 1018 100 0 1.66 194 13:27 30.05.2020
2274 Clouds 28 1018 95 0 1.66 194 12:55 30.05.2020
2275 Clouds 27 1015 94 10000 2.1 120 12:36 30.05.2020
2276 Clouds 26 1015 94 10000 2.1 120 12:18 30.05.2020
2277 Clouds 26 1015 94 10000 2.1 120 11:41 30.05.2020
2278 Clouds 26 1015 94 10000 2.1 120 11:22 30.05.2020
2279 Clouds 28 1015 80 0 1.51 216 10:56 30.05.2020
2280 Clouds 28 1015 80 0 1.51 216 10:38 30.05.2020
2281 Clouds 28 1015 80 0 1.69 207 10:20 30.05.2020
2282 Clouds 28 1015 81 0 1.69 207 09:43 30.05.2020
2283 Clouds 27 1015 88 10000 3.1 120 09:25 30.05.2020
2284 Clouds 26 1015 88 10000 3.1 120 08:42 30.05.2020
2285 Clouds 27 1015 88 10000 3.1 120 08:22 30.05.2020
2286 Clouds 28 1015 81 0 2.12 182 07:40 30.05.2020
2287 Clouds 28 1015 80 0 2.25 183 07:19 30.05.2020
2288 Clouds 28 1016 83 10000 3.1 130 06:29 30.05.2020
2289 Clouds 27 1016 83 10000 3.1 130 05:51 30.05.2020
2290 Rain 28 1018 95 0 2.29 178 04:47 30.05.2020
2291 Clouds 28 1018 96 0 2.09 178 02:41 30.05.2020
2292 Clouds 28 1017 96 0 2.46 173 02:19 30.05.2020
2293 Clouds 28 1017 96 0 2.72 164 00:45 30.05.2020
2294 Clouds 28 1014 74 10000 4.1 180 00:24 30.05.2020
2295 Clouds 29 1014 74 10000 4.1 180 23:59 29.05.2020
2296 Clouds 29 1014 74 10000 4.1 180 23:38 29.05.2020
2297 Clouds 29 1014 74 10000 4.1 180 23:38 29.05.2020
2298 Clouds 29 1014 74 10000 4.1 180 23:19 29.05.2020
2299 Clouds 29 1014 74 10000 4.1 180 23:19 29.05.2020
2300 Clouds 29 1014 74 10000 4.1 180 23:19 29.05.2020
2301 Clouds 29 1014 62 10000 4.1 180 22:54 29.05.2020
2302 Clouds 29 1014 62 10000 4.1 180 22:36 29.05.2020
2303 Clouds 29 1014 62 10000 4.1 180 22:18 29.05.2020
2304 Clouds 30 1014 55 10000 5.1 150 21:40 29.05.2020
2305 Clouds 30 1014 55 10000 5.1 150 21:21 29.05.2020
2306 Clouds 31 1015 59 10000 6.2 150 20:58 29.05.2020
2307 Clouds 31 1015 59 10000 6.2 150 20:39 29.05.2020
2308 Clouds 31 1015 59 10000 6.2 150 20:19 29.05.2020
2309 Clouds 30 1015 59 10000 5.1 180 19:43 29.05.2020
2310 Clouds 30 1015 59 10000 5.1 180 19:24 29.05.2020
2311 Clouds 30 1015 66 10000 5.1 180 18:48 29.05.2020
2312 Clouds 30 1015 66 10000 5.1 180 18:23 29.05.2020
2313 Clouds 30 1016 70 10000 3.1 180 17:59 29.05.2020
2314 Clouds 30 1016 70 10000 3.1 180 17:39 29.05.2020
2315 Clouds 29 1016 70 10000 3.1 180 17:20 29.05.2020
2316 Clouds 29 1016 78 10000 3.13 150 16:47 29.05.2020
2317 Clouds 29 1016 78 10000 2.26 136 16:29 29.05.2020
2318 Clouds 28 1016 88 10000 2.26 136 15:59 29.05.2020
2319 Rain 28 1016 88 10000 2.26 136 15:41 29.05.2020
2320 Rain 27 1016 88 10000 0.91 75 15:21 29.05.2020
2321 Rain 25 1016 94 10000 0.91 75 14:57 29.05.2020
2322 Clouds 25 1016 94 10000 0.91 75 14:38 29.05.2020
2323 Clouds 24 1016 94 10000 1.17 354 14:19 29.05.2020
2324 Clouds 24 1018 100 0 1.17 354 13:41 29.05.2020
2325 Clouds 24 1017 100 0 1.56 344 13:21 29.05.2020
2326 Clouds 24 1017 100 0 1.56 344 12:55 29.05.2020
2327 Clouds 24 1017 100 0 1.56 344 12:37 29.05.2020
2328 Clouds 24 1017 100 0 1.46 343 12:18 29.05.2020
2329 Clouds 24 1017 100 0 1.46 343 11:42 29.05.2020
2330 Clouds 24 1017 100 0 1.46 343 11:42 29.05.2020
2331 Clouds 24 1017 100 0 0.95 336 11:24 29.05.2020
2332 Clouds 23 1016 100 0 0.95 336 10:43 29.05.2020
2333 Clouds 23 1017 100 0 1.2 300 10:24 29.05.2020
2334 Clouds 24 1016 100 0 1.2 300 09:58 29.05.2020
2335 Clouds 24 1016 100 0 1.2 300 09:40 29.05.2020
2336 Clouds 24 1017 100 0 1.05 303 09:19 29.05.2020
2337 Clouds 24 1017 100 0 1.05 303 08:47 29.05.2020
2338 Clouds 24 1017 100 0 0.69 359 08:23 29.05.2020
2339 Clouds 24 1017 100 0 0.69 359 07:48 29.05.2020
2340 Clouds 24 1017 100 0 0.69 359 07:29 29.05.2020
2341 Clouds 24 1017 100 0 1.03 1 06:55 29.05.2020
2342 Clouds 24 1018 100 0 1.03 1 06:37 29.05.2020
2343 Clouds 24 1018 100 0 1.39 327 06:18 29.05.2020
2344 Clouds 24 1018 100 0 1.39 327 05:36 29.05.2020
2345 Rain 23 1017 100 0 2.22 297 01:48 29.05.2020
2346 Rain 23 1017 100 0 2.15 289 01:27 29.05.2020
2347 Rain 23 1017 100 0 2.15 289 00:50 29.05.2020
2348 Rain 22 1017 100 0 1.56 36 00:28 29.05.2020
2349 Rain 23 1017 100 0 1.56 36 23:41 28.05.2020
2350 Rain 26 1014 88 8000 3.53 35 23:20 28.05.2020
2351 Rain 26 1014 88 8000 3.53 35 23:20 28.05.2020
2352 Thunderstorm 28 1014 88 8000 3.53 35 22:59 28.05.2020
2353 Thunderstorm 28 1014 88 8000 3.53 35 22:40 28.05.2020
2354 Thunderstorm 28 1014 88 8000 3.53 35 22:40 28.05.2020
2355 Thunderstorm 28 1014 88 8000 1.17 43 22:20 28.05.2020
2356 Thunderstorm 28 1013 78 8000 2.6 180 21:55 28.05.2020
2357 Thunderstorm 28 1013 78 8000 2.6 180 21:37 28.05.2020
2358 Thunderstorm 28 1013 78 8000 2.6 180 21:18 28.05.2020
2359 Thunderstorm 30 1013 59 10000 7.7 150 20:42 28.05.2020
2360 Thunderstorm 31 1013 59 10000 7.7 150 20:20 28.05.2020
2361 Clouds 32 1014 50 10000 5.1 90 19:59 28.05.2020
2362 Clouds 32 1014 50 10000 5.1 90 19:41 28.05.2020
2363 Clouds 32 1014 50 10000 5.1 90 19:20 28.05.2020
2364 Clouds 31 1014 62 10000 2.6 30 18:57 28.05.2020
2365 Clouds 31 1014 62 10000 2.6 30 18:38 28.05.2020
2366 Clouds 31 1014 62 10000 2.6 30 18:20 28.05.2020
2367 Clouds 32 1016 62 10000 3.6 90 17:40 28.05.2020
2368 Clouds 31 1016 62 10000 3.6 90 17:21 28.05.2020
2369 Clouds 31 1016 66 10000 2.6 150 16:47 28.05.2020
2370 Clouds 30 1016 70 10000 2.12 39 16:21 28.05.2020
2371 Clouds 29 1016 70 10000 2.12 39 15:56 28.05.2020
2372 Clouds 29 1016 70 10000 2.12 39 15:38 28.05.2020
2373 Clouds 29 1016 70 10000 1.88 6 15:19 28.05.2020
2374 Clouds 28 1016 88 10000 1.88 6 14:42 28.05.2020
2375 Clouds 28 1016 88 10000 1.64 357 14:23 28.05.2020
2376 Clouds 27 1018 100 0 1.64 357 13:46 28.05.2020
2377 Clouds 27 1018 100 0 1.62 340 13:28 28.05.2020
2378 Clouds 27 1018 97 0 1.62 340 12:56 28.05.2020
2379 Clouds 26 1014 100 10000 2.1 30 12:37 28.05.2020
2380 Clouds 25 1014 100 10000 2.1 30 12:18 28.05.2020
2381 Clouds 25 1014 100 10000 2.1 30 11:40 28.05.2020
2382 Clouds 26 1014 100 10000 2.1 30 11:22 28.05.2020
2383 Clouds 26 1016 97 0 1.42 358 10:50 28.05.2020
2384 Clouds 27 1017 97 0 1.32 352 10:28 28.05.2020
2385 Clouds 27 1017 97 0 1.32 352 10:28 28.05.2020
2386 Clouds 27 1016 97 0 1.32 352 09:59 28.05.2020
2387 Clouds 27 1016 97 0 1.32 352 09:38 28.05.2020
2388 Clouds 27 1016 97 0 1.32 352 09:38 28.05.2020
2389 Clouds 27 1016 97 0 1.4 356 09:18 28.05.2020
2390 Clouds 27 1017 97 0 1.4 356 08:44 28.05.2020
2391 Clouds 27 1017 97 0 1.41 355 08:25 28.05.2020
2392 Clouds 27 1017 97 0 1.41 355 07:45 28.05.2020
2393 Clouds 27 1017 97 0 1.32 342 07:23 28.05.2020
2394 Clouds 27 1017 97 0 1.32 342 06:51 28.05.2020
2395 Clouds 27 1017 97 0 1.32 342 06:31 28.05.2020
2396 Clouds 27 1017 97 0 1.14 333 05:40 28.05.2020
2397 Clouds 27 1017 97 0 1.18 326 04:46 28.05.2020
2398 Clouds 27 1017 97 0 0.67 324 04:22 28.05.2020
2399 Clouds 27 1017 97 0 0.67 324 03:42 28.05.2020
2400 Clouds 28 1017 95 0 0.16 250 02:45 28.05.2020
2401 Clouds 28 1016 92 0 0.71 177 01:46 28.05.2020
2402 Clouds 29 1016 93 0 1.5 156 00:50 28.05.2020
2403 Clouds 29 1013 66 10000 6.2 180 00:22 28.05.2020
2404 Clouds 29 1013 66 10000 6.2 180 23:56 27.05.2020
2405 Clouds 30 1013 66 10000 6.2 180 23:38 27.05.2020
2406 Clouds 30 1013 66 10000 6.2 180 23:19 27.05.2020
2407 Clouds 30 1013 59 10000 5.1 180 22:43 27.05.2020
2408 Clouds 31 1013 59 10000 5.1 180 22:24 27.05.2020
2409 Clouds 31 1014 59 10000 5.1 180 21:58 27.05.2020
2410 Clouds 31 1014 59 10000 5.1 180 21:40 27.05.2020
2411 Clouds 31 1014 59 10000 5.1 180 21:21 27.05.2020
2412 Clouds 31 1014 62 10000 5.1 180 20:58 27.05.2020
2413 Clouds 32 1014 62 10000 5.1 180 20:40 27.05.2020
2414 Clouds 32 1014 62 10000 5.1 180 20:40 27.05.2020
2415 Clouds 31 1014 62 10000 5.1 180 20:20 27.05.2020
2416 Clouds 31 1014 62 10000 5.1 160 19:46 27.05.2020
2417 Clouds 31 1014 62 10000 5.1 160 19:21 27.05.2020
2418 Clouds 31 1015 66 10000 4.1 120 18:58 27.05.2020
2419 Clouds 31 1015 66 10000 4.1 120 18:39 27.05.2020
2420 Clouds 31 1015 66 10000 4.1 120 18:19 27.05.2020
2421 Clouds 31 1015 66 10000 5.1 160 17:43 27.05.2020
2422 Clouds 30 1015 66 10000 5.1 160 17:24 27.05.2020
2423 Clouds 31 1015 70 10000 2.1 90 16:57 27.05.2020
2424 Clouds 30 1015 70 10000 2.1 90 16:38 27.05.2020
2425 Clouds 30 1015 70 10000 2.1 90 16:38 27.05.2020
2426 Clouds 30 1015 70 10000 2.1 90 16:20 27.05.2020
2427 Clouds 30 1015 74 10000 2.25 83 15:49 27.05.2020
2428 Clouds 29 1015 74 10000 1.69 61 15:23 27.05.2020
2429 Clouds 29 1014 83 10000 3.1 50 14:58 27.05.2020
2430 Clouds 29 1014 83 10000 3.1 50 14:39 27.05.2020
2431 Clouds 28 1014 83 10000 3.1 50 14:20 27.05.2020
2432 Clouds 28 1017 96 0 1.77 21 13:42 27.05.2020
2433 Clouds 27 1017 100 0 1.62 350 13:24 27.05.2020
2434 Clouds 27 1016 95 0 1.62 350 12:43 27.05.2020
2435 Clouds 26 1013 94 10000 2.1 40 12:24 27.05.2020
2436 Clouds 26 1013 94 10000 2.1 40 11:59 27.05.2020
2437 Clouds 25 1013 94 10000 2.1 40 11:39 27.05.2020
2438 Clouds 25 1013 94 10000 2.1 40 11:21 27.05.2020
2439 Clouds 26 1013 84 0 1.53 325 10:55 27.05.2020
2440 Clouds 26 1013 83 0 1.53 325 10:37 27.05.2020
2441 Clouds 26 1013 83 0 1.48 337 10:18 27.05.2020
2442 Clouds 26 1013 83 0 1.48 337 09:40 27.05.2020
2443 Clouds 26 1014 88 10000 1.33 344 09:21 27.05.2020
2444 Clouds 26 1014 88 10000 1.33 344 08:43 27.05.2020
2445 Clouds 26 1014 88 10000 1.06 337 08:25 27.05.2020
2446 Clouds 27 1014 82 0 1.06 337 07:57 27.05.2020
2447 Clouds 27 1014 82 0 1.06 337 07:38 27.05.2020
2448 Clouds 27 1014 82 0 0.67 353 07:20 27.05.2020
2449 Clouds 25 1014 86 0 0.67 353 06:41 27.05.2020
2450 Clouds 27 1015 88 10000 0.36 2 06:19 27.05.2020
2451 Clouds 26 1015 88 10000 0.36 2 05:47 27.05.2020
2452 Clouds 28 1017 95 0 0.82 148 04:19 27.05.2020
2453 Clouds 28 1016 96 0 1.12 152 02:30 27.05.2020
2454 Clouds 29 1016 96 0 1.85 161 01:51 27.05.2020
2455 Clouds 29 1016 95 0 2.31 159 01:23 27.05.2020
2456 Clouds 29 1015 94 0 2.31 159 00:44 27.05.2020
2457 Clouds 30 1012 59 10000 5.1 180 00:19 27.05.2020
2458 Clouds 30 1012 59 10000 5.1 180 23:43 26.05.2020
2459 Clouds 31 1012 59 10000 5.1 180 23:25 26.05.2020
2460 Clouds 31 1013 59 10000 6.2 180 22:59 26.05.2020
2461 Clouds 31 1013 59 10000 6.2 180 22:38 26.05.2020
2462 Clouds 31 1013 59 10000 6.2 180 22:20 26.05.2020
2463 Clouds 31 1015 85 0 4.07 154 21:57 26.05.2020
2464 Clouds 31 1015 85 0 4.07 154 21:39 26.05.2020
2465 Clouds 32 1014 56 10000 5.1 180 21:20 26.05.2020
2466 Clouds 32 1014 56 10000 5.1 180 20:42 26.05.2020
2467 Clouds 32 1014 56 10000 5.1 180 20:21 26.05.2020
2468 Clouds 32 1014 59 10000 5.1 180 19:56 26.05.2020
2469 Clouds 31 1014 59 10000 5.1 180 19:37 26.05.2020
2470 Clouds 31 1014 59 10000 5.1 180 19:18 26.05.2020
2471 Clouds 31 1015 62 10000 5.1 140 18:41 26.05.2020
2472 Clouds 31 1015 62 10000 5.1 140 18:22 26.05.2020
2473 Clouds 31 1015 62 10000 5.1 180 17:44 26.05.2020
2474 Clouds 30 1015 62 10000 5.1 180 17:26 26.05.2020
2475 Clouds 30 1015 70 10000 3.1 180 16:59 26.05.2020
2476 Clouds 30 1015 70 10000 3.1 180 16:41 26.05.2020
2477 Clouds 30 1015 70 10000 3.1 180 16:19 26.05.2020
2478 Clouds 29 1017 92 0 1.52 115 15:44 26.05.2020
2479 Clouds 28 1015 83 10000 0.51 355 15:21 26.05.2020
2480 Clouds 28 1015 83 10000 0.51 355 14:59 26.05.2020
2481 Clouds 28 1015 83 10000 0.51 355 14:41 26.05.2020
2482 Clouds 28 1015 83 10000 0.78 3 14:21 26.05.2020
2483 Clouds 27 1017 100 0 0.78 3 13:42 26.05.2020
2484 Clouds 27 1017 100 0 0.66 360 13:23 26.05.2020
2485 Clouds 26 1016 100 0 0.66 360 12:57 26.05.2020
2486 Clouds 26 1016 100 0 0.66 360 12:39 26.05.2020
2487 Clouds 26 1013 100 10000 2.1 60 12:19 26.05.2020
2488 Rain 26 1013 100 10000 2.1 60 11:41 26.05.2020
2489 Rain 26 1013 100 10000 2.1 60 11:21 26.05.2020
2490 Rain 27 1013 86 0 0.45 181 10:58 26.05.2020
2491 Clouds 27 1013 82 0 1.34 175 10:38 26.05.2020
2492 Rain 27 1013 83 0 0.45 65 10:18 26.05.2020
2493 Rain 26 1013 88 8000 0.47 358 09:39 26.05.2020
2494 Rain 26 1013 88 8000 0.23 360 09:19 26.05.2020
2495 Clouds 26 1014 83 10000 2.1 120 08:42 26.05.2020
2496 Clouds 27 1014 83 10000 2.1 120 08:22 26.05.2020
2497 Clouds 28 1014 79 0 0.47 315 07:44 26.05.2020
2498 Rain 25 1015 86 0 0.48 311 07:24 26.05.2020
2499 Rain 25 1015 86 0 0.48 311 06:54 26.05.2020
2500 Clouds 27 1015 83 10000 3.1 140 06:35 26.05.2020
2501 Clouds 27 1015 83 10000 3.1 140 05:48 26.05.2020
2502 Clouds 27 1015 83 10000 3.1 140 05:28 26.05.2020
2503 Clouds 25 1015 84 0 0.53 218 04:49 26.05.2020
2504 Clouds 28 1015 79 0 0.53 218 04:31 26.05.2020
2505 Clouds 28 1015 80 0 0.86 229 03:52 26.05.2020
2506 Clouds 28 1013 74 10000 0.99 206 02:40 26.05.2020
2507 Clouds 29 1016 95 0 1.63 165 01:47 26.05.2020
2508 Clouds 29 1015 93 0 2.64 157 00:56 26.05.2020
2509 Clouds 30 1012 59 10000 5.1 180 00:36 26.05.2020
2510 Clouds 30 1012 59 10000 5.1 180 00:36 26.05.2020
2511 Clouds 30 1012 59 10000 5.1 180 00:18 26.05.2020
2512 Clouds 30 1012 59 10000 5.1 180 23:39 25.05.2020
2513 Clouds 31 1012 59 10000 5.1 180 23:20 25.05.2020
2514 Clouds 31 1013 52 10000 5.1 180 22:56 25.05.2020
2515 Clouds 31 1013 52 10000 5.1 180 22:38 25.05.2020
2516 Clouds 31 1013 52 10000 5.1 180 22:20 25.05.2020
2517 Clouds 31 1013 49 10000 5.1 180 21:59 25.05.2020
2518 Clouds 31 1013 49 10000 5.1 180 21:59 25.05.2020
2519 Clouds 31 1013 49 10000 5.1 180 21:39 25.05.2020
2520 Clouds 32 1013 49 10000 5.1 180 21:20 25.05.2020
2521 Clouds 31 1014 49 10000 5.1 180 20:59 25.05.2020
2522 Clouds 31 1014 49 10000 5.1 180 20:41 25.05.2020
2523 Clouds 32 1014 49 10000 5.1 180 20:21 25.05.2020
2524 Clouds 31 1014 52 10000 5.1 180 19:58 25.05.2020
2525 Clouds 32 1014 52 10000 5.1 180 19:38 25.05.2020
2526 Clouds 31 1014 52 10000 5.1 180 19:18 25.05.2020
2527 Clouds 31 1014 52 10000 5.1 180 19:18 25.05.2020
2528 Clouds 31 1015 59 10000 5.1 180 18:43 25.05.2020
2529 Clouds 31 1015 59 10000 5.1 180 18:22 25.05.2020
2530 Clouds 31 1015 59 10000 4.1 160 17:57 25.05.2020
2531 Clouds 31 1015 59 10000 4.1 160 17:38 25.05.2020
2532 Clouds 31 1015 59 10000 4.1 160 17:20 25.05.2020
2533 Clouds 28 1015 100 10000 4.1 170 16:55 25.05.2020
2534 Clouds 28 1015 100 10000 4.1 170 16:36 25.05.2020
2535 Clouds 28 1015 100 10000 4.1 170 16:18 25.05.2020
2536 Clouds 29 1015 83 10000 3.32 155 15:42 25.05.2020
2537 Clouds 29 1015 83 10000 2.73 149 15:18 25.05.2020
2538 Clouds 28 1014 94 10000 2.73 149 14:43 25.05.2020
2539 Clouds 27 1014 94 10000 1 168 14:25 25.05.2020
2540 Clouds 27 1014 94 10000 1 168 14:25 25.05.2020
2541 Clouds 27 1017 100 0 1 168 13:57 25.05.2020
2542 Clouds 27 1016 100 0 1 168 13:38 25.05.2020
2543 Clouds 26 1016 100 0 0.78 259 13:20 25.05.2020
2544 Clouds 26 1016 100 0 0.78 259 12:55 25.05.2020
2545 Clouds 26 1013 94 10000 2.1 40 12:36 25.05.2020
2546 Clouds 25 1013 94 10000 2.1 40 12:18 25.05.2020
2547 Clouds 25 1013 94 10000 2.1 40 11:39 25.05.2020
2548 Clouds 25 1013 94 10000 2.1 40 11:19 25.05.2020
2549 Clouds 26 1013 87 0 0.26 272 10:54 25.05.2020
2550 Clouds 26 1013 87 0 0.26 272 10:36 25.05.2020
2551 Clouds 26 1013 86 0 0.2 291 10:18 25.05.2020
2552 Clouds 26 1013 86 0 0.2 291 09:41 25.05.2020
2553 Clouds 24 1014 94 10000 0.19 252 09:19 25.05.2020
2554 Clouds 24 1014 94 10000 0.19 252 08:59 25.05.2020
2555 Clouds 24 1014 94 10000 0.19 252 08:37 25.05.2020
2556 Clouds 25 1014 94 10000 0.35 158 08:18 25.05.2020
2557 Clouds 28 1016 95 0 0.35 158 07:45 25.05.2020
2558 Clouds 28 1016 95 0 0.06 194 07:21 25.05.2020
2559 Clouds 28 1017 95 0 0.06 194 06:54 25.05.2020
2560 Clouds 27 1015 88 10000 0.06 194 06:33 25.05.2020
2561 Clouds 28 1017 95 0 0.31 191 04:19 25.05.2020
2562 Clouds 28 1017 95 0 1.16 169 03:23 25.05.2020
2563 Clouds 28 1016 96 0 1.16 169 02:45 25.05.2020
2564 Clouds 28 1016 96 0 1.91 158 01:57 25.05.2020
2565 Clouds 28 1016 95 0 2.67 159 01:29 25.05.2020
2566 Clouds 29 1016 91 0 2.67 159 00:42 25.05.2020
2567 Clouds 29 1016 91 0 3.45 160 00:20 25.05.2020
2568 Clouds 30 1015 89 0 3.45 160 23:56 24.05.2020
2569 Clouds 30 1015 86 0 3.45 160 23:37 24.05.2020
2570 Clouds 30 1015 91 0 4.14 158 23:18 24.05.2020
2571 Clouds 30 1015 90 0 4.14 158 22:41 24.05.2020
2572 Clouds 30 1015 88 0 4.66 158 22:19 24.05.2020
2573 Clouds 31 1015 88 0 4.66 158 21:56 24.05.2020
2574 Clouds 31 1014 52 10000 3.1 180 21:38 24.05.2020
2575 Clouds 31 1014 52 10000 3.1 180 21:20 24.05.2020
2576 Clouds 31 1014 52 10000 3.1 180 20:44 24.05.2020
2577 Clouds 31 1014 52 10000 3.1 180 20:23 24.05.2020
2578 Clouds 31 1014 52 10000 4.1 160 19:59 24.05.2020
2579 Clouds 31 1014 52 10000 4.1 160 19:41 24.05.2020
2580 Clouds 31 1014 52 10000 4.1 160 19:20 24.05.2020
2581 Clouds 31 1015 59 10000 5.1 170 18:59 24.05.2020
2582 Clouds 31 1015 59 10000 5.1 170 18:40 24.05.2020
2583 Clouds 31 1015 59 10000 5.1 170 18:22 24.05.2020
2584 Clouds 31 1016 62 10000 5.1 170 17:55 24.05.2020
2585 Clouds 31 1016 62 10000 5.1 170 17:36 24.05.2020
2586 Clouds 30 1016 62 10000 5.1 170 17:18 24.05.2020
2587 Clouds 30 1016 74 10000 3.63 158 16:39 24.05.2020
2588 Clouds 30 1016 74 10000 2.82 154 16:20 24.05.2020
2589 Clouds 29 1015 78 10000 2.82 154 15:57 24.05.2020
2590 Clouds 29 1015 78 10000 2.82 154 15:39 24.05.2020
2591 Clouds 29 1015 78 10000 1.88 153 15:19 24.05.2020
2592 Clouds 28 1015 94 10000 1.88 153 14:55 24.05.2020
2593 Clouds 27 1015 94 10000 1.88 153 14:37 24.05.2020
2594 Clouds 27 1015 94 10000 0.96 197 14:18 24.05.2020
2595 Clouds 27 1017 100 0 0.96 197 13:43 24.05.2020
2596 Clouds 26 1017 100 0 0.73 265 13:23 24.05.2020
2597 Clouds 26 1017 100 0 0.73 265 12:59 24.05.2020
2598 Clouds 26 1017 100 0 0.73 265 12:59 24.05.2020
2599 Clouds 26 1016 96 0 0.73 265 12:41 24.05.2020
2600 Clouds 26 1016 96 0 0.79 246 12:22 24.05.2020
2601 Clouds 26 1016 96 0 0.79 246 11:59 24.05.2020
2602 Clouds 26 1016 96 0 0.79 246 11:41 24.05.2020
2603 Clouds 26 1016 96 0 0.81 229 11:23 24.05.2020
2604 Clouds 26 1016 96 0 0.81 229 10:59 24.05.2020
2605 Clouds 26 1016 96 0 0.81 229 10:39 24.05.2020
2606 Clouds 26 1016 96 0 0.73 232 10:21 24.05.2020
2607 Clouds 26 1016 96 0 0.73 232 09:41 24.05.2020
2608 Clouds 26 1016 96 0 1.09 204 09:19 24.05.2020
2609 Clouds 26 1016 96 0 1.09 204 08:58 24.05.2020
2610 Clouds 26 1017 96 0 1.09 204 08:40 24.05.2020
2611 Rain 26 1017 96 0 1.04 185 08:22 24.05.2020
2612 Rain 26 1017 96 0 1.04 185 07:51 24.05.2020
2613 Clouds 26 1017 96 0 0.72 180 07:26 24.05.2020
2614 Clouds 26 1017 96 0 0.72 180 06:58 24.05.2020
2615 Clouds 26 1018 96 0 0.72 180 06:37 24.05.2020
2616 Clouds 27 1018 96 0 0.65 216 05:21 24.05.2020
2617 Clouds 27 1018 96 0 1.04 192 03:42 24.05.2020
2618 Clouds 27 1017 96 0 1.37 169 02:47 24.05.2020
2619 Clouds 27 1017 96 0 1.78 159 01:54 24.05.2020
2620 Clouds 28 1017 90 0 2.47 152 00:42 24.05.2020
2621 Clouds 28 1015 78 0 5.1 50 00:22 24.05.2020
2622 Clouds 28 1015 78 0 5.1 50 00:22 24.05.2020
2623 Clouds 28 1015 78 0 5.1 50 23:46 23.05.2020
2624 Clouds 28 1015 78 0 5.1 50 23:26 23.05.2020
2625 Clouds 30 1015 66 10000 5.1 120 22:59 23.05.2020
2626 Clouds 30 1015 66 10000 5.1 120 22:39 23.05.2020
2627 Clouds 30 1015 66 10000 5.1 120 22:20 23.05.2020
2628 Clouds 32 1014 56 10000 6.2 180 21:59 23.05.2020
2629 Clouds 31 1016 91 0 3.94 155 21:41 23.05.2020
2630 Clouds 31 1016 91 0 4.32 153 21:20 23.05.2020
2631 Clouds 31 1016 90 0 4.32 153 20:59 23.05.2020
2632 Clouds 31 1016 90 0 4.32 153 20:59 23.05.2020
2633 Clouds 32 1016 52 10000 5.1 180 20:38 23.05.2020
2634 Clouds 32 1016 52 10000 5.1 180 20:19 23.05.2020
2635 Clouds 32 1016 52 10000 5.1 180 19:55 23.05.2020
2636 Clouds 32 1016 52 10000 5.1 180 19:37 23.05.2020
2637 Clouds 32 1016 52 10000 5.1 180 19:18 23.05.2020
2638 Clouds 31 1017 55 10000 2.6 180 18:40 23.05.2020
2639 Clouds 31 1017 55 10000 2.6 180 18:22 23.05.2020
2640 Clouds 31 1017 55 10000 2.77 126 17:56 23.05.2020
2641 Clouds 31 1017 55 10000 2.77 126 17:38 23.05.2020
2642 Clouds 31 1017 55 10000 2.52 108 17:19 23.05.2020
2643 Clouds 31 1017 74 10000 2.6 110 16:57 23.05.2020
2644 Clouds 30 1017 74 10000 2.6 110 16:39 23.05.2020
2645 Clouds 30 1017 74 10000 2.6 110 16:19 23.05.2020
2646 Clouds 30 1017 79 10000 2.25 86 15:43 23.05.2020
2647 Clouds 29 1017 79 10000 1.81 61 15:24 23.05.2020
2648 Clouds 28 1016 88 10000 1.81 61 14:58 23.05.2020
2649 Clouds 28 1016 88 10000 1.81 61 14:39 23.05.2020
2650 Clouds 27 1016 88 10000 1.41 23 14:21 23.05.2020
2651 Clouds 27 1018 100 0 1.41 23 13:41 23.05.2020
2652 Clouds 26 1018 100 0 1.51 343 13:19 23.05.2020
2653 Clouds 26 1018 100 0 1.51 343 13:19 23.05.2020
2654 Clouds 26 1018 100 0 1.51 343 12:56 23.05.2020
2655 Clouds 26 1014 88 10000 2.1 70 12:38 23.05.2020
2656 Clouds 26 1014 88 10000 2.1 70 12:19 23.05.2020
2657 Clouds 25 1014 88 10000 2.1 70 11:43 23.05.2020
2658 Clouds 25 1014 88 10000 2.1 70 11:43 23.05.2020
2659 Clouds 25 1014 88 10000 2.1 70 11:22 23.05.2020
2660 Clouds 26 1015 84 0 0.92 326 10:57 23.05.2020
2661 Clouds 26 1015 84 0 0.92 326 10:39 23.05.2020
2662 Clouds 27 1015 83 0 0.8 295 10:20 23.05.2020
2663 Clouds 27 1015 84 0 0.8 295 09:58 23.05.2020
2664 Clouds 27 1015 84 0 0.8 295 09:39 23.05.2020
2665 Clouds 26 1015 88 10000 1 60 09:21 23.05.2020
2666 Clouds 26 1015 88 10000 1 60 08:43 23.05.2020
2667 Clouds 27 1015 88 10000 1 60 08:20 23.05.2020
2668 Clouds 25 1015 84 0 0.61 250 07:47 23.05.2020
2669 Clouds 28 1015 83 0 0.61 250 07:29 23.05.2020
2670 Clouds 28 1016 83 0 0.31 201 06:55 23.05.2020
2671 Clouds 27 1016 94 10000 1 150 06:36 23.05.2020
2672 Clouds 28 1019 96 0 0.15 268 04:56 23.05.2020
2673 Clouds 28 1018 96 0 0.21 321 03:30 23.05.2020
2674 Clouds 28 1018 96 0 0.81 136 02:57 23.05.2020
2675 Clouds 28 1017 96 0 1.19 148 01:57 23.05.2020
2676 Clouds 28 1017 96 0 2.23 152 01:21 23.05.2020
2677 Clouds 29 1016 95 0 2.23 152 00:46 23.05.2020
2678 Clouds 29 1014 62 10000 5.1 180 00:25 23.05.2020
2679 Clouds 30 1014 62 10000 5.1 180 23:57 22.05.2020
2680 Clouds 30 1014 62 10000 5.1 180 23:38 22.05.2020
2681 Clouds 30 1014 62 10000 5.1 180 23:18 22.05.2020
2682 Clouds 31 1014 59 10000 6.2 180 22:43 22.05.2020
2683 Clouds 31 1014 59 10000 6.2 180 22:21 22.05.2020
2684 Clouds 31 1014 62 10000 5.1 180 21:57 22.05.2020
2685 Clouds 31 1014 62 10000 5.1 180 21:38 22.05.2020
2686 Clouds 31 1014 62 10000 5.1 180 21:20 22.05.2020
2687 Clouds 31 1015 59 10000 6.2 180 20:45 22.05.2020
2688 Clouds 31 1015 59 10000 6.2 180 20:21 22.05.2020
2689 Clouds 31 1015 59 10000 5.1 180 19:59 22.05.2020
2690 Clouds 31 1015 59 10000 5.1 180 19:37 22.05.2020
2691 Clouds 31 1015 59 10000 5.1 180 19:18 22.05.2020
2692 Clouds 31 1016 62 10000 5.1 160 18:39 22.05.2020
2693 Clouds 31 1016 62 10000 5.1 160 18:19 22.05.2020
2694 Clouds 31 1016 66 10000 4.1 90 17:56 22.05.2020
2695 Clouds 31 1016 66 10000 4.1 90 17:36 22.05.2020
2696 Clouds 31 1016 66 10000 4.1 90 17:18 22.05.2020
2697 Clouds 30 1016 74 10000 2.27 118 16:41 22.05.2020
2698 Clouds 30 1016 74 10000 1.7 87 16:20 22.05.2020
2699 Clouds 29 1016 78 10000 4.1 60 15:57 22.05.2020
2700 Clouds 29 1016 78 10000 4.1 60 15:39 22.05.2020
2701 Clouds 29 1016 78 10000 4.1 60 15:19 22.05.2020
2702 Clouds 28 1015 83 10000 3.1 30 14:42 22.05.2020
2703 Clouds 28 1015 83 10000 3.1 30 14:24 22.05.2020
2704 Clouds 27 1018 99 0 1.45 17 13:45 22.05.2020
2705 Clouds 27 1018 99 0 1.42 360 13:20 22.05.2020
2706 Clouds 27 1015 84 0 1.34 54 12:44 22.05.2020
2707 Clouds 26 1014 88 10000 2.1 30 12:25 22.05.2020
2708 Clouds 26 1014 88 10000 2.1 30 11:56 22.05.2020
2709 Clouds 26 1014 88 10000 2.1 30 11:37 22.05.2020
2710 Clouds 26 1014 88 10000 2.1 30 11:19 22.05.2020
2711 Clouds 27 1015 84 0 1.34 70 10:41 22.05.2020
2712 Clouds 27 1015 83 0 1.79 68 10:22 22.05.2020
2713 Clouds 27 1015 83 0 1.79 64 09:59 22.05.2020
2714 Clouds 27 1015 83 0 1.79 64 09:59 22.05.2020
2715 Clouds 27 1015 83 0 0.89 54 09:40 22.05.2020
2716 Clouds 26 1015 88 10000 2.1 100 09:18 22.05.2020
2717 Clouds 26 1015 88 10000 2.1 100 08:43 22.05.2020
2718 Clouds 26 1015 88 10000 2.1 100 08:43 22.05.2020
2719 Clouds 27 1015 88 10000 2.1 100 08:20 22.05.2020
2720 Clouds 28 1016 82 0 0.89 89 07:54 22.05.2020
2721 Clouds 28 1018 96 0 0.89 19 07:24 22.05.2020
2722 Clouds 28 1018 96 0 0.89 19 06:55 22.05.2020
2723 Clouds 28 1018 96 0 0.89 19 06:33 22.05.2020
2724 Clouds 28 1018 96 0 0.7 31 05:38 22.05.2020
2725 Rain 28 1018 96 0 0.87 26 04:50 22.05.2020
2726 Clouds 28 1018 96 0 0.27 48 04:19 22.05.2020
2727 Clouds 28 1018 95 0 0.27 48 03:45 22.05.2020
2728 Clouds 28 1018 95 0 0.78 69 02:59 22.05.2020
2729 Clouds 28 1014 74 10000 2.1 140 01:52 22.05.2020
2730 Clouds 28 1014 74 10000 2.1 140 01:24 22.05.2020
2731 Clouds 30 1013 62 10000 6.2 180 00:35 22.05.2020
2732 Clouds 30 1013 62 10000 6.2 180 23:59 21.05.2020
2733 Clouds 30 1013 62 10000 6.2 180 23:41 21.05.2020
2734 Clouds 30 1013 62 10000 6.2 180 23:23 21.05.2020
2735 Clouds 30 1013 59 10000 6.2 180 22:57 21.05.2020
2736 Clouds 30 1013 59 10000 6.2 180 22:57 21.05.2020
2737 Clouds 30 1013 59 10000 6.2 180 22:37 21.05.2020
2738 Clouds 31 1013 59 10000 6.2 180 22:19 21.05.2020
2739 Clouds 31 1013 59 10000 5.1 180 21:49 21.05.2020
2740 Clouds 31 1013 59 10000 5.1 180 21:27 21.05.2020
2741 Clouds 31 1014 59 10000 5.1 180 20:59 21.05.2020
2742 Clouds 31 1014 59 10000 5.1 180 20:40 21.05.2020
2743 Clouds 31 1014 59 10000 5.1 180 20:21 21.05.2020
2744 Clouds 31 1014 62 10000 5.1 180 19:40 21.05.2020
2745 Clouds 31 1014 62 10000 5.1 180 19:20 21.05.2020
2746 Clouds 31 1015 70 10000 4.1 150 18:58 21.05.2020
2747 Clouds 30 1016 66 10000 3.1 120 18:37 21.05.2020
2748 Clouds 30 1016 66 10000 3.1 120 18:18 21.05.2020
2749 Clouds 30 1016 66 10000 3.1 120 17:55 21.05.2020
2750 Clouds 30 1016 66 10000 3.1 120 17:36 21.05.2020
2751 Clouds 30 1016 66 10000 3.1 120 17:18 21.05.2020
2752 Clouds 30 1015 66 10000 2.27 134 16:41 21.05.2020
2753 Clouds 30 1015 66 10000 1.77 97 16:22 21.05.2020
2754 Clouds 29 1015 78 10000 1.77 97 15:41 21.05.2020
2755 Clouds 28 1015 78 10000 1.64 62 15:22 21.05.2020
2756 Rain 27 1014 88 10000 1.64 62 14:42 21.05.2020
2757 Rain 27 1014 88 10000 1.45 4 14:23 21.05.2020
2758 Clouds 27 1017 99 0 1.45 4 13:58 21.05.2020
2759 Clouds 27 1017 100 0 1.45 4 13:38 21.05.2020
2760 Clouds 27 1017 100 0 1.45 359 13:18 21.05.2020
2761 Clouds 26 1014 82 0 0.89 20 12:40 21.05.2020
2762 Clouds 26 1013 94 10000 2.1 30 12:21 21.05.2020
2763 Clouds 26 1013 94 10000 2.1 30 11:57 21.05.2020
2764 Clouds 26 1013 94 10000 2.1 30 11:39 21.05.2020
2765 Clouds 26 1013 94 10000 2.1 30 11:39 21.05.2020
2766 Clouds 26 1013 94 10000 2.1 30 11:20 21.05.2020
2767 Clouds 26 1014 83 0 1.43 338 10:43 21.05.2020
2768 Clouds 26 1014 83 0 1.56 349 10:23 21.05.2020
2769 Clouds 26 1014 82 0 1.56 349 09:58 21.05.2020
2770 Clouds 26 1014 82 0 1.56 349 09:39 21.05.2020
2771 Clouds 26 1014 88 10000 2.1 70 09:21 21.05.2020
2772 Clouds 26 1014 88 10000 2.1 70 08:50 21.05.2020
2773 Clouds 26 1014 88 10000 2.1 70 08:31 21.05.2020
2774 Clouds 27 1014 82 0 1.34 95 07:54 21.05.2020
2775 Clouds 26 1015 83 0 0.99 350 07:36 21.05.2020
2776 Clouds 27 1015 82 0 0.69 319 07:18 21.05.2020
2777 Clouds 27 1015 88 10000 3.1 110 06:26 21.05.2020
2778 Clouds 28 1018 94 0 0.32 226 05:49 21.05.2020
2779 Clouds 28 1017 93 0 1.07 178 03:23 21.05.2020
2780 Clouds 28 1017 93 0 1.07 178 02:57 21.05.2020
2781 Clouds 28 1017 95 0 1.38 164 02:31 21.05.2020
2782 Clouds 28 1016 94 0 1.62 163 01:49 21.05.2020
2783 Clouds 28 1016 94 0 2.5 160 01:24 21.05.2020
2784 Clouds 28 1016 93 0 2.5 160 00:53 21.05.2020
2785 Clouds 29 1014 66 10000 6.2 180 00:25 21.05.2020
2786 Clouds 29 1014 66 10000 6.2 180 23:47 20.05.2020
2787 Clouds 29 1014 66 10000 6.2 180 23:21 20.05.2020
2788 Clouds 30 1014 62 10000 6.2 180 22:59 20.05.2020
2789 Clouds 30 1014 62 10000 6.2 180 22:41 20.05.2020
2790 Clouds 30 1014 62 10000 6.2 180 22:23 20.05.2020
2791 Clouds 30 1015 59 10000 5.1 180 21:42 20.05.2020
2792 Clouds 30 1015 59 10000 5.1 180 21:23 20.05.2020
2793 Clouds 31 1015 59 10000 5.1 160 20:55 20.05.2020
2794 Clouds 31 1015 59 10000 5.1 160 20:37 20.05.2020
2795 Clouds 31 1015 59 10000 5.1 160 20:19 20.05.2020
2796 Clouds 31 1016 59 10000 5.1 180 19:39 20.05.2020
2797 Clouds 31 1016 59 10000 5.1 180 19:20 20.05.2020
2798 Clouds 30 1017 66 10000 5.1 180 18:56 20.05.2020
2799 Clouds 30 1017 66 10000 5.1 180 18:38 20.05.2020
2800 Clouds 30 1017 66 10000 5.1 180 18:19 20.05.2020
2801 Clouds 30 1016 74 10000 2.1 90 17:38 20.05.2020
2802 Clouds 30 1016 74 10000 2.1 90 17:19 20.05.2020
2803 Clouds 30 1016 74 10000 2.1 90 16:42 20.05.2020
2804 Clouds 30 1016 74 10000 2.1 90 16:22 20.05.2020
2805 Clouds 29 1016 78 10000 2.05 134 15:57 20.05.2020
2806 Clouds 28 1016 78 10000 2.05 134 15:39 20.05.2020
2807 Clouds 28 1016 78 10000 1.03 84 15:20 20.05.2020
2808 Clouds 27 1015 94 10000 1.03 84 14:42 20.05.2020
2809 Clouds 27 1015 94 10000 0.94 2 14:20 20.05.2020
2810 Clouds 26 1018 100 0 0.83 347 13:41 20.05.2020
2811 Clouds 26 1018 100 0 1.39 327 13:19 20.05.2020
2812 Clouds 25 1018 100 0 1.39 327 12:56 20.05.2020
2813 Clouds 25 1014 88 10000 2.1 80 12:37 20.05.2020
2814 Clouds 25 1014 88 10000 2.1 80 12:18 20.05.2020
2815 Clouds 25 1014 88 10000 2.1 80 11:36 20.05.2020
2816 Clouds 25 1014 88 10000 2.1 80 11:18 20.05.2020
2817 Clouds 25 1014 88 10000 2.1 80 11:18 20.05.2020
2818 Clouds 25 1014 83 0 1 1 10:42 20.05.2020
2819 Clouds 26 1014 83 0 1.34 54 10:20 20.05.2020
2820 Clouds 26 1014 85 0 1.04 8 09:44 20.05.2020
2821 Clouds 26 1015 88 10000 2.1 40 09:21 20.05.2020
2822 Clouds 25 1015 88 10000 2.1 40 08:56 20.05.2020
2823 Clouds 25 1015 88 10000 2.1 40 08:38 20.05.2020
2824 Clouds 25 1015 88 10000 2.1 40 08:18 20.05.2020
2825 Clouds 27 1015 81 0 0.32 30 07:45 20.05.2020
2826 Rain 27 1015 80 0 0.23 78 07:19 20.05.2020
2827 Clouds 27 1016 78 10000 2.1 130 06:35 20.05.2020
2828 Clouds 28 1018 94 0 0.58 168 05:23 20.05.2020
2829 Clouds 28 1018 94 0 1.01 146 04:26 20.05.2020
2830 Clouds 28 1018 93 0 1.01 146 03:38 20.05.2020
2831 Clouds 28 1017 94 0 1.88 149 02:23 20.05.2020
2832 Clouds 28 1016 95 0 2.41 151 01:28 20.05.2020
2833 Clouds 28 1016 93 0 2.41 151 00:44 20.05.2020
2834 Clouds 29 1013 66 10000 6.2 150 00:23 20.05.2020
2835 Clouds 30 1013 66 10000 6.2 150 23:41 19.05.2020
2836 Clouds 30 1013 66 10000 6.2 150 23:19 19.05.2020
2837 Clouds 30 1013 66 10000 5.1 150 22:56 19.05.2020
2838 Clouds 30 1013 66 10000 5.1 150 22:38 19.05.2020
2839 Clouds 31 1013 66 10000 5.1 150 22:18 19.05.2020
2840 Clouds 31 1014 62 10000 7.7 150 21:56 19.05.2020
2841 Clouds 31 1014 62 10000 7.7 150 21:37 19.05.2020
2842 Clouds 31 1014 62 10000 7.7 150 21:19 19.05.2020
2843 Clouds 31 1015 59 10000 5.1 120 20:56 19.05.2020
2844 Clouds 31 1015 59 10000 5.1 120 20:38 19.05.2020
2845 Clouds 31 1015 59 10000 5.1 120 20:38 19.05.2020
2846 Clouds 31 1015 59 10000 5.1 120 20:38 19.05.2020
2847 Clouds 31 1015 59 10000 5.1 120 20:19 19.05.2020
2848 Clouds 31 1015 59 10000 5.1 120 20:19 19.05.2020
2849 Clouds 31 1016 55 10000 8.2 180 19:39 19.05.2020
2850 Clouds 31 1016 55 10000 8.2 180 19:21 19.05.2020
2851 Clouds 31 1016 55 10000 5.1 150 18:55 19.05.2020
2852 Clouds 31 1016 55 10000 5.1 150 18:36 19.05.2020
2853 Clouds 31 1016 55 10000 5.1 150 18:18 19.05.2020
2854 Clouds 31 1017 66 10000 5.1 150 17:40 19.05.2020
2855 Clouds 30 1017 66 10000 5.1 150 17:21 19.05.2020
2856 Clouds 30 1017 79 10000 5.1 150 16:56 19.05.2020
2857 Clouds 30 1017 79 10000 5.1 150 16:37 19.05.2020
2858 Clouds 29 1017 79 10000 5.1 150 16:19 19.05.2020
2859 Clouds 29 1016 79 10000 2.64 139 15:44 19.05.2020
2860 Clouds 28 1016 79 10000 1.94 119 15:21 19.05.2020
2861 Clouds 27 1016 83 10000 1.94 119 14:56 19.05.2020
2862 Clouds 27 1016 83 10000 1.94 119 14:38 19.05.2020
2863 Clouds 27 1016 83 10000 0.85 64 14:20 19.05.2020
2864 Clouds 26 1016 94 10000 2.1 40 13:56 19.05.2020
2865 Clouds 26 1016 94 10000 2.1 40 13:37 19.05.2020
2866 Clouds 26 1016 94 10000 2.1 40 13:19 19.05.2020
2867 Clouds 26 1018 100 0 0.86 3 12:56 19.05.2020
2868 Clouds 25 1015 94 10000 2.1 30 12:36 19.05.2020
2869 Clouds 25 1015 94 10000 2.1 30 12:36 19.05.2020
2870 Clouds 25 1015 94 10000 2.1 30 12:18 19.05.2020
2871 Clouds 23 1015 94 10000 2.1 30 11:42 19.05.2020
2872 Clouds 23 1015 94 10000 2.1 30 11:22 19.05.2020
2873 Clouds 24 1015 89 0 0.74 360 10:56 19.05.2020
2874 Clouds 24 1015 89 0 0.74 360 10:38 19.05.2020
2875 Clouds 24 1015 89 0 0.74 360 10:38 19.05.2020
2876 Clouds 24 1015 89 0 0.74 360 10:18 19.05.2020
2877 Clouds 24 1015 89 0 0.74 360 10:18 19.05.2020
2878 Clouds 24 1015 89 0 0.74 360 09:43 19.05.2020
2879 Clouds 22 1015 94 10000 2.1 60 09:25 19.05.2020
2880 Clouds 22 1015 94 10000 2.1 60 09:25 19.05.2020
2881 Clouds 22 1015 94 10000 2.1 60 08:47 19.05.2020
2882 Clouds 22 1015 94 10000 2.1 60 08:25 19.05.2020
2883 Clouds 22 1015 94 10000 2.1 60 08:25 19.05.2020
2884 Rain 28 1018 96 0 1.59 56 07:49 19.05.2020
2885 Rain 28 1018 96 0 1.62 70 07:28 19.05.2020
2886 Rain 28 1018 96 0 1.62 70 06:55 19.05.2020
2887 Clouds 27 1016 88 10000 3.1 140 06:31 19.05.2020
2888 Clouds 27 1016 88 10000 3.1 140 05:43 19.05.2020
2889 Clouds 27 1016 88 10000 3.1 140 05:23 19.05.2020
2890 Rain 28 1019 96 0 1.6 118 04:50 19.05.2020
2891 Rain 28 1018 96 0 1.81 147 02:50 19.05.2020
2892 Clear 29 1017 94 0 2.43 151 00:49 19.05.2020
2893 Clear 29 1017 94 0 2.43 151 00:31 19.05.2020
2894 Clear 29 1017 94 0 3.52 151 23:59 18.05.2020
2895 Clear 29 1017 93 0 3.52 151 23:40 18.05.2020
2896 Clear 30 1017 93 0 4.09 154 23:20 18.05.2020
2897 Clear 30 1017 93 0 4.09 154 22:55 18.05.2020
2898 Clear 30 1017 91 0 4.09 154 22:37 18.05.2020
2899 Clear 30 1017 91 0 4.39 153 22:19 18.05.2020
2900 Clouds 31 1015 52 10000 7.2 180 21:42 18.05.2020
2901 Clouds 31 1015 52 10000 7.2 180 21:21 18.05.2020
2902 Clouds 31 1015 52 10000 7.2 180 20:57 18.05.2020
2903 Clouds 31 1015 52 10000 7.2 180 20:37 18.05.2020
2904 Clouds 31 1016 59 10000 8.7 180 20:19 18.05.2020
2905 Clouds 31 1016 59 10000 8.7 180 19:41 18.05.2020
2906 Clouds 31 1016 59 10000 8.7 180 19:41 18.05.2020
2907 Clouds 31 1016 59 10000 8.7 180 19:20 18.05.2020
2908 Clouds 31 1017 59 10000 6.2 180 18:55 18.05.2020
2909 Clouds 31 1017 59 10000 6.2 180 18:37 18.05.2020
2910 Clouds 31 1017 59 10000 6.2 180 18:19 18.05.2020
2911 Clouds 31 1017 59 10000 5.1 160 17:38 18.05.2020
2912 Clouds 31 1017 59 10000 5.1 160 17:18 18.05.2020
2913 Clouds 30 1017 70 10000 2.6 180 16:55 18.05.2020
2914 Clouds 30 1017 70 10000 2.6 180 16:36 18.05.2020
2915 Clouds 30 1017 70 10000 2.6 180 16:18 18.05.2020
2916 Smoke 29 1017 79 5000 2.17 135 15:42 18.05.2020
2917 Smoke 29 1017 79 5000 0.85 94 15:24 18.05.2020
2918 Clouds 28 1017 88 10000 0.85 94 14:59 18.05.2020
2919 Clouds 28 1017 88 10000 0.85 94 14:39 18.05.2020
2920 Clouds 28 1017 88 10000 0.96 352 14:21 18.05.2020
2921 Clear 27 1019 100 0 1.35 356 13:54 18.05.2020
2922 Clear 27 1018 100 0 1.35 356 13:36 18.05.2020
2923 Clear 26 1018 100 0 1.55 338 13:18 18.05.2020
2924 Clear 26 1018 100 0 1.55 338 12:54 18.05.2020
2925 Clouds 25 1015 94 10000 2.1 40 12:36 18.05.2020
2926 Clouds 25 1015 94 10000 2.1 40 12:36 18.05.2020
2927 Clouds 25 1015 94 10000 2.1 40 12:18 18.05.2020
2928 Clouds 25 1015 94 10000 2.1 40 11:42 18.05.2020
2929 Clouds 25 1015 94 10000 2.1 40 11:23 18.05.2020
2930 Rain 26 1015 89 0 0.89 106 10:47 18.05.2020
2931 Clear 23 1015 87 0 1.3 338 10:27 18.05.2020
2932 Clear 23 1015 87 0 1.3 338 09:46 18.05.2020
2933 Clouds 27 1015 78 10000 3.1 140 09:28 18.05.2020
2934 Clouds 27 1015 78 10000 3.1 140 08:59 18.05.2020
2935 Clouds 27 1015 78 10000 3.1 140 08:40 18.05.2020
2936 Clouds 27 1015 78 10000 3.1 140 08:21 18.05.2020
2937 Clear 24 1016 88 0 1.18 9 07:45 18.05.2020
2938 Clear 24 1016 87 0 1.08 3 07:24 18.05.2020
2939 Clear 24 1016 87 0 1.08 3 06:48 18.05.2020
2940 Clouds 27 1017 78 10000 3.1 130 06:23 18.05.2020
2941 Clouds 27 1017 78 10000 3.1 130 05:44 18.05.2020
2942 Clear 28 1019 97 0 0.44 205 03:53 18.05.2020
2943 Clear 28 1018 97 0 0.96 177 03:22 18.05.2020
2944 Clear 28 1017 96 0 1.5 164 01:46 18.05.2020
2945 Clear 29 1017 94 0 2.26 155 00:45 18.05.2020
2946 Clear 29 1017 93 0 3.28 151 00:19 18.05.2020
2947 Clear 30 1017 93 0 3.28 151 23:55 17.05.2020
2948 Clear 30 1016 92 0 3.28 151 23:37 17.05.2020
2949 Clear 30 1016 90 0 4.11 153 23:18 17.05.2020
2950 Clear 30 1016 89 0 4.11 153 22:40 17.05.2020
2951 Clear 30 1016 89 0 4.11 153 22:40 17.05.2020
2952 Clear 30 1017 90 0 4.5 153 22:22 17.05.2020
2953 Clear 30 1017 90 0 4.5 153 21:59 17.05.2020
2954 Clear 30 1017 90 0 4.5 153 21:41 17.05.2020
2955 Clouds 31 1015 55 10000 6.2 180 21:19 17.05.2020
2956 Clouds 31 1015 55 10000 6.2 180 20:56 17.05.2020
2957 Clouds 31 1015 55 10000 6.2 180 20:37 17.05.2020
2958 Clouds 31 1015 55 10000 6.2 180 20:18 17.05.2020
2959 Clouds 31 1015 59 10000 6.2 180 19:42 17.05.2020
2960 Clouds 31 1015 59 10000 6.2 180 19:24 17.05.2020
2961 Clouds 30 1016 62 10000 6.2 180 18:56 17.05.2020
2962 Clouds 30 1016 62 10000 6.2 180 18:38 17.05.2020
2963 Clouds 31 1016 62 10000 6.2 180 18:20 17.05.2020
2964 Clouds 30 1017 66 10000 6.2 180 17:41 17.05.2020
2965 Clouds 30 1017 66 10000 6.2 180 17:23 17.05.2020
2966 Clouds 29 1017 66 10000 5.1 160 16:57 17.05.2020
2967 Clouds 30 1017 66 10000 5.1 160 16:39 17.05.2020
2968 Clouds 30 1017 66 10000 5.1 160 16:39 17.05.2020
2969 Clouds 30 1017 66 10000 5.1 160 16:39 17.05.2020
2970 Clouds 29 1017 66 10000 5.1 160 16:20 17.05.2020
2971 Clouds 28 1017 78 10000 5.1 90 15:46 17.05.2020
2972 Clouds 27 1017 78 10000 5.1 90 15:24 17.05.2020
2973 Clouds 26 1016 88 10000 1.58 79 14:58 17.05.2020
2974 Clouds 27 1016 88 10000 1.58 79 14:39 17.05.2020
2975 Clouds 26 1016 88 10000 1.48 18 14:20 17.05.2020
2976 Clear 26 1019 100 0 1.55 10 13:42 17.05.2020
2977 Clear 26 1018 100 0 1.52 347 13:21 17.05.2020
2978 Clear 26 1018 100 0 1.52 347 13:21 17.05.2020
2979 Clouds 27 1016 78 10000 0.37 76 05:25 17.05.2020
2980 Clear 28 1018 92 0 0.59 127 03:34 17.05.2020
2981 Clear 28 1017 93 0 1.33 165 02:27 17.05.2020
2982 Clear 28 1017 92 0 1.39 166 01:54 17.05.2020
2983 Clear 28 1017 90 0 2.2 155 00:52 17.05.2020
2984 Clear 29 1017 90 0 2.2 155 00:30 17.05.2020
2985 Clear 29 1016 89 0 3.46 150 23:56 16.05.2020
2986 Clear 29 1016 89 0 3.46 150 23:38 16.05.2020
2987 Clear 30 1016 87 0 4.29 151 23:18 16.05.2020
2988 Clear 30 1016 88 0 4.29 151 22:42 16.05.2020
2989 Clear 30 1016 88 0 4.41 151 22:22 16.05.2020
2990 Clear 30 1016 87 0 4.41 151 21:57 16.05.2020
2991 Clouds 30 1014 66 10000 6.2 180 21:38 16.05.2020
2992 Clouds 30 1014 66 10000 6.2 180 21:19 16.05.2020
2993 Clouds 30 1014 66 10000 6.2 180 20:56 16.05.2020
2994 Clouds 30 1014 66 10000 6.2 180 20:38 16.05.2020
2995 Clouds 30 1014 66 10000 6.2 180 20:38 16.05.2020
2996 Clouds 30 1014 66 10000 6.2 180 20:19 16.05.2020
2997 Clouds 30 1015 66 10000 5.1 180 19:43 16.05.2020
2998 Clouds 30 1015 66 10000 5.1 180 19:23 16.05.2020
2999 Clouds 30 1015 62 10000 5.1 150 18:58 16.05.2020
3000 Clouds 30 1015 62 10000 5.1 150 18:40 16.05.2020
3001 Clouds 30 1015 62 10000 5.1 150 18:21 16.05.2020
3002 Clouds 30 1018 86 0 4.97 153 17:42 16.05.2020
3003 Clouds 30 1019 89 0 4.79 153 17:21 16.05.2020
3004 Clouds 29 1019 89 0 4.79 153 16:45 16.05.2020
3005 Clear 29 1019 89 0 3.31 152 16:25 16.05.2020
3006 Clear 29 1019 90 0 3.31 152 15:59 16.05.2020
3007 Clear 28 1019 96 0 3.31 152 15:41 16.05.2020
3008 Clouds 27 1015 94 10000 1.44 140 15:21 16.05.2020
3009 Clouds 26 1015 94 10000 1.44 140 14:56 16.05.2020
3010 Clouds 26 1015 94 10000 1.44 140 14:38 16.05.2020
3011 Clouds 25 1015 94 10000 0.12 86 14:19 16.05.2020
3012 Clouds 25 1018 100 0 0.12 86 13:42 16.05.2020
3013 Clouds 25 1018 100 0 0.78 332 13:24 16.05.2020
3014 Clouds 24 1018 100 0 0.78 332 12:58 16.05.2020
3015 Clouds 24 1015 88 0 0.89 301 12:39 16.05.2020
3016 Clouds 24 1014 100 10000 0.86 338 12:18 16.05.2020
3017 Rain 24 1014 100 10000 0.86 338 11:41 16.05.2020
3018 Rain 24 1014 100 10000 1.33 321 11:23 16.05.2020
3019 Clear 25 1015 86 0 1.34 335 10:58 16.05.2020
3020 Clear 24 1015 84 0 1.33 321 10:39 16.05.2020
3021 Clear 25 1015 85 0 0.89 65 10:20 16.05.2020
3022 Clear 25 1015 86 0 0.89 55 09:46 16.05.2020
3023 Rain 25 1015 88 8000 1.12 351 09:28 16.05.2020
3024 Rain 25 1015 88 8000 1.48 331 08:46 16.05.2020
3025 Rain 25 1015 88 8000 1.1 8 08:24 16.05.2020
3026 Clear 26 1015 81 0 1.1 8 07:59 16.05.2020
3027 Clear 26 1015 81 0 1.1 8 07:40 16.05.2020
3028 Clear 26 1015 80 0 1.26 47 07:21 16.05.2020
3029 Clear 26 1016 78 0 1.26 47 06:47 16.05.2020
3030 Clouds 26 1016 78 10000 2.1 130 06:19 16.05.2020
3031 Clouds 27 1016 78 10000 2.1 130 05:42 16.05.2020
3032 Clouds 27 1016 78 10000 2.1 130 05:20 16.05.2020
3033 Clear 28 1018 92 0 1.68 126 03:27 16.05.2020
3034 Clear 28 1017 92 0 1.68 126 02:42 16.05.2020
3035 Clear 28 1017 92 0 2.25 126 02:18 16.05.2020
3036 Clear 28 1016 91 0 2.25 126 01:39 16.05.2020
3037 Rain 28 1016 91 0 2.8 130 00:57 16.05.2020
3038 Rain 28 1016 91 0 2.8 130 00:57 16.05.2020
3039 Rain 28 1016 91 0 2.8 130 00:38 16.05.2020
3040 Clouds 29 1013 62 10000 3.1 150 00:19 16.05.2020
3041 Clouds 30 1013 62 10000 4.1 150 23:39 15.05.2020
3042 Clouds 30 1013 62 10000 4.1 150 23:19 15.05.2020
3043 Clouds 30 1013 58 10000 5.1 130 22:41 15.05.2020
3044 Clouds 30 1013 58 10000 5.1 130 22:20 15.05.2020
3045 Clouds 30 1014 58 10000 5.1 130 21:57 15.05.2020
3046 Clouds 30 1015 62 10000 6.2 180 21:38 15.05.2020
3047 Clouds 30 1015 62 10000 6.2 180 21:20 15.05.2020
3048 Clouds 30 1015 62 10000 6.2 180 20:54 15.05.2020
3049 Clouds 30 1015 62 10000 6.2 180 20:36 15.05.2020
3050 Clouds 30 1015 62 10000 6.2 180 20:18 15.05.2020
3051 Clouds 29 1016 78 0 1.79 183 19:42 15.05.2020
3052 Rain 28 1016 83 8000 5.1 310 19:23 15.05.2020
3053 Rain 29 1016 83 8000 5.1 310 18:48 15.05.2020
3054 Rain 28 1016 83 8000 5.1 310 18:28 15.05.2020
3055 Clouds 29 1017 70 10000 5.1 180 17:59 15.05.2020
3056 Clouds 30 1017 70 10000 5.1 180 17:37 15.05.2020
3057 Clouds 30 1017 70 10000 5.1 180 17:18 15.05.2020
3058 Clouds 29 1017 74 10000 3.1 90 16:55 15.05.2020
3059 Clouds 29 1017 74 10000 3.1 90 16:37 15.05.2020
3060 Clouds 29 1017 74 10000 3.1 90 16:18 15.05.2020
3061 Clouds 28 1016 83 10000 2.1 40 15:40 15.05.2020
3062 Clouds 27 1016 83 10000 2.1 40 15:20 15.05.2020
3063 Clouds 27 1016 94 10000 1.59 64 14:56 15.05.2020
3064 Clouds 26 1016 94 10000 1.59 64 14:38 15.05.2020
3065 Clouds 26 1016 94 10000 0.94 52 14:19 15.05.2020
3066 Clouds 26 1015 94 10000 0.94 52 13:41 15.05.2020
3067 Clouds 26 1015 94 10000 0.93 6 13:22 15.05.2020
3068 Rain 25 1016 82 0 1.34 109 12:42 15.05.2020
3069 Thunderstorm 24 1015 94 6000 0.89 17 12:21 15.05.2020
3070 Rain 24 1015 94 6000 0.89 17 11:59 15.05.2020
3071 Rain 23 1015 94 6000 0.89 17 11:41 15.05.2020
3072 Rain 23 1015 94 6000 0.79 359 11:21 15.05.2020
3073 Clouds 24 1015 89 0 3.13 72 10:59 15.05.2020
3074 Clouds 25 1015 88 0 0.45 230 10:41 15.05.2020
3075 Rain 25 1015 89 0 0.79 6 10:23 15.05.2020
3076 Rain 25 1015 87 0 0.89 178 09:59 15.05.2020
3077 Rain 25 1015 94 8000 0.79 6 09:38 15.05.2020
3078 Rain 25 1015 94 8000 0.94 10 09:19 15.05.2020
3079 Rain 25 1015 94 8000 0.94 10 08:57 15.05.2020
3080 Rain 25 1015 94 8000 0.94 10 08:37 15.05.2020
3081 Rain 25 1015 94 8000 0.89 16 08:18 15.05.2020
3082 Clouds 26 1016 81 0 0.89 16 07:44 15.05.2020
3083 Clouds 26 1016 80 0 0.7 62 07:24 15.05.2020
3084 Clouds 27 1016 77 0 0.7 62 06:47 15.05.2020
3085 Clouds 27 1016 83 10000 3.1 130 05:49 15.05.2020
3086 Clouds 28 1016 78 0 1.79 115 04:27 15.05.2020
3087 Clouds 28 1016 76 0 1.79 119 03:46 15.05.2020
3088 Rain 28 1016 78 0 0.89 127 02:30 15.05.2020
3089 Clouds 28 1014 74 10000 2.1 150 01:20 15.05.2020
3090 Clouds 29 1014 70 10000 4.1 160 00:48 15.05.2020
3091 Clouds 29 1014 70 10000 4.1 160 00:29 15.05.2020
3092 Clouds 30 1014 74 10000 4.1 140 23:44 14.05.2020
3093 Clouds 30 1014 74 10000 4.1 140 23:22 14.05.2020
3094 Clouds 31 1014 62 10000 4.1 160 22:59 14.05.2020
3095 Clouds 31 1014 62 10000 4.1 160 22:40 14.05.2020
3096 Clouds 31 1014 62 10000 4.1 160 22:19 14.05.2020
3097 Clouds 31 1014 66 10000 5.1 180 21:56 14.05.2020
3098 Clouds 32 1015 52 10000 8.2 180 21:37 14.05.2020
3099 Clouds 32 1015 52 10000 8.2 180 21:19 14.05.2020
3100 Clouds 32 1015 52 10000 8.2 180 20:43 14.05.2020
3101 Clouds 32 1015 52 10000 8.2 180 20:21 14.05.2020
3102 Clouds 32 1016 52 10000 4.1 150 19:59 14.05.2020
3103 Clouds 32 1016 52 10000 4.1 150 19:40 14.05.2020
3104 Clouds 32 1016 52 10000 4.1 150 19:21 14.05.2020
3105 Clouds 32 1016 55 10000 7.2 180 18:58 14.05.2020
3106 Clouds 32 1016 55 10000 7.2 180 18:38 14.05.2020
3107 Clouds 32 1016 55 10000 7.2 180 18:20 14.05.2020
3108 Clouds 31 1017 62 10000 6.2 180 17:59 14.05.2020
3109 Clouds 31 1017 62 10000 6.2 180 17:37 14.05.2020
3110 Clouds 31 1017 62 10000 6.2 180 17:19 14.05.2020
3111 Clouds 30 1017 66 10000 3.1 90 16:57 14.05.2020
3112 Clouds 30 1017 66 10000 3.1 90 16:38 14.05.2020
3113 Clouds 30 1017 66 10000 3.1 90 16:19 14.05.2020
3114 Clouds 29 1017 78 10000 4.1 120 15:56 14.05.2020
3115 Clouds 28 1017 78 10000 4.1 120 15:37 14.05.2020
3116 Clouds 28 1017 78 10000 4.1 120 15:18 14.05.2020
3117 Clouds 26 1016 78 10000 1.95 51 14:40 14.05.2020
3118 Clouds 26 1016 78 10000 2.04 357 14:20 14.05.2020
3119 Clouds 26 1016 78 10000 2.04 357 14:20 14.05.2020
3120 Clouds 24 1015 94 10000 2.1 40 13:57 14.05.2020
3121 Clouds 24 1015 94 10000 2.1 40 13:39 14.05.2020
3122 Clouds 24 1015 94 10000 2.1 40 13:20 14.05.2020
3123 Rain 24 1015 86 0 1.92 342 12:58 14.05.2020
3124 Clouds 24 1015 94 10000 2.1 40 12:39 14.05.2020
3125 Clouds 24 1015 94 10000 2.1 40 12:20 14.05.2020
3126 Clouds 24 1015 94 10000 2.1 40 11:57 14.05.2020
3127 Clouds 24 1015 94 10000 2.1 40 11:38 14.05.2020
3128 Clouds 24 1015 94 10000 2.1 40 11:38 14.05.2020
3129 Clouds 24 1015 94 10000 2.1 40 11:20 14.05.2020
3130 Clouds 24 1015 94 10000 2.1 40 11:20 14.05.2020
3131 Clouds 25 1015 86 0 1.59 342 10:45 14.05.2020
3132 Clouds 25 1015 86 0 1.6 348 10:26 14.05.2020
3133 Clouds 25 1015 86 0 1.6 348 09:57 14.05.2020
3134 Clouds 25 1015 88 10000 2.1 50 09:39 14.05.2020
3135 Clouds 25 1015 88 10000 2.1 50 09:19 14.05.2020
3136 Clouds 25 1015 88 10000 2.1 50 08:41 14.05.2020
3137 Clouds 25 1015 88 10000 2.1 50 08:20 14.05.2020
3138 Rain 26 1016 86 0 1.16 12 07:45 14.05.2020
3139 Rain 26 1016 86 0 1.19 26 07:24 14.05.2020
3140 Rain 26 1016 86 0 1.19 26 06:54 14.05.2020
3141 Clouds 26 1016 83 10000 3.1 70 06:29 14.05.2020
3142 Clouds 26 1016 83 10000 3.1 70 05:46 14.05.2020
3143 Clouds 26 1016 83 10000 3.1 70 05:23 14.05.2020
3144 Rain 27 1016 82 0 0.45 32 04:25 14.05.2020
3145 Clouds 27 1015 78 10000 2.1 130 03:22 14.05.2020
3146 Clouds 27 1015 78 10000 2.1 130 02:41 14.05.2020
3147 Clouds 28 1014 74 10000 2.1 160 01:56 14.05.2020
3148 Clouds 28 1014 74 10000 2.1 160 01:19 14.05.2020
3149 Clouds 30 1013 66 10000 4.1 150 00:43 14.05.2020
3150 Clouds 30 1013 66 10000 4.1 150 00:21 14.05.2020
3151 Clear 30 1016 91 0 3.63 151 23:40 13.05.2020
3152 Clear 30 1016 91 0 4.21 156 23:21 13.05.2020
3153 Clear 30 1016 89 0 4.21 156 22:42 13.05.2020
3154 Clear 30 1016 84 0 4.68 154 22:23 13.05.2020
3155 Clear 31 1016 86 0 4.68 154 21:59 13.05.2020
3156 Clear 30 1016 86 0 4.68 154 21:40 13.05.2020
3157 Clouds 30 1015 62 10000 5.1 160 21:20 13.05.2020
3158 Clouds 30 1015 62 10000 5.1 160 20:59 13.05.2020
3159 Clouds 30 1015 62 10000 5.1 160 20:40 13.05.2020
3160 Clouds 31 1015 62 10000 5.1 160 20:21 13.05.2020
3161 Smoke 30 1015 70 5000 5.1 150 19:43 13.05.2020
3162 Smoke 30 1015 70 5000 5.1 150 19:24 13.05.2020
3163 Clouds 30 1016 66 10000 2.6 200 18:55 13.05.2020
3164 Clouds 30 1016 66 10000 2.6 200 18:37 13.05.2020
3165 Clouds 30 1016 66 10000 2.6 200 18:18 13.05.2020
3166 Clouds 30 1017 70 10000 3.1 180 17:38 13.05.2020
3167 Clouds 30 1017 70 10000 3.1 180 17:19 13.05.2020
3168 Clouds 29 1017 70 10000 3.6 170 16:54 13.05.2020
3169 Clouds 29 1017 70 10000 3.6 170 16:36 13.05.2020
3170 Clouds 29 1017 70 10000 3.6 170 16:36 13.05.2020
3171 Clouds 29 1017 70 10000 3.6 170 16:18 13.05.2020
3172 Clouds 28 1017 78 10000 2.6 30 15:42 13.05.2020
3173 Clouds 28 1017 78 10000 2.6 30 15:42 13.05.2020
3174 Clouds 28 1017 78 10000 2.6 30 15:19 13.05.2020
3175 Clouds 27 1016 88 10000 1.71 16 14:56 13.05.2020
3176 Clouds 27 1016 88 10000 1.71 16 14:38 13.05.2020
3177 Clouds 27 1016 88 10000 1.6 350 14:19 13.05.2020
3178 Clouds 26 1018 99 0 1.6 350 13:55 13.05.2020
3179 Clouds 26 1018 99 0 1.6 350 13:36 13.05.2020
3180 Clouds 26 1018 100 0 1.56 329 13:18 13.05.2020
3181 Clouds 26 1018 96 0 1.56 329 12:42 13.05.2020
3182 Clouds 25 1015 100 10000 2.1 20 12:21 13.05.2020
3183 Clouds 25 1015 100 10000 2.1 20 11:57 13.05.2020
3184 Clouds 25 1015 100 10000 2.1 20 11:57 13.05.2020
3185 Clouds 25 1015 100 10000 2.1 20 11:38 13.05.2020
3186 Clouds 25 1015 100 10000 2.1 20 11:20 13.05.2020
3187 Clouds 25 1015 82 0 0.98 353 10:58 13.05.2020
3188 Clouds 25 1015 82 0 0.98 353 10:38 13.05.2020
3189 Clouds 26 1015 80 0 0.89 43 10:19 13.05.2020
3190 Clouds 26 1015 79 0 0.45 19 09:47 13.05.2020
3191 Clouds 25 1015 94 0 3.1 50 09:24 13.05.2020
3192 Clouds 25 1015 94 0 3.1 50 08:58 13.05.2020
3193 Clouds 25 1015 94 0 3.1 50 08:39 13.05.2020
3194 Clouds 25 1015 94 0 3.1 50 08:20 13.05.2020
3195 Clouds 26 1015 82 0 1.34 11 07:52 13.05.2020
3196 Clouds 26 1015 81 0 0.89 333 07:32 13.05.2020
3197 Clouds 27 1016 75 0 0.45 51 06:52 13.05.2020
3198 Clouds 26 1016 88 10000 4.1 60 06:34 13.05.2020
3199 Rain 26 1016 81 0 1.34 26 05:37 13.05.2020
3200 Rain 27 1016 84 0 2.68 345 03:49 13.05.2020
3201 Clouds 28 1017 95 0 0.85 168 02:37 13.05.2020
3202 Clouds 28 1017 95 0 2.1 153 01:46 13.05.2020
3203 Clouds 28 1016 93 0 2.68 159 00:56 13.05.2020
3204 Clouds 29 1016 93 0 3.67 157 00:23 13.05.2020
3205 Clouds 29 1016 92 0 3.67 157 23:58 12.05.2020
3206 Clouds 29 1016 92 0 3.67 157 23:39 12.05.2020
3207 Clouds 29 1016 93 0 4.52 153 23:18 12.05.2020
3208 Clouds 30 1016 89 0 4.52 153 22:42 12.05.2020
3209 Clouds 30 1016 90 0 4.51 154 22:22 12.05.2020
3210 Clouds 30 1016 87 0 4.51 154 21:56 12.05.2020
3211 Clouds 30 1015 58 10000 5.1 180 21:38 12.05.2020
3212 Clouds 30 1015 58 10000 5.1 180 21:19 12.05.2020
3213 Clouds 30 1015 58 10000 5.1 180 20:58 12.05.2020
3214 Clouds 30 1015 58 10000 5.1 180 20:39 12.05.2020
3215 Clouds 30 1015 58 10000 5.1 180 20:20 12.05.2020
3216 Clouds 30 1016 58 10000 6.2 180 19:57 12.05.2020
3217 Clouds 30 1016 58 10000 6.2 180 19:39 12.05.2020
3218 Clouds 30 1016 58 10000 6.2 180 19:20 12.05.2020
3219 Clouds 30 1016 58 10000 5.1 180 18:55 12.05.2020
3220 Clouds 30 1016 58 10000 5.1 180 18:36 12.05.2020
3221 Clouds 30 1016 58 10000 5.1 180 18:18 12.05.2020
3222 Clouds 30 1016 62 10000 5.1 160 17:41 12.05.2020
3223 Clouds 30 1016 62 10000 5.1 160 17:23 12.05.2020
3224 Rain 29 1016 74 8000 4.1 160 16:47 12.05.2020
3225 Rain 28 1016 74 8000 4.1 160 16:25 12.05.2020
3226 Rain 28 1015 74 10000 3.1 270 15:56 12.05.2020
3227 Rain 27 1015 74 10000 3.1 270 15:37 12.05.2020
3228 Rain 27 1015 74 10000 3.1 270 15:19 12.05.2020
3229 Clouds 27 1015 83 10000 1.83 146 14:56 12.05.2020
3230 Clouds 27 1015 83 10000 1.83 146 14:37 12.05.2020
3231 Clouds 26 1015 83 10000 0.43 93 14:19 12.05.2020
3232 Clouds 26 1018 100 0 0.43 93 13:57 12.05.2020
3233 Clouds 26 1018 100 0 0.43 93 13:39 12.05.2020
3234 Clouds 26 1017 100 0 0.58 339 13:19 12.05.2020
3235 Clouds 26 1017 94 0 0.58 339 12:57 12.05.2020
3236 Clouds 26 1017 94 0 0.58 339 12:39 12.05.2020
3237 Clouds 25 1014 100 10000 0.61 354 12:21 12.05.2020
3238 Clouds 25 1014 100 10000 0.61 354 11:57 12.05.2020
3239 Clouds 25 1014 100 10000 0.61 354 11:38 12.05.2020
3240 Clouds 24 1014 100 10000 0.45 4 11:20 12.05.2020
3241 Clouds 25 1015 87 0 0.45 4 10:56 12.05.2020
3242 Clouds 26 1014 87 0 0.45 4 10:38 12.05.2020
3243 Clouds 26 1014 81 0 0.89 22 10:18 12.05.2020
3244 Clouds 26 1014 81 0 0.89 21 09:57 12.05.2020
3245 Clouds 25 1015 94 10000 2.1 30 09:38 12.05.2020
3246 Clouds 26 1015 94 10000 2.1 30 09:19 12.05.2020
3247 Clouds 25 1015 94 10000 2.1 30 08:41 12.05.2020
3248 Clouds 27 1017 94 0 0.22 316 08:21 12.05.2020
3249 Clouds 28 1017 94 0 0.22 316 07:55 12.05.2020
3250 Clouds 28 1017 94 0 0.22 316 07:37 12.05.2020
3251 Clouds 27 1015 75 0 0.27 134 07:18 12.05.2020
3252 Clouds 26 1015 83 10000 0.27 134 06:37 12.05.2020
3253 Clouds 26 1015 83 10000 0.21 117 06:19 12.05.2020
3254 Clouds 26 1015 83 10000 0.21 117 05:45 12.05.2020
3255 Clouds 28 1017 94 0 0.56 216 03:55 12.05.2020
3256 Clouds 28 1017 95 0 1.2 200 03:18 12.05.2020
3257 Clouds 28 1016 94 0 1.85 188 02:27 12.05.2020
3258 Clear 28 1016 92 0 1.58 184 01:35 12.05.2020
3259 Clear 29 1016 91 0 2.41 166 00:58 12.05.2020
3260 Clear 29 1016 91 0 3.67 159 00:24 12.05.2020
3261 Clear 29 1016 90 0 3.67 159 23:56 11.05.2020
3262 Clear 29 1016 90 0 3.67 159 23:37 11.05.2020
3263 Clear 29 1016 90 0 4.26 157 23:19 11.05.2020
3264 Clear 29 1016 87 0 4.26 157 22:55 11.05.2020
3265 Clear 29 1016 87 0 4.26 157 22:37 11.05.2020
3266 Clear 30 1016 88 0 4.71 158 22:19 11.05.2020
3267 Clear 30 1016 87 0 4.71 158 21:54 11.05.2020
3268 Clouds 30 1015 59 10000 6.2 180 21:36 11.05.2020
3269 Clouds 31 1015 59 10000 6.2 180 21:18 11.05.2020
3270 Clouds 31 1015 59 10000 6.2 180 20:42 11.05.2020
3271 Clouds 31 1015 59 10000 6.2 180 20:21 11.05.2020
3272 Rain 30 1017 88 0 4.77 159 19:58 11.05.2020
3273 Rain 30 1017 88 0 4.77 159 19:40 11.05.2020
3274 Clouds 30 1016 66 10000 5.1 180 19:21 11.05.2020
3275 Clouds 30 1016 66 10000 5.1 180 18:57 11.05.2020
3276 Clouds 30 1016 66 10000 5.1 180 18:38 11.05.2020
3277 Clouds 30 1016 66 10000 5.1 180 18:19 11.05.2020
3278 Clouds 29 1016 78 10000 4.1 180 17:57 11.05.2020
3279 Clouds 29 1016 78 10000 4.1 180 17:38 11.05.2020
3280 Clouds 29 1016 78 10000 4.1 180 17:19 11.05.2020
3281 Rain 28 1016 88 8000 2.6 90 16:45 11.05.2020
3282 Rain 27 1016 88 8000 2.6 90 16:23 11.05.2020
3283 Rain 26 1016 78 10000 2.6 40 15:59 11.05.2020
3284 Rain 26 1016 78 10000 2.6 40 15:40 11.05.2020
3285 Rain 26 1016 78 10000 2.6 40 15:20 11.05.2020
3286 Rain 26 1016 94 10000 1.24 59 14:57 11.05.2020
3287 Clouds 26 1016 94 10000 1.24 59 14:39 11.05.2020
3288 Clouds 26 1016 94 10000 1.52 331 14:21 11.05.2020
3289 Clouds 26 1016 94 10000 1.52 331 14:21 11.05.2020
3290 Clouds 26 1018 100 0 1.52 331 13:42 11.05.2020
3291 Clouds 26 1018 100 0 1.75 320 13:22 11.05.2020
3292 Clouds 25 1018 100 0 1.75 320 12:59 11.05.2020
3293 Clouds 25 1018 100 0 1.75 320 12:41 11.05.2020
3294 Clouds 24 1015 94 10000 2.1 40 12:22 11.05.2020
3295 Clouds 24 1015 94 10000 2.1 40 11:57 11.05.2020
3296 Clouds 24 1015 94 10000 2.1 40 11:39 11.05.2020
3297 Clouds 24 1015 94 10000 2.1 40 11:21 11.05.2020
3298 Clouds 25 1015 85 0 1.34 9 10:56 11.05.2020
3299 Clouds 25 1015 86 0 0.89 356 10:38 11.05.2020
3300 Clouds 25 1015 86 0 0.89 8 10:20 11.05.2020
3301 Clouds 25 1015 86 0 0.89 8 10:20 11.05.2020
3302 Rain 25 1015 86 0 0.89 1 09:56 11.05.2020
3303 Rain 25 1015 88 10000 2.1 50 09:37 11.05.2020
3304 Rain 25 1015 88 10000 2.1 50 09:18 11.05.2020
3305 Rain 25 1015 88 10000 2.1 50 09:18 11.05.2020
3306 Clouds 25 1015 88 10000 2.1 50 08:42 11.05.2020
3307 Clouds 26 1015 88 10000 2.1 50 08:23 11.05.2020
3308 Clouds 26 1015 79 0 1.21 323 07:56 11.05.2020
3309 Clouds 26 1015 80 0 1.21 323 07:38 11.05.2020
3310 Clouds 26 1015 79 0 0.97 341 07:19 11.05.2020
3311 Clouds 26 1016 83 10000 2.1 40 06:33 11.05.2020
3312 Clouds 27 1016 83 10000 2.1 40 05:49 11.05.2020
3313 Clouds 27 1016 83 10000 2.1 40 05:20 11.05.2020
3314 Clouds 28 1019 91 0 0.36 95 03:51 11.05.2020
3315 Clouds 28 1015 65 10000 2.1 120 02:36 11.05.2020
3316 Clouds 28 1018 88 0 1.67 143 01:55 11.05.2020
3317 Clouds 29 1018 87 0 2.68 139 00:55 11.05.2020
3318 Clouds 29 1018 88 0 2.68 139 00:30 11.05.2020
3319 Clouds 29 1017 89 0 4.03 138 23:59 10.05.2020
3320 Clouds 29 1017 89 0 4.03 138 23:39 10.05.2020
3321 Clouds 30 1017 88 0 4.7 140 23:19 10.05.2020
3322 Clouds 30 1017 85 0 4.7 140 22:42 10.05.2020
3323 Clouds 30 1017 87 0 5.66 139 22:24 10.05.2020
3324 Clouds 30 1017 88 0 5.66 139 21:55 10.05.2020
3325 Clouds 31 1017 52 10000 6.2 180 21:37 10.05.2020
3326 Clouds 31 1017 52 10000 6.2 180 21:18 10.05.2020
3327 Clouds 31 1017 52 10000 6.2 180 20:41 10.05.2020
3328 Clouds 31 1017 52 10000 6.2 180 20:23 10.05.2020
3329 Clouds 31 1017 59 10000 6.2 180 19:56 10.05.2020
3330 Clouds 31 1017 59 10000 6.2 180 19:38 10.05.2020
3331 Clouds 31 1018 62 10000 5.1 180 19:20 10.05.2020
3332 Clouds 30 1018 62 10000 5.1 180 18:54 10.05.2020
3333 Clouds 30 1018 62 10000 5.1 180 18:36 10.05.2020
3334 Clouds 31 1018 62 10000 5.1 180 18:18 10.05.2020
3335 Clouds 30 1018 74 10000 5.1 180 17:56 10.05.2020
3336 Clouds 30 1018 74 10000 5.1 180 17:36 10.05.2020
3337 Clouds 30 1018 74 10000 5.1 180 17:18 10.05.2020
3338 Clouds 30 1018 74 10000 5.1 180 16:43 10.05.2020
3339 Clouds 30 1018 74 10000 5.1 180 16:21 10.05.2020
3340 Clouds 29 1018 83 10000 4.13 131 15:58 10.05.2020
3341 Clouds 29 1018 83 10000 4.13 131 15:38 10.05.2020
3342 Clouds 29 1018 83 10000 2.59 121 15:20 10.05.2020
3343 Clouds 27 1017 94 10000 2.59 121 14:55 10.05.2020
3344 Clouds 27 1017 94 10000 2.59 121 14:37 10.05.2020
3345 Clouds 27 1017 94 10000 1.98 104 14:18 10.05.2020
3346 Rain 27 1020 100 0 1.98 104 13:55 10.05.2020
3347 Rain 27 1020 100 0 1.98 104 13:36 10.05.2020
3348 Rain 26 1020 100 0 0.81 49 13:18 10.05.2020
3349 Rain 27 1020 96 0 0.81 49 12:41 10.05.2020
3350 Clouds 26 1016 88 10000 2.1 40 12:21 10.05.2020
3351 Clouds 26 1016 88 10000 2.1 40 11:58 10.05.2020
3352 Clouds 26 1016 88 10000 2.1 40 11:40 10.05.2020
3353 Clouds 26 1016 88 10000 2.1 40 11:20 10.05.2020
3354 Clouds 27 1017 82 0 1.34 64 10:48 10.05.2020
3355 Clouds 27 1017 81 0 0.89 49 10:29 10.05.2020
3356 Clouds 27 1019 96 0 1.25 357 09:59 10.05.2020
3357 Clouds 27 1019 96 0 1.25 357 09:41 10.05.2020
3358 Clouds 26 1017 88 10000 1.31 4 09:22 10.05.2020
3359 Clouds 26 1017 88 10000 1.31 4 08:53 10.05.2020
3360 Clouds 26 1017 88 10000 1.32 10 08:24 10.05.2020
3361 Clouds 27 1017 82 0 1.32 10 07:57 10.05.2020
3362 Clouds 27 1017 82 0 1.32 10 07:38 10.05.2020
3363 Clouds 27 1017 82 0 1.06 21 07:19 10.05.2020
3364 Clouds 27 1017 80 0 1.06 21 06:50 10.05.2020
3365 Clouds 28 1020 96 0 0.74 56 06:22 10.05.2020
3366 Clouds 28 1020 96 0 0.74 56 05:44 10.05.2020
3367 Clouds 28 1020 96 0 0.93 107 04:41 10.05.2020
3368 Clouds 28 1020 96 0 0.77 125 04:22 10.05.2020
3369 Clouds 28 1020 95 0 0.77 125 03:43 10.05.2020
3370 Clouds 28 1019 95 0 1.03 150 02:54 10.05.2020
3371 Clouds 28 1019 96 0 1.42 152 02:24 10.05.2020
3372 Clouds 28 1019 96 0 1.42 152 02:24 10.05.2020
3373 Clouds 28 1019 95 0 1.35 144 01:43 10.05.2020
3374 Clouds 28 1019 94 0 1.91 147 01:23 10.05.2020
3375 Clouds 29 1018 93 0 1.91 147 00:58 10.05.2020
3376 Clouds 29 1018 93 0 1.91 147 00:37 10.05.2020
3377 Clouds 29 1019 91 0 2.91 152 00:19 10.05.2020
3378 Clouds 30 1018 90 0 2.91 152 23:39 09.05.2020
3379 Clouds 30 1018 88 0 3.7 154 23:20 09.05.2020
3380 Clouds 30 1018 87 0 3.7 154 22:54 09.05.2020
3381 Clouds 30 1018 87 0 3.7 154 22:36 09.05.2020
3382 Clouds 31 1019 85 0 4.21 154 22:18 09.05.2020
3383 Clouds 31 1019 87 0 4.21 154 21:42 09.05.2020
3384 Smoke 31 1017 52 5000 6.2 180 21:22 09.05.2020
3385 Smoke 31 1017 52 5000 6.2 180 20:58 09.05.2020
3386 Smoke 31 1017 52 5000 6.2 180 20:58 09.05.2020
3387 Smoke 31 1017 52 5000 6.2 180 20:39 09.05.2020
3388 Smoke 31 1017 52 5000 6.2 180 20:20 09.05.2020
3389 Smoke 31 1017 52 5000 6.2 180 20:20 09.05.2020
3390 Smoke 31 1017 52 5000 6.2 180 19:58 09.05.2020
3391 Smoke 31 1017 52 5000 6.2 180 19:39 09.05.2020
3392 Smoke 31 1017 52 5000 6.2 180 19:20 09.05.2020
3393 Smoke 31 1017 55 5000 6.2 180 18:46 09.05.2020
3394 Smoke 31 1017 55 5000 6.2 180 18:26 09.05.2020
3395 Smoke 30 1018 62 5000 5.1 180 17:58 09.05.2020
3396 Smoke 30 1018 62 5000 5.1 180 17:40 09.05.2020
3397 Smoke 30 1018 62 5000 5.1 180 17:21 09.05.2020
3398 Smoke 30 1018 62 4000 4.1 90 16:41 09.05.2020
3399 Smoke 30 1018 62 4000 4.1 90 16:20 09.05.2020
3400 Smoke 29 1017 78 5000 4.3 139 15:45 09.05.2020
3401 Smoke 29 1017 78 5000 3.45 138 15:27 09.05.2020
3402 Smoke 28 1017 83 5000 3.1 30 14:59 09.05.2020
3403 Smoke 28 1017 83 5000 3.1 30 14:40 09.05.2020
3404 Smoke 27 1017 83 5000 3.1 30 14:19 09.05.2020
3405 Clouds 27 1020 100 0 2.36 138 13:58 09.05.2020
3406 Clouds 27 1020 100 0 2.36 138 13:40 09.05.2020
3407 Clouds 26 1019 100 0 1.59 150 13:20 09.05.2020
3408 Clouds 27 1019 96 0 1.59 150 12:42 09.05.2020
3409 Clouds 26 1016 94 10000 2.1 60 12:22 09.05.2020
3410 Clouds 26 1016 94 10000 2.1 60 11:56 09.05.2020
3411 Clouds 26 1016 94 10000 2.1 60 11:37 09.05.2020
3412 Clouds 26 1016 94 10000 2.1 60 11:18 09.05.2020
3413 Clouds 27 1016 81 0 1.34 110 10:43 09.05.2020
3414 Clouds 27 1016 81 0 1.34 110 10:43 09.05.2020
3415 Clouds 27 1016 81 0 1.34 111 10:25 09.05.2020
3416 Clouds 27 1016 80 0 0.89 116 09:57 09.05.2020
3417 Clouds 27 1016 83 10000 1.5 140 09:38 09.05.2020
3418 Clouds 27 1016 83 10000 1.5 140 09:19 09.05.2020
3419 Clouds 27 1016 83 10000 1.5 140 08:51 09.05.2020
3420 Clouds 27 1016 83 10000 1.5 140 08:31 09.05.2020
3421 Clouds 28 1017 80 0 2.04 160 07:50 09.05.2020
3422 Clouds 28 1017 78 0 0.89 145 07:31 09.05.2020
3423 Clouds 28 1020 96 0 2.35 149 06:49 09.05.2020
3424 Clouds 28 1020 96 0 2.34 145 06:24 09.05.2020
3425 Clouds 28 1020 96 0 2.34 145 05:45 09.05.2020
3426 Clouds 28 1019 96 0 2.19 142 03:54 09.05.2020
3427 Clouds 28 1019 96 0 2.19 142 03:36 09.05.2020
3428 Clouds 28 1018 96 0 1.91 136 02:32 09.05.2020
3429 Clouds 28 1018 95 0 2.08 140 01:52 09.05.2020
3430 Clouds 28 1017 95 0 2.62 148 01:23 09.05.2020
3431 Clouds 29 1017 95 0 2.62 148 00:49 09.05.2020
3432 Clouds 29 1017 95 0 2.62 148 00:31 09.05.2020
3433 Clouds 29 1017 92 0 3.77 148 23:49 08.05.2020
3434 Clouds 29 1017 92 0 3.77 148 23:29 08.05.2020
3435 Clouds 30 1017 92 0 4.37 150 22:58 08.05.2020
3436 Clouds 30 1017 92 0 4.37 150 22:58 08.05.2020
3437 Clouds 30 1017 92 0 4.37 150 22:40 08.05.2020
3438 Clouds 30 1017 91 0 4.48 149 22:19 08.05.2020
3439 Clouds 30 1017 89 0 4.48 149 21:58 08.05.2020
3440 Clouds 30 1017 89 0 4.48 149 21:39 08.05.2020
3441 Smoke 31 1016 55 3000 6.7 180 21:18 08.05.2020
3442 Smoke 31 1016 55 3000 6.7 180 20:56 08.05.2020
3443 Smoke 31 1016 55 3000 6.7 180 20:38 08.05.2020
3444 Smoke 31 1016 55 3000 6.7 180 20:20 08.05.2020
3445 Clouds 31 1016 52 10000 6.2 180 19:44 08.05.2020
3446 Clouds 31 1016 52 10000 6.2 180 19:23 08.05.2020
3447 Smoke 31 1017 55 5000 6.2 180 18:50 08.05.2020
3448 Smoke 31 1017 55 5000 6.2 180 18:31 08.05.2020
3449 Smoke 31 1017 55 5000 6.2 180 17:55 08.05.2020
3450 Smoke 31 1017 55 5000 6.2 180 17:37 08.05.2020
3451 Smoke 31 1017 55 5000 6.2 180 17:18 08.05.2020
3452 Clouds 30 1017 70 10000 5.1 150 16:42 08.05.2020
3453 Clouds 30 1017 70 10000 5.1 150 16:24 08.05.2020
3454 Smoke 29 1017 79 4000 4.15 142 15:55 08.05.2020
3455 Smoke 29 1017 79 4000 4.15 142 15:36 08.05.2020
3456 Smoke 29 1017 79 4000 3.54 132 15:18 08.05.2020
3457 Clouds 28 1016 94 10000 3.54 132 14:41 08.05.2020
3458 Clouds 27 1016 94 10000 2.97 120 14:20 08.05.2020
3459 Clouds 26 1016 88 10000 2.1 40 13:58 08.05.2020
3460 Clouds 26 1016 88 10000 2.1 40 13:58 08.05.2020
3461 Clouds 26 1016 88 10000 2.1 40 13:39 08.05.2020
3462 Clouds 25 1016 88 10000 2.1 40 13:19 08.05.2020
3463 Clouds 27 1018 97 0 1.81 117 12:45 08.05.2020
3464 Clouds 26 1015 88 10000 2.1 150 12:24 08.05.2020
3465 Clouds 26 1015 88 10000 2.1 150 11:55 08.05.2020
3466 Clouds 26 1015 88 10000 2.1 150 11:37 08.05.2020
3467 Clouds 26 1015 88 10000 2.1 150 11:37 08.05.2020
3468 Clouds 27 1015 88 10000 2.1 150 11:18 08.05.2020
3469 Rain 28 1017 97 0 1.73 141 10:45 08.05.2020
3470 Rain 28 1017 97 0 1.65 139 10:22 08.05.2020
3471 Rain 28 1017 97 0 1.65 139 10:00 08.05.2020
3472 Rain 28 1017 97 0 1.65 139 09:40 08.05.2020
3473 Clouds 27 1015 83 10000 3.1 140 09:19 08.05.2020
3474 Clouds 27 1015 83 10000 3.1 140 09:19 08.05.2020
3475 Clouds 27 1015 83 10000 3.1 140 08:50 08.05.2020
3476 Clouds 28 1015 83 10000 3.1 140 08:24 08.05.2020
3477 Clouds 28 1018 97 0 1.31 151 07:46 08.05.2020
3478 Clouds 28 1018 97 0 1.44 148 07:26 08.05.2020
3479 Clouds 28 1018 97 0 1.44 148 06:53 08.05.2020
3480 Clouds 28 1016 83 10000 3.1 150 06:25 08.05.2020
3481 Clouds 28 1016 83 10000 3.1 150 05:59 08.05.2020
3482 Clear 28 1019 97 0 1.68 154 04:56 08.05.2020
3483 Clouds 28 1014 83 10000 3.1 130 02:57 08.05.2020
3484 Clouds 28 1014 83 10000 3.1 130 02:22 08.05.2020
3485 Clouds 28 1014 78 10000 2.1 180 01:37 08.05.2020
3486 Clouds 28 1014 78 10000 2.1 180 01:18 08.05.2020
3487 Clouds 29 1014 70 10000 4.1 150 00:45 08.05.2020
3488 Clouds 29 1014 70 10000 4.1 150 00:22 08.05.2020
3489 Clouds 30 1014 62 10000 2.1 160 23:44 07.05.2020
3490 Clouds 30 1014 62 10000 2.1 160 23:23 07.05.2020
3491 Clouds 30 1014 59 10000 4.1 150 22:58 07.05.2020
3492 Clouds 31 1014 59 10000 4.1 150 22:39 07.05.2020
3493 Clouds 31 1014 59 10000 4.1 150 22:20 07.05.2020
3494 Clouds 31 1014 55 10000 4.1 150 21:56 07.05.2020
3495 Clouds 31 1015 52 10000 5.1 150 21:37 07.05.2020
3496 Clouds 31 1015 52 10000 5.1 150 21:19 07.05.2020
3497 Clouds 31 1015 52 10000 5.1 150 20:43 07.05.2020
3498 Clouds 31 1015 52 10000 5.1 150 20:24 07.05.2020
3499 Clouds 31 1015 62 10000 4.1 170 19:59 07.05.2020
3500 Clouds 31 1015 62 10000 4.1 170 19:40 07.05.2020
3501 Clouds 31 1015 62 10000 4.1 170 19:21 07.05.2020
3502 Smoke 31 1016 66 5000 8.2 160 18:46 07.05.2020
3503 Smoke 30 1016 66 5000 8.2 160 18:28 07.05.2020
3504 Smoke 30 1016 74 5000 5.1 150 17:57 07.05.2020
3505 Smoke 30 1016 74 5000 5.1 150 17:37 07.05.2020
3506 Smoke 29 1016 83 5000 5.1 180 17:19 07.05.2020
3507 Smoke 29 1016 83 5000 5.1 180 16:40 07.05.2020
3508 Smoke 29 1016 83 5000 5.1 180 16:18 07.05.2020
3509 Smoke 29 1016 83 5000 3.1 150 15:56 07.05.2020
3510 Smoke 28 1016 83 5000 3.1 150 15:37 07.05.2020
3511 Smoke 28 1016 83 5000 3.1 150 15:18 07.05.2020
3512 Clouds 27 1015 94 10000 3.17 149 14:45 07.05.2020
3513 Clouds 26 1015 94 10000 1 168 14:22 07.05.2020
3514 Clouds 26 1015 94 10000 1 168 14:22 07.05.2020
3515 Clouds 25 1014 94 10000 3.6 110 13:45 07.05.2020
3516 Clouds 25 1014 94 10000 3.6 110 13:45 07.05.2020
3517 Clouds 25 1014 94 10000 3.6 110 13:27 07.05.2020
3518 Rain 27 1017 97 0 0.6 208 12:58 07.05.2020
3519 Rain 27 1017 97 0 0.6 208 12:39 07.05.2020
3520 Clouds 25 1014 94 10000 2.1 60 12:19 07.05.2020
3521 Clouds 25 1014 94 10000 2.1 60 11:39 07.05.2020
3522 Clouds 25 1014 94 10000 2.1 60 11:21 07.05.2020
3523 Clouds 25 1014 91 0 0.39 172 10:54 07.05.2020
3524 Clouds 26 1014 87 0 0.39 172 10:36 07.05.2020
3525 Rain 26 1014 86 0 0.22 282 10:18 07.05.2020
3526 Clouds 24 1015 100 10000 3.1 130 09:38 07.05.2020
3527 Clouds 24 1015 100 10000 3.1 130 09:18 07.05.2020
3528 Clouds 24 1015 100 10000 3.1 130 08:43 07.05.2020
3529 Clouds 26 1015 100 10000 3.1 130 08:23 07.05.2020
3530 Rain 28 1017 97 0 1.02 260 07:58 07.05.2020
3531 Rain 28 1017 97 0 1.02 260 07:39 07.05.2020
3532 Clouds 28 1018 97 0 0.95 240 07:19 07.05.2020
3533 Clouds 27 1015 88 10000 2.1 140 06:37 07.05.2020
3534 Clouds 27 1015 88 10000 2.1 140 05:58 07.05.2020
3535 Clear 28 1018 97 0 0.64 199 04:27 07.05.2020
3536 Clouds 28 1014 74 10000 2.1 150 03:31 07.05.2020
3537 Clouds 28 1014 74 10000 2.1 150 03:00 07.05.2020
3538 Clouds 28 1014 74 10000 2.1 150 02:26 07.05.2020
3539 Clouds 28 1014 74 10000 2.1 150 02:26 07.05.2020
3540 Clouds 28 1013 74 10000 2.6 150 01:28 07.05.2020
3541 Clouds 29 1013 66 10000 2.6 140 00:55 07.05.2020
3542 Clouds 29 1013 66 10000 2.6 140 00:37 07.05.2020
3543 Clouds 29 1013 66 10000 2.6 140 00:18 07.05.2020
3544 Clouds 29 1013 62 10000 2.6 170 23:41 06.05.2020
3545 Clouds 29 1013 62 10000 2.6 170 23:22 06.05.2020
3546 Clouds 30 1013 62 10000 3.6 170 22:55 06.05.2020
3547 Clouds 30 1013 62 10000 3.6 170 22:37 06.05.2020
3548 Clouds 30 1013 62 10000 3.6 170 22:18 06.05.2020
3549 Clouds 30 1014 58 10000 3.1 150 21:43 06.05.2020
3550 Clouds 30 1015 62 10000 5.7 180 21:23 06.05.2020
3551 Clouds 30 1015 62 10000 5.7 180 20:58 06.05.2020
3552 Clouds 30 1015 62 10000 5.7 180 20:39 06.05.2020
3553 Clouds 30 1015 62 10000 5.7 180 20:21 06.05.2020
3554 Clouds 30 1016 74 10000 5.1 180 19:56 06.05.2020
3555 Clouds 30 1016 74 10000 5.1 180 19:38 06.05.2020
3556 Clouds 30 1016 74 10000 5.1 180 19:18 06.05.2020
3557 Clouds 30 1016 74 10000 5.1 180 19:18 06.05.2020
3558 Clouds 30 1016 62 10000 4.1 160 18:56 06.05.2020
3559 Clouds 30 1016 62 10000 4.1 160 18:37 06.05.2020
3560 Clouds 30 1016 62 10000 4.1 160 18:19 06.05.2020
3561 Rain 29 1017 83 8000 3.61 140 17:55 06.05.2020
3562 Rain 29 1017 83 8000 3.61 140 17:36 06.05.2020
3563 Rain 29 1017 83 8000 2.67 123 17:18 06.05.2020
3564 Clouds 29 1017 70 10000 4.1 110 16:57 06.05.2020
3565 Clouds 29 1017 70 10000 4.1 110 16:39 06.05.2020
3566 Clouds 29 1017 70 10000 4.1 110 16:19 06.05.2020
3567 Clouds 28 1016 78 10000 2.05 83 15:47 06.05.2020
3568 Clouds 28 1016 78 10000 1.61 26 15:22 06.05.2020
3569 Clouds 27 1016 94 10000 1.61 26 14:58 06.05.2020
3570 Clouds 26 1016 94 10000 1.61 26 14:39 06.05.2020
3571 Clouds 26 1016 94 10000 1.79 347 14:19 06.05.2020
3572 Clouds 26 1015 88 10000 2.1 10 13:58 06.05.2020
3573 Clouds 25 1015 88 10000 2.1 10 13:38 06.05.2020
3574 Clouds 25 1015 88 10000 2.1 10 13:19 06.05.2020
3575 Clouds 25 1017 99 0 1.86 348 12:43 06.05.2020
3576 Clouds 24 1014 94 10000 1.5 100 12:24 06.05.2020
3577 Clouds 23 1014 94 10000 1.5 100 11:42 06.05.2020
3578 Clouds 25 1014 94 10000 1.5 100 11:23 06.05.2020
3579 Clouds 25 1016 99 0 1.5 341 10:58 06.05.2020
3580 Clouds 25 1016 99 0 1.5 341 10:39 06.05.2020
3581 Clear 25 1016 99 0 1.39 353 10:19 06.05.2020
3582 Clear 25 1016 99 0 1.39 353 09:59 06.05.2020
3583 Clouds 25 1015 94 10000 2.1 40 09:38 06.05.2020
3584 Clouds 25 1015 94 10000 2.1 40 09:20 06.05.2020
3585 Clouds 25 1015 94 10000 2.1 40 08:43 06.05.2020
3586 Clouds 25 1015 94 10000 2.1 40 08:20 06.05.2020
3587 Clouds 25 1017 99 0 0.85 18 07:56 06.05.2020
3588 Clouds 25 1017 99 0 0.85 18 07:38 06.05.2020
3589 Clouds 26 1017 99 0 0.95 34 07:18 06.05.2020
3590 Clouds 26 1017 99 0 0.95 34 06:45 06.05.2020
3591 Clouds 25 1015 88 10000 2.1 40 06:20 06.05.2020
3592 Clouds 25 1015 88 10000 2.1 40 05:38 06.05.2020
3593 Clouds 26 1018 99 0 0.49 35 04:52 06.05.2020
3594 Rain 26 1017 99 0 0.16 36 03:52 06.05.2020
3595 Clouds 25 1014 88 10000 2.6 40 03:26 06.05.2020
3596 Clouds 25 1014 88 10000 2.6 40 02:51 06.05.2020
3597 Clouds 25 1014 88 10000 2.6 40 02:22 06.05.2020
3598 Clouds 26 1016 100 0 1.14 142 01:42 06.05.2020
3599 Clouds 26 1016 97 0 2.13 159 01:20 06.05.2020
3600 Clouds 27 1016 95 0 2.13 159 00:44 06.05.2020
3601 Rain 27 1016 94 0 3.09 152 00:19 06.05.2020
3602 Rain 28 1015 92 0 3.09 152 23:41 05.05.2020
3603 Clouds 28 1015 93 0 3.95 152 23:19 05.05.2020
3604 Clouds 29 1015 92 0 3.95 152 22:54 05.05.2020
3605 Clouds 29 1015 92 0 3.95 152 22:36 05.05.2020
3606 Clouds 28 1015 94 0 3.97 153 22:18 05.05.2020
3607 Clouds 28 1015 92 0 3.97 153 21:41 05.05.2020
3608 Clouds 28 1013 78 10000 5.1 180 21:21 05.05.2020
3609 Clouds 28 1013 78 10000 5.1 180 20:59 05.05.2020
3610 Clouds 28 1013 78 10000 5.1 180 20:40 05.05.2020
3611 Clouds 29 1013 78 10000 5.1 180 20:19 05.05.2020
3612 Rain 29 1014 88 8000 3.1 270 19:59 05.05.2020
3613 Rain 29 1014 88 8000 3.1 270 19:37 05.05.2020
3614 Rain 29 1014 88 8000 3.1 270 19:19 05.05.2020
3615 Clouds 30 1015 74 0 4.13 150 18:56 05.05.2020
3616 Clouds 30 1015 74 0 4.13 150 18:38 05.05.2020
3617 Clouds 30 1015 74 0 4.13 150 18:38 05.05.2020
3618 Clouds 30 1015 74 0 3.18 144 18:19 05.05.2020
3619 Clouds 30 1016 66 10000 5.1 180 17:44 05.05.2020
3620 Clouds 30 1016 66 10000 5.1 180 17:25 05.05.2020
3621 Clouds 29 1016 70 10000 3.1 130 16:58 05.05.2020
3622 Clouds 30 1016 70 10000 3.1 130 16:37 05.05.2020
3623 Clouds 30 1016 70 10000 3.1 130 16:18 05.05.2020
3624 Clouds 29 1015 78 10000 1.42 88 15:56 05.05.2020
3625 Clouds 29 1015 78 10000 1.42 88 15:38 05.05.2020
3626 Clouds 28 1015 78 10000 1.04 20 15:19 05.05.2020
3627 Clouds 27 1015 88 10000 1.04 20 14:43 05.05.2020
3628 Clouds 27 1015 88 10000 1.34 346 14:25 05.05.2020
3629 Clouds 27 1016 100 0 1.3 349 13:59 05.05.2020
3630 Clouds 27 1016 100 0 1.3 349 13:59 05.05.2020
3631 Clouds 26 1016 100 0 1.3 349 13:41 05.05.2020
3632 Clouds 26 1016 100 0 1.15 352 13:21 05.05.2020
3633 Clouds 26 1016 97 0 1.15 352 12:59 05.05.2020
3634 Clouds 26 1016 97 0 1.15 352 12:40 05.05.2020
3635 Clouds 25 1013 94 10000 2.1 60 12:20 05.05.2020
3636 Clouds 25 1013 94 10000 2.1 60 11:59 05.05.2020
3637 Clouds 25 1013 94 10000 2.1 60 11:40 05.05.2020
3638 Clouds 25 1013 94 10000 2.1 60 11:18 05.05.2020
3639 Clouds 26 1013 84 0 0.89 8 10:54 05.05.2020
3640 Clouds 26 1013 84 0 0.89 8 10:36 05.05.2020
3641 Clouds 26 1013 83 0 0.89 7 10:18 05.05.2020
3642 Clouds 26 1013 82 0 0.45 31 09:43 05.05.2020
3643 Clouds 26 1013 82 0 0.45 31 09:43 05.05.2020
3644 Clouds 27 1015 97 0 0.93 56 09:25 05.05.2020
3645 Clouds 27 1015 97 0 0.93 56 08:42 05.05.2020
3646 Rain 27 1016 97 0 0.92 57 08:21 05.05.2020
3647 Rain 27 1016 97 0 0.92 57 07:58 05.05.2020
3648 Rain 27 1016 97 0 0.92 57 07:39 05.05.2020
3649 Rain 27 1017 97 0 0.92 48 07:19 05.05.2020
3650 Rain 27 1017 97 0 0.92 48 06:50 05.05.2020
3651 Rain 26 1017 97 0 0.52 49 06:23 05.05.2020
3652 Rain 26 1017 97 0 0.52 49 05:43 05.05.2020
3653 Rain 27 1017 96 0 0.59 132 03:39 05.05.2020
3654 Clouds 28 1016 95 0 1.65 160 02:18 05.05.2020
3655 Clouds 28 1015 94 0 2.61 161 00:54 05.05.2020
3656 Clouds 29 1015 94 0 3.72 158 00:22 05.05.2020
3657 Clouds 29 1014 94 0 3.72 158 23:46 04.05.2020
3658 Clouds 29 1014 92 0 4.23 155 23:23 04.05.2020
3659 Clouds 30 1014 92 0 4.23 155 22:56 04.05.2020
3660 Clouds 30 1014 92 0 4.23 155 22:38 04.05.2020
3661 Clear 30 1014 90 0 4.43 154 22:19 04.05.2020
3662 Clear 31 1014 86 0 4.43 154 21:54 04.05.2020
3663 Clouds 31 1013 55 10000 5.1 190 21:34 04.05.2020
3664 Clouds 31 1013 55 10000 5.1 190 20:58 04.05.2020
3665 Clouds 31 1013 55 10000 5.1 190 20:58 04.05.2020
3666 Clouds 31 1013 55 10000 5.1 190 20:58 04.05.2020
3667 Clouds 31 1013 55 10000 5.1 190 20:38 04.05.2020
3668 Clouds 31 1013 55 10000 5.1 190 20:38 04.05.2020
3669 Clouds 31 1013 55 10000 5.1 190 20:18 04.05.2020
3670 Clouds 31 1014 55 10000 4.69 157 19:42 04.05.2020
3671 Clouds 31 1014 55 10000 4.18 156 19:21 04.05.2020
3672 Clouds 31 1016 80 0 4.18 156 18:57 04.05.2020
3673 Clouds 31 1015 62 10000 4.18 156 18:38 04.05.2020
3674 Clouds 30 1015 62 10000 3.23 148 18:18 04.05.2020
3675 Clouds 30 1015 62 10000 3.23 148 18:18 04.05.2020
3676 Clouds 30 1015 62 10000 3.23 148 17:55 04.05.2020
3677 Clouds 30 1015 62 10000 3.23 148 17:55 04.05.2020
3678 Clouds 30 1015 62 10000 3.23 148 17:37 04.05.2020
3679 Clouds 30 1015 62 10000 2.33 126 17:18 04.05.2020
3680 Clouds 30 1015 74 10000 2.33 126 16:42 04.05.2020
3681 Clouds 30 1015 74 10000 1.94 90 16:22 04.05.2020
3682 Clouds 29 1015 78 10000 2.6 30 15:55 04.05.2020
3683 Clouds 29 1015 78 10000 2.6 30 15:55 04.05.2020
3684 Clouds 29 1015 78 10000 2.6 30 15:37 04.05.2020
3685 Clouds 28 1015 78 10000 2.6 30 15:18 04.05.2020
3686 Clouds 27 1014 88 10000 1.47 47 14:41 04.05.2020
3687 Clouds 27 1014 88 10000 1.47 47 14:41 04.05.2020
3688 Clouds 26 1014 88 10000 1.17 15 14:19 04.05.2020
3689 Clouds 26 1016 94 0 1.1 351 12:49 04.05.2020
3690 Clouds 25 1013 94 10000 2.1 40 12:26 04.05.2020
3691 Clouds 25 1013 94 10000 2.1 40 12:26 04.05.2020
3692 Clouds 25 1013 94 10000 2.1 40 12:26 04.05.2020
3693 Clouds 25 1013 94 10000 2.1 40 12:26 04.05.2020
3694 Clouds 26 1013 82 0 0.89 67 10:36 04.05.2020
3695 Clouds 26 1013 82 0 0.89 67 10:36 04.05.2020
3696 Clouds 26 1013 82 0 0.89 67 10:36 04.05.2020
3697 Clouds 26 1013 78 10000 2.1 40 09:26 04.05.2020
3698 Clouds 26 1013 78 10000 2.1 40 09:26 04.05.2020
3699 Clouds 26 1013 78 10000 2.1 40 09:26 04.05.2020
3700 Rain 26 1013 81 0 0.89 66 07:52 04.05.2020
3701 Rain 27 1014 81 0 0.89 66 07:33 04.05.2020
3702 Rain 27 1014 81 0 0.89 66 07:33 04.05.2020
3703 Rain 27 1014 81 0 0.89 66 07:33 04.05.2020
3704 Rain 27 1014 81 0 0.89 66 07:33 04.05.2020
3705 Rain 27 1014 81 0 0.89 66 07:33 04.05.2020
3706 Rain 28 1017 94 0 0.4 143 04:59 04.05.2020
3707 Rain 28 1017 96 0 0.7 159 03:29 04.05.2020
3708 Clear 28 1016 93 0 0.8 164 02:32 04.05.2020
3709 Clouds 28 1016 94 0 2.08 151 01:06 04.05.2020
3710 Clouds 29 1015 91 0 3.23 146 23:57 03.05.2020
3711 Clouds 29 1015 91 0 3.23 146 23:57 03.05.2020
3712 Clouds 29 1015 91 0 3.23 146 23:38 03.05.2020
3713 Clouds 29 1015 91 0 4.13 152 23:19 03.05.2020
3714 Clouds 30 1015 89 0 4.13 152 22:41 03.05.2020
3715 Clouds 30 1015 89 0 4.13 152 22:41 03.05.2020
3716 Clouds 30 1014 88 0 4.36 157 22:22 03.05.2020
3717 Clouds 30 1015 88 0 4.36 157 21:42 03.05.2020
3718 Smoke 31 1014 52 4000 3.6 180 21:21 03.05.2020
3719 Smoke 31 1014 52 4000 3.6 180 21:21 03.05.2020
3720 Smoke 31 1014 52 4000 3.6 180 20:48 03.05.2020
3721 Smoke 31 1014 52 4000 3.6 180 20:23 03.05.2020
3722 Clouds 31 1014 59 10000 5.1 180 19:57 03.05.2020
3723 Clouds 31 1014 59 10000 5.1 180 19:38 03.05.2020
3724 Clouds 31 1014 59 10000 5.1 180 19:19 03.05.2020
3725 Clouds 31 1015 62 10000 4.1 120 18:40 03.05.2020
3726 Clouds 30 1015 62 10000 4.1 120 18:20 03.05.2020
3727 Smoke 31 1016 62 4000 2.6 210 17:56 03.05.2020
3728 Smoke 31 1016 62 4000 2.6 210 17:56 03.05.2020
3729 Smoke 31 1016 62 4000 2.6 210 17:38 03.05.2020
3730 Smoke 31 1016 62 4000 2.6 210 17:20 03.05.2020
3731 Clouds 30 1017 70 10000 2.6 150 16:44 03.05.2020
3732 Clouds 29 1017 70 10000 2.6 150 16:19 03.05.2020
3733 Clouds 29 1017 74 10000 1.58 87 15:58 03.05.2020
3734 Clouds 29 1017 74 10000 1.58 87 15:39 03.05.2020
3735 Clouds 29 1017 74 10000 1.43 61 15:19 03.05.2020
3736 Clouds 26 1017 88 10000 1.43 61 14:57 03.05.2020
3737 Clouds 26 1017 88 10000 1.43 61 14:38 03.05.2020
3738 Clouds 26 1017 88 10000 1.65 25 14:19 03.05.2020
3739 Clouds 26 1017 88 10000 1.65 25 14:19 03.05.2020
3740 Clouds 26 1018 100 0 1.65 25 13:38 03.05.2020
3741 Clouds 26 1018 100 0 1.65 25 13:38 03.05.2020
3742 Clouds 26 1018 100 0 1.65 25 13:38 03.05.2020
3743 Clouds 26 1018 100 0 1.65 25 13:38 03.05.2020
3744 Clouds 25 1018 100 0 1.37 1 12:57 03.05.2020
3745 Clouds 25 1018 100 0 1.37 1 12:57 03.05.2020
3746 Clouds 25 1018 100 0 1.37 1 12:57 03.05.2020
3747 Clouds 25 1018 100 0 1.37 1 12:57 03.05.2020
3748 Clouds 25 1018 100 0 1.37 1 12:37 03.05.2020
3749 Clouds 24 1014 94 10000 2.1 160 11:58 03.05.2020
3750 Clouds 24 1014 94 10000 2.1 160 11:40 03.05.2020
3751 Clouds 24 1014 94 10000 2.1 160 11:40 03.05.2020
3752 Clouds 24 1014 94 10000 2.1 160 11:21 03.05.2020
3753 Clouds 26 1015 80 0 1.34 350 10:55 03.05.2020
3754 Clouds 26 1015 79 0 0.89 7 10:26 03.05.2020
3755 Clouds 26 1014 80 0 1.34 13 09:42 03.05.2020
3756 Clouds 26 1014 80 0 1.34 13 09:42 03.05.2020
3757 Clouds 25 1015 94 10000 2.1 40 09:22 03.05.2020
3758 Clouds 25 1015 94 10000 2.1 40 09:19 03.05.2020
3759 Clouds 25 1015 94 10000 2.1 40 08:36 03.05.2020
3760 Clear 24 1016 84 0 0.78 350 07:59 03.05.2020
3761 Clear 24 1016 84 0 0.78 350 07:37 03.05.2020
3762 Clear 24 1016 84 0 0.78 350 07:37 03.05.2020
3763 Clear 24 1016 84 0 0.78 350 07:37 03.05.2020
3764 Clouds 26 1016 94 10000 0.32 330 05:57 03.05.2020
3765 Clouds 26 1016 94 10000 0.32 330 05:38 03.05.2020
3766 Clear 28 1019 93 0 0.34 199 04:28 03.05.2020
3767 Clear 28 1019 93 0 0.34 199 03:46 03.05.2020
3768 Clouds 28 1018 95 0 0.57 166 02:36 03.05.2020
3769 Clouds 28 1018 95 0 1.66 150 02:18 03.05.2020
3770 Clouds 28 1018 95 0 1.66 150 01:39 03.05.2020
3771 Clouds 28 1017 93 0 2.45 151 01:21 03.05.2020
3772 Clouds 29 1017 91 0 2.45 151 00:40 03.05.2020
3773 Clouds 29 1017 91 0 3.28 155 00:20 03.05.2020
3774 Clouds 29 1017 91 0 3.28 155 00:20 03.05.2020
3775 Clouds 29 1017 90 0 3.28 155 23:46 02.05.2020
3776 Clouds 29 1016 89 0 3.79 156 23:28 02.05.2020
3777 Clouds 29 1016 88 0 3.79 156 22:57 02.05.2020
3778 Clouds 29 1016 88 0 3.79 156 22:57 02.05.2020
3779 Clouds 30 1016 88 0 3.79 156 22:39 02.05.2020
3780 Clouds 30 1017 86 0 4.36 153 22:20 02.05.2020
3781 Clouds 30 1017 87 0 4.36 153 21:41 02.05.2020
3782 Smoke 31 1015 55 5000 5.1 180 21:20 02.05.2020
3783 Smoke 31 1015 55 5000 5.1 180 20:58 02.05.2020
3784 Smoke 31 1015 55 5000 5.1 180 20:39 02.05.2020
3785 Smoke 31 1015 55 5000 5.1 180 20:20 02.05.2020
3786 Smoke 31 1015 55 5000 5.1 180 20:20 02.05.2020
3787 Smoke 31 1016 55 5000 5.1 180 19:59 02.05.2020
3788 Smoke 31 1016 55 5000 5.1 180 19:39 02.05.2020
3789 Smoke 31 1016 55 5000 5.1 180 19:20 02.05.2020
3790 Smoke 30 1016 58 5000 3.1 160 18:56 02.05.2020
3791 Smoke 30 1016 58 5000 3.1 160 18:38 02.05.2020
3792 Smoke 30 1016 58 5000 3.1 160 18:19 02.05.2020
3793 Smoke 30 1017 62 5000 3.1 160 18:19 02.05.2020
3794 Smoke 30 1017 62 5000 3.1 160 17:56 02.05.2020
3795 Smoke 30 1017 62 5000 3.1 160 17:38 02.05.2020
3796 Smoke 30 1017 62 5000 3.1 160 17:19 02.05.2020
3797 Smoke 29 1017 70 5000 4.1 250 16:44 02.05.2020
3798 Smoke 29 1017 70 5000 4.1 250 16:26 02.05.2020
3799 Clouds 28 1017 78 10000 1.98 140 15:55 02.05.2020
3800 Clouds 28 1017 78 10000 1.98 140 15:36 02.05.2020
3801 Clouds 27 1017 78 10000 0.37 165 15:18 02.05.2020
3802 Clouds 26 1017 88 10000 0.37 165 14:41 02.05.2020
3803 Clouds 26 1017 88 10000 1.51 307 14:23 02.05.2020
3804 Clouds 25 1020 100 0 1.51 307 13:57 02.05.2020
3805 Clouds 25 1020 100 0 1.51 307 13:37 02.05.2020
3806 Clouds 25 1020 100 0 1.54 301 13:18 02.05.2020
3807 Clouds 26 1019 95 0 1.54 301 12:40 02.05.2020
3808 Clouds 24 1016 94 10000 2.1 30 12:20 02.05.2020
3809 Clouds 24 1016 94 10000 2.1 30 11:56 02.05.2020
3810 Clouds 24 1016 94 10000 2.1 30 11:38 02.05.2020
3811 Clouds 24 1016 94 10000 2.1 30 11:19 02.05.2020
3812 Clouds 25 1016 83 0 0.89 337 10:40 02.05.2020
3813 Clouds 25 1016 83 0 0.89 337 10:40 02.05.2020
3814 Rain 25 1016 80 0 1.34 355 10:22 02.05.2020
3815 Rain 25 1016 80 0 1.34 9 09:59 02.05.2020
3816 Rain 25 1016 79 0 0.89 347 09:40 02.05.2020
3817 Clouds 25 1017 83 10000 2.1 40 09:21 02.05.2020
3818 Clouds 25 1017 83 10000 2.1 40 08:55 02.05.2020
3819 Clouds 25 1017 83 10000 2.1 40 08:33 02.05.2020
3820 Clouds 26 1017 80 0 0.38 257 07:50 02.05.2020
3821 Clouds 27 1017 79 0 0.38 257 07:30 02.05.2020
3822 Clouds 27 1017 79 0 0.34 227 06:56 02.05.2020
3823 Clouds 27 1017 78 10000 3.1 130 06:28 02.05.2020
3824 Clouds 27 1017 78 10000 3.1 130 05:27 02.05.2020
3825 Clouds 27 1019 95 0 0.86 152 04:27 02.05.2020
3826 Clouds 27 1019 95 0 0.86 152 03:40 02.05.2020
3827 Clear 27 1018 94 0 1.45 153 02:41 02.05.2020
3828 Clouds 28 1018 93 0 2.01 149 01:56 02.05.2020
3829 Clouds 28 1018 92 0 2.44 152 01:20 02.05.2020
3830 Clouds 28 1018 91 0 2.44 152 00:42 02.05.2020
3831 Clouds 29 1017 91 0 3.19 153 00:20 02.05.2020
3832 Clouds 29 1015 66 10000 4.1 160 23:40 01.05.2020
3833 Clouds 30 1015 66 10000 4.1 160 23:21 01.05.2020
3834 Clouds 29 1017 90 0 4.05 156 22:58 01.05.2020
3835 Clouds 29 1017 90 0 4.05 156 22:38 01.05.2020
3836 Clouds 30 1018 89 0 4.51 158 22:19 01.05.2020
3837 Clouds 29 1017 90 0 4.51 158 21:57 01.05.2020
3838 Clouds 29 1016 78 10000 2.6 180 21:39 01.05.2020
3839 Clouds 29 1016 78 10000 2.6 180 21:19 01.05.2020
3840 Clouds 29 1016 78 10000 2.6 180 20:57 01.05.2020
3841 Clouds 29 1016 78 10000 2.6 180 20:37 01.05.2020
3842 Clouds 29 1016 78 10000 2.6 180 20:19 01.05.2020
3843 Clouds 30 1016 74 10000 5.1 180 19:43 01.05.2020
3844 Clouds 29 1016 74 10000 5.1 180 19:23 01.05.2020
3845 Clouds 29 1017 74 10000 3.1 160 18:59 01.05.2020
3846 Clouds 29 1017 74 10000 3.1 160 18:59 01.05.2020
3847 Clouds 29 1017 74 10000 3.1 160 18:40 01.05.2020
3848 Clouds 28 1017 74 10000 3.1 160 18:21 01.05.2020
3849 Clouds 28 1018 74 10000 3.1 120 17:58 01.05.2020
3850 Clouds 28 1018 74 10000 3.1 120 17:39 01.05.2020
3851 Clouds 28 1018 74 10000 3.1 120 17:21 01.05.2020
3852 Clouds 28 1017 83 10000 4.1 90 16:57 01.05.2020
3853 Clouds 27 1017 83 10000 4.1 90 16:38 01.05.2020
3854 Clouds 27 1017 83 10000 4.1 90 16:20 01.05.2020
3855 Rain 26 1017 83 10000 2.62 156 15:55 01.05.2020
3856 Rain 26 1017 83 10000 2.62 156 15:37 01.05.2020
3857 Rain 26 1017 83 10000 1.19 174 15:18 01.05.2020
3858 Rain 25 1017 88 8000 1.19 174 14:42 01.05.2020
3859 Rain 25 1017 88 8000 1.19 273 14:23 01.05.2020
3860 Clouds 25 1020 100 0 1.19 273 13:42 01.05.2020
3861 Clouds 25 1019 100 0 1.01 297 13:23 01.05.2020
3862 Clouds 26 1018 95 0 1.01 297 12:58 01.05.2020
3863 Clouds 26 1018 95 0 1.01 297 12:40 01.05.2020
3864 Clouds 23 1015 94 10000 2.1 60 12:20 01.05.2020
3865 Clouds 23 1015 94 10000 2.1 60 11:59 01.05.2020
3866 Clouds 23 1015 94 10000 2.1 60 11:40 01.05.2020
3867 Clouds 23 1015 94 10000 2.1 60 11:19 01.05.2020
3868 Clouds 24 1015 87 0 1.18 307 10:41 01.05.2020
3869 Clouds 24 1015 86 0 0.89 310 10:20 01.05.2020
3870 Clouds 25 1015 85 0 0.89 310 09:59 01.05.2020
3871 Clouds 25 1015 85 0 0.89 310 09:41 01.05.2020
3872 Clouds 24 1015 94 10000 2.1 50 09:18 01.05.2020
3873 Clouds 24 1015 94 10000 2.1 50 09:18 01.05.2020
3874 Clouds 25 1015 94 10000 2.1 50 08:43 01.05.2020
3875 Clouds 24 1015 94 10000 2.1 50 08:25 01.05.2020
3876 Clouds 26 1016 82 0 0.62 332 07:55 01.05.2020
3877 Clouds 26 1016 82 0 0.62 332 07:36 01.05.2020
3878 Clouds 26 1016 81 0 0.13 38 06:57 01.05.2020
3879 Clouds 25 1016 88 10000 0.26 79 05:41 01.05.2020
3880 Clouds 25 1016 88 10000 0.36 111 05:19 01.05.2020
3881 Clear 27 1018 94 0 0.67 138 03:41 01.05.2020
3882 Clouds 27 1014 78 10000 2.1 150 02:49 01.05.2020
3883 Clear 28 1017 94 0 0.89 164 02:30 01.05.2020
3884 Clear 28 1017 93 0 1.36 177 01:37 01.05.2020
3885 Clear 28 1017 94 0 2.13 171 01:18 01.05.2020
3886 Clear 28 1016 93 0 2.13 171 00:38 01.05.2020
3887 Clear 29 1016 91 0 3.25 159 00:20 01.05.2020
3888 Clear 29 1016 89 0 3.25 159 23:57 30.04.2020
3889 Clear 29 1016 89 0 3.25 159 23:38 30.04.2020
3890 Clear 29 1016 89 0 3.67 159 23:19 30.04.2020
3891 Clear 29 1016 89 0 3.67 159 22:42 30.04.2020
3892 Clear 30 1016 88 0 4.04 165 22:21 30.04.2020
3893 Clear 30 1016 90 0 4.04 165 21:58 30.04.2020
3894 Clear 30 1016 90 0 4.04 165 21:40 30.04.2020
3895 Clouds 30 1016 62 10000 5.1 180 21:21 30.04.2020
3896 Clouds 30 1016 62 10000 5.1 180 20:55 30.04.2020
3897 Clouds 30 1016 62 10000 5.1 180 20:37 30.04.2020
3898 Clouds 30 1016 62 10000 5.1 180 20:18 30.04.2020
3899 Clouds 30 1016 62 10000 5.1 180 20:18 30.04.2020
3900 Clouds 30 1017 62 10000 5.1 180 19:44 30.04.2020
3901 Clouds 30 1017 62 10000 5.1 180 19:25 30.04.2020
3902 Clouds 30 1017 66 10000 3.1 180 18:56 30.04.2020
3903 Clouds 30 1017 66 10000 3.1 180 18:38 30.04.2020
3904 Clouds 29 1017 66 10000 3.1 180 18:20 30.04.2020
3905 Clouds 29 1018 70 10000 2.1 180 17:56 30.04.2020
3906 Clouds 29 1018 70 10000 2.1 180 17:38 30.04.2020
3907 Clouds 29 1018 70 10000 2.1 180 17:19 30.04.2020
3908 Clouds 28 1018 74 10000 3.1 360 16:54 30.04.2020
3909 Clouds 28 1018 74 10000 3.1 360 16:36 30.04.2020
3910 Clouds 28 1018 74 10000 3.1 360 16:18 30.04.2020
3911 Clouds 27 1017 83 10000 5.1 360 15:44 30.04.2020
3912 Clouds 26 1017 83 10000 5.1 360 15:21 30.04.2020
3913 Clouds 25 1017 88 10000 2.04 354 14:42 30.04.2020
3914 Clouds 24 1017 88 10000 2.04 340 14:22 30.04.2020
3915 Rain 23 1019 100 0 2.04 340 13:59 30.04.2020
3916 Rain 23 1019 100 0 2.04 340 13:40 30.04.2020
3917 Rain 23 1016 94 8000 2.34 320 13:22 30.04.2020
3918 Rain 23 1017 91 0 2.24 64 12:58 30.04.2020
3919 Rain 24 1017 91 0 1.79 67 12:40 30.04.2020
3920 Rain 23 1016 94 6000 2.1 140 12:18 30.04.2020
3921 Rain 24 1016 94 6000 2.1 140 11:38 30.04.2020
3922 Rain 24 1016 94 6000 2.1 140 11:38 30.04.2020
3923 Rain 25 1016 94 6000 2.1 140 11:19 30.04.2020
3924 Clear 25 1016 83 0 1.34 352 10:57 30.04.2020
3925 Clear 25 1016 82 0 0.89 347 10:38 30.04.2020
3926 Clear 25 1016 82 0 1.34 352 10:19 30.04.2020
3927 Clear 25 1015 83 0 1.34 5 09:55 30.04.2020
3928 Clouds 25 1015 88 10000 2.1 40 09:36 30.04.2020
3929 Clouds 25 1015 88 10000 2.1 40 09:18 30.04.2020
3930 Clouds 25 1015 88 10000 2.1 40 08:42 30.04.2020
3931 Clouds 25 1015 88 10000 2.1 40 08:23 30.04.2020
3932 Clouds 26 1016 83 0 1.34 18 07:43 30.04.2020
3933 Clear 26 1016 83 0 0.89 28 07:25 30.04.2020
3934 Clear 26 1016 83 0 0.89 38 06:48 30.04.2020
3935 Clouds 26 1016 78 10000 4.1 40 05:50 30.04.2020
3936 Clouds 27 1016 78 10000 4.1 40 05:30 30.04.2020
3937 Rain 28 1018 92 0 1.4 47 04:33 30.04.2020
3938 Rain 28 1018 93 0 1.36 88 03:54 30.04.2020
3939 Rain 28 1018 92 0 1.28 113 02:45 30.04.2020
3940 Clear 28 1017 92 0 1.64 137 02:24 30.04.2020
3941 Clear 28 1017 93 0 1.64 137 01:35 30.04.2020
3942 Clear 28 1016 91 0 2.51 150 00:42 30.04.2020
3943 Clear 29 1016 93 0 3.66 155 00:19 30.04.2020
3944 Clear 29 1016 92 0 3.66 155 23:56 29.04.2020
3945 Clear 29 1016 92 0 3.66 155 23:36 29.04.2020
3946 Clear 29 1016 89 0 3.83 156 23:18 29.04.2020
3947 Clear 30 1016 86 0 3.83 156 22:40 29.04.2020
3948 Clear 30 1016 85 0 3.87 157 22:21 29.04.2020
3949 Clear 31 1016 85 0 3.87 157 21:57 29.04.2020
3950 Clouds 31 1015 52 10000 5.1 150 21:37 29.04.2020
3951 Clouds 31 1015 52 10000 5.1 150 21:18 29.04.2020
3952 Clouds 31 1015 52 10000 5.1 150 20:41 29.04.2020
3953 Clouds 31 1015 52 10000 5.1 150 20:20 29.04.2020
3954 Clouds 31 1016 52 10000 3.1 160 19:59 29.04.2020
3955 Clouds 31 1016 52 10000 3.1 160 19:41 29.04.2020
3956 Clouds 31 1016 52 10000 3.1 160 19:20 29.04.2020
3957 Clouds 31 1017 52 10000 5.1 120 18:43 29.04.2020
3958 Clouds 31 1017 52 10000 5.1 120 18:25 29.04.2020
3959 Clouds 30 1017 52 10000 4.1 90 17:57 29.04.2020
3960 Clouds 30 1017 52 10000 4.1 90 17:39 29.04.2020
3961 Clouds 30 1017 52 10000 4.1 90 17:20 29.04.2020
3962 Clouds 30 1017 66 10000 2.6 360 16:39 29.04.2020
3963 Clouds 30 1017 66 10000 2.6 360 16:39 29.04.2020
3964 Clouds 29 1017 66 10000 2.6 360 16:19 29.04.2020
3965 Clouds 29 1017 74 10000 2.6 360 15:57 29.04.2020
3966 Clouds 28 1017 74 10000 2.6 360 15:39 29.04.2020
3967 Clouds 28 1017 74 10000 2.6 360 15:21 29.04.2020
3968 Clouds 26 1017 83 10000 2.6 360 14:57 29.04.2020
3969 Clouds 27 1017 83 10000 2.6 360 14:38 29.04.2020
3970 Clouds 26 1017 83 10000 2.6 360 14:20 29.04.2020
3971 Clear 25 1019 95 0 2.75 348 13:42 29.04.2020
3972 Clear 25 1019 97 0 2.65 333 13:20 29.04.2020
3973 Clear 25 1016 80 0 1.34 340 12:59 29.04.2020
3974 Clear 25 1016 80 0 1.34 346 12:40 29.04.2020
3975 Clouds 24 1015 88 10000 3.1 30 12:19 29.04.2020
3976 Clouds 24 1015 88 10000 3.1 30 11:58 29.04.2020
3977 Clouds 24 1015 88 10000 3.1 30 11:36 29.04.2020
3978 Clouds 23 1015 88 10000 3.1 30 11:18 29.04.2020
3979 Clear 24 1015 79 0 2.5 339 10:37 29.04.2020
3980 Clear 24 1015 79 0 2.43 345 10:19 29.04.2020
3981 Clear 22 1015 86 0 2.43 345 09:42 29.04.2020
3982 Clouds 24 1015 88 10000 2.1 60 09:24 29.04.2020
3983 Clouds 24 1015 88 10000 2.1 60 08:59 29.04.2020
3984 Clouds 24 1015 88 10000 2.1 60 08:41 29.04.2020
3985 Clouds 24 1015 88 10000 2.1 60 08:23 29.04.2020
3986 Clouds 26 1016 73 0 2.24 76 07:47 29.04.2020
3987 Clouds 26 1016 73 0 2.27 33 07:24 29.04.2020
3988 Clouds 26 1016 74 0 2.27 33 06:51 29.04.2020
3989 Clouds 26 1016 83 10000 2.6 90 06:31 29.04.2020
3990 Rain 27 1018 91 0 1.98 49 05:22 29.04.2020
3991 Rain 28 1019 91 0 1.98 49 04:45 29.04.2020
3992 Rain 28 1018 91 0 1.11 78 04:18 29.04.2020
3993 Rain 28 1018 95 0 0.78 113 02:43 29.04.2020
3994 Rain 28 1017 95 0 1.04 128 01:44 29.04.2020
3995 Clear 28 1017 94 0 1.91 150 01:26 29.04.2020
3996 Clear 28 1017 93 0 1.91 150 00:42 29.04.2020
3997 Clouds 29 1016 90 0 3.16 156 00:19 29.04.2020
3998 Clouds 29 1016 88 0 3.16 156 23:50 28.04.2020
3999 Clouds 29 1016 87 0 3.77 156 23:24 28.04.2020
4000 Clouds 30 1016 85 0 3.77 156 22:57 28.04.2020
4001 Clouds 30 1016 85 0 3.77 156 22:37 28.04.2020
4002 Clouds 30 1016 87 0 4.47 156 22:18 28.04.2020
4003 Clouds 30 1017 86 0 4.47 156 21:56 28.04.2020
4004 Clouds 31 1016 49 10000 5.1 180 21:37 28.04.2020
4005 Clouds 31 1016 49 10000 5.1 180 21:19 28.04.2020
4006 Clouds 31 1016 49 10000 5.1 180 20:55 28.04.2020
4007 Clouds 31 1016 49 10000 5.1 180 20:36 28.04.2020
4008 Clouds 31 1016 49 10000 5.1 180 20:18 28.04.2020
4009 Clouds 31 1016 52 10000 4.1 190 19:42 28.04.2020
4010 Clouds 31 1016 52 10000 4.1 190 19:22 28.04.2020
4011 Clouds 31 1017 52 10000 5.1 150 18:59 28.04.2020
4012 Clouds 31 1017 52 10000 5.1 150 18:40 28.04.2020
4013 Clouds 31 1017 52 10000 5.1 150 18:19 28.04.2020
4014 Clouds 31 1017 52 10000 5.1 150 18:19 28.04.2020
4015 Clouds 30 1018 62 10000 4.1 150 17:57 28.04.2020
4016 Clouds 30 1018 62 10000 4.1 150 17:57 28.04.2020
4017 Clouds 30 1018 62 10000 4.1 150 17:36 28.04.2020
4018 Clouds 30 1018 62 10000 4.1 150 17:18 28.04.2020
4019 Clouds 29 1018 66 10000 2.16 54 16:42 28.04.2020
4020 Clouds 29 1018 66 10000 2.02 47 16:23 28.04.2020
4021 Clouds 29 1018 74 10000 2.02 47 15:57 28.04.2020
4022 -273 0 0 0 0 0 15:39 28.04.2020
4023 Clouds 28 1018 74 10000 1.73 15 15:21 28.04.2020
4024 Clouds 25 1018 88 10000 1.73 15 14:58 28.04.2020
4025 Clouds 25 1018 88 10000 1.73 15 14:58 28.04.2020
4026 Clouds 26 1018 88 10000 1.73 15 14:40 28.04.2020
4027 Clouds 26 1018 88 10000 1.79 342 14:20 28.04.2020
4028 Clear 25 1020 99 0 1.79 342 13:57 28.04.2020
4029 Clear 25 1020 99 0 1.79 342 13:37 28.04.2020
4030 Clear 25 1019 100 0 1.75 330 13:19 28.04.2020
4031 Clear 26 1019 92 0 1.75 330 12:44 28.04.2020
4032 Clouds 23 1016 94 10000 2.1 20 12:24 28.04.2020
4033 Clouds 23 1016 94 10000 2.1 20 11:45 28.04.2020
4034 Clouds 23 1016 94 10000 2.1 20 11:24 28.04.2020
4035 Clear 24 1016 83 0 1.67 327 10:59 28.04.2020
4036 Clear 24 1016 83 0 1.67 327 10:59 28.04.2020
4037 Clear 24 1016 82 0 1.67 327 10:39 28.04.2020
4038 Clear 24 1016 81 0 1.47 337 10:19 28.04.2020
4039 Clear 22 1016 82 0 1.47 337 09:56 28.04.2020
4040 Clouds 24 1016 88 10000 2.1 70 09:38 28.04.2020
4041 Clouds 25 1016 88 10000 2.1 70 09:20 28.04.2020
4042 Clouds 25 1016 88 10000 2.1 70 08:45 28.04.2020
4043 Clouds 25 1016 88 10000 2.1 70 08:26 28.04.2020
4044 Clear 25 1016 81 0 1.33 338 07:44 28.04.2020
4045 Clear 26 1016 81 0 1.26 349 07:19 28.04.2020
4046 Clear 26 1017 80 0 1.26 349 06:48 28.04.2020
4047 Clouds 24 1017 88 10000 2.1 80 06:20 28.04.2020
4048 Clouds 24 1017 88 10000 2.1 80 05:40 28.04.2020
4049 Clear 24 1018 77 0 0.75 351 04:56 28.04.2020
4050 Clouds 27 1016 78 10000 2.1 150 02:59 28.04.2020
4051 Clouds 28 1018 89 0 1.65 162 02:28 28.04.2020
4052 Clouds 28 1017 90 0 2.4 165 01:23 28.04.2020
4053 Clouds 28 1017 89 0 2.4 165 00:51 28.04.2020
4054 Clouds 29 1017 86 0 3.63 162 00:20 28.04.2020
4055 Clouds 29 1017 88 0 3.63 162 23:44 27.04.2020
4056 Clouds 29 1017 87 0 4.59 158 23:23 27.04.2020
4057 Clouds 29 1017 87 0 4.59 158 23:23 27.04.2020
4058 Clouds 30 1017 83 0 4.59 158 22:55 27.04.2020
4059 Clouds 30 1017 83 0 4.62 157 22:37 27.04.2020
4060 Clouds 30 1017 78 0 5.08 154 22:18 27.04.2020
4061 Clouds 30 1017 72 0 5.08 154 21:55 27.04.2020
4062 Clouds 31 1017 49 10000 5.1 180 21:37 27.04.2020
4063 Clouds 31 1017 49 10000 5.1 180 21:18 27.04.2020
4064 Clouds 31 1017 49 10000 5.1 180 20:43 27.04.2020
4065 Clouds 31 1017 49 10000 5.1 180 20:22 27.04.2020
4066 Clouds 31 1017 55 10000 5.1 180 19:58 27.04.2020
4067 Clouds 31 1017 55 10000 5.1 180 19:38 27.04.2020
4068 Clouds 31 1017 55 10000 5.1 180 19:19 27.04.2020
4069 Clouds 31 1018 55 10000 5.1 180 18:56 27.04.2020
4070 Clouds 30 1018 55 10000 5.1 180 18:37 27.04.2020
4071 Clouds 31 1018 55 10000 5.1 180 18:18 27.04.2020
4072 Clouds 30 1019 62 10000 4.1 130 17:43 27.04.2020
4073 Clouds 30 1019 62 10000 4.1 130 17:43 27.04.2020
4074 Clouds 30 1019 62 10000 4.1 130 17:21 27.04.2020
4075 Clouds 29 1019 70 10000 3.1 120 16:56 27.04.2020
4076 Clouds 29 1019 70 10000 3.1 120 16:38 27.04.2020
4077 Clouds 29 1019 70 10000 3.1 120 16:20 27.04.2020
4078 Clouds 28 1018 78 10000 4.1 20 15:56 27.04.2020
4079 Clouds 28 1018 78 10000 4.1 20 15:37 27.04.2020
4080 Clouds 27 1018 78 10000 4.1 20 15:18 27.04.2020
4081 Clouds 26 1018 88 10000 1.89 354 14:41 27.04.2020
4082 Clouds 26 1018 88 10000 1.89 354 14:20 27.04.2020
4083 Clouds 25 1020 95 0 2.06 360 13:57 27.04.2020
4084 Clouds 25 1020 95 0 2.06 360 13:39 27.04.2020
4085 Clouds 25 1020 95 0 2.06 360 13:39 27.04.2020
4086 Clouds 25 1020 99 0 2.06 360 13:19 27.04.2020
4087 Clouds 26 1020 89 0 2.06 360 12:43 27.04.2020
4088 Clouds 23 1017 85 0 2.07 331 12:23 27.04.2020
4089 Clouds 24 1017 84 0 2.07 331 11:57 27.04.2020
4090 Clouds 24 1017 83 0 2.07 331 11:38 27.04.2020
4091 Clouds 24 1017 83 0 2.07 331 11:19 27.04.2020
4092 Clouds 25 1016 81 0 2.07 331 10:42 27.04.2020
4093 Clouds 25 1016 81 0 2.07 331 10:24 27.04.2020
4094 Clouds 25 1016 81 0 2.07 331 09:58 27.04.2020
4095 Clouds 25 1016 81 0 2.07 331 09:40 27.04.2020
4096 Clear 25 1016 81 0 1.42 340 09:18 27.04.2020
4097 Clear 25 1017 80 0 1.42 340 08:52 27.04.2020
4098 Clear 26 1018 79 0 1.42 340 08:32 27.04.2020
4099 Clear 26 1018 79 0 1.42 340 07:45 27.04.2020
4100 Clear 26 1018 79 0 1.42 340 07:27 27.04.2020
4101 Clear 23 1018 83 0 1.42 340 06:58 27.04.2020
4102 Clear 26 1018 78 0 1.42 340 06:30 27.04.2020
4103 Clear 26 1018 76 0 0.56 12 05:57 27.04.2020
4104 Clear 27 1018 75 0 0.56 12 05:19 27.04.2020
4105 Clear 27 1018 73 0 0.56 12 04:39 27.04.2020
4106 Clear 27 1018 73 0 0.56 12 04:39 27.04.2020
4107 Clear 24 1018 78 0 0.56 12 03:47 27.04.2020
4108 Clear 28 1019 89 0 1.61 145 02:32 27.04.2020
4109 Clear 28 1018 86 0 1.61 145 01:20 27.04.2020
4110 Clear 29 1018 86 0 1.61 145 00:40 27.04.2020
4111 Clear 29 1018 85 0 3.96 153 00:19 27.04.2020
4112 Clear 29 1018 85 0 3.96 153 23:55 26.04.2020
4113 Clear 30 1018 85 0 3.96 153 23:37 26.04.2020
4114 Clear 30 1018 84 0 3.96 153 23:18 26.04.2020
4115 Clear 30 1018 87 0 3.96 153 22:40 26.04.2020
4116 Clear 30 1018 85 0 3.96 153 22:22 26.04.2020
4117 Clear 30 1018 84 0 3.96 153 21:59 26.04.2020
4118 Clear 30 1018 84 0 3.96 153 21:59 26.04.2020
4119 Clear 30 1018 84 0 3.96 153 21:41 26.04.2020
4120 Clouds 31 1016 55 10000 5.1 180 21:19 26.04.2020
4121 Clouds 31 1016 55 10000 5.1 180 20:59 26.04.2020
4122 Clouds 31 1016 55 10000 5.1 180 20:39 26.04.2020
4123 Clouds 30 1016 55 10000 5.1 180 20:20 26.04.2020
4124 Clouds 30 1016 55 10000 5.1 180 20:20 26.04.2020
4125 Clouds 31 1017 59 10000 5.1 180 19:58 26.04.2020
4126 Clouds 31 1017 59 10000 5.1 180 19:37 26.04.2020
4127 Clouds 30 1017 59 10000 5.1 180 19:19 26.04.2020
4128 Clouds 30 1017 59 10000 5.1 118 18:44 26.04.2020
4129 Clouds 30 1017 59 10000 5.1 118 18:25 26.04.2020
4130 Clouds 30 1017 59 10000 5.1 118 18:25 26.04.2020
4131 Clouds 30 1018 66 10000 4.1 130 17:56 26.04.2020
4132 Clouds 30 1018 66 10000 4.1 130 17:38 26.04.2020
4133 Clouds 30 1018 66 10000 4.1 130 17:18 26.04.2020
4134 Clouds 29 1018 74 10000 3.1 40 16:40 26.04.2020
4135 Clouds 29 1018 74 10000 3.1 40 16:21 26.04.2020
4136 Clouds 29 1018 78 10000 3.65 115 15:58 26.04.2020
4137 Clouds 28 1018 78 10000 3.65 115 15:38 26.04.2020
4138 Clouds 28 1018 78 10000 1.91 17 15:20 26.04.2020
4139 Clouds 27 1017 83 10000 1.91 17 14:55 26.04.2020
4140 Clouds 27 1017 83 10000 1.91 17 14:36 26.04.2020
4141 Clouds 26 1017 83 10000 1.68 27 14:18 26.04.2020
4142 Rain 27 1020 97 0 1.68 27 13:43 26.04.2020
4143 Rain 26 1020 97 0 1.68 27 13:23 26.04.2020
4144 Rain 27 1019 94 0 1.68 27 12:58 26.04.2020
4145 Rain 27 1019 94 0 1.68 27 12:40 26.04.2020
4146 Clouds 25 1016 83 10000 2.1 70 12:20 26.04.2020
4147 Clouds 25 1016 83 10000 2.1 70 11:57 26.04.2020
4148 Clouds 25 1016 83 10000 2.1 70 11:39 26.04.2020
4149 Clouds 25 1016 83 10000 2.1 70 11:21 26.04.2020
4150 Rain 23 1015 87 0 1.83 350 10:55 26.04.2020
4151 Rain 23 1015 87 0 1.83 350 10:37 26.04.2020
4152 Rain 23 1015 87 0 1.83 350 10:18 26.04.2020
4153 Clouds 24 1016 94 10000 2.1 40 09:39 26.04.2020
4154 Clouds 24 1016 94 10000 2.1 40 09:21 26.04.2020
4155 Clouds 24 1016 94 10000 2.1 40 08:43 26.04.2020
4156 Clouds 24 1016 94 10000 2.1 40 08:23 26.04.2020
4157 Clear 26 1017 77 0 1.77 340 07:58 26.04.2020
4158 Clear 26 1017 77 0 1.77 340 07:40 26.04.2020
4159 Clear 26 1017 77 0 0.89 347 07:18 26.04.2020
4160 Clear 26 1018 80 0 1.77 340 06:39 26.04.2020
4161 Clouds 26 1017 83 10000 3.1 50 05:55 26.04.2020
4162 Clouds 26 1017 83 10000 3.1 50 05:36 26.04.2020
4163 Clear 27 1018 79 0 0.45 148 04:44 26.04.2020
4164 Clear 28 1019 94 0 1.17 26 03:50 26.04.2020
4165 Clear 28 1019 93 0 1.56 153 02:44 26.04.2020
4166 Clear 28 1019 92 0 1.35 141 02:21 26.04.2020
4167 Clear 28 1018 93 0 1.35 141 01:38 26.04.2020
4168 Clear 28 1018 92 0 1.35 141 01:19 26.04.2020
4169 Clear 29 1018 90 0 1.35 141 00:38 26.04.2020
4170 Clear 29 1018 88 0 3.87 156 00:18 26.04.2020
4171 Clear 29 1018 84 0 3.87 156 23:38 25.04.2020
4172 Clear 30 1018 84 0 3.87 156 23:20 25.04.2020
4173 Clear 30 1018 86 0 3.87 156 22:54 25.04.2020
4174 Clear 30 1018 86 0 3.87 156 22:36 25.04.2020
4175 Clear 30 1018 86 0 3.87 156 22:18 25.04.2020
4176 Clear 30 1018 85 0 3.87 156 21:39 25.04.2020
4177 Clouds 31 1018 52 10000 5.1 150 21:20 25.04.2020
4178 Clouds 31 1018 52 10000 5.1 150 20:56 25.04.2020
4179 Clouds 31 1018 52 10000 5.1 150 20:37 25.04.2020
4180 Clouds 31 1018 52 10000 5.1 150 20:19 25.04.2020
4181 Clouds 30 1018 59 10000 6.2 180 19:41 25.04.2020
4182 Clouds 30 1018 59 10000 6.2 180 19:23 25.04.2020
4183 Clouds 30 1018 58 10000 5.1 150 18:58 25.04.2020
4184 Clouds 30 1018 58 10000 5.1 150 18:39 25.04.2020
4185 Clouds 30 1018 58 10000 5.1 150 18:20 25.04.2020
4186 Clouds 30 1018 62 10000 2.95 131 17:57 25.04.2020
4187 Clouds 30 1018 62 10000 2.95 131 17:38 25.04.2020
4188 Clouds 30 1018 62 10000 2.95 131 17:19 25.04.2020
4189 Clouds 29 1018 74 10000 3.1 60 16:54 25.04.2020
4190 Clouds 29 1018 74 10000 3.1 60 16:36 25.04.2020
4191 Clouds 29 1018 74 10000 3.1 60 16:36 25.04.2020
4192 Clouds 29 1018 74 10000 3.1 60 16:18 25.04.2020
4193 Clouds 27 1017 78 10000 2.95 131 15:40 25.04.2020
4194 Clouds 27 1017 78 10000 1.59 351 15:19 25.04.2020
4195 Clouds 25 1017 94 10000 1.59 351 14:58 25.04.2020
4196 Clouds 25 1017 94 10000 1.59 351 14:38 25.04.2020
4197 Clouds 25 1017 94 10000 1.47 353 14:19 25.04.2020
4198 Clouds 26 1019 95 0 1.47 353 13:43 25.04.2020
4199 Clouds 25 1019 97 0 1.47 353 13:19 25.04.2020
4200 Clouds 26 1018 93 0 1.47 353 12:58 25.04.2020
4201 Clouds 26 1018 93 0 1.47 353 12:39 25.04.2020
4202 Clouds 23 1015 94 10000 2.1 40 12:20 25.04.2020
4203 Clouds 23 1015 94 10000 2.1 40 11:55 25.04.2020
4204 Clouds 23 1015 94 10000 2.1 40 11:37 25.04.2020
4205 Clouds 23 1015 94 10000 2.1 40 11:19 25.04.2020
4206 Clouds 24 1016 82 0 1.66 321 10:42 25.04.2020
4207 Clouds 24 1015 81 0 1.66 321 10:22 25.04.2020
4208 Clouds 25 1015 80 0 1.66 321 09:47 25.04.2020
4209 Clouds 24 1016 94 10000 2.1 40 09:28 25.04.2020
4210 Clouds 24 1016 94 10000 2.1 40 08:57 25.04.2020
4211 Clouds 24 1016 94 10000 2.1 40 08:38 25.04.2020
4212 Clouds 24 1016 94 10000 2.1 40 08:20 25.04.2020
4213 Clear 26 1016 79 0 1.38 353 07:47 25.04.2020
4214 Clear 26 1016 79 0 0.45 31 07:28 25.04.2020
4215 Clear 23 1016 80 0 1.38 353 06:47 25.04.2020
4216 Clouds 26 1016 83 10000 2.1 70 06:18 25.04.2020
4217 Clouds 26 1016 83 10000 2.1 70 05:39 25.04.2020
4218 Clear 27 1019 93 0 0.63 3 04:47 25.04.2020
4219 Clouds 27 1018 93 0 1.27 172 02:59 25.04.2020
4220 Clouds 28 1017 92 0 0.86 178 02:20 25.04.2020
4221 Clouds 28 1017 92 0 0.86 178 02:20 25.04.2020
4222 Clouds 28 1017 92 0 0.86 178 01:52 25.04.2020
4223 Clouds 28 1017 91 0 0.86 178 01:27 25.04.2020
4224 Clouds 28 1017 89 0 0.86 178 00:52 25.04.2020
4225 Clouds 29 1017 88 0 0.86 178 00:31 25.04.2020
4226 Clouds 29 1016 89 0 3.89 154 23:44 24.04.2020
4227 Clouds 29 1016 87 0 3.89 154 23:23 24.04.2020
4228 Clouds 30 1016 85 0 3.89 154 22:56 24.04.2020
4229 Clouds 30 1016 85 0 3.89 154 22:56 24.04.2020
4230 Clouds 30 1016 85 0 3.89 154 22:38 24.04.2020
4231 Clouds 30 1016 85 0 3.89 154 22:19 24.04.2020
4232 Clouds 30 1016 85 0 3.89 154 22:19 24.04.2020
4233 Clouds 30 1017 85 0 3.89 154 21:55 24.04.2020
4234 Clouds 31 1016 55 10000 5.1 180 21:36 24.04.2020
4235 Clouds 31 1016 55 10000 5.1 180 21:18 24.04.2020
4236 Clouds 31 1016 55 10000 5.1 180 20:54 24.04.2020
4237 Clouds 31 1016 55 10000 5.1 180 20:36 24.04.2020
4238 Clouds 31 1017 59 10000 6.2 170 20:18 24.04.2020
4239 Clouds 31 1017 59 10000 6.2 170 19:39 24.04.2020
4240 Clouds 31 1017 59 10000 6.2 170 19:20 24.04.2020
4241 Clouds 31 1017 62 10000 5.1 180 18:44 24.04.2020
4242 Clouds 30 1017 62 10000 5.1 180 18:25 24.04.2020
4243 Clouds 30 1018 66 10000 4.1 150 17:54 24.04.2020
4244 Clouds 30 1018 66 10000 4.1 150 17:36 24.04.2020
4245 Clouds 29 1018 74 10000 4.1 120 17:18 24.04.2020
4246 Clouds 29 1018 74 10000 4.1 120 16:56 24.04.2020
4247 Clouds 29 1018 74 10000 4.1 120 16:38 24.04.2020
4248 Clouds 29 1018 74 10000 4.1 120 16:20 24.04.2020
4249 Clouds 28 1018 78 10000 2.6 60 15:40 24.04.2020
4250 Clouds 28 1018 78 10000 2.6 60 15:20 24.04.2020
4251 Clouds 27 1017 88 10000 2.86 20 14:41 24.04.2020
4252 Clouds 27 1017 88 10000 2.86 16 14:22 24.04.2020
4253 Rain 26 1019 97 0 2.86 16 13:59 24.04.2020
4254 Rain 26 1019 97 0 2.86 16 13:40 24.04.2020
4255 Rain 26 1019 99 0 2.86 16 13:20 24.04.2020
4256 Rain 27 1019 96 0 2.86 16 12:46 24.04.2020
4257 Clouds 25 1015 94 10000 2.1 20 12:26 24.04.2020
4258 Clouds 25 1015 94 10000 2.1 20 11:59 24.04.2020
4259 Clouds 25 1015 94 10000 2.1 20 11:40 24.04.2020
4260 Clouds 25 1015 94 10000 2.1 20 11:21 24.04.2020
4261 Rain 26 1016 82 0 1.34 350 10:56 24.04.2020
4262 Rain 26 1015 86 0 2.12 334 10:37 24.04.2020
4263 Rain 26 1015 86 0 2.12 334 10:19 24.04.2020
4264 Rain 26 1015 86 0 2.12 334 09:47 24.04.2020
4265 Clouds 26 1015 94 10000 2.1 40 09:24 24.04.2020
4266 Clouds 25 1015 94 10000 2.1 40 08:58 24.04.2020
4267 Clouds 26 1015 94 10000 2.1 40 08:40 24.04.2020
4268 Clouds 26 1015 94 10000 2.1 40 08:18 24.04.2020
4269 Rain 27 1016 77 0 1.79 60 07:46 24.04.2020
4270 Rain 27 1016 76 0 1.34 66 07:26 24.04.2020
4271 Rain 27 1016 79 0 1.79 70 06:57 24.04.2020
4272 Clouds 26 1017 88 10000 2.1 90 06:37 24.04.2020
4273 Clouds 26 1017 88 10000 2.1 90 05:48 24.04.2020
4274 Rain 28 1019 96 0 2.33 45 04:30 24.04.2020
4275 Rain 28 1019 97 0 1.07 114 03:24 24.04.2020
4276 Rain 28 1018 96 0 1.07 114 02:41 24.04.2020
4277 Rain 28 1018 95 0 1.34 84 02:20 24.04.2020
4278 Rain 28 1018 94 0 1.34 84 01:24 24.04.2020
4279 Rain 29 1017 94 0 1.34 84 00:39 24.04.2020
4280 Clouds 29 1017 92 0 3.78 144 00:18 24.04.2020
4281 Clouds 29 1017 92 0 3.78 144 23:44 23.04.2020
4282 Clouds 29 1017 90 0 3.78 144 23:26 23.04.2020
4283 Clouds 30 1014 66 10000 5.1 150 22:55 23.04.2020
4284 Clouds 30 1014 66 10000 5.1 150 22:37 23.04.2020
4285 Clouds 30 1014 66 10000 5.1 150 22:37 23.04.2020
4286 Clouds 30 1014 66 10000 5.1 150 22:18 23.04.2020
4287 Clouds 31 1014 62 10000 4.1 160 21:56 23.04.2020
4288 Clouds 31 1014 62 10000 4.1 160 21:56 23.04.2020
4289 Clouds 31 1015 59 10000 5.1 180 21:38 23.04.2020
4290 Clouds 31 1015 59 10000 5.1 180 21:19 23.04.2020
4291 Clouds 31 1015 59 10000 5.1 180 20:43 23.04.2020
4292 Clouds 32 1015 59 10000 5.1 180 20:22 23.04.2020
4293 Clouds 32 1016 55 10000 5.1 130 19:59 23.04.2020
4294 Clouds 31 1016 55 10000 5.1 130 19:40 23.04.2020
4295 Clouds 32 1016 55 10000 5.1 130 19:22 23.04.2020
4296 Clouds 31 1017 59 10000 3.1 60 18:57 23.04.2020
4297 Clouds 31 1017 59 10000 3.1 60 18:38 23.04.2020
4298 Clouds 31 1017 59 10000 3.1 60 18:20 23.04.2020
4299 Clouds 31 1018 62 10000 4.1 60 17:55 23.04.2020
4300 Clouds 31 1018 62 10000 4.1 60 17:37 23.04.2020
4301 Clouds 30 1018 62 10000 4.1 60 17:19 23.04.2020
4302 Clouds 30 1017 66 10000 2.6 60 16:43 23.04.2020
4303 Clouds 30 1017 66 10000 2.6 60 16:20 23.04.2020
4304 Clouds 29 1017 74 10000 2.96 34 15:43 23.04.2020
4305 Clouds 29 1017 74 10000 2.96 34 15:43 23.04.2020
4306 Clouds 29 1017 74 10000 2.98 351 15:23 23.04.2020
4307 Clouds 26 1016 83 10000 2.98 351 14:59 23.04.2020
4308 Clouds 26 1016 83 10000 2.8 351 14:39 23.04.2020
4309 Clouds 25 1016 83 10000 2.8 351 14:21 23.04.2020
4310 Clouds 26 1019 99 0 2.8 351 13:57 23.04.2020
4311 Clouds 26 1019 99 0 2.8 351 13:38 23.04.2020
4312 Clouds 26 1018 100 0 2.8 351 13:19 23.04.2020
4313 Clouds 26 1016 81 0 0.89 47 12:55 23.04.2020
4314 Clouds 25 1015 94 10000 2.8 351 12:37 23.04.2020
4315 Clouds 23 1015 94 10000 2.8 350 12:18 23.04.2020
4316 Clouds 23 1015 94 10000 2.8 350 11:43 23.04.2020
4317 Clouds 23 1015 94 10000 2.8 350 11:25 23.04.2020
4318 Clouds 22 1015 88 0 2.8 350 10:43 23.04.2020
4319 Clouds 22 1015 88 0 2.8 350 10:24 23.04.2020
4320 Clouds 22 1015 88 0 2.8 350 09:58 23.04.2020
4321 Clouds 24 1015 88 10000 2.1 50 09:37 23.04.2020
4322 Clouds 24 1015 88 10000 2.1 50 09:18 23.04.2020
4323 Clouds 24 1015 88 10000 2.1 50 08:46 23.04.2020
4324 Clouds 24 1015 88 10000 2.1 50 08:27 23.04.2020
4325 Clouds 23 1016 85 0 2.53 358 07:43 23.04.2020
4326 Clouds 23 1016 85 0 2.53 358 07:24 23.04.2020
4327 Clouds 23 1016 85 0 2.53 358 06:49 23.04.2020
4328 Clouds 27 1016 83 10000 2.1 110 06:27 23.04.2020
4329 Clouds 27 1016 83 10000 2.1 110 05:31 23.04.2020
4330 Rain 28 1019 95 0 2.88 16 04:53 23.04.2020
4331 Clouds 28 1015 78 10000 2.1 130 02:25 23.04.2020
4332 Clouds 28 1014 69 10000 2.1 160 01:51 23.04.2020
4333 Clouds 28 1014 69 10000 2.1 160 01:33 23.04.2020
4334 Clouds 28 1014 66 10000 3.1 180 00:47 23.04.2020
4335 Clouds 29 1014 66 10000 3.1 180 00:23 23.04.2020
4336 Clouds 29 1013 66 10000 3.1 180 23:50 22.04.2020
4337 Clouds 30 1013 66 10000 3.1 180 23:24 22.04.2020
4338 Clouds 30 1013 62 10000 4.1 180 22:57 22.04.2020
4339 Clouds 30 1013 62 10000 4.1 180 22:38 22.04.2020
4340 Clouds 30 1013 62 10000 4.1 180 22:19 22.04.2020
4341 Clouds 30 1014 58 10000 4.1 180 21:56 22.04.2020
4342 Clouds 31 1016 55 10000 5.1 180 21:37 22.04.2020
4343 Clouds 31 1016 55 10000 5.1 180 21:19 22.04.2020
4344 Clouds 31 1016 55 10000 5.1 180 20:43 22.04.2020
4345 Clouds 31 1016 55 10000 5.1 180 20:19 22.04.2020
4346 Clouds 31 1016 55 10000 5.1 180 19:58 22.04.2020
4347 Clouds 31 1016 55 10000 5.1 180 19:39 22.04.2020
4348 Clouds 31 1016 55 10000 5.1 180 19:39 22.04.2020
4349 Clouds 31 1016 55 10000 5.1 180 19:19 22.04.2020
4350 Clouds 30 1017 59 10000 4.1 180 18:59 22.04.2020
4351 Clouds 30 1017 59 10000 4.1 180 18:40 22.04.2020
4352 Clouds 30 1017 59 10000 4.1 180 18:22 22.04.2020
4353 Clouds 30 1018 62 10000 2.1 130 17:56 22.04.2020
4354 Clouds 30 1018 62 10000 2.1 130 17:37 22.04.2020
4355 Clouds 30 1017 62 10000 2.1 130 17:19 22.04.2020
4356 Clouds 30 1017 62 10000 2.1 130 16:42 22.04.2020
4357 Clouds 30 1017 62 10000 2.1 130 16:42 22.04.2020
4358 Clouds 29 1017 62 10000 2.1 130 16:23 22.04.2020
4359 Clouds 28 1017 74 10000 2.24 74 15:43 22.04.2020
4360 Clouds 27 1017 74 10000 1.63 343 15:25 22.04.2020
4361 Clouds 26 1016 88 10000 1.63 343 14:59 22.04.2020
4362 Clouds 26 1016 88 10000 1.63 343 14:59 22.04.2020
4363 Clouds 26 1016 88 10000 1.63 346 14:40 22.04.2020
4364 Clouds 26 1016 88 10000 1.63 346 14:20 22.04.2020
4365 Clear 26 1019 100 0 1.63 346 13:56 22.04.2020
4366 Clear 25 1019 100 0 1.63 346 13:37 22.04.2020
4367 Clear 25 1018 100 0 1.63 346 13:19 22.04.2020
4368 Clear 26 1018 93 0 1.63 346 12:41 22.04.2020
4369 Clouds 24 1015 94 10000 2.1 40 12:22 22.04.2020
4370 Clouds 24 1015 94 10000 2.1 40 11:41 22.04.2020
4371 Clouds 24 1015 94 10000 2.1 40 11:22 22.04.2020
4372 Clear 23 1015 87 0 1.04 324 10:59 22.04.2020
4373 Clear 24 1015 87 0 1.04 324 10:40 22.04.2020
4374 Clear 24 1015 87 0 1.04 324 10:40 22.04.2020
4375 Clear 25 1015 82 0 1.34 338 10:20 22.04.2020
4376 Clear 25 1015 80 0 1.34 345 09:40 22.04.2020
4377 Clouds 25 1015 88 10000 2.1 50 09:21 22.04.2020
4378 Clouds 25 1015 88 10000 2.1 50 08:58 22.04.2020
4379 Clouds 25 1015 88 10000 2.1 50 08:40 22.04.2020
4380 Clouds 25 1015 88 10000 2.1 50 08:22 22.04.2020
4381 Clear 26 1015 82 0 0.67 346 07:53 22.04.2020
4382 Clear 26 1015 81 0 0.67 346 07:29 22.04.2020
4383 Clear 26 1016 79 0 0.67 346 06:53 22.04.2020
4384 Clouds 26 1016 83 10000 2.1 130 06:21 22.04.2020
4385 Clouds 26 1016 83 10000 2.1 130 05:37 22.04.2020
4386 Clear 27 1018 93 0 0.4 342 04:20 22.04.2020
4387 Clear 27 1017 93 0 1.55 171 02:51 22.04.2020
4388 Clear 28 1017 91 0 1.77 165 01:53 22.04.2020
4389 Clear 28 1017 90 0 1.77 165 01:27 22.04.2020
4390 Clear 28 1016 89 0 1.77 165 00:54 22.04.2020
4391 Clear 28 1016 89 0 1.77 165 00:36 22.04.2020
4392 Clear 29 1016 87 0 3.57 158 00:18 22.04.2020
4393 Clear 29 1015 87 0 3.57 158 23:41 21.04.2020
4394 Clear 29 1015 87 0 3.57 158 23:41 21.04.2020
4395 Clear 29 1015 85 0 3.57 158 23:19 21.04.2020
4396 Clear 29 1015 85 0 3.57 158 23:19 21.04.2020
4397 Clear 30 1016 85 0 3.57 158 22:40 21.04.2020
4398 Clear 29 1015 84 0 3.57 158 22:22 21.04.2020
4399 Clear 30 1016 87 0 3.57 158 21:59 21.04.2020
4400 Clear 30 1016 87 0 3.57 158 21:41 21.04.2020
4401 Clouds 31 1015 52 10000 5.1 170 21:22 21.04.2020
4402 Clouds 30 1015 52 10000 5.1 170 20:55 21.04.2020
4403 Clouds 30 1015 52 10000 5.1 170 20:37 21.04.2020
4404 Clouds 31 1015 52 10000 5.1 170 20:19 21.04.2020
4405 Clouds 31 1016 55 10000 5.1 170 19:40 21.04.2020
4406 Clouds 31 1016 55 10000 5.1 170 19:19 21.04.2020
4407 Clouds 31 1017 59 10000 5.1 180 18:57 21.04.2020
4408 Clouds 31 1017 59 10000 5.1 180 18:38 21.04.2020
4409 Clouds 31 1017 59 10000 5.1 180 18:19 21.04.2020
4410 Clouds 30 1017 62 10000 5.1 170 17:55 21.04.2020
4411 Clouds 30 1017 62 10000 5.1 170 17:37 21.04.2020
4412 Clouds 30 1017 62 10000 5.1 170 17:18 21.04.2020
4413 Clouds 30 1017 66 10000 4.1 90 16:39 21.04.2020
4414 Clouds 30 1017 66 10000 4.1 90 16:39 21.04.2020
4415 Clouds 29 1017 66 10000 4.1 90 16:19 21.04.2020
4416 Clouds 29 1017 74 10000 3.56 148 15:57 21.04.2020
4417 Clouds 29 1017 74 10000 3.56 148 15:38 21.04.2020
4418 Clouds 28 1017 74 10000 0.81 34 15:20 21.04.2020
4419 Clouds 26 1017 83 10000 2.6 330 14:54 21.04.2020
4420 Clouds 26 1017 83 10000 2.6 330 14:36 21.04.2020
4421 Clouds 25 1017 83 10000 2.6 330 14:18 21.04.2020
4422 Clouds 24 1015 94 10000 2.1 40 13:40 21.04.2020
4423 Clouds 24 1015 94 10000 2.1 40 13:22 21.04.2020
4424 Rain 26 1018 96 0 0.81 34 12:55 21.04.2020
4425 Clouds 25 1014 100 10000 2.1 120 12:36 21.04.2020
4426 Clouds 23 1014 100 10000 2.1 120 12:18 21.04.2020
4427 Clouds 23 1014 100 10000 2.1 120 11:55 21.04.2020
4428 Clouds 23 1014 100 10000 2.1 120 11:36 21.04.2020
4429 Clouds 23 1014 100 10000 2.1 120 11:18 21.04.2020
4430 Clouds 23 1014 100 10000 2.1 120 11:18 21.04.2020
4431 Rain 24 1015 88 0 0.81 41 10:54 21.04.2020
4432 Rain 24 1015 88 0 0.81 41 10:36 21.04.2020
4433 Rain 24 1015 88 0 0.81 41 10:18 21.04.2020
4434 Clouds 25 1016 88 10000 0.65 81 09:37 21.04.2020
4435 Clouds 25 1016 88 10000 0.33 26 09:18 21.04.2020
4436 Clouds 25 1016 88 10000 0.33 26 08:47 21.04.2020
4437 Clouds 25 1016 88 10000 0.33 26 08:27 21.04.2020
4438 Clouds 25 1016 88 10000 0.33 26 08:27 21.04.2020
4439 Rain 26 1016 86 0 0.33 26 07:57 21.04.2020
4440 Rain 26 1016 85 0 0.33 26 07:37 21.04.2020
4441 Rain 27 1016 82 0 0.33 26 07:19 21.04.2020
4442 Rain 24 1016 87 0 0.33 26 06:43 21.04.2020
4443 Clouds 25 1016 83 0 2.1 120 06:18 21.04.2020
4444 Clouds 25 1016 83 0 2.1 120 05:44 21.04.2020
4445 Clouds 27 1018 96 0 0.71 176 03:48 21.04.2020
4446 Clouds 27 1018 96 0 0.71 176 03:48 21.04.2020
4447 Clouds 27 1015 78 10000 3.1 150 02:59 21.04.2020
4448 Clouds 28 1014 69 10000 3.1 150 01:37 21.04.2020
4449 Clear 28 1017 93 0 2.03 159 00:51 21.04.2020
4450 Clear 29 1016 92 0 3.83 159 00:25 21.04.2020
4451 Clouds 29 1012 62 10000 2.6 150 23:44 20.04.2020
4452 Clouds 29 1012 62 10000 2.6 150 23:23 20.04.2020
4453 Clear 30 1017 89 0 3.83 159 22:57 20.04.2020
4454 Clouds 30 1014 55 10000 4.6 140 22:37 20.04.2020
4455 Clouds 30 1014 55 10000 4.6 140 22:19 20.04.2020
4456 Clouds 30 1014 55 10000 4.6 140 22:19 20.04.2020
4457 Clouds 30 1014 55 10000 4.6 140 21:55 20.04.2020
4458 Clouds 31 1015 55 10000 7.7 180 21:37 20.04.2020
4459 Clouds 31 1015 55 10000 7.7 180 21:18 20.04.2020
4460 Clouds 31 1015 55 10000 7.7 180 20:55 20.04.2020
4461 Clouds 30 1015 55 10000 7.7 180 20:36 20.04.2020
4462 Clouds 31 1015 55 10000 7.7 180 20:18 20.04.2020
4463 Clouds 30 1019 55 10000 6.2 180 19:41 20.04.2020
4464 Clouds 31 1019 55 10000 6.2 180 19:23 20.04.2020
4465 Clouds 30 1017 66 10000 6.2 180 18:59 20.04.2020
4466 Clouds 30 1017 66 10000 6.2 180 18:40 20.04.2020
4467 Clouds 30 1017 66 10000 6.2 180 18:20 20.04.2020
4468 Clouds 30 1018 66 10000 3.1 210 17:54 20.04.2020
4469 Clouds 30 1018 66 10000 3.1 210 17:36 20.04.2020
4470 Clouds 30 1018 66 10000 3.1 210 17:18 20.04.2020
4471 Clouds 29 1018 74 10000 2.87 132 16:42 20.04.2020
4472 Clouds 29 1018 74 10000 2.87 132 16:20 20.04.2020
4473 Clouds 28 1017 83 10000 2.87 132 15:56 20.04.2020
4474 Clouds 28 1017 83 10000 2.87 132 15:38 20.04.2020
4475 Clouds 27 1017 83 10000 1.8 11 15:19 20.04.2020
4476 Clouds 26 1016 100 10000 1.81 356 14:42 20.04.2020
4477 Clouds 26 1016 100 10000 1.81 356 14:19 20.04.2020
4478 Rain 26 1019 100 0 1.81 356 13:58 20.04.2020
4479 Rain 26 1018 100 0 1.81 356 13:39 20.04.2020
4480 Rain 26 1018 100 0 1.81 356 13:20 20.04.2020
4481 Rain 25 1016 88 0 0.45 88 12:44 20.04.2020
4482 Clouds 25 1015 89 0 0.45 99 12:24 20.04.2020
4483 Clouds 24 1015 88 0 1.74 15 11:58 20.04.2020
4484 Clouds 24 1015 88 0 1.74 15 11:38 20.04.2020
4485 Clouds 24 1015 89 0 1.74 15 11:18 20.04.2020
4486 Clouds 24 1015 89 0 1.74 15 10:55 20.04.2020
4487 Clouds 24 1015 89 0 1.74 15 10:55 20.04.2020
4488 Clouds 24 1015 89 0 1.74 15 10:36 20.04.2020
4489 Clouds 25 1015 89 0 0.89 59 10:18 20.04.2020
4490 Clouds 25 1015 87 0 0.89 7 09:44 20.04.2020
4491 Rain 25 1015 87 0 0.45 343 09:25 20.04.2020
4492 Rain 25 1015 88 0 0.45 12 08:58 20.04.2020
4493 Rain 25 1015 88 0 0.45 12 08:58 20.04.2020
4494 Rain 25 1015 85 0 2.24 54 08:39 20.04.2020
4495 Rain 26 1015 86 0 1.03 28 08:18 20.04.2020
4496 Rain 26 1015 85 0 1.03 28 07:51 20.04.2020
4497 Rain 26 1016 84 0 1.03 28 07:28 20.04.2020
4498 Rain 27 1018 95 0 1.03 28 06:38 20.04.2020
4499 Rain 27 1018 95 0 1.03 28 06:38 20.04.2020
4500 Clouds 27 1018 95 0 0.72 123 06:19 20.04.2020
4501 Clouds 27 1018 95 0 0.72 123 05:22 20.04.2020
4502 Clear 27 1018 96 0 1.77 158 03:19 20.04.2020
4503 Clear 27 1017 96 0 1.77 158 02:36 20.04.2020
4504 Clear 28 1017 94 0 1.61 160 01:31 20.04.2020
4505 Clear 28 1017 94 0 1.61 160 00:47 20.04.2020
4506 Clear 28 1017 93 0 3.96 157 00:25 20.04.2020
4507 Clear 29 1016 91 0 3.96 157 23:42 19.04.2020
4508 Clear 29 1016 91 0 3.96 157 23:23 19.04.2020
4509 Clear 30 1017 90 0 3.96 157 22:59 19.04.2020
4510 Clear 30 1017 89 0 3.96 157 22:39 19.04.2020
4511 Clear 30 1017 89 0 3.96 157 22:20 19.04.2020
4512 Clear 30 1017 88 0 3.96 157 21:44 19.04.2020
4513 Clouds 30 1016 59 10000 5.1 180 21:25 19.04.2020
4514 Clouds 30 1016 59 10000 5.1 180 20:59 19.04.2020
4515 Clouds 30 1016 59 10000 5.1 180 20:41 19.04.2020
4516 Clouds 30 1016 59 10000 5.1 180 20:20 19.04.2020
4517 Clouds 30 1016 59 10000 6.2 180 19:57 19.04.2020
4518 Clouds 30 1016 59 10000 6.2 180 19:39 19.04.2020
4519 Clouds 30 1016 59 10000 6.2 180 19:21 19.04.2020
4520 Clouds 30 1017 62 10000 4.1 130 18:58 19.04.2020
4521 Clouds 29 1017 62 10000 4.1 130 18:39 19.04.2020
4522 Clouds 29 1017 62 10000 4.1 130 18:19 19.04.2020
4523 Clouds 29 1018 62 10000 5.1 180 17:56 19.04.2020
4524 Clouds 29 1018 62 10000 5.1 180 17:38 19.04.2020
4525 Clouds 29 1018 62 10000 5.1 180 17:19 19.04.2020
4526 Clouds 29 1018 62 10000 5.1 180 17:19 19.04.2020
4527 Clouds 29 1018 66 10000 5.1 130 16:54 19.04.2020
4528 Clouds 29 1018 66 10000 5.1 130 16:36 19.04.2020
4529 Clouds 29 1018 66 10000 5.1 130 16:18 19.04.2020
4530 Clouds 28 1017 83 10000 2.32 113 15:41 19.04.2020
4531 Clouds 27 1017 83 10000 1.6 350 15:20 19.04.2020
4532 Clouds 26 1017 88 10000 1.6 350 14:39 19.04.2020
4533 Clouds 26 1017 88 10000 1.71 342 14:21 19.04.2020
4534 Clear 26 1019 93 0 1.71 342 13:58 19.04.2020
4535 Clear 26 1019 95 0 1.71 342 13:38 19.04.2020
4536 Clear 25 1019 95 0 1.71 342 13:19 19.04.2020
4537 Clear 25 1017 78 0 1.34 298 12:46 19.04.2020
4538 Clear 24 1017 81 0 1.25 328 12:25 19.04.2020
4539 Clear 22 1016 83 0 1.25 328 11:55 19.04.2020
4540 Clear 22 1016 83 0 1.25 328 11:37 19.04.2020
4541 Clear 22 1016 83 0 1.25 328 11:18 19.04.2020
4542 Clear 22 1016 83 0 1.25 328 10:41 19.04.2020
4543 Clear 22 1016 83 0 1.25 328 10:21 19.04.2020
4544 Clear 24 1016 83 0 1.25 328 09:59 19.04.2020
4545 Clear 24 1016 83 0 1.25 328 09:59 19.04.2020
4546 Clear 24 1017 83 0 1.57 321 09:41 19.04.2020
4547 Clear 24 1017 83 0 1.57 321 09:41 19.04.2020
4548 Clear 24 1017 83 0 1.23 323 09:19 19.04.2020
4549 Clear 24 1017 83 0 1.23 323 08:40 19.04.2020
4550 Clear 24 1017 83 0 0.94 349 08:21 19.04.2020
4551 Clear 25 1017 83 0 1.23 323 07:55 19.04.2020
4552 Clear 25 1017 82 0 1.23 323 07:37 19.04.2020
4553 Clear 25 1017 81 0 1.23 323 07:18 19.04.2020
4554 Clear 26 1018 80 0 1.68 352 06:24 19.04.2020
4555 Clear 26 1020 95 0 1.68 352 05:35 19.04.2020
4556 Clear 27 1019 95 0 1.63 356 03:55 19.04.2020
4557 Clear 27 1019 96 0 1.76 147 02:50 19.04.2020
4558 Clouds 27 1018 95 0 1.68 145 02:18 19.04.2020
4559 Clouds 27 1018 95 0 1.68 145 01:26 19.04.2020
4560 Clouds 28 1017 91 0 1.68 145 00:41 19.04.2020
4561 Clouds 28 1017 91 0 1.68 145 00:41 19.04.2020
4562 Clouds 28 1017 91 0 3.88 155 00:20 19.04.2020
4563 Clouds 28 1017 88 0 3.88 155 23:43 18.04.2020
4564 Clouds 29 1017 88 0 3.88 155 23:20 18.04.2020
4565 Clouds 29 1017 87 0 3.88 155 22:55 18.04.2020
4566 Clouds 29 1017 88 0 3.88 155 22:37 18.04.2020
4567 Clouds 29 1017 88 0 3.88 155 22:18 18.04.2020
4568 Clouds 29 1017 85 0 3.88 155 21:42 18.04.2020
4569 Clouds 30 1017 59 10000 5.1 170 21:22 18.04.2020
4570 Clouds 30 1017 59 10000 5.1 170 20:59 18.04.2020
4571 Clouds 30 1017 59 10000 5.1 170 20:40 18.04.2020
4572 Clouds 30 1017 59 10000 5.1 170 20:21 18.04.2020
4573 Clouds 30 1018 59 10000 2.1 130 19:43 18.04.2020
4574 Clouds 30 1018 59 10000 2.1 130 19:25 18.04.2020
4575 Clouds 30 1018 62 10000 2.74 137 18:40 18.04.2020
4576 Clouds 30 1018 62 10000 2.09 55 18:20 18.04.2020
4577 Clouds 30 1019 66 10000 2.09 55 17:59 18.04.2020
4578 Clouds 30 1019 66 10000 2.09 55 17:40 18.04.2020
4579 Clouds 30 1019 66 10000 2.09 55 17:20 18.04.2020
4580 Rain 29 1019 66 10000 2.09 55 16:43 18.04.2020
4581 Rain 29 1019 66 10000 2.09 55 16:23 18.04.2020
4582 Rain 27 1018 83 10000 2.09 55 15:58 18.04.2020
4583 Clouds 27 1018 83 10000 2.09 55 15:38 18.04.2020
4584 Clouds 25 1018 83 10000 2.87 348 15:19 18.04.2020
4585 Clouds 25 1017 94 10000 2.87 348 14:44 18.04.2020
4586 Clouds 25 1017 94 10000 2.85 349 14:24 18.04.2020
4587 Clear 25 1020 100 0 2.85 349 13:44 18.04.2020
4588 Clear 24 1020 100 0 2.85 349 13:25 18.04.2020
4589 Clear 24 1020 100 0 2.85 349 12:56 18.04.2020
4590 Clear 24 1020 100 0 2.85 349 12:56 18.04.2020
4591 Clear 24 1017 84 0 0.89 5 12:38 18.04.2020
4592 Clear 24 1017 85 0 1.34 8 12:19 18.04.2020
4593 Clear 24 1017 83 0 0.45 355 11:42 18.04.2020
4594 Clear 24 1017 86 0 2.5 340 11:22 18.04.2020
4595 Clear 24 1017 86 0 2.5 340 10:57 18.04.2020
4596 Clear 24 1017 86 0 2.5 340 10:37 18.04.2020
4597 Clear 25 1017 82 0 0.89 2 10:18 18.04.2020
4598 Clear 25 1019 100 0 2.39 336 09:41 18.04.2020
4599 Clear 25 1019 100 0 2.39 336 09:41 18.04.2020
4600 Clouds 25 1019 100 0 2.63 353 09:23 18.04.2020
4601 Clouds 25 1020 100 0 2.63 353 08:44 18.04.2020
4602 Clouds 25 1020 100 0 2.63 353 08:25 18.04.2020
4603 Clouds 25 1020 100 0 2.63 353 07:54 18.04.2020
4604 Clouds 25 1020 100 0 2.63 353 07:34 18.04.2020
4605 Clouds 25 1020 100 0 2.63 353 06:55 18.04.2020
4606 Rain 25 1020 100 0 2.6 24 06:19 18.04.2020
4607 Rain 25 1021 100 0 2.6 24 05:35 18.04.2020
4608 Rain 25 1021 100 0 2.6 24 04:46 18.04.2020
4609 Rain 25 1021 100 0 2.6 24 04:24 18.04.2020
4610 Rain 27 1020 91 0 2.77 77 02:45 18.04.2020
4611 Rain 27 1020 91 0 2.41 81 02:22 18.04.2020
4612 Rain 28 1020 90 0 2.41 81 01:51 18.04.2020
4613 Rain 28 1019 90 0 2.41 81 01:31 18.04.2020
4614 Rain 28 1018 93 0 2.41 81 00:40 18.04.2020
4615 Rain 28 1018 93 0 3 109 00:20 18.04.2020
4616 Rain 28 1018 92 0 3 109 23:55 17.04.2020
4617 Rain 28 1018 90 0 3 109 23:36 17.04.2020
4618 Rain 29 1018 90 0 3 109 23:18 17.04.2020
4619 Rain 29 1018 85 0 3 109 22:41 17.04.2020
4620 Rain 30 1018 85 0 3 109 22:21 17.04.2020
4621 Rain 30 1018 84 0 3 109 21:59 17.04.2020
4622 Rain 30 1018 80 0 3 109 21:40 17.04.2020
4623 Clouds 31 1018 52 10000 5.1 90 21:20 17.04.2020
4624 Clouds 31 1018 52 10000 5.1 90 21:20 17.04.2020
4625 Clouds 31 1018 52 10000 5.1 90 20:56 17.04.2020
4626 Clouds 31 1018 52 10000 5.1 90 20:37 17.04.2020
4627 Clouds 31 1018 52 10000 5.1 90 20:18 17.04.2020
4628 Clouds 31 1019 46 10000 4.1 120 19:55 17.04.2020
4629 Clouds 30 1019 46 10000 4.1 120 19:37 17.04.2020
4630 Clouds 30 1019 46 10000 4.1 120 19:18 17.04.2020
4631 Clouds 30 1019 46 10000 6.2 360 18:40 17.04.2020
4632 Clouds 30 1019 46 10000 6.2 360 18:21 17.04.2020
4633 Clouds 31 1020 58 10000 5.1 30 17:38 17.04.2020
4634 Clouds 30 1020 58 10000 5.1 30 17:20 17.04.2020
4635 Clouds 30 1020 70 10000 4.1 360 16:59 17.04.2020
4636 Clouds 30 1020 70 10000 4.1 360 16:41 17.04.2020
4637 Clouds 29 1020 70 10000 4.1 360 16:21 17.04.2020
4638 Clouds 28 1019 70 10000 3.02 24 15:39 17.04.2020
4639 Clouds 27 1019 70 10000 2.86 357 15:21 17.04.2020
4640 Clouds 25 1019 88 10000 2.86 357 14:54 17.04.2020
4641 Clouds 26 1019 88 10000 2.86 357 14:36 17.04.2020
4642 Clouds 26 1019 88 10000 2.83 353 14:18 17.04.2020
4643 Clear 25 1019 77 0 0.89 358 13:39 17.04.2020
4644 Clouds 24 1018 94 10000 2.1 40 13:20 17.04.2020
4645 Clear 24 1018 81 0 0.89 10 12:48 17.04.2020
4646 Clouds 24 1017 94 10000 2.1 50 12:27 17.04.2020
4647 Clouds 24 1017 94 10000 2.1 50 11:59 17.04.2020
4648 Clouds 23 1017 94 10000 2.1 50 11:39 17.04.2020
4649 Clouds 24 1017 94 10000 2.1 50 11:19 17.04.2020
4650 Clear 24 1017 82 0 0.89 14 10:40 17.04.2020
4651 Clear 25 1017 82 0 1.34 7 10:20 17.04.2020
4652 Clear 25 1017 80 0 0.89 36 09:55 17.04.2020
4653 Clouds 24 1017 94 10000 2.1 60 09:36 17.04.2020
4654 Clouds 24 1017 94 10000 2.1 60 09:18 17.04.2020
4655 Clouds 25 1017 79 0 0.89 67 08:46 17.04.2020
4656 Clouds 25 1017 79 0 1.34 63 08:26 17.04.2020
4657 Clouds 26 1018 79 0 1.34 49 07:56 17.04.2020
4658 Clouds 26 1018 79 0 0.89 353 07:38 17.04.2020
4659 Clouds 26 1018 78 0 0.89 341 07:18 17.04.2020
4660 Clouds 26 1018 79 0 0.45 39 06:40 17.04.2020
4661 Clouds 26 1018 88 10000 2.1 30 05:49 17.04.2020
4662 Clouds 27 1017 83 10000 1.68 150 03:22 17.04.2020
4663 Clouds 27 1017 83 10000 1.68 150 02:49 17.04.2020
4664 Clouds 27 1016 74 10000 1.52 149 01:30 17.04.2020
4665 Clouds 28 1015 70 10000 2.1 200 00:59 17.04.2020
4666 Clouds 28 1015 70 10000 2.1 200 00:21 17.04.2020
4667 Clouds 29 1015 62 10000 4.1 180 23:46 16.04.2020
4668 Clouds 30 1015 62 10000 4.1 180 23:24 16.04.2020
4669 Clouds 29 1015 70 10000 3.1 210 22:59 16.04.2020
4670 Clouds 29 1015 70 10000 3.1 210 22:59 16.04.2020
4671 -273 0 0 0 0 0 22:59 16.04.2020
4672 Clouds 29 1015 70 10000 3.1 210 22:39 16.04.2020
4673 Clouds 30 1015 70 10000 3.1 210 22:20 16.04.2020
4674 Clouds 30 1016 62 10000 4.1 210 21:57 16.04.2020
4675 Clouds 30 1016 62 10000 4.1 210 21:57 16.04.2020
4676 Clouds 30 1018 74 10000 5.1 120 21:38 16.04.2020
4677 Clouds 29 1018 74 10000 5.1 120 21:18 16.04.2020
4678 Clouds 29 1018 74 10000 5.1 120 20:41 16.04.2020
4679 Clouds 29 1018 74 10000 5.1 120 20:22 16.04.2020
4680 Rain 29 1018 70 8000 5.1 150 19:58 16.04.2020
4681 Rain 29 1018 70 8000 5.1 150 19:39 16.04.2020
4682 Rain 29 1018 70 8000 5.1 150 19:19 16.04.2020
4683 Rain 29 1018 70 8000 5.1 150 19:19 16.04.2020
4684 Clouds 30 1018 62 10000 5.1 200 18:46 16.04.2020
4685 Clouds 30 1018 62 10000 5.1 200 18:27 16.04.2020
4686 Clouds 29 1019 66 10000 3.1 120 17:59 16.04.2020
4687 Clouds 30 1019 66 10000 3.1 120 17:41 16.04.2020
4688 Clouds 30 1019 66 10000 3.1 120 17:21 16.04.2020
4689 Clouds 29 1019 74 10000 2.14 82 16:45 16.04.2020
4690 Clouds 29 1019 74 10000 2.14 82 16:26 16.04.2020
4691 Clouds 28 1019 78 10000 2.14 82 15:59 16.04.2020
4692 Clouds 29 1019 78 10000 2.14 82 15:39 16.04.2020
4693 Clouds 28 1019 78 10000 1.9 360 15:19 16.04.2020
4694 Clouds 28 1019 78 10000 1.9 360 15:19 16.04.2020
4695 Clouds 25 1018 94 10000 1.9 360 14:56 16.04.2020
4696 Clouds 25 1018 94 10000 1.77 359 14:37 16.04.2020
4697 Clouds 25 1018 94 10000 1.9 360 14:37 16.04.2020
4698 Clouds 25 1018 94 10000 1.77 359 14:18 16.04.2020
4699 Clouds 25 1017 100 10000 2.1 30 13:42 16.04.2020
4700 Clouds 25 1017 100 10000 2.1 30 13:23 16.04.2020
4701 Clouds 25 1017 80 0 0.89 351 12:58 16.04.2020
4702 Clouds 25 1017 80 0 0.89 338 12:39 16.04.2020
4703 Clouds 25 1016 94 10000 2.1 50 12:20 16.04.2020
4704 Clouds 25 1016 94 10000 2.1 50 12:20 16.04.2020
4705 Clouds 25 1016 94 10000 2.1 50 11:59 16.04.2020
4706 Clouds 25 1016 94 10000 2.1 50 11:41 16.04.2020
4707 Clouds 25 1016 94 10000 2.1 50 11:21 16.04.2020
4708 Clouds 25 1016 82 0 1.34 342 10:55 16.04.2020
4709 Clouds 25 1016 84 0 1.62 352 10:37 16.04.2020
4710 Clouds 25 1016 84 0 1.62 352 10:18 16.04.2020
4711 Clouds 25 1016 84 0 1.62 352 09:39 16.04.2020
4712 Clouds 25 1016 83 10000 2.1 50 09:21 16.04.2020
4713 Clouds 25 1016 83 10000 2.1 50 09:00 16.04.2020
4714 Clouds 25 1016 83 10000 2.1 50 08:41 16.04.2020
4715 Clouds 25 1016 83 10000 2.1 50 08:21 16.04.2020
4716 Clouds 26 1017 84 0 1.79 80 07:44 16.04.2020
4717 Clouds 26 1017 83 0 1.34 83 07:26 16.04.2020
4718 Clouds 26 1017 81 0 1.34 84 06:42 16.04.2020
4719 Clouds 26 1017 83 10000 4.1 80 06:24 16.04.2020
4720 Clouds 27 1017 80 0 1.79 104 04:54 16.04.2020
4721 Clouds 28 1017 79 0 1.79 112 03:47 16.04.2020
4722 Clouds 27 1015 74 10000 2.1 140 03:22 16.04.2020
4723 Clouds 28 1015 74 10000 2.1 140 02:43 16.04.2020
4724 Clouds 28 1014 69 10000 2.1 150 01:59 16.04.2020
4725 Clouds 28 1014 58 10000 2.6 160 00:59 16.04.2020
4726 Clouds 29 1014 58 10000 2.6 160 00:26 16.04.2020
4727 Clouds 29 1013 55 10000 3.1 190 23:57 15.04.2020
4728 Clouds 29 1013 55 10000 3.1 190 23:38 15.04.2020
4729 Clouds 29 1013 55 10000 3.1 190 23:20 15.04.2020
4730 Clouds 30 1013 52 10000 6.7 200 22:40 15.04.2020
4731 Clouds 30 1013 52 10000 6.7 200 22:21 15.04.2020
4732 Clouds 30 1014 49 10000 7.2 230 21:58 15.04.2020
4733 Clouds 30 1014 49 10000 7.2 230 21:40 15.04.2020
4734 Clouds 31 1015 55 10000 5.1 180 21:22 15.04.2020
4735 Clouds 31 1015 55 10000 5.1 180 20:57 15.04.2020
4736 Clouds 31 1015 55 10000 5.1 180 20:39 15.04.2020
4737 Clouds 31 1015 55 10000 5.1 180 20:20 15.04.2020
4738 Clouds 31 1016 55 10000 5.1 160 19:42 15.04.2020
4739 Clouds 30 1016 55 10000 5.1 160 19:20 15.04.2020
4740 Clouds 30 1017 59 10000 4.1 120 18:54 15.04.2020
4741 Clouds 30 1017 59 10000 4.1 120 18:36 15.04.2020
4742 Clouds 30 1017 59 10000 4.1 120 18:18 15.04.2020
4743 Clouds 30 1018 62 10000 3.1 90 17:40 15.04.2020
4744 Clouds 30 1018 62 10000 3.1 90 17:21 15.04.2020
4745 Clouds 29 1017 66 10000 2.6 90 16:58 15.04.2020
4746 Clouds 29 1017 66 10000 2.6 90 16:38 15.04.2020
4747 Clouds 29 1017 66 10000 2.6 90 16:38 15.04.2020
4748 Clouds 29 1017 66 10000 2.6 90 16:20 15.04.2020
4749 Clouds 28 1017 74 10000 4.1 360 15:58 15.04.2020
4750 Clouds 28 1017 74 10000 4.1 360 15:39 15.04.2020
4751 Clouds 28 1017 74 10000 4.1 360 15:19 15.04.2020
4752 Clouds 26 1016 88 10000 2.72 357 14:58 15.04.2020
4753 Clouds 26 1016 88 10000 2.72 357 14:39 15.04.2020
4754 Clouds 26 1016 88 10000 2.16 5 14:21 15.04.2020
4755 Clouds 25 1016 88 10000 2.1 350 13:58 15.04.2020
4756 Clouds 25 1016 88 10000 2.1 350 13:38 15.04.2020
4757 Clouds 24 1016 88 10000 2.1 350 13:20 15.04.2020
4758 Clouds 24 1015 94 10000 2.16 5 12:54 15.04.2020
4759 Clouds 24 1015 94 10000 2.16 5 12:36 15.04.2020
4760 Clouds 24 1015 94 10000 2.26 354 12:18 15.04.2020
4761 Clouds 24 1015 94 10000 2.1 350 11:42 15.04.2020
4762 Clouds 24 1015 94 10000 2.1 350 11:24 15.04.2020
4763 Rain 25 1016 83 0 1.34 359 10:58 15.04.2020
4764 Rain 25 1015 83 0 1.34 12 10:36 15.04.2020
4765 Rain 24 1015 86 0 2.26 354 10:18 15.04.2020
4766 Rain 25 1015 82 0 1.34 345 09:55 15.04.2020
4767 Clouds 25 1016 83 10000 2.1 20 09:36 15.04.2020
4768 Clouds 25 1016 83 10000 2.1 20 09:18 15.04.2020
4769 Clouds 24 1016 83 10000 2.1 20 08:41 15.04.2020
4770 Clouds 25 1016 83 10000 2.1 20 08:19 15.04.2020
4771 Rain 25 1016 80 0 1.79 5 07:54 15.04.2020
4772 Rain 25 1016 83 0 2.71 352 07:33 15.04.2020
4773 Clouds 25 1017 88 10000 2.1 70 06:34 15.04.2020
4774 Clouds 25 1017 88 10000 2.1 70 05:51 15.04.2020
4775 Clouds 26 1017 88 10000 2.1 70 05:20 15.04.2020
4776 Rain 26 1018 75 0 1.79 49 04:44 15.04.2020
4777 Rain 27 1019 91 0 2.84 9 03:40 15.04.2020
4778 Clouds 28 1015 83 10000 3.6 110 03:18 15.04.2020
4779 Clouds 28 1015 83 10000 3.6 110 02:30 15.04.2020
4780 Clouds 28 1015 78 10000 3.1 120 01:44 15.04.2020
4781 Clouds 28 1015 78 10000 3.1 120 01:19 15.04.2020
4782 Clouds 29 1014 66 10000 3.6 140 00:37 15.04.2020
4783 Clouds 29 1014 66 10000 3.6 140 00:18 15.04.2020
4784 Clouds 29 1013 58 10000 4.1 130 23:54 14.04.2020
4785 Clouds 30 1013 58 10000 4.1 130 23:36 14.04.2020
4786 Clouds 30 1013 58 10000 4.1 130 23:36 14.04.2020
4787 Clouds 30 1013 58 10000 4.1 130 23:18 14.04.2020
4788 Clouds 30 1014 52 10000 4.1 150 22:54 14.04.2020
4789 Clouds 30 1014 52 10000 4.1 150 22:36 14.04.2020
4790 Clouds 30 1014 52 10000 4.1 150 22:18 14.04.2020
4791 Clouds 30 1014 52 10000 4.6 140 21:54 14.04.2020
4792 Clouds 30 1014 52 10000 4.6 140 21:54 14.04.2020
4793 Clouds 31 1017 59 10000 4.1 130 21:36 14.04.2020
4794 Clouds 31 1017 59 10000 4.1 130 21:18 14.04.2020
4795 Clouds 31 1017 59 10000 4.1 130 20:40 14.04.2020
4796 Clouds 31 1017 59 10000 4.1 130 20:22 14.04.2020
4797 Clouds 31 1017 59 10000 3.25 117 19:57 14.04.2020
4798 Clouds 31 1017 59 10000 3.76 127 19:38 14.04.2020
4799 Clouds 31 1017 59 10000 3.25 117 19:38 14.04.2020
4800 Clouds 31 1017 59 10000 3.76 127 19:20 14.04.2020
4801 Clouds 30 1018 59 10000 5.1 360 18:41 14.04.2020
4802 Clouds 31 1018 59 10000 5.1 360 18:22 14.04.2020
4803 Clouds 31 1018 59 10000 5.1 360 18:22 14.04.2020
4804 Clouds 31 1019 62 10000 5.1 360 17:59 14.04.2020
4805 Clouds 31 1019 62 10000 5.1 360 17:39 14.04.2020
4806 Clouds 30 1019 62 10000 5.1 360 17:21 14.04.2020
4807 Clouds 29 1018 70 10000 3.1 360 16:58 14.04.2020
4808 Clouds 29 1018 70 10000 3.1 360 16:39 14.04.2020
4809 Clouds 29 1018 70 10000 3.1 360 16:21 14.04.2020
4810 Clouds 28 1018 74 10000 5.1 40 15:57 14.04.2020
4811 Clouds 28 1018 74 10000 5.1 40 15:38 14.04.2020
4812 Clouds 28 1018 74 10000 5.1 40 15:19 14.04.2020
4813 Clouds 27 1017 83 10000 3.1 360 14:57 14.04.2020
4814 Clouds 27 1017 83 10000 3.1 360 14:39 14.04.2020
4815 Clouds 26 1017 83 10000 3.1 360 14:21 14.04.2020
4816 Clouds 25 1017 94 10000 2.6 20 13:43 14.04.2020
4817 Clouds 24 1017 94 10000 2.6 20 13:24 14.04.2020
4818 Rain 26 1017 82 0 1.34 7 12:56 14.04.2020
4819 Clouds 25 1016 94 10000 2.1 360 12:38 14.04.2020
4820 Clouds 23 1016 94 10000 2.1 360 12:19 14.04.2020
4821 Clouds 24 1016 94 10000 2.1 360 11:41 14.04.2020
4822 Clouds 24 1016 94 10000 2.1 360 11:22 14.04.2020
4823 Clear 24 1017 87 0 3.01 349 10:56 14.04.2020
4824 Clear 24 1017 87 0 3.01 349 10:38 14.04.2020
4825 Clear 25 1017 82 0 1.34 3 10:20 14.04.2020
4826 Clear 25 1017 81 0 1.79 3 09:42 14.04.2020
4827 Clouds 24 1018 94 10000 2.1 40 09:23 14.04.2020
4828 Clouds 24 1018 94 10000 2.1 40 08:56 14.04.2020
4829 Clouds 25 1018 94 10000 2.1 40 08:37 14.04.2020
4830 Clouds 23 1018 88 0 3.15 353 08:19 14.04.2020
4831 Clouds 25 1018 84 0 0.45 37 07:51 14.04.2020
4832 Clouds 26 1018 80 0 2.24 355 07:26 14.04.2020
4833 Clouds 26 1019 82 0 1.34 348 06:45 14.04.2020
4834 Clouds 26 1019 88 10000 2.6 70 05:47 14.04.2020
4835 Clouds 27 1018 78 10000 2.6 120 03:38 14.04.2020
4836 Clouds 28 1018 78 10000 2.6 120 02:34 14.04.2020
4837 Clouds 28 1017 78 10000 2.1 140 01:27 14.04.2020
4838 Clouds 28 1016 78 10000 5.1 190 00:50 14.04.2020
4839 Clouds 29 1016 78 10000 5.1 190 00:24 14.04.2020
4840 Clouds 29 1016 70 10000 3.1 150 23:59 13.04.2020
4841 Clouds 29 1016 70 10000 3.1 150 23:37 13.04.2020
4842 Clouds 29 1016 70 10000 3.1 150 23:19 13.04.2020
4843 Clouds 30 1016 62 10000 5.1 130 22:42 13.04.2020
4844 Clouds 30 1016 62 10000 5.1 130 22:23 13.04.2020
4845 Clouds 30 1017 66 10000 5.1 140 21:59 13.04.2020
4846 Clouds 30 1017 66 10000 5.1 140 21:40 13.04.2020
4847 Clouds 31 1019 49 10000 5.1 150 21:21 13.04.2020
4848 Clouds 31 1019 49 10000 5.1 150 20:57 13.04.2020
4849 Clouds 31 1019 49 10000 5.1 150 20:39 13.04.2020
4850 Clouds 31 1019 49 10000 5.1 150 20:19 13.04.2020
4851 Clouds 31 1019 49 10000 5.1 150 20:19 13.04.2020
4852 Clouds 31 1019 52 10000 3.1 60 19:57 13.04.2020
4853 Clouds 31 1019 52 10000 3.1 60 19:37 13.04.2020
4854 Clouds 31 1019 52 10000 3.1 60 19:18 13.04.2020
4855 Clouds 31 1019 59 10000 4.1 30 18:55 13.04.2020
4856 Clouds 31 1019 59 10000 4.1 30 18:36 13.04.2020
4857 Clouds 31 1019 59 10000 4.1 30 18:18 13.04.2020
4858 Clouds 31 1020 59 10000 3.1 10 17:55 13.04.2020
4859 Clouds 31 1020 59 10000 3.1 10 17:36 13.04.2020
4860 Clouds 31 1020 59 10000 3.1 10 17:36 13.04.2020
4861 Clouds 31 1020 59 10000 3.1 10 17:18 13.04.2020
4862 Clouds 30 1020 66 10000 6.2 60 16:56 13.04.2020
4863 Clouds 30 1020 66 10000 6.2 60 16:37 13.04.2020
4864 Clouds 29 1020 66 10000 6.2 60 16:18 13.04.2020
4865 Clouds 29 1020 66 10000 6.2 60 16:18 13.04.2020
4866 Clouds 28 1020 74 10000 5.1 30 15:45 13.04.2020
4867 Clouds 28 1020 74 10000 5.1 30 15:27 13.04.2020
4868 Clouds 26 1019 83 10000 3.1 360 14:57 13.04.2020
4869 Clouds 26 1019 83 10000 3.1 360 14:39 13.04.2020
4870 Clouds 26 1019 83 10000 3.1 360 14:21 13.04.2020
4871 Clouds 25 1018 94 10000 2.5 2 13:56 13.04.2020
4872 Clouds 25 1018 94 10000 2.87 1 13:38 13.04.2020
4873 Clouds 25 1018 94 10000 2.87 1 13:19 13.04.2020
4874 Rain 26 1021 94 0 2.5 2 12:57 13.04.2020
4875 Rain 26 1021 94 0 2.5 2 12:57 13.04.2020
4876 Clouds 26 1017 94 10000 2.5 2 12:39 13.04.2020
4877 Clouds 23 1017 94 10000 2.23 344 12:19 13.04.2020
4878 Clouds 23 1017 94 10000 2.42 354 12:19 13.04.2020
4879 Clouds 23 1017 94 10000 2.23 344 11:44 13.04.2020
4880 Clouds 25 1017 94 10000 2.23 344 11:19 13.04.2020
4881 Clouds 25 1017 94 10000 2.23 344 11:19 13.04.2020
4882 Clouds 25 1017 83 0 1.34 351 10:56 13.04.2020
4883 Clouds 25 1017 83 0 2.24 19 10:38 13.04.2020
4884 Clouds 25 1017 83 0 1.79 26 10:20 13.04.2020
4885 Clouds 25 1017 82 0 1.79 20 09:56 13.04.2020
4886 Clouds 24 1018 88 10000 2.1 30 09:38 13.04.2020
4887 Clouds 25 1018 88 10000 2.1 30 09:19 13.04.2020
4888 Clouds 25 1018 88 10000 2.1 30 08:44 13.04.2020
4889 Clouds 25 1018 88 10000 2.1 30 08:26 13.04.2020
4890 Clouds 26 1018 84 0 0.89 35 07:44 13.04.2020
4891 Clouds 26 1018 84 0 0.89 35 07:44 13.04.2020
4892 Clouds 26 1018 81 0 1.79 40 07:25 13.04.2020
4893 Clouds 26 1019 80 0 1.79 39 06:48 13.04.2020
4894 Clouds 26 1019 88 10000 2.1 60 06:29 13.04.2020
4895 Clouds 27 1019 88 10000 2.1 60 05:40 13.04.2020
4896 Clouds 27 1019 88 10000 2.1 60 05:18 13.04.2020
4897 Rain 27 1021 94 0 3.34 24 04:28 13.04.2020
4898 Rain 28 1021 94 0 3.34 24 03:50 13.04.2020
4899 Clouds 28 1018 83 10000 2.1 130 03:31 13.04.2020
4900 Clouds 28 1018 83 10000 2.1 130 02:39 13.04.2020
4901 Clouds 28 1017 74 10000 2.1 140 01:45 13.04.2020
4902 Clouds 28 1017 74 10000 2.1 140 01:25 13.04.2020
4903 Clouds 28 1016 70 10000 4.1 140 00:44 13.04.2020
4904 Clouds 29 1016 70 10000 4.1 140 00:23 13.04.2020
4905 Clouds 29 1016 66 10000 3.1 160 23:49 12.04.2020
4906 Clouds 29 1016 66 10000 3.1 160 23:26 12.04.2020
4907 Clouds 30 1016 66 10000 4.1 170 22:59 12.04.2020
4908 Clouds 30 1016 66 10000 4.1 170 22:38 12.04.2020
4909 Clouds 30 1016 66 10000 4.1 170 22:19 12.04.2020
4910 Clouds 30 1017 62 10000 4.1 170 21:55 12.04.2020
4911 Clouds 31 1017 59 10000 3.64 148 21:36 12.04.2020
4912 Clouds 31 1017 59 10000 2.87 116 21:18 12.04.2020
4913 Clouds 31 1017 59 10000 2.87 116 20:41 12.04.2020
4914 Clouds 32 1017 59 10000 2.87 116 20:23 12.04.2020
4915 Clouds 32 1019 59 10000 2.87 116 19:57 12.04.2020
4916 Clouds 31 1019 59 10000 2.87 116 19:38 12.04.2020
4917 Clouds 32 1019 59 10000 2.87 116 19:19 12.04.2020
4918 Clouds 32 1019 59 10000 2.6 180 18:41 12.04.2020
4919 Clouds 31 1019 59 10000 2.6 180 18:23 12.04.2020
4920 Clouds 31 1019 59 10000 2.6 40 17:59 12.04.2020
4921 Clouds 31 1019 59 10000 2.6 40 17:41 12.04.2020
4922 Clouds 31 1019 59 10000 2.6 40 17:23 12.04.2020
4923 Clouds 30 1019 70 10000 3.6 110 16:58 12.04.2020
4924 Clouds 30 1019 70 10000 3.6 110 16:39 12.04.2020
4925 Clouds 30 1019 70 10000 3.6 110 16:20 12.04.2020
4926 Clouds 29 1019 78 10000 3.1 70 15:48 12.04.2020
4927 Clouds 28 1019 78 10000 3.1 70 15:29 12.04.2020
4928 Clouds 27 1018 100 10000 2.95 24 14:54 12.04.2020
4929 Clouds 27 1018 100 10000 2.95 24 14:36 12.04.2020
4930 Clouds 26 1018 100 10000 2.77 31 14:18 12.04.2020
4931 Clouds 26 1018 100 10000 2.77 31 14:18 12.04.2020
4932 Clouds 26 1018 94 10000 2.77 31 13:42 12.04.2020
4933 Clouds 25 1018 94 10000 2.77 31 13:23 12.04.2020
4934 Clouds 27 1020 99 0 2.77 31 12:55 12.04.2020
4935 Clouds 26 1016 94 10000 2.77 31 12:37 12.04.2020
4936 Clouds 25 1016 94 10000 1.29 351 12:18 12.04.2020
4937 Clouds 24 1016 94 10000 1.29 351 11:42 12.04.2020
4938 Clouds 24 1016 94 10000 1.29 351 11:22 12.04.2020
4939 Clouds 24 1017 87 0 1.29 351 10:58 12.04.2020
4940 Clouds 24 1017 87 0 1.29 351 10:40 12.04.2020
4941 Clouds 24 1017 87 0 1.29 351 10:21 12.04.2020
4942 Clouds 24 1017 87 0 1.29 351 10:00 12.04.2020
4943 Clouds 24 1017 87 0 1.29 351 10:00 12.04.2020
4944 Clouds 26 1016 83 10000 1.29 351 09:39 12.04.2020
4945 Clouds 25 1016 83 10000 2.16 1 09:21 12.04.2020
4946 Clouds 25 1016 83 10000 2.16 1 08:52 12.04.2020
4947 Clouds 26 1016 83 10000 2.16 1 08:33 12.04.2020
4948 Clear 24 1017 86 0 2.16 1 07:58 12.04.2020
4949 Clear 24 1017 86 0 2.16 1 07:40 12.04.2020
4950 Clear 24 1017 86 0 2.16 1 07:18 12.04.2020
4951 Clouds 24 1016 88 10000 2.16 1 06:33 12.04.2020
4952 Clouds 24 1016 88 10000 1.28 3 05:50 12.04.2020
4953 Clouds 24 1016 88 10000 1.28 3 05:28 12.04.2020
4954 Clouds 26 1015 83 10000 1.28 3 03:38 12.04.2020
4955 Clouds 27 1015 83 10000 0.89 212 02:57 12.04.2020
4956 Clouds 27 1015 83 10000 0.89 212 02:34 12.04.2020
4957 Clouds 28 1014 78 10000 0.75 205 01:34 12.04.2020
4958 Clouds 29 1014 70 10000 2.1 130 00:57 12.04.2020
4959 Clouds 29 1014 70 10000 2.1 130 00:39 12.04.2020
4960 Clouds 29 1014 70 10000 2.1 130 00:19 12.04.2020
4961 Clouds 29 1016 91 0 3.35 156 23:46 11.04.2020
4962 Clouds 30 1014 55 10000 4.1 180 23:24 11.04.2020
4963 Clouds 30 1014 55 10000 4.1 180 22:41 11.04.2020
4964 Clouds 30 1014 55 10000 4.1 180 22:22 11.04.2020
4965 Clouds 30 1014 59 10000 4.1 200 21:57 11.04.2020
4966 Clouds 31 1015 59 10000 5.1 180 21:37 11.04.2020
4967 Clouds 31 1015 59 10000 5.1 180 21:19 11.04.2020
4968 Clouds 31 1015 59 10000 5.1 180 20:58 11.04.2020
4969 Clouds 31 1015 59 10000 5.1 180 20:39 11.04.2020
4970 Clouds 31 1015 59 10000 5.1 180 20:20 11.04.2020
4971 Clouds 31 1015 59 10000 3.1 150 19:58 11.04.2020
4972 Clouds 31 1015 59 10000 3.1 150 19:38 11.04.2020
4973 Clouds 31 1015 59 10000 3.1 150 19:19 11.04.2020
4974 Clouds 31 1016 59 10000 2.6 190 18:56 11.04.2020
4975 Clouds 31 1016 59 10000 2.6 190 18:38 11.04.2020
4976 Clouds 31 1016 59 10000 2.6 190 18:19 11.04.2020
4977 Clouds 30 1017 70 10000 3.1 160 17:58 11.04.2020
4978 Clouds 31 1017 70 10000 3.1 160 17:40 11.04.2020
4979 Clouds 30 1017 70 10000 3.1 160 17:19 11.04.2020
4980 Clouds 29 1017 74 10000 2.6 60 16:43 11.04.2020
4981 Clouds 29 1017 74 10000 2.6 60 16:22 11.04.2020
4982 Clouds 28 1016 88 10000 2.33 128 15:56 11.04.2020
4983 Clouds 28 1016 88 10000 2.33 128 15:36 11.04.2020
4984 Clouds 27 1016 88 10000 0.97 349 15:18 11.04.2020
4985 Clouds 26 1016 88 10000 2.1 80 14:42 11.04.2020
4986 Clouds 26 1016 88 10000 2.1 80 14:42 11.04.2020
4987 Clouds 25 1016 88 10000 2.1 80 14:23 11.04.2020
4988 Clouds 25 1015 94 10000 1.5 0 13:58 11.04.2020
4989 Clouds 25 1015 94 10000 1.5 0 13:38 11.04.2020
4990 Clouds 24 1015 94 10000 1.5 0 13:18 11.04.2020
4991 Clouds 26 1017 97 0 1.2 3 12:41 11.04.2020
4992 Clouds 24 1014 100 10000 2.1 20 12:18 11.04.2020
4993 Clouds 24 1014 100 10000 2.1 20 11:56 11.04.2020
4994 Clouds 24 1014 100 10000 2.1 20 11:38 11.04.2020
4995 Clouds 24 1014 100 10000 2.1 20 11:18 11.04.2020
4996 Clouds 24 1014 87 0 1.13 323 10:43 11.04.2020
4997 Clouds 24 1014 87 0 1.13 323 10:43 11.04.2020
4998 Clouds 25 1013 84 0 0.89 302 10:22 11.04.2020
4999 Clouds 26 1013 84 0 0.89 289 09:59 11.04.2020
5000 Clouds 24 1013 94 10000 2.1 60 09:39 11.04.2020
5001 Clouds 24 1013 94 10000 2.1 60 09:39 11.04.2020
5002 Clouds 24 1013 94 10000 2.1 60 09:21 11.04.2020
5003 Clouds 25 1013 94 10000 2.1 60 08:47 11.04.2020
5004 Clouds 26 1013 94 10000 2.1 60 08:28 11.04.2020
5005 Clouds 27 1016 97 0 0.65 293 07:52 11.04.2020
5006 Clouds 27 1016 97 0 0.65 293 07:34 11.04.2020
5007 Clouds 27 1016 97 0 0.65 293 06:49 11.04.2020
5008 Clouds 26 1014 88 10000 2.1 150 06:19 11.04.2020
5009 Clouds 26 1014 88 10000 2.1 150 05:52 11.04.2020
5010 Clouds 27 1016 97 0 0.95 218 03:40 11.04.2020
5011 Clouds 27 1012 78 10000 2.6 160 01:59 11.04.2020
5012 Clouds 27 1012 78 10000 2.6 160 01:24 11.04.2020
5013 Clouds 28 1012 69 10000 2.6 150 00:44 11.04.2020
5014 Clouds 28 1012 69 10000 2.6 150 00:19 11.04.2020
5015 Clouds 28 1012 66 10000 3.1 180 23:57 10.04.2020
5016 Clouds 28 1012 66 10000 3.1 180 23:38 10.04.2020
5017 Clouds 29 1012 66 10000 3.1 180 23:19 10.04.2020
5018 Clouds 29 1012 66 10000 3.6 190 22:43 10.04.2020
5019 Clouds 29 1012 66 10000 3.6 190 22:22 10.04.2020
5020 Clouds 30 1012 58 10000 3.1 180 21:58 10.04.2020
5021 Clouds 30 1012 58 10000 3.1 180 21:40 10.04.2020
5022 Clouds 31 1013 59 10000 5.1 180 21:20 10.04.2020
5023 Clouds 31 1013 59 10000 5.1 180 20:44 10.04.2020
5024 Clouds 31 1013 59 10000 5.1 180 20:24 10.04.2020
5025 Clouds 30 1014 62 10000 5.1 180 19:59 10.04.2020
5026 Clouds 30 1014 62 10000 5.1 180 19:41 10.04.2020
5027 Clouds 30 1014 62 10000 5.1 180 19:21 10.04.2020
5028 Clouds 30 1014 62 10000 5.1 180 19:21 10.04.2020
5029 Clouds 30 1014 62 10000 5.1 180 18:58 10.04.2020
5030 Clouds 30 1014 62 10000 5.1 180 18:58 10.04.2020
5031 Clouds 30 1014 62 10000 5.1 180 18:58 10.04.2020
5032 Clouds 30 1014 62 10000 5.1 180 18:40 10.04.2020
5033 Clouds 30 1014 62 10000 5.1 180 18:21 10.04.2020
5034 Clouds 30 1015 66 10000 4.1 180 17:58 10.04.2020
5035 Clouds 30 1015 66 10000 4.1 180 17:58 10.04.2020
5036 Clouds 30 1015 66 10000 4.1 180 17:40 10.04.2020
5037 Clouds 30 1015 66 10000 4.1 180 17:21 10.04.2020
5038 Clouds 29 1014 78 10000 3.72 171 16:57 10.04.2020
5039 Clouds 29 1014 78 10000 3.72 171 16:38 10.04.2020
5040 Clouds 28 1014 78 10000 3.72 171 16:20 10.04.2020
5041 Clouds 28 1014 83 10000 3.72 171 15:56 10.04.2020
5042 Clouds 28 1014 83 10000 3.72 171 15:37 10.04.2020
5043 Clouds 27 1014 83 10000 0.52 174 15:19 10.04.2020
5044 Clouds 26 1013 94 10000 1 0 14:56 10.04.2020
5045 Clouds 26 1013 94 10000 1 0 14:38 10.04.2020
5046 Clouds 26 1013 94 10000 1 0 14:38 10.04.2020
5047 Clouds 25 1013 94 10000 1 0 14:18 10.04.2020
5048 Clouds 25 1013 94 10000 1 0 14:18 10.04.2020
5049 Clouds 24 1012 94 10000 0.7 169 13:43 10.04.2020
5050 Clouds 24 1012 94 10000 0.7 169 13:22 10.04.2020
5051 Clouds 25 1012 94 10000 0.7 169 12:44 10.04.2020
5052 Clouds 25 1012 94 10000 0.69 210 12:24 10.04.2020
5053 Clouds 25 1012 94 10000 0.69 210 11:58 10.04.2020
5054 Clouds 25 1012 94 10000 0.69 210 11:39 10.04.2020
5055 Clouds 25 1012 94 10000 0.69 210 11:21 10.04.2020
5056 Rain 27 1014 97 0 0.69 210 10:46 10.04.2020
5057 Rain 27 1014 97 0 0.69 210 10:23 10.04.2020
5058 Rain 27 1014 97 0 0.69 210 09:57 10.04.2020
5059 Clouds 26 1012 94 10000 0.69 210 09:39 10.04.2020
5060 Clouds 26 1012 94 10000 0.05 124 09:20 10.04.2020
5061 Clouds 26 1012 94 10000 0.05 124 08:43 10.04.2020
5062 Clouds 26 1012 94 10000 0.05 124 08:24 10.04.2020
5063 Rain 27 1015 97 0 0.05 124 07:46 10.04.2020
5064 Rain 27 1015 97 0 0.05 124 07:24 10.04.2020
5065 Rain 27 1015 97 0 0.05 124 06:49 10.04.2020
5066 Clouds 26 1013 94 10000 1.03 206 06:29 10.04.2020
5067 Clouds 26 1013 94 10000 1.03 206 05:42 10.04.2020
5068 Clouds 27 1015 97 0 1.03 206 04:59 10.04.2020
5069 Clouds 27 1015 97 0 1.03 206 03:51 10.04.2020
5070 Clouds 27 1012 83 10000 1.03 206 03:32 10.04.2020
5071 Clouds 27 1012 83 10000 2.1 168 02:49 10.04.2020
5072 Clouds 27 1012 83 10000 2.04 163 02:30 10.04.2020
5073 Clouds 27 1011 83 10000 3.1 180 01:30 10.04.2020
5074 Clouds 28 1011 70 10000 2.1 170 00:52 10.04.2020
5075 Clouds 28 1011 70 10000 3.1 200 00:25 10.04.2020
5076 Clouds 29 1011 70 10000 3.1 200 23:56 09.04.2020
5077 Clouds 29 1011 70 10000 3.1 200 23:38 09.04.2020
5078 Clouds 29 1011 70 10000 3.1 200 23:20 09.04.2020
5079 Clouds 29 1011 70 10000 3.1 180 22:42 09.04.2020
5080 Clouds 29 1011 70 10000 3.1 180 22:23 09.04.2020
5081 Clouds 30 1011 58 10000 5.1 190 21:56 09.04.2020
5082 Clouds 30 1012 59 10000 8.2 180 21:37 09.04.2020
5083 Clouds 31 1012 59 10000 8.2 180 21:19 09.04.2020
5084 Clouds 31 1012 59 10000 8.2 180 21:19 09.04.2020
5085 Clouds 31 1012 59 10000 8.2 180 20:44 09.04.2020
5086 Clouds 31 1012 59 10000 8.2 180 20:21 09.04.2020
5087 Clouds 31 1013 59 10000 4.1 180 19:58 09.04.2020
5088 Clouds 31 1013 59 10000 4.1 180 19:37 09.04.2020
5089 Clouds 31 1013 59 10000 4.1 180 19:18 09.04.2020
5090 Clouds 30 1014 66 10000 5.1 150 18:41 09.04.2020
5091 Clouds 30 1014 66 10000 5.1 150 18:20 09.04.2020
5092 Clouds 30 1014 70 10000 3.1 110 17:41 09.04.2020
5093 Clouds 30 1014 70 10000 3.1 110 17:23 09.04.2020
5094 Clouds 29 1014 62 10000 2.35 142 16:56 09.04.2020
5095 Clouds 29 1014 62 10000 2.35 142 16:38 09.04.2020
5096 Clouds 29 1014 62 10000 2.35 142 16:18 09.04.2020
5097 Clouds 28 1014 83 10000 2.35 142 15:55 09.04.2020
5098 Clouds 27 1014 83 10000 2.35 142 15:36 09.04.2020
5099 Clouds 27 1014 83 10000 1.25 360 15:18 09.04.2020
5100 Clouds 26 1014 88 10000 1.22 354 14:40 09.04.2020
5101 Clouds 26 1014 88 10000 1.22 354 14:21 09.04.2020
5102 Clouds 24 1013 94 10000 1.22 354 13:44 09.04.2020
5103 Clouds 24 1013 94 10000 1.22 354 13:44 09.04.2020
5104 Clouds 24 1013 94 10000 1.22 354 13:26 09.04.2020
5105 Clouds 26 1015 100 0 1.22 354 12:59 09.04.2020
5106 Clouds 26 1015 100 0 1.22 354 12:41 09.04.2020
5107 Clouds 23 1012 94 10000 1.25 15 12:21 09.04.2020
5108 Clouds 23 1012 94 10000 1.25 15 11:58 09.04.2020
5109 Clouds 23 1012 94 10000 1.25 15 11:38 09.04.2020
5110 Clouds 23 1012 94 10000 1.25 15 11:20 09.04.2020
5111 Clouds 25 1013 85 0 1.25 15 10:56 09.04.2020
5112 Clouds 25 1013 85 0 1.25 15 10:37 09.04.2020
5113 Clouds 25 1013 85 0 1.25 15 10:18 09.04.2020
5114 Clouds 25 1013 85 0 1.25 15 09:40 09.04.2020
5115 Clouds 25 1013 88 10000 2.1 10 09:21 09.04.2020
5116 Clouds 25 1013 88 10000 2.1 10 08:59 09.04.2020
5117 Clouds 25 1013 88 10000 2.1 10 08:40 09.04.2020
5118 Clouds 25 1013 88 10000 2.1 10 08:22 09.04.2020
5119 Rain 26 1016 100 0 1.81 359 07:50 09.04.2020
5120 Rain 26 1016 100 0 1.81 359 07:22 09.04.2020
5121 Rain 26 1017 100 0 1.81 359 06:48 09.04.2020
5122 Clouds 25 1014 83 10000 2.1 70 05:49 09.04.2020
5123 Clouds 25 1014 83 10000 2.1 70 05:49 09.04.2020
5124 Rain 26 1017 100 0 2.75 14 05:26 09.04.2020
5125 Clouds 26 1013 78 10000 3.1 50 02:37 09.04.2020
5126 Clouds 28 1012 74 10000 3.1 100 01:57 09.04.2020
5127 Clouds 28 1012 74 10000 3.1 100 01:39 09.04.2020
5128 Clouds 28 1012 74 10000 3.1 100 01:19 09.04.2020
5129 Clouds 28 1012 74 10000 2.1 110 00:38 09.04.2020
5130 Clouds 28 1012 74 10000 2.1 110 00:18 09.04.2020
5131 Clouds 29 1012 74 10000 3.1 130 23:42 08.04.2020
5132 Clouds 29 1012 74 10000 3.1 130 23:23 08.04.2020
5133 Clouds 29 1012 70 10000 2.1 120 22:56 08.04.2020
5134 Clouds 29 1012 70 10000 2.1 120 22:38 08.04.2020
5135 Clouds 29 1012 70 10000 2.1 120 22:19 08.04.2020
5136 Clouds 29 1013 74 10000 3.1 150 21:55 08.04.2020
5137 Clouds 30 1014 66 10000 2.62 108 21:37 08.04.2020
5138 Clouds 30 1014 66 10000 2.75 94 21:18 08.04.2020
5139 Clouds 29 1014 66 10000 2.75 94 20:41 08.04.2020
5140 Clouds 29 1014 66 10000 2.75 94 20:21 08.04.2020
5141 Clouds 29 1014 66 10000 2.75 94 20:21 08.04.2020
5142 Clouds 29 1014 66 10000 3.6 90 19:59 08.04.2020
5143 Clouds 29 1014 66 10000 3.6 90 19:40 08.04.2020
5144 Clouds 29 1014 66 10000 3.6 90 19:21 08.04.2020
5145 Clouds 28 1015 74 10000 2.75 94 18:45 08.04.2020
5146 Clouds 27 1016 83 10000 2.6 360 18:27 08.04.2020
5147 Clouds 27 1016 83 10000 2.6 360 17:57 08.04.2020
5148 Clouds 27 1016 83 10000 2.6 360 17:39 08.04.2020
5149 Clouds 27 1016 83 10000 2.6 360 17:20 08.04.2020
5150 Clouds 26 1016 83 10000 2.6 360 16:56 08.04.2020
5151 Clouds 26 1016 83 10000 2.6 360 16:37 08.04.2020
5152 Clouds 26 1016 83 10000 2.6 360 16:19 08.04.2020
5153 Clouds 25 1015 94 10000 2.6 360 15:38 08.04.2020
5154 Clouds 25 1015 94 10000 2.37 6 15:20 08.04.2020
5155 Clouds 24 1015 94 10000 2.37 6 14:54 08.04.2020
5156 Clouds 24 1015 94 10000 2.37 6 14:36 08.04.2020
5157 Clouds 24 1015 94 10000 2.4 6 14:18 08.04.2020
5158 Clouds 24 1014 94 10000 2.4 6 13:43 08.04.2020
5159 Clouds 24 1014 94 10000 2.4 6 13:43 08.04.2020
5160 Clouds 24 1014 94 10000 2.4 6 13:21 08.04.2020
5161 Rain 24 1016 100 0 2.4 6 12:43 08.04.2020
5162 Rain 24 1016 100 0 2.38 15 12:19 08.04.2020
5163 Rain 24 1016 100 0 2.38 15 11:59 08.04.2020
5164 Rain 24 1016 100 0 2.38 15 11:40 08.04.2020
5165 Rain 24 1016 100 0 2.38 15 11:22 08.04.2020
5166 Rain 24 1016 100 0 2.38 15 10:57 08.04.2020
5167 Rain 24 1016 100 0 2.38 15 10:39 08.04.2020
5168 Rain 24 1016 100 0 2.38 15 10:20 08.04.2020
5169 Rain 24 1016 100 0 2.38 15 09:55 08.04.2020
5170 Clouds 24 1014 94 10000 2.1 30 09:37 08.04.2020
5171 Clouds 24 1014 94 10000 2.1 30 09:18 08.04.2020
5172 Clouds 24 1014 94 10000 2.1 30 08:42 08.04.2020
5173 Clouds 24 1014 94 10000 2.1 30 08:23 08.04.2020
5174 Rain 24 1017 100 0 2.4 12 07:44 08.04.2020
5175 Rain 24 1017 100 0 2.4 12 07:25 08.04.2020
5176 Rain 24 1018 100 0 2.4 12 06:56 08.04.2020
5177 Rain 24 1016 100 7000 2.1 20 06:19 08.04.2020
5178 Rain 24 1018 100 0 2.63 22 04:19 08.04.2020
5179 Rain 25 1017 100 0 2.35 57 02:49 08.04.2020
5180 Clouds 26 1014 78 10000 3.1 130 02:20 08.04.2020
5181 Clouds 27 1014 78 10000 3.1 130 01:45 08.04.2020
5182 Clouds 28 1013 74 10000 3.1 150 01:23 08.04.2020
5183 Clouds 28 1013 74 10000 3.1 150 00:41 08.04.2020
5184 Clouds 28 1013 74 10000 3.1 150 00:21 08.04.2020
5185 Clouds 29 1013 66 10000 3.1 170 23:39 07.04.2020
5186 Clouds 29 1013 66 10000 3.1 170 23:20 07.04.2020
5187 Clouds 30 1014 62 10000 3.1 170 22:57 07.04.2020
5188 Clouds 30 1014 62 10000 3.1 170 22:57 07.04.2020
5189 Clouds 30 1014 62 10000 3.1 170 22:39 07.04.2020
5190 Clouds 30 1014 62 10000 3.1 170 22:19 07.04.2020
5191 Clouds 30 1014 58 10000 4.1 190 21:56 07.04.2020
5192 Clouds 30 1014 58 10000 4.1 190 21:56 07.04.2020
5193 Clouds 31 1016 59 10000 2.12 139 21:38 07.04.2020
5194 Clouds 31 1016 59 10000 2.76 85 21:19 07.04.2020
5195 Clouds 31 1016 59 10000 2.76 85 20:55 07.04.2020
5196 Clouds 31 1016 59 10000 2.76 85 20:37 07.04.2020
5197 Clouds 31 1016 59 10000 2.76 85 20:18 07.04.2020
5198 Clouds 31 1016 62 10000 4.1 140 19:56 07.04.2020
5199 Clouds 31 1016 62 10000 4.1 140 19:36 07.04.2020
5200 Clouds 31 1017 66 10000 4.1 170 19:18 07.04.2020
5201 Clouds 31 1017 66 10000 4.1 170 19:18 07.04.2020
5202 Clouds 31 1017 66 10000 4.1 170 18:41 07.04.2020
5203 Clouds 30 1017 70 10000 2.1 90 18:21 07.04.2020
5204 Clouds 30 1017 70 10000 2.1 90 17:57 07.04.2020
5205 Clouds 30 1017 70 10000 2.1 90 17:38 07.04.2020
5206 Clouds 29 1017 70 10000 2.1 90 17:20 07.04.2020
5207 Clouds 29 1017 78 10000 2.1 330 16:45 07.04.2020
5208 Clouds 28 1016 83 10000 2.1 360 16:26 07.04.2020
5209 Clouds 27 1016 83 10000 2.1 360 15:46 07.04.2020
5210 Clouds 26 1016 83 10000 2.1 360 15:27 07.04.2020
5211 Clouds 26 1016 83 10000 1.65 8 14:57 07.04.2020
5212 Clouds 26 1016 83 10000 1.65 8 14:38 07.04.2020
5213 Clouds 26 1016 83 10000 2.03 16 14:19 07.04.2020
5214 Clouds 25 1015 88 10000 2.03 16 13:43 07.04.2020
5215 Clouds 25 1015 88 10000 2.03 16 13:20 07.04.2020
5216 Clouds 26 1018 94 0 2.03 16 12:58 07.04.2020
5217 Clouds 25 1015 88 10000 2.03 16 12:39 07.04.2020
5218 Clouds 25 1015 88 10000 2.51 3 12:21 07.04.2020
5219 Clouds 25 1015 88 10000 2.51 3 11:58 07.04.2020
5220 Clouds 25 1015 88 10000 2.51 3 11:39 07.04.2020
5221 Clouds 25 1015 88 10000 2.51 3 11:19 07.04.2020
5222 Clouds 25 1015 82 0 0.89 19 10:39 07.04.2020
5223 Clouds 25 1015 81 0 0.89 47 10:20 07.04.2020
5224 Clouds 25 1015 81 0 1.34 48 09:56 07.04.2020
5225 Clouds 25 1016 88 10000 1.5 40 09:38 07.04.2020
5226 Clouds 25 1016 88 10000 1.5 40 09:18 07.04.2020
5227 Clouds 25 1016 88 10000 1.5 40 08:40 07.04.2020
5228 Clouds 25 1016 88 10000 1.5 40 08:21 07.04.2020
5229 Clouds 26 1018 94 0 2.38 7 07:47 07.04.2020
5230 Clouds 26 1019 94 0 2.38 7 07:26 07.04.2020
5231 Clouds 26 1019 94 0 2.38 7 06:53 07.04.2020
5232 Clouds 26 1016 83 10000 2.1 70 06:27 07.04.2020
5233 Clouds 26 1016 83 10000 2.1 70 05:59 07.04.2020
5234 Clouds 26 1016 83 10000 2.1 70 05:26 07.04.2020
5235 Rain 26 1018 94 0 2.67 19 04:22 07.04.2020
5236 Clouds 27 1014 83 10000 2.1 120 03:23 07.04.2020
5237 Clouds 27 1014 83 10000 2.1 120 02:46 07.04.2020
5238 Clouds 27 1014 78 10000 2.1 130 01:40 07.04.2020
5239 Clouds 27 1014 78 10000 2.1 130 01:21 07.04.2020
5240 Clouds 28 1014 70 10000 4.1 160 00:26 07.04.2020
5241 Clouds 29 1013 70 10000 4.1 170 23:43 06.04.2020
5242 Clouds 29 1013 70 10000 4.1 170 23:22 06.04.2020
5243 Clouds 29 1013 70 10000 4.1 170 23:22 06.04.2020
5244 Clouds 29 1013 66 10000 3.6 170 22:55 06.04.2020
5245 Clouds 29 1013 66 10000 3.6 170 22:36 06.04.2020
5246 Clouds 30 1013 66 10000 3.6 170 22:18 06.04.2020
5247 Clouds 30 1014 58 10000 4.1 190 21:43 06.04.2020
5248 Clouds 30 1015 59 10000 4.1 180 21:20 06.04.2020
5249 Clouds 31 1015 59 10000 4.1 180 20:58 06.04.2020
5250 Clouds 31 1015 59 10000 4.1 180 20:58 06.04.2020
5251 Clouds 31 1015 59 10000 4.1 180 20:40 06.04.2020
5252 Clouds 31 1015 59 10000 4.1 180 20:21 06.04.2020
5253 Clouds 30 1015 62 10000 3.1 160 19:58 06.04.2020
5254 Clouds 30 1015 62 10000 3.1 160 19:38 06.04.2020
5255 Clouds 30 1015 62 10000 3.1 160 19:20 06.04.2020
5256 Clouds 30 1016 62 10000 6.2 150 18:43 06.04.2020
5257 Clouds 30 1016 62 10000 6.2 150 18:24 06.04.2020
5258 Clouds 30 1016 70 10000 4.1 250 17:58 06.04.2020
5259 Clouds 30 1016 70 10000 4.1 250 17:39 06.04.2020
5260 Clouds 30 1016 70 10000 4.1 250 17:18 06.04.2020
5261 Clouds 29 1017 78 10000 2.05 83 16:49 06.04.2020
5262 Clouds 28 1017 78 10000 2.05 83 16:30 06.04.2020
5263 Clouds 25 1015 88 10000 2.1 24 14:57 06.04.2020
5264 Clouds 25 1015 88 10000 2.1 24 14:57 06.04.2020
5265 Clouds 25 1015 88 10000 2.1 24 14:56 06.04.2020
5266 Clouds 25 1015 88 10000 2.1 24 14:49 06.04.2020
5267 Clouds 25 1015 88 10000 2.1 24 14:49 06.04.2020
5268 Clouds 24 1015 94 10000 1 0 13:45 06.04.2020
5269 Clouds 24 1015 94 10000 1 0 13:45 06.04.2020
5270 Clouds 23 1015 94 10000 1 0 13:22 06.04.2020
5271 Clouds 25 1017 92 0 2.36 4 12:46 06.04.2020
5272 Clouds 23 1014 94 10000 2.1 10 12:19 06.04.2020
5273 Clouds 23 1014 94 10000 2.1 10 11:40 06.04.2020
5274 Clouds 23 1014 94 10000 2.1 10 11:18 06.04.2020
5275 Clouds 24 1014 80 0 1.34 34 10:38 06.04.2020
5276 Clouds 24 1014 79 0 1.34 22 10:20 06.04.2020
5277 Clouds 24 1014 79 0 1.34 22 10:20 06.04.2020
5278 Clouds 24 1014 79 0 1.34 22 10:20 06.04.2020
5279 Clouds 24 1014 79 0 1.34 22 10:20 06.04.2020
5280 Clouds 24 1014 79 0 1.34 22 10:20 06.04.2020
5281 Clouds 25 1014 79 0 1.34 38 09:40 06.04.2020
5282 Clouds 25 1014 79 0 1.34 38 09:40 06.04.2020
5283 Clouds 24 1015 88 10000 2.1 90 09:19 06.04.2020
5284 Clouds 24 1015 88 10000 2.1 90 08:44 06.04.2020
5285 Clouds 24 1015 88 10000 2.1 90 08:44 06.04.2020
5286 Clouds 24 1015 88 10000 2.1 90 08:44 06.04.2020
5287 Clouds 24 1015 88 10000 2.1 90 08:44 06.04.2020
5288 Clouds 24 1015 88 10000 2.1 90 08:43 06.04.2020
5289 Clouds 24 1015 88 10000 2.1 90 08:23 06.04.2020
5290 Clouds 25 1015 78 0 1.34 3 07:23 06.04.2020
5291 Clouds 25 1015 78 0 1.34 3 07:23 06.04.2020
5292 Clouds 25 1015 78 0 1.34 3 07:23 06.04.2020
5293 Clouds 25 1015 78 0 1.34 3 07:23 06.04.2020
5294 Clouds 25 1015 78 0 1.34 3 07:23 06.04.2020
5295 Clouds 25 1016 83 10000 2.1 50 06:27 06.04.2020
5296 Clouds 25 1016 83 10000 2.1 50 05:51 06.04.2020
5297 Clouds 26 1018 92 0 3.21 15 03:56 06.04.2020
5298 Clouds 27 1014 74 10000 3.1 60 02:51 06.04.2020
5299 Clouds 27 1014 69 10000 2.6 60 01:54 06.04.2020
5300 Clouds 28 1013 69 10000 4.1 130 00:54 06.04.2020
5301 Clouds 28 1013 69 10000 4.1 130 00:28 06.04.2020
5302 Clouds 29 1012 62 10000 3.1 140 23:51 05.04.2020
5303 Clouds 29 1012 62 10000 3.1 140 23:33 05.04.2020
5304 Clouds 29 1012 62 10000 3.1 140 22:57 05.04.2020
5305 Clouds 30 1012 55 10000 2.6 160 22:39 05.04.2020
5306 Clouds 30 1012 55 10000 2.6 160 22:21 05.04.2020
5307 Clouds 30 1012 55 10000 2.6 160 21:59 05.04.2020
5308 Clouds 30 1012 52 10000 3.6 170 21:40 05.04.2020
5309 Clouds 31 1013 62 10000 2.17 99 21:22 05.04.2020
5310 Clouds 31 1013 62 10000 2.83 84 20:22 05.04.2020
5311 Clouds 31 1013 62 10000 2.83 84 20:22 05.04.2020
5312 Clouds 30 1014 66 10000 4.1 90 19:42 05.04.2020
5313 Clouds 30 1014 66 10000 4.1 90 19:22 05.04.2020
5314 Clouds 30 1015 70 10000 2.1 330 18:47 05.04.2020
5315 Clouds 29 1015 70 10000 4.1 30 17:59 05.04.2020
5316 Clouds 29 1015 70 10000 4.1 30 17:59 05.04.2020
5317 Clouds 29 1015 70 10000 4.1 30 17:59 05.04.2020
5318 Clouds 29 1015 70 10000 4.1 30 17:59 05.04.2020
5319 Clouds 29 1015 70 10000 4.1 30 17:40 05.04.2020
5320 Clouds 29 1015 70 10000 4.1 30 17:40 05.04.2020
5321 Clouds 29 1015 70 10000 4.1 30 17:40 05.04.2020
5322 Clouds 29 1015 70 10000 4.1 30 17:40 05.04.2020
5323 Clouds 29 1015 70 10000 4.1 30 17:20 05.04.2020
5324 Clouds 28 1015 74 10000 5.1 60 16:46 05.04.2020
5325 Clouds 28 1015 74 10000 5.1 60 16:46 05.04.2020
5326 Clouds 28 1015 74 10000 5.1 60 16:46 05.04.2020
5327 Clouds 28 1015 74 10000 5.1 60 16:46 05.04.2020
5328 Clouds 28 1015 74 10000 5.1 60 16:46 05.04.2020
5329 Clouds 28 1015 74 10000 5.1 60 16:18 05.04.2020
5330 Clouds 27 1015 83 10000 4.1 360 15:45 05.04.2020
5331 Clouds 26 1015 83 10000 4.1 360 15:25 05.04.2020
5332 Clouds 25 1014 100 10000 5.1 330 14:48 05.04.2020
5333 Clouds 25 1014 100 10000 5.1 330 14:48 05.04.2020
5334 Clouds 24 1013 94 10000 2.1 360 13:47 05.04.2020
5335 Clouds 24 1013 94 10000 2.1 360 13:47 05.04.2020
5336 Clouds 24 1013 94 10000 2.1 360 13:47 05.04.2020
5337 Clouds 24 1013 94 10000 2.1 360 13:47 05.04.2020
5338 Clouds 24 1013 94 10000 2.1 360 13:47 05.04.2020
5339 Clouds 24 1013 94 10000 2.1 360 12:57 05.04.2020
5340 Clouds 24 1013 94 10000 2.1 360 12:57 05.04.2020
5341 Clouds 24 1012 94 10000 2.1 20 11:58 05.04.2020
5342 Clouds 24 1012 94 10000 2.1 20 11:58 05.04.2020
5343 Clouds 24 1012 94 10000 2.1 20 11:58 05.04.2020
5344 Clouds 24 1012 94 10000 2.1 20 11:38 05.04.2020
5345 Clouds 24 1012 94 10000 2.1 20 11:19 05.04.2020
5346 Clouds 25 1012 84 0 1.34 31 10:44 05.04.2020
5347 Clouds 25 1012 84 0 1.34 31 10:44 05.04.2020
5348 Clouds 25 1012 84 0 1.34 31 10:44 05.04.2020
5349 Clouds 25 1012 84 0 1.34 31 10:44 05.04.2020
5350 Clouds 25 1012 84 0 0.89 9 10:19 05.04.2020
5351 Clouds 25 1012 84 0 1.79 356 09:52 05.04.2020
5352 Clouds 25 1012 84 0 1.79 356 09:52 05.04.2020
5353 Clouds 25 1012 88 10000 2.1 40 09:25 05.04.2020
5354 Clouds 25 1012 88 10000 2.1 40 09:25 05.04.2020
5355 Clouds 25 1012 88 10000 2.1 40 09:25 05.04.2020
5356 Clouds 25 1012 88 10000 2.1 40 09:25 05.04.2020
5357 Clouds 25 1012 88 10000 2.1 40 07:58 05.04.2020
5358 Clouds 25 1014 83 10000 2.6 60 04:56 05.04.2020
5359 Rain 26 1013 79 0 2.6 360 03:35 05.04.2020
5360 Rain 26 1013 79 0 2.6 360 03:35 05.04.2020
5361 Rain 26 1013 79 0 2.6 360 03:35 05.04.2020
5362 Clouds 26 1012 78 10000 3.36 11 02:53 05.04.2020
5363 Clouds 27 1011 78 10000 3.69 26 01:51 05.04.2020
5364 Clouds 27 1011 78 10000 3.69 26 01:32 05.04.2020
5365 Clouds 27 1011 69 10000 2.1 190 00:47 05.04.2020
5366 Clouds 28 1011 69 10000 2.1 190 00:22 05.04.2020
5367 Clouds 28 1011 69 10000 2.1 190 00:22 05.04.2020
5368 Clouds 28 1010 66 10000 3.1 190 23:57 04.04.2020
5369 Clouds 29 1010 66 10000 3.1 190 23:38 04.04.2020
5370 Clouds 29 1010 66 10000 3.1 190 23:19 04.04.2020
5371 Clouds 29 1010 62 10000 3.1 180 22:55 04.04.2020
5372 Clouds 29 1010 62 10000 3.1 180 22:37 04.04.2020
5373 Clouds 30 1010 62 10000 3.1 180 22:19 04.04.2020
5374 Clouds 30 1010 62 10000 3.1 200 21:54 04.04.2020
5375 Clouds 30 1010 62 10000 3.1 200 21:36 04.04.2020
5376 Clouds 31 1011 52 10000 4.1 200 21:18 04.04.2020
5377 Clouds 31 1011 52 10000 4.1 200 20:42 04.04.2020
5378 Clouds 31 1011 52 10000 4.1 200 20:23 04.04.2020
5379 Clouds 31 1011 52 10000 4.1 200 19:58 04.04.2020
5380 Clouds 31 1012 62 10000 2.55 114 19:37 04.04.2020
5381 Clouds 31 1012 62 10000 2.55 114 19:19 04.04.2020
5382 Clouds 31 1013 59 10000 3.1 120 18:57 04.04.2020
5383 Clouds 31 1013 59 10000 3.1 120 18:57 04.04.2020
5384 Clouds 31 1013 59 10000 3.1 120 18:38 04.04.2020
5385 Clouds 31 1013 59 10000 3.1 120 18:38 04.04.2020
5386 Clouds 31 1013 59 10000 3.1 120 18:19 04.04.2020
5387 Clouds 30 1013 62 10000 2.6 60 17:56 04.04.2020
5388 Clouds 30 1013 62 10000 2.6 60 17:38 04.04.2020
5389 Clouds 30 1013 62 10000 2.6 60 17:38 04.04.2020
5390 Clouds 30 1013 62 10000 2.6 60 17:18 04.04.2020
5391 Clouds 29 1013 70 10000 2.6 30 16:42 04.04.2020
5392 Clouds 28 1013 70 10000 2.6 30 16:22 04.04.2020
5393 Clouds 28 1013 70 10000 2.6 30 15:56 04.04.2020
5394 Clouds 27 1013 78 10000 2.6 30 15:38 04.04.2020
5395 Clouds 27 1013 78 10000 2.6 30 15:18 04.04.2020
5396 Clouds 26 1013 88 10000 2.1 20 14:43 04.04.2020
5397 Clouds 25 1013 88 10000 2.1 20 14:23 04.04.2020
5398 Clouds 24 1012 94 10000 2.1 50 13:56 04.04.2020
5399 Clouds 24 1012 94 10000 2.1 50 13:38 04.04.2020
5400 Clouds 24 1012 94 10000 2.1 50 13:19 04.04.2020
5401 Clouds 24 1012 94 10000 2.1 50 13:19 04.04.2020
5402 Clear 26 1014 89 0 2.01 5 12:45 04.04.2020
5403 Clear 26 1014 89 0 2.01 5 12:27 04.04.2020
5404 Clouds 24 1012 85 0 1.34 15 11:59 04.04.2020
5405 Clouds 25 1011 84 0 1.34 6 11:39 04.04.2020
5406 Clouds 25 1011 84 0 1.79 3 11:21 04.04.2020
5407 Clouds 25 1011 79 0 1.77 346 10:56 04.04.2020
5408 Clouds 25 1011 79 0 1.77 346 10:38 04.04.2020
5409 Clouds 25 1011 79 0 1.77 346 10:19 04.04.2020
5410 Clouds 25 1011 79 0 1.77 346 09:55 04.04.2020
5411 Clouds 22 1012 81 0 1.77 346 09:36 04.04.2020
5412 Clouds 24 1011 88 10000 2.6 40 09:18 04.04.2020
5413 Clouds 24 1011 88 10000 2.6 40 08:41 04.04.2020
5414 Clouds 23 1011 88 10000 2.6 40 08:21 04.04.2020
5415 Clouds 23 1011 88 10000 2.6 40 08:21 04.04.2020
5416 Clouds 23 1013 78 0 1.43 344 07:46 04.04.2020
5417 Clouds 27 1012 72 0 0.45 37 07:26 04.04.2020
5418 Clouds 27 1015 89 0 1.43 344 06:53 04.04.2020
5419 Clouds 26 1013 88 10000 2.1 40 06:20 04.04.2020
5420 Clouds 26 1013 88 10000 2.1 40 05:43 04.04.2020
5421 Clouds 26 1013 88 10000 2.1 40 05:43 04.04.2020
5422 Clouds 26 1013 88 10000 2.1 40 05:24 04.04.2020
5423 Clouds 27 1015 89 0 1.98 343 04:31 04.04.2020
5424 Clouds 27 1015 89 0 1.98 343 03:51 04.04.2020
5425 Clouds 27 1011 78 10000 2.1 170 02:52 04.04.2020
5426 Clouds 27 1011 78 10000 2.1 170 02:33 04.04.2020
5427 Clouds 27 1011 74 10000 2.1 150 01:55 04.04.2020
5428 Clouds 27 1011 74 10000 2.1 150 01:25 04.04.2020
5429 Clouds 27 1010 74 10000 4.1 180 00:49 04.04.2020
5430 Clouds 28 1010 74 10000 4.1 180 00:30 04.04.2020
5431 Clouds 28 1010 74 10000 4.1 220 23:40 03.04.2020
5432 Clouds 29 1010 74 10000 4.1 220 23:21 03.04.2020
5433 Clouds 29 1010 74 10000 4.1 220 22:58 03.04.2020
5434 Clouds 29 1011 70 10000 4.1 220 22:39 03.04.2020
5435 Clouds 29 1011 70 10000 4.1 220 22:18 03.04.2020
5436 Clouds 29 1011 66 10000 4.1 210 21:44 03.04.2020
5437 Clouds 30 1013 62 10000 5.1 180 21:25 03.04.2020
5438 Clouds 30 1013 62 10000 5.1 180 20:57 03.04.2020
5439 Clouds 30 1013 62 10000 5.1 180 20:38 03.04.2020
5440 Clouds 30 1013 62 10000 5.1 180 20:19 03.04.2020
5441 Clouds 30 1013 62 10000 6.2 180 19:57 03.04.2020
5442 Clouds 30 1013 62 10000 6.2 180 19:39 03.04.2020
5443 Clouds 30 1013 62 10000 6.2 180 19:21 03.04.2020
5444 Clouds 29 1014 66 10000 5.1 160 18:59 03.04.2020
5445 Clouds 29 1014 66 10000 5.1 160 18:59 03.04.2020
5446 Clouds 29 1014 66 10000 5.1 160 18:41 03.04.2020
5447 Clouds 29 1014 66 10000 5.1 160 18:23 03.04.2020
5448 Clouds 29 1015 66 10000 5.1 120 17:55 03.04.2020
5449 Clouds 29 1015 66 10000 5.1 120 17:37 03.04.2020
5450 Clouds 28 1015 78 10000 3.1 120 17:18 03.04.2020
5451 Clouds 28 1015 78 10000 3.1 120 16:44 03.04.2020
5452 Clouds 28 1015 78 10000 3.1 120 16:22 03.04.2020
5453 Clouds 27 1014 83 10000 2.84 160 15:58 03.04.2020
5454 Clouds 27 1014 83 10000 2.84 160 15:39 03.04.2020
5455 Clouds 26 1014 83 10000 2.84 160 15:20 03.04.2020
5456 Clouds 23 1013 88 10000 0.63 254 14:56 03.04.2020
5457 Clear 26 1016 93 0 0.63 254 14:37 03.04.2020
5458 Clouds 25 1013 100 10000 2.1 60 14:19 03.04.2020
5459 Clouds 24 1013 100 10000 2.1 60 13:43 03.04.2020
5460 Clouds 23 1013 100 10000 2.1 60 13:25 03.04.2020
5461 Clear 24 1015 100 0 0.47 259 12:55 03.04.2020
5462 Clear 25 1015 93 0 0.47 259 12:37 03.04.2020
5463 Clouds 20 1011 94 10000 2.1 80 12:18 03.04.2020
5464 Clouds 22 1011 94 10000 2.1 80 11:41 03.04.2020
5465 Clouds 22 1011 94 10000 2.1 80 11:23 03.04.2020
5466 Clouds 22 1011 94 10000 2.1 80 10:59 03.04.2020
5467 Clear 24 1012 82 0 1.27 285 10:40 03.04.2020
5468 Clear 24 1012 82 0 1.27 285 10:20 03.04.2020
5469 Clear 24 1012 81 0 1.27 285 09:59 03.04.2020
5470 Clear 26 1012 78 0 1.27 285 09:40 03.04.2020
5471 Clouds 24 1012 94 10000 1.27 285 09:22 03.04.2020
5472 Clouds 24 1012 94 10000 1.33 247 08:57 03.04.2020
5473 Clouds 23 1012 94 10000 1.33 247 08:38 03.04.2020
5474 Clouds 24 1012 94 10000 1.33 247 08:20 03.04.2020
5475 Clouds 22 1013 77 0 1.33 247 07:46 03.04.2020
5476 Clouds 22 1013 77 0 1.33 247 07:28 03.04.2020
5477 Clouds 26 1013 79 0 1.34 222 06:41 03.04.2020
5478 Clouds 25 1014 88 10000 2.1 160 06:22 03.04.2020
5479 Clouds 25 1014 88 10000 2.1 160 05:39 03.04.2020
5480 Clouds 26 1015 93 0 1.54 228 03:42 03.04.2020
5481 Clouds 26 1012 74 10000 2.1 200 02:56 03.04.2020
5482 Clouds 26 1012 74 10000 2.1 200 02:18 03.04.2020
5483 Clouds 27 1012 69 10000 2.1 200 01:22 03.04.2020
5484 Clouds 27 1011 65 10000 3.6 210 00:34 03.04.2020
5485 Clouds 28 1011 62 10000 3.6 210 23:58 02.04.2020
5486 Clouds 28 1011 62 10000 3.6 210 23:40 02.04.2020
5487 Clouds 28 1011 62 10000 3.6 210 23:21 02.04.2020
5488 Clouds 28 1011 62 10000 3.6 210 22:57 02.04.2020
5489 Clouds 28 1012 62 10000 3.74 169 22:37 02.04.2020
5490 Clouds 28 1012 62 10000 3.74 169 22:18 02.04.2020
5491 Clouds 29 1012 58 10000 3.1 180 21:39 02.04.2020
5492 Clouds 29 1013 49 10000 5.1 180 21:19 02.04.2020
5493 Clouds 30 1013 49 10000 5.1 180 20:57 02.04.2020
5494 Clouds 29 1013 49 10000 5.1 180 20:39 02.04.2020
5495 Clouds 30 1013 49 10000 5.1 180 20:19 02.04.2020
5496 Clouds 29 1014 49 10000 5.1 180 19:43 02.04.2020
5497 Clouds 30 1014 49 10000 5.1 180 19:21 02.04.2020
5498 Clouds 30 1014 49 10000 5.1 180 19:21 02.04.2020
5499 Clouds 29 1014 58 10000 5.1 180 18:58 02.04.2020
5500 Clouds 29 1014 58 10000 5.1 180 18:39 02.04.2020
5501 Clouds 29 1014 58 10000 5.1 180 18:20 02.04.2020
5502 Clouds 29 1015 66 10000 5.1 180 17:55 02.04.2020
5503 Clouds 29 1015 66 10000 5.1 180 17:37 02.04.2020
5504 Clouds 29 1015 66 10000 5.1 180 17:18 02.04.2020
5505 Clouds 28 1015 74 10000 4.1 130 16:55 02.04.2020
5506 Clouds 28 1015 74 10000 4.1 130 16:36 02.04.2020
5507 Clouds 28 1015 74 10000 4.1 130 16:36 02.04.2020
5508 Clouds 28 1015 74 10000 4.1 130 16:18 02.04.2020
5509 Clouds 28 1015 74 10000 4.1 130 16:18 02.04.2020
5510 Clouds 26 1014 78 10000 3.53 170 15:44 02.04.2020
5511 Clouds 26 1014 78 10000 3.53 170 15:44 02.04.2020
5512 Clouds 25 1014 78 10000 3.53 170 15:21 02.04.2020
5513 Clouds 25 1014 78 10000 0.93 238 14:58 02.04.2020
5514 Clouds 23 1014 83 10000 2.1 50 14:39 02.04.2020
5515 Clouds 24 1014 83 10000 2.1 50 14:19 02.04.2020
5516 Clouds 23 1014 100 10000 2.1 40 13:56 02.04.2020
5517 Clouds 23 1014 100 10000 2.1 40 13:38 02.04.2020
5518 Clouds 23 1014 100 10000 2.1 40 13:19 02.04.2020
5519 Clear 24 1014 82 0 0.45 302 12:47 02.04.2020
5520 Clouds 21 1012 94 10000 2.1 80 12:21 02.04.2020
5521 Clouds 21 1012 94 10000 2.1 80 11:58 02.04.2020
5522 Clouds 22 1012 94 10000 2.1 80 11:40 02.04.2020
5523 Clouds 23 1012 94 10000 2.1 80 11:21 02.04.2020
5524 Clouds 23 1012 94 10000 2.1 80 10:57 02.04.2020
5525 Clear 23 1013 83 0 0.89 308 10:39 02.04.2020
5526 Clear 23 1012 83 0 1.23 299 10:21 02.04.2020
5527 Clear 23 1012 83 0 1.23 299 09:59 02.04.2020
5528 Clear 23 1012 83 0 1.23 299 09:41 02.04.2020
5529 Clouds 23 1013 94 10000 2.1 40 09:23 02.04.2020
5530 Clouds 23 1013 94 10000 2.1 40 08:57 02.04.2020
5531 Clouds 23 1013 94 10000 2.1 40 08:38 02.04.2020
5532 Clouds 23 1013 94 10000 2.1 40 08:19 02.04.2020
5533 Clear 24 1013 83 0 1.01 279 07:42 02.04.2020
5534 Clear 24 1013 82 0 1.01 279 07:19 02.04.2020
5535 Clouds 22 1014 88 10000 3.1 140 06:26 02.04.2020
5536 Clouds 22 1014 88 10000 3.1 140 05:59 02.04.2020
5537 Clouds 22 1014 88 10000 3.1 140 05:41 02.04.2020
5538 Clouds 26 1012 83 10000 2.73 179 02:46 02.04.2020
5539 Clouds 26 1011 78 10000 2.1 160 01:28 02.04.2020
5540 Clouds 27 1011 69 10000 2.1 170 00:42 02.04.2020
5541 Clouds 27 1011 69 10000 2.1 170 00:22 02.04.2020
5542 Clouds 28 1010 66 10000 3.1 170 23:40 01.04.2020
5543 Clouds 28 1010 66 10000 3.1 170 23:20 01.04.2020
5544 Clouds 28 1011 62 10000 4.1 190 22:57 01.04.2020
5545 Clouds 28 1011 62 10000 4.1 190 22:57 01.04.2020
5546 Clouds 28 1011 62 10000 4.1 190 22:38 01.04.2020
5547 Clouds 29 1011 62 10000 4.1 190 22:19 01.04.2020
5548 Clouds 29 1011 62 10000 4.1 200 21:41 01.04.2020
5549 Clouds 29 1012 55 10000 5.1 180 21:19 01.04.2020
5550 Clouds 29 1012 55 10000 5.1 180 20:57 01.04.2020
5551 Clouds 29 1012 55 10000 5.1 180 20:38 01.04.2020
5552 Clouds 29 1012 55 10000 5.1 180 20:20 01.04.2020
5553 Clouds 29 1012 55 10000 5.1 180 19:58 01.04.2020
5554 Clouds 29 1012 62 10000 4.1 180 19:39 01.04.2020
5555 Clouds 29 1012 62 10000 4.1 180 19:19 01.04.2020
5556 Clouds 29 1012 62 10000 4.1 180 19:19 01.04.2020
5557 Clouds 28 1013 66 10000 5.1 160 18:42 01.04.2020
5558 Clouds 28 1013 66 10000 5.1 160 18:24 01.04.2020
5559 Clouds 28 1014 66 10000 5.1 210 17:57 01.04.2020
5560 Clouds 28 1014 66 10000 5.1 210 17:38 01.04.2020
5561 Clouds 28 1014 66 10000 5.1 210 17:19 01.04.2020
5562 Clouds 28 1014 66 10000 5.1 210 16:58 01.04.2020
5563 Clouds 27 1014 74 10000 3.5 165 16:39 01.04.2020
5564 Clouds 27 1014 74 10000 3.5 165 16:21 01.04.2020
5565 Clouds 26 1014 78 10000 3.5 165 15:57 01.04.2020
5566 Clouds 26 1014 78 10000 3.5 165 15:37 01.04.2020
5567 Clouds 24 1014 78 10000 1.11 341 15:18 01.04.2020
5568 Clouds 22 1013 93 10000 1.11 341 14:41 01.04.2020
5569 Clouds 22 1013 93 10000 1.12 348 14:23 01.04.2020
5570 Clouds 22 1012 100 10000 2.1 50 13:59 01.04.2020
5571 Clouds 22 1012 100 10000 2.1 50 13:40 01.04.2020
5572 Clouds 21 1012 100 10000 2.1 50 13:20 01.04.2020
5573 Clouds 21 1012 100 10000 2.1 50 13:20 01.04.2020
5574 Clouds 21 1012 100 10000 2.1 50 12:59 01.04.2020
5575 Clear 23 1012 80 0 0.89 342 12:41 01.04.2020
5576 Clouds 22 1011 94 10000 1.5 0 12:22 01.04.2020
5577 Clouds 22 1011 94 10000 1.5 0 11:57 01.04.2020
5578 Clouds 22 1011 94 10000 1.5 0 11:38 01.04.2020
5579 Clouds 22 1011 94 10000 1.5 0 11:20 01.04.2020
5580 Clear 22 1011 79 0 1.34 349 10:40 01.04.2020
5581 Clear 23 1011 80 0 1.34 342 10:21 01.04.2020
5582 Clear 22 1011 84 0 1.12 305 09:59 01.04.2020
5583 Clear 22 1011 84 0 1.12 305 09:40 01.04.2020
5584 Clouds 22 1012 94 10000 2.1 70 09:20 01.04.2020
5585 Clouds 22 1012 94 10000 2.1 70 08:54 01.04.2020
5586 Clouds 22 1012 94 10000 2.1 70 08:36 01.04.2020
5587 Clouds 22 1012 94 10000 2.1 70 08:18 01.04.2020
5588 Clear 23 1012 81 0 0.45 66 07:40 01.04.2020
5589 Clear 21 1013 78 0 1.34 258 07:19 01.04.2020
5590 Clear 21 1013 78 0 1.34 258 06:42 01.04.2020
5591 Clouds 25 1013 83 10000 2.1 150 06:20 01.04.2020
5592 Clouds 25 1013 83 10000 2.1 150 05:28 01.04.2020
5593 Clear 22 1013 78 0 0.85 203 03:40 01.04.2020
5594 Clouds 27 1012 74 10000 2.1 140 02:59 01.04.2020
5595 Clouds 27 1012 74 10000 2.1 140 02:31 01.04.2020
5596 Clouds 27 1012 69 10000 2.1 160 01:49 01.04.2020
5597 Clouds 27 1012 69 10000 2.1 160 01:25 01.04.2020
5598 Clouds 27 1011 69 10000 3.6 150 00:47 01.04.2020
5599 Clouds 27 1011 69 10000 3.6 150 00:22 01.04.2020
5600 Clouds 28 1012 66 10000 4.6 160 23:55 31.03.2020
5601 Clouds 28 1012 66 10000 4.6 160 23:37 31.03.2020
5602 Clouds 28 1012 66 10000 4.6 160 23:19 31.03.2020
5603 Clouds 28 1012 58 10000 6.2 190 22:40 31.03.2020
5604 Clouds 29 1012 58 10000 6.2 190 22:21 31.03.2020
5605 Clouds 29 1012 58 10000 2.6 150 21:58 31.03.2020
5606 Clouds 29 1012 58 10000 2.6 150 21:58 31.03.2020
5607 Clouds 29 1012 58 10000 2.6 150 21:39 31.03.2020
5608 Clouds 29 1014 62 10000 5.1 120 21:21 31.03.2020
5609 Clouds 29 1014 62 10000 5.1 120 20:57 31.03.2020
5610 Clouds 29 1014 62 10000 5.1 120 20:37 31.03.2020
5611 Clouds 29 1014 62 10000 5.1 120 20:18 31.03.2020
5612 Clouds 29 1015 66 10000 5.1 120 19:55 31.03.2020
5613 Clouds 29 1015 66 10000 5.1 120 19:37 31.03.2020
5614 Clouds 29 1015 66 10000 5.1 120 19:18 31.03.2020
5615 Clouds 28 1016 66 10000 3.1 90 18:41 31.03.2020
5616 Clouds 28 1016 66 10000 3.1 90 18:20 31.03.2020
5617 Clouds 28 1017 69 10000 3.1 90 17:56 31.03.2020
5618 Clouds 28 1017 69 10000 3.1 90 17:56 31.03.2020
5619 Clouds 28 1017 69 10000 3.1 90 17:56 31.03.2020
5620 Clouds 28 1017 69 10000 3.1 90 17:38 31.03.2020
5621 Clouds 28 1017 69 10000 3.1 90 17:20 31.03.2020
5622 Clouds 27 1016 74 10000 4.1 90 16:42 31.03.2020
5623 Clouds 27 1016 74 10000 4.1 90 16:20 31.03.2020
5624 Clouds 27 1016 74 10000 4.1 90 15:59 31.03.2020
5625 Clouds 26 1016 78 10000 3.1 30 15:41 31.03.2020
5626 Clouds 23 1015 83 10000 2.41 69 15:23 31.03.2020
5627 Clouds 24 1015 83 10000 2.36 359 14:59 31.03.2020
5628 Clouds 24 1015 83 10000 2.36 359 14:40 31.03.2020
5629 Clouds 23 1015 83 10000 2.15 360 14:21 31.03.2020
5630 Clouds 23 1015 94 10000 2.1 10 13:54 31.03.2020
5631 Clouds 23 1015 94 10000 2.1 10 13:36 31.03.2020
5632 Clouds 22 1015 94 10000 2.1 10 13:18 31.03.2020
5633 Clouds 23 1014 94 10000 2.1 360 12:42 31.03.2020
5634 Clouds 23 1014 94 10000 2.1 360 12:20 31.03.2020
5635 Clouds 23 1013 94 10000 2.1 360 11:55 31.03.2020
5636 Clouds 23 1013 94 10000 2.1 360 11:36 31.03.2020
5637 Clouds 23 1013 94 10000 2.1 360 11:18 31.03.2020
5638 Clear 23 1014 82 0 1.34 357 10:54 31.03.2020
5639 Clear 23 1014 81 0 1.34 7 10:36 31.03.2020
5640 Clear 23 1014 81 0 1.79 9 10:18 31.03.2020
5641 Clear 23 1014 81 0 1.34 6 09:42 31.03.2020
5642 Clouds 23 1015 94 10000 2.1 20 09:24 31.03.2020
5643 Clouds 23 1015 94 10000 2.1 20 08:57 31.03.2020
5644 Clouds 23 1015 94 10000 2.1 20 08:39 31.03.2020
5645 Clouds 23 1015 94 10000 2.1 20 08:19 31.03.2020
5646 Clear 23 1015 82 0 1.79 354 07:56 31.03.2020
5647 Clear 23 1015 82 0 2.24 12 07:38 31.03.2020
5648 Clear 24 1015 81 0 1.79 359 07:19 31.03.2020
5649 Clear 23 1016 83 0 2.57 345 06:47 31.03.2020
5650 Clouds 24 1016 83 10000 2.1 50 06:22 31.03.2020
5651 Clouds 24 1016 83 10000 2.1 50 05:39 31.03.2020
5652 Clouds 25 1015 78 10000 3.1 50 03:34 31.03.2020
5653 Clouds 26 1015 74 10000 3.1 50 02:18 31.03.2020
5654 Clouds 27 1014 65 10000 3.1 40 01:45 31.03.2020
5655 Clouds 28 1014 62 10000 2.1 140 00:49 31.03.2020
5656 Clouds 28 1014 62 10000 2.1 140 00:25 31.03.2020
5657 Clouds 29 1013 58 10000 3.1 160 23:57 30.03.2020
5658 Clouds 28 1013 58 10000 3.1 160 23:37 30.03.2020
5659 Clouds 28 1014 58 10000 4.1 200 23:18 30.03.2020
5660 Clouds 29 1014 58 10000 4.1 200 22:55 30.03.2020
5661 Clouds 29 1014 58 10000 4.1 200 22:36 30.03.2020
5662 Clouds 29 1014 58 10000 4.1 180 22:18 30.03.2020
5663 Clouds 29 1014 58 10000 4.1 180 21:54 30.03.2020
5664 Clouds 29 1014 58 10000 4.1 180 21:36 30.03.2020
5665 Clouds 29 1014 58 10000 4.1 180 21:36 30.03.2020
5666 Clouds 29 1014 58 10000 4.1 180 21:36 30.03.2020
5667 Clouds 30 1018 55 10000 5.1 350 21:18 30.03.2020
5668 Clouds 30 1018 55 10000 5.1 350 20:40 30.03.2020
5669 Clouds 30 1018 55 10000 5.1 350 20:22 30.03.2020
5670 Clouds 30 1018 55 10000 5.1 350 19:59 30.03.2020
5671 Clouds 30 1019 58 10000 5.1 20 19:40 30.03.2020
5672 Clouds 30 1019 58 10000 5.1 20 19:21 30.03.2020
5673 Clouds 30 1020 58 10000 5.1 30 18:56 30.03.2020
5674 Clouds 30 1020 58 10000 5.1 30 18:37 30.03.2020
5675 Clouds 30 1020 58 10000 5.1 30 18:19 30.03.2020
5676 Clouds 29 1019 66 10000 5.1 40 17:55 30.03.2020
5677 Clouds 29 1019 66 10000 5.1 40 17:36 30.03.2020
5678 Clouds 29 1019 66 10000 5.1 40 17:18 30.03.2020
5679 Clouds 28 1019 69 10000 4.1 20 16:41 30.03.2020
5680 Clouds 28 1019 69 10000 4.1 20 16:22 30.03.2020
5681 Clouds 27 1019 69 10000 4.1 20 15:57 30.03.2020
5682 Clouds 27 1019 78 10000 4.1 360 15:57 30.03.2020
5683 Clouds 26 1019 78 10000 4.1 360 15:39 30.03.2020
5684 Clouds 26 1019 78 10000 4.1 360 15:21 30.03.2020
5685 Clouds 26 1019 78 10000 4.1 360 14:58 30.03.2020
5686 Clouds 23 1019 88 10000 3.03 7 14:38 30.03.2020
5687 Clouds 23 1019 88 10000 2.99 9 14:19 30.03.2020
5688 Clouds 23 1018 94 10000 2.1 10 13:58 30.03.2020
5689 Clouds 24 1018 94 10000 2.1 10 13:39 30.03.2020
5690 Clouds 23 1018 94 10000 2.1 10 13:20 30.03.2020
5691 Rain 24 1018 82 0 1.79 5 12:45 30.03.2020
5692 Clouds 23 1016 94 10000 2.1 10 12:22 30.03.2020
5693 Clouds 23 1016 94 10000 2.1 10 11:59 30.03.2020
5694 Clouds 23 1016 94 10000 2.1 10 11:59 30.03.2020
5695 Clouds 23 1016 94 10000 2.1 10 11:41 30.03.2020
5696 Clouds 23 1016 94 10000 2.1 10 11:22 30.03.2020
5697 Rain 24 1017 83 0 1.79 9 10:55 30.03.2020
5698 Rain 24 1017 83 0 1.79 12 10:37 30.03.2020
5699 Rain 23 1017 83 0 2.24 3 10:18 30.03.2020
5700 Rain 23 1017 83 0 2.24 354 09:40 30.03.2020
5701 Clouds 23 1017 94 10000 2.1 20 09:19 30.03.2020
5702 Clouds 23 1017 94 10000 2.1 20 09:19 30.03.2020
5703 Clouds 23 1017 94 10000 2.1 20 08:56 30.03.2020
5704 Clouds 23 1017 94 10000 2.1 20 08:36 30.03.2020
5705 Clouds 23 1017 94 10000 2.1 20 08:18 30.03.2020
5706 Clear 23 1018 83 0 2.24 358 07:42 30.03.2020
5707 Clear 24 1018 82 0 2.24 357 07:20 30.03.2020
5708 Clear 24 1019 82 0 1.79 2 06:42 30.03.2020
5709 Clouds 24 1019 83 10000 2.1 30 06:23 30.03.2020
5710 Clouds 25 1019 83 10000 2.1 30 05:39 30.03.2020
5711 Clouds 25 1018 74 10000 2.1 40 04:29 30.03.2020
5712 Clouds 26 1018 74 10000 2.1 40 03:53 30.03.2020
5713 Clouds 26 1017 74 10000 2.1 40 02:44 30.03.2020
5714 Rain 27 1016 74 10000 2.1 90 01:54 30.03.2020
5715 Rain 27 1015 69 10000 4.1 120 00:57 30.03.2020
5716 Clouds 28 1015 69 10000 4.1 120 00:26 30.03.2020
5717 Clouds 28 1015 66 10000 5.1 140 23:55 29.03.2020
5718 Clouds 29 1015 66 10000 5.1 140 23:36 29.03.2020
5719 Clouds 29 1015 66 10000 5.1 140 23:18 29.03.2020
5720 Clouds 30 1015 62 10000 5.1 140 22:40 29.03.2020
5721 Clouds 30 1015 62 10000 5.1 140 22:20 29.03.2020
5722 Clouds 30 1015 62 10000 5.1 140 21:59 29.03.2020
5723 Clouds 30 1016 62 10000 6.2 140 21:37 29.03.2020
5724 Clouds 31 1017 59 10000 4.1 180 21:19 29.03.2020
5725 Clouds 30 1017 59 10000 4.1 180 20:55 29.03.2020
5726 Clouds 31 1017 59 10000 4.1 180 20:37 29.03.2020
5727 Clouds 30 1017 59 10000 4.1 180 20:18 29.03.2020
5728 Clouds 30 1018 58 10000 3.41 70 19:55 29.03.2020
5729 Clouds 30 1018 58 10000 3.41 70 19:37 29.03.2020
5730 Clouds 30 1018 58 10000 3.41 70 19:18 29.03.2020
5731 Clouds 30 1019 58 10000 6.2 90 18:55 29.03.2020
5732 Clouds 30 1019 58 10000 6.2 90 18:55 29.03.2020
5733 Clouds 29 1019 58 10000 6.2 90 18:36 29.03.2020
5734 Clouds 29 1019 58 10000 6.2 90 18:18 29.03.2020
5735 Clouds 29 1020 74 10000 2.6 60 17:42 29.03.2020
5736 Clouds 29 1020 74 10000 2.6 60 17:23 29.03.2020
5737 Clouds 29 1020 74 10000 2.6 60 16:59 29.03.2020
5738 Clouds 28 1020 66 10000 2.6 360 16:40 29.03.2020
5739 Clouds 28 1020 66 10000 2.6 360 16:21 29.03.2020
5740 Clouds 27 1020 78 10000 3.1 360 15:58 29.03.2020
5741 Clouds 27 1020 78 10000 3.1 360 15:40 29.03.2020
5742 Clouds 26 1020 78 10000 3.1 360 15:20 29.03.2020
5743 Clouds 24 1019 88 10000 2.6 360 14:56 29.03.2020
5744 Clouds 25 1019 88 10000 2.6 360 14:37 29.03.2020
5745 Clouds 25 1019 88 10000 2.6 360 14:19 29.03.2020
5746 Clouds 24 1017 94 10000 1.5 0 13:55 29.03.2020
5747 Clouds 24 1017 94 10000 1.5 0 13:55 29.03.2020
5748 Clouds 24 1017 94 10000 1.5 0 13:36 29.03.2020
5749 Clouds 24 1017 94 10000 1.5 0 13:18 29.03.2020
5750 Rain 25 1020 100 0 3.79 358 12:54 29.03.2020
5751 Rain 24 1018 83 0 2.24 3 12:36 29.03.2020
5752 Clouds 23 1016 94 10000 1.5 0 12:18 29.03.2020
5753 Clouds 23 1016 94 10000 1.5 0 12:18 29.03.2020
5754 Clouds 22 1016 94 10000 1.5 0 11:38 29.03.2020
5755 Clouds 23 1016 94 10000 1.5 0 11:20 29.03.2020
5756 Rain 23 1016 87 0 0.45 34 10:40 29.03.2020
5757 Rain 23 1016 87 0 0.45 34 10:21 29.03.2020
5758 Rain 23 1016 87 0 0.45 34 09:57 29.03.2020
5759 Rain 23 1016 87 0 3.76 348 09:38 29.03.2020
5760 Clouds 23 1017 94 10000 1.5 360 09:18 29.03.2020
5761 Clouds 23 1017 94 10000 1.5 360 09:18 29.03.2020
5762 Clouds 23 1017 94 10000 1.5 360 08:45 29.03.2020
5763 Clouds 23 1017 94 10000 1.5 360 08:26 29.03.2020
5764 Clear 24 1017 85 0 2.24 14 07:47 29.03.2020
5765 Clear 24 1017 84 0 2.68 6 07:23 29.03.2020
5766 Clear 24 1017 83 0 2.24 3 06:40 29.03.2020
5767 Clear 25 1019 100 0 2.81 353 04:56 29.03.2020
5768 Clear 25 1019 100 0 2.81 353 03:41 29.03.2020
5769 Clouds 26 1015 78 10000 1.5 0 03:20 29.03.2020
5770 Clouds 26 1015 78 10000 1.5 0 01:43 29.03.2020
5771 Clouds 26 1015 78 10000 1.5 0 01:22 29.03.2020
5772 Clouds 26 1015 78 10000 2.1 50 00:45 29.03.2020
5773 Clouds 26 1015 78 10000 2.1 50 00:27 29.03.2020
5774 Clouds 27 1014 69 10000 2.1 80 23:41 28.03.2020
5775 Clouds 27 1014 69 10000 2.1 80 23:22 28.03.2020
5776 Clouds 28 1014 66 10000 2.6 150 22:46 28.03.2020
5777 Clouds 29 1014 66 10000 2.6 150 22:23 28.03.2020
5778 Clouds 29 1014 66 10000 2.6 150 21:59 28.03.2020
5779 Clouds 29 1014 58 10000 3.1 150 21:39 28.03.2020
5780 Clouds 29 1014 58 10000 3.1 150 21:21 28.03.2020
5781 Clouds 29 1014 62 10000 3.6 140 20:57 28.03.2020
5782 Clouds 28 1014 62 10000 3.6 140 20:38 28.03.2020
5783 Clouds 30 1016 62 10000 6.2 360 20:20 28.03.2020
5784 Clouds 30 1016 62 10000 6.2 360 19:55 28.03.2020
5785 Clouds 30 1016 62 10000 6.2 360 19:36 28.03.2020
5786 Clouds 30 1016 62 10000 6.2 360 19:18 28.03.2020
5787 Clouds 30 1016 66 10000 6.2 360 18:42 28.03.2020
5788 Clouds 31 1016 66 10000 6.2 360 18:20 28.03.2020
5789 Clouds 30 1017 70 10000 5.1 360 17:43 28.03.2020
5790 Clouds 30 1017 70 10000 5.1 360 17:24 28.03.2020
5791 Clouds 29 1017 74 10000 6.2 360 16:59 28.03.2020
5792 Clouds 29 1017 74 10000 6.2 360 16:39 28.03.2020
5793 Clouds 28 1017 74 10000 6.2 360 16:18 28.03.2020
5794 Clouds 28 1017 78 10000 5.1 360 15:40 28.03.2020
5795 Clouds 27 1017 78 10000 5.1 360 15:20 28.03.2020
5796 Clouds 27 1017 78 10000 5.1 360 14:58 28.03.2020
5797 Clouds 26 1017 83 10000 5.1 360 14:40 28.03.2020
5798 Clouds 26 1017 83 10000 5.1 360 14:21 28.03.2020
5799 Clouds 23 1016 94 10000 2.6 360 13:43 28.03.2020
5800 Clouds 23 1016 94 10000 2.6 360 13:23 28.03.2020
5801 Clouds 23 1015 94 10000 2.1 360 12:41 28.03.2020
5802 Clouds 23 1015 94 10000 2.1 360 12:22 28.03.2020
5803 Clear 24 1017 95 0 3.5 357 11:44 28.03.2020
5804 Clouds 23 1013 88 10000 2.1 20 11:25 28.03.2020
5805 Clouds 22 1013 88 10000 2.1 20 10:58 28.03.2020
5806 Clouds 22 1013 88 10000 2.1 20 10:38 28.03.2020
5807 Clouds 22 1013 88 10000 2.1 20 10:19 28.03.2020
5808 Clear 22 1014 84 0 3.26 354 09:43 28.03.2020
5809 Clear 23 1014 80 0 1.79 5 09:24 28.03.2020
5810 Clear 23 1014 80 0 1.79 8 08:57 28.03.2020
5811 Clear 23 1013 80 0 2.24 3 08:39 28.03.2020
5812 Clear 23 1013 80 0 2.24 3 08:39 28.03.2020
5813 Clouds 23 1014 88 10000 2.1 360 08:20 28.03.2020
5814 Clouds 23 1014 88 10000 2.1 360 07:44 28.03.2020
5815 Rain 23 1014 82 0 2.92 1 06:59 28.03.2020
5816 Rain 24 1017 95 0 2.92 1 06:35 28.03.2020
5817 Rain 24 1017 95 0 2.92 1 05:43 28.03.2020
5818 Clouds 24 1015 88 10000 2.1 360 05:21 28.03.2020
5819 Clouds 24 1015 88 10000 2.1 360 04:41 28.03.2020
5820 Clouds 24 1017 95 0 3.18 6 03:42 28.03.2020
5821 Clouds 25 1013 88 10000 2.81 14 01:57 28.03.2020
5822 Clouds 25 1013 88 10000 3.05 10 01:26 28.03.2020
5823 Clouds 25 1013 88 10000 3.05 10 00:59 28.03.2020
5824 Clouds 25 1012 83 10000 3.05 10 00:36 28.03.2020
5825 Rain 26 1012 83 8000 2.1 180 23:56 27.03.2020
5826 Rain 26 1012 83 8000 2.1 180 23:38 27.03.2020
5827 Rain 26 1012 83 8000 2.1 180 23:38 27.03.2020
5828 Rain 26 1012 83 8000 2.1 180 23:19 27.03.2020
5829 Rain 27 1012 83 7000 2.1 160 22:56 27.03.2020
5830 Rain 27 1012 83 7000 2.1 160 22:37 27.03.2020
5831 Rain 27 1012 83 7000 2.1 160 22:18 27.03.2020
5832 Rain 27 1012 83 7000 2.1 160 22:18 27.03.2020
5833 Rain 28 1012 69 8000 3.1 10 21:42 27.03.2020
5834 Rain 28 1012 69 8000 3.1 10 21:24 27.03.2020
5835 Clouds 28 1012 62 10000 3.1 180 20:58 27.03.2020
5836 Clouds 28 1012 62 10000 3.1 180 20:40 27.03.2020
5837 Clouds 28 1014 66 10000 4.1 360 20:20 27.03.2020
5838 Clouds 28 1014 66 10000 4.1 360 19:57 27.03.2020
5839 Clouds 29 1014 66 10000 4.1 360 19:38 27.03.2020
5840 Clouds 29 1014 66 10000 4.1 360 19:20 27.03.2020
5841 Clouds 28 1014 69 10000 3.1 10 18:44 27.03.2020
5842 Clouds 28 1014 69 10000 3.1 10 18:44 27.03.2020
5843 Clouds 28 1014 69 10000 3.1 10 18:23 27.03.2020
5844 Clouds 29 1015 66 10000 2.1 130 17:57 27.03.2020
5845 Clouds 29 1015 66 10000 2.1 130 17:38 27.03.2020
5846 Clouds 29 1015 66 10000 2.1 130 17:19 27.03.2020
5847 Clouds 29 1015 69 10000 2.1 90 16:44 27.03.2020
5848 Clouds 29 1015 69 10000 2.1 90 16:25 27.03.2020
5849 Clouds 29 1015 69 10000 2.1 90 16:25 27.03.2020
5850 Clouds 29 1015 69 10000 2.1 90 16:25 27.03.2020
5851 Clouds 27 1014 78 10000 2.1 40 15:45 27.03.2020
5852 Clouds 27 1014 78 10000 2.1 40 15:27 27.03.2020
5853 Clouds 26 1014 83 10000 2.1 40 14:57 27.03.2020
5854 Clouds 26 1014 83 10000 2.1 40 14:39 27.03.2020
5855 Clouds 25 1014 83 10000 2.1 40 14:21 27.03.2020
5856 Clouds 25 1013 94 10000 2.56 14 13:43 27.03.2020
5857 Clouds 24 1013 94 10000 2.56 14 13:22 27.03.2020
5858 Rain 24 1014 84 0 1.34 59 12:59 27.03.2020
5859 Rain 24 1013 86 0 1.34 46 12:41 27.03.2020
5860 Rain 24 1013 86 0 1.34 26 12:19 27.03.2020
5861 Rain 24 1013 85 0 0.89 26 11:43 27.03.2020
5862 Rain 24 1012 85 0 1.34 27 11:25 27.03.2020
5863 Rain 24 1012 86 0 0.89 14 10:57 27.03.2020
5864 Rain 24 1012 86 0 0.89 346 10:39 27.03.2020
5865 Rain 24 1012 86 0 0.89 353 10:20 27.03.2020
5866 Rain 24 1012 87 0 0.89 342 09:58 27.03.2020
5867 Rain 24 1012 88 0 0.89 312 09:38 27.03.2020
5868 Rain 24 1012 88 0 0.89 337 09:20 27.03.2020
5869 Rain 24 1012 90 0 0.89 313 08:57 27.03.2020
5870 Rain 24 1012 89 0 1.34 283 08:39 27.03.2020
5871 Rain 24 1012 90 0 0.89 301 08:20 27.03.2020
5872 Rain 24 1012 90 0 1.34 269 07:52 27.03.2020
5873 Rain 25 1013 89 0 0.45 285 07:26 27.03.2020
5874 Rain 25 1016 100 0 1.7 16 06:55 27.03.2020
5875 Rain 25 1016 100 0 1.7 16 06:37 27.03.2020
5876 Rain 26 1016 100 0 1.7 16 05:28 27.03.2020
5877 Rain 26 1016 100 0 0.75 1 02:49 27.03.2020
5878 Rain 26 1015 100 0 1.37 160 01:36 27.03.2020
5879 Rain 26 1015 97 0 1.34 169 00:53 27.03.2020
5880 Rain 26 1015 97 0 1.34 169 00:32 27.03.2020
5881 Rain 26 1014 96 0 1.34 169 23:44 26.03.2020
5882 Clouds 27 1012 66 10000 4.1 120 23:23 26.03.2020
5883 Clouds 27 1012 66 10000 4.1 120 22:59 26.03.2020
5884 Clouds 28 1012 66 10000 4.1 120 22:39 26.03.2020
5885 Clouds 28 1012 66 10000 4.1 120 22:20 26.03.2020
5886 Clouds 28 1013 66 10000 5.1 160 21:57 26.03.2020
5887 Clouds 28 1013 66 10000 5.1 160 21:39 26.03.2020
5888 Clouds 28 1013 66 10000 5.1 160 21:20 26.03.2020
5889 Clouds 29 1013 58 10000 5.1 120 20:58 26.03.2020
5890 Clouds 29 1013 58 10000 5.1 120 20:38 26.03.2020
5891 Clouds 29 1013 58 10000 5.1 120 20:38 26.03.2020
5892 Clouds 29 1014 58 10000 5.1 160 20:20 26.03.2020
5893 Clouds 29 1014 58 10000 5.1 160 20:20 26.03.2020
5894 Clouds 29 1014 58 10000 5.1 160 19:55 26.03.2020
5895 Clouds 29 1014 58 10000 5.1 160 19:37 26.03.2020
5896 Clouds 29 1014 58 10000 5.1 160 19:19 26.03.2020
5897 Clouds 29 1014 62 10000 4.1 160 18:55 26.03.2020
5898 Clouds 29 1014 62 10000 4.1 160 18:36 26.03.2020
5899 Clouds 29 1014 62 10000 4.1 160 18:18 26.03.2020
5900 Clouds 29 1015 58 10000 5.1 120 17:42 26.03.2020
5901 Clouds 29 1015 58 10000 5.1 120 17:18 26.03.2020
5902 Clouds 28 1015 61 10000 5.1 120 16:45 26.03.2020
5903 Clouds 28 1015 61 10000 5.1 120 16:45 26.03.2020
5904 Clouds 28 1015 61 10000 5.1 120 16:26 26.03.2020
5905 Clouds 28 1015 61 10000 5.1 120 15:58 26.03.2020
5906 Clouds 27 1014 74 10000 3.1 90 15:39 26.03.2020
5907 Clouds 27 1014 74 10000 3.1 90 15:20 26.03.2020
5908 Clouds 26 1014 78 10000 1.92 101 14:57 26.03.2020
5909 Clouds 26 1014 78 10000 1.92 101 14:37 26.03.2020
5910 Clouds 25 1014 78 10000 1.34 349 14:18 26.03.2020
5911 Clouds 24 1013 88 10000 1.34 349 13:41 26.03.2020
5912 Clouds 24 1013 88 10000 1.32 351 13:22 26.03.2020
5913 Clear 24 1017 100 0 1.32 351 12:54 26.03.2020
5914 Clear 24 1017 100 0 1.32 351 12:36 26.03.2020
5915 Clear 24 1014 82 0 1.34 30 12:18 26.03.2020
5916 Clear 24 1014 82 0 0.89 357 11:43 26.03.2020
5917 Clear 21 1013 90 0 1.82 354 11:19 26.03.2020
5918 Clear 23 1013 85 0 1.82 354 10:42 26.03.2020
5919 Clear 23 1013 85 0 1.82 354 10:42 26.03.2020
5920 Clear 24 1013 80 0 0.89 352 10:20 26.03.2020
5921 Clear 24 1013 80 0 1.34 11 09:55 26.03.2020
5922 Clear 24 1013 80 0 1.34 11 09:55 26.03.2020
5923 Clear 24 1013 80 0 1.34 11 09:55 26.03.2020
5924 Clear 24 1013 80 0 0.89 337 09:37 26.03.2020
5925 Clear 24 1013 80 0 0.89 16 09:19 26.03.2020
5926 Clear 24 1013 79 0 1.34 353 08:42 26.03.2020
5927 Clear 24 1014 79 0 0.89 334 08:24 26.03.2020
5928 Rain 24 1014 78 0 0.45 355 07:57 26.03.2020
5929 Rain 24 1014 78 0 0.89 39 07:38 26.03.2020
5930 Rain 24 1014 79 0 1.34 46 07:19 26.03.2020
5931 Rain 24 1015 79 0 0.89 54 06:33 26.03.2020
5932 Rain 24 1015 78 0 1.34 66 05:48 26.03.2020
5933 Rain 26 1017 95 0 2.36 66 03:46 26.03.2020
5934 Rain 26 1017 95 0 2.36 66 02:58 26.03.2020
5935 Rain 27 1017 94 0 2.1 125 01:51 26.03.2020
5936 Rain 27 1017 94 0 2.1 125 01:19 26.03.2020
5937 Rain 27 1016 94 0 1.56 131 00:32 26.03.2020
5938 Rain 27 1016 92 0 1.56 131 23:44 25.03.2020
5939 Clouds 28 1013 66 10000 6.2 150 23:26 25.03.2020
5940 Clouds 28 1013 66 10000 6.2 150 22:54 25.03.2020
5941 Clouds 29 1013 66 10000 6.2 150 22:36 25.03.2020
5942 Clouds 29 1013 66 10000 6.2 150 22:18 25.03.2020
5943 Clouds 29 1013 58 10000 5.1 180 21:42 25.03.2020
5944 Clouds 29 1013 58 10000 5.1 180 21:24 25.03.2020
5945 Clouds 29 1014 58 10000 5.1 180 20:58 25.03.2020
5946 Clouds 29 1014 58 10000 5.1 180 20:38 25.03.2020
5947 Clouds 29 1014 58 10000 5.1 180 20:19 25.03.2020
5948 Clouds 29 1015 58 10000 2.6 120 19:55 25.03.2020
5949 Clouds 29 1015 58 10000 2.6 120 19:36 25.03.2020
5950 Clouds 29 1015 58 10000 2.6 120 19:18 25.03.2020
5951 Clouds 29 1016 62 10000 3.19 128 18:42 25.03.2020
5952 Clouds 29 1016 62 10000 3.19 128 18:24 25.03.2020
5953 Clouds 29 1017 62 10000 2.6 30 17:58 25.03.2020
5954 Clouds 29 1017 62 10000 2.6 30 17:40 25.03.2020
5955 Clouds 29 1017 62 10000 2.6 30 17:21 25.03.2020
5956 Clouds 29 1017 66 10000 5.1 60 16:55 25.03.2020
5957 Clouds 28 1017 66 10000 5.1 60 16:37 25.03.2020
5958 Clouds 28 1017 66 10000 5.1 60 16:19 25.03.2020
5959 Clear 26 1019 89 0 3.22 42 15:41 25.03.2020
5960 Clouds 26 1017 83 10000 3.22 42 15:20 25.03.2020
5961 Clouds 26 1017 83 10000 3.22 42 14:56 25.03.2020
5962 Clouds 25 1017 83 10000 3.22 42 14:37 25.03.2020
5963 Clouds 24 1017 83 10000 3.23 345 14:19 25.03.2020
5964 Clouds 24 1017 88 10000 3.23 345 13:42 25.03.2020
5965 Clouds 23 1017 88 10000 3.23 345 13:22 25.03.2020
5966 Clouds 22 1019 96 0 3.13 343 12:38 25.03.2020
5967 Clouds 22 1019 96 0 3.13 343 12:20 25.03.2020
5968 Clouds 23 1019 89 0 3.13 343 11:57 25.03.2020
5969 Clouds 23 1019 89 0 3.13 343 11:39 25.03.2020
5970 Clouds 23 1019 89 0 3.6 340 11:20 25.03.2020
5971 Clouds 23 1018 89 0 3.6 340 10:57 25.03.2020
5972 Clouds 23 1018 89 0 3.6 340 10:39 25.03.2020
5973 Clouds 23 1018 89 0 3.6 340 10:18 25.03.2020
5974 Clouds 23 1018 89 0 3.6 340 09:43 25.03.2020
5975 Clouds 23 1018 89 0 3.6 340 09:25 25.03.2020
5976 Clouds 23 1018 89 0 3.6 340 08:58 25.03.2020
5977 Clouds 23 1018 89 0 3.6 340 08:58 25.03.2020
5978 Clouds 22 1016 78 0 1.79 341 08:39 25.03.2020
5979 Clear 23 1016 78 0 2.24 346 08:19 25.03.2020
5980 Clear 23 1017 79 0 1.34 350 07:41 25.03.2020
5981 Clear 23 1017 78 0 1.79 353 07:23 25.03.2020
5982 Clear 23 1017 78 0 1.79 4 06:50 25.03.2020
5983 Clear 23 1020 89 0 3.04 336 06:28 25.03.2020
5984 Clear 23 1020 89 0 3.04 336 05:57 25.03.2020
5985 Clear 23 1021 89 0 3.04 336 05:37 25.03.2020
5986 Clear 23 1021 89 0 3.36 357 04:40 25.03.2020
5987 Clear 23 1021 89 0 3.36 357 03:49 25.03.2020
5988 Clear 23 1021 89 0 3.36 357 03:29 25.03.2020
5989 Clouds 25 1020 83 0 4.27 30 01:25 25.03.2020
5990 Clouds 26 1019 79 0 4.11 31 00:49 25.03.2020
5991 Clouds 26 1019 79 0 4.11 31 00:25 25.03.2020
5992 Clouds 27 1018 75 0 4.11 31 23:46 24.03.2020
5993 Clouds 28 1016 58 10000 5.1 30 23:28 24.03.2020
5994 Clouds 29 1016 58 10000 5.1 30 22:57 24.03.2020
5995 Clouds 29 1016 58 10000 5.1 30 22:38 24.03.2020
5996 Clouds 29 1016 58 10000 5.1 30 22:19 24.03.2020
5997 Clouds 30 1016 55 10000 6.2 30 21:56 24.03.2020
5998 Clouds 30 1016 55 10000 6.2 30 21:38 24.03.2020
5999 Clouds 30 1016 55 10000 6.2 30 21:18 24.03.2020
6000 Clouds 30 1017 52 10000 5.1 50 20:56 24.03.2020
6001 Clouds 30 1017 52 10000 5.1 50 20:38 24.03.2020
6002 Clouds 30 1017 52 10000 5.1 50 20:20 24.03.2020
6003 Clouds 30 1018 52 10000 7.7 10 19:44 24.03.2020
6004 Clouds 30 1018 52 10000 7.7 10 19:19 24.03.2020
6005 Clouds 30 1019 58 10000 5.1 30 18:56 24.03.2020
6006 Clouds 30 1019 58 10000 5.1 30 18:37 24.03.2020
6007 Clouds 30 1019 58 10000 5.1 30 18:18 24.03.2020
6008 Clouds 29 1021 76 0 3.36 51 17:42 24.03.2020
6009 Clouds 29 1020 69 10000 5.1 20 17:23 24.03.2020
6010 Clouds 28 1020 69 10000 5.1 20 16:58 24.03.2020
6011 Clouds 28 1020 69 10000 5.1 20 16:40 24.03.2020
6012 Clouds 28 1020 69 10000 5.1 20 16:22 24.03.2020
6013 Clouds 28 1020 69 10000 5.1 20 15:58 24.03.2020
6014 Clouds 27 1020 74 10000 5.7 360 15:38 24.03.2020
6015 Clouds 27 1020 74 10000 5.7 360 15:20 24.03.2020
6016 Clouds 25 1020 78 10000 3.1 360 14:43 24.03.2020
6017 Clouds 25 1020 78 10000 3.1 360 14:20 24.03.2020
6018 Clouds 24 1020 88 10000 3.1 360 13:44 24.03.2020
6019 Clouds 24 1020 88 10000 3.1 360 13:24 24.03.2020
6020 Clouds 23 1022 100 0 3.39 1 12:58 24.03.2020
6021 Clouds 23 1022 100 0 3.39 1 12:38 24.03.2020
6022 Clouds 23 1022 100 0 3.39 1 12:20 24.03.2020
6023 Clouds 23 1021 100 0 3.39 1 11:40 24.03.2020
6024 Clouds 23 1018 94 10000 2.1 10 11:20 24.03.2020
6025 Clouds 23 1018 94 10000 2.1 10 10:43 24.03.2020
6026 Clouds 23 1018 94 10000 2.1 10 10:20 24.03.2020
6027 Clouds 23 1018 94 10000 2.1 10 10:20 24.03.2020
6028 Clouds 22 1018 94 10000 2.1 10 09:59 24.03.2020
6029 Clouds 23 1021 100 0 2.83 356 09:41 24.03.2020
6030 Clouds 23 1021 100 0 2.83 356 09:41 24.03.2020
6031 Clouds 23 1021 100 0 2.83 356 09:22 24.03.2020
6032 Clouds 22 1019 92 0 2.83 356 08:39 24.03.2020
6033 Clouds 23 1019 88 10000 2.1 10 08:21 24.03.2020
6034 Clouds 23 1019 88 10000 2.1 10 07:50 24.03.2020
6035 Clouds 23 1019 88 10000 2.1 10 07:25 24.03.2020
6036 Clouds 23 1019 91 0 0.45 11 06:58 24.03.2020
6037 Clouds 23 1020 90 0 0.89 345 06:32 24.03.2020
6038 Clouds 23 1020 83 10000 2.1 40 05:27 24.03.2020
6039 Clouds 23 1020 83 10000 2.1 40 04:31 24.03.2020
6040 Clouds 23 1020 88 10000 2.1 80 03:18 24.03.2020
6041 Clouds 24 1019 88 10000 2.1 10 01:49 24.03.2020
6042 Clouds 24 1019 85 10000 2.1 320 00:49 24.03.2020
6043 Clouds 24 1019 85 10000 2.1 320 00:26 24.03.2020
6044 Rain 24 1018 83 8000 2.1 40 23:46 23.03.2020
6045 Rain 24 1018 83 8000 2.1 40 23:26 23.03.2020
6046 Thunderstorm 24 1017 83 7000 4.1 270 22:56 23.03.2020
6047 Thunderstorm 24 1017 83 7000 4.1 270 22:37 23.03.2020
6048 Thunderstorm 24 1017 83 7000 4.1 270 22:19 23.03.2020
6049 Thunderstorm 24 1018 88 7000 3.1 270 21:44 23.03.2020
6050 Rain 24 1019 88 7000 3.37 39 21:21 23.03.2020
6051 Rain 24 1019 88 7000 3.37 39 20:58 23.03.2020
6052 Rain 24 1019 88 7000 3.37 39 20:40 23.03.2020
6053 Rain 23 1019 88 7000 3.37 39 20:22 23.03.2020
6054 Rain 25 1020 83 7000 6.2 150 19:46 23.03.2020
6055 Rain 25 1020 83 7000 6.2 150 19:28 23.03.2020
6056 Clouds 26 1020 78 10000 6.2 360 18:59 23.03.2020
6057 Clouds 26 1020 78 10000 6.2 360 18:41 23.03.2020
6058 Clouds 26 1020 78 10000 6.2 360 18:22 23.03.2020
6059 Rain 27 1020 74 6000 4.6 80 17:56 23.03.2020
6060 Clouds 28 1021 74 10000 6.2 360 17:37 23.03.2020
6061 Clouds 28 1021 74 10000 6.2 360 17:18 23.03.2020
6062 Clouds 28 1021 78 10000 5.1 360 16:43 23.03.2020
6063 Clouds 28 1021 78 10000 5.1 360 16:24 23.03.2020
6064 Clouds 26 1021 83 10000 5.1 360 15:42 23.03.2020
6065 Clouds 26 1021 83 10000 5.1 360 15:21 23.03.2020
6066 Clouds 25 1021 83 10000 3.1 30 14:55 23.03.2020
6067 Clouds 25 1021 83 10000 3.1 30 14:36 23.03.2020
6068 Clouds 25 1021 83 10000 3.1 30 14:18 23.03.2020
6069 Rain 23 1019 94 8000 4.14 7 13:41 23.03.2020
6070 Rain 23 1019 94 8000 3.95 11 13:22 23.03.2020
6071 Clouds 23 1019 94 10000 2.6 10 12:55 23.03.2020
6072 Clouds 23 1019 94 10000 2.6 10 12:37 23.03.2020
6073 Clouds 23 1019 94 10000 2.6 10 12:19 23.03.2020
6074 Rain 22 1021 87 0 3.95 11 11:42 23.03.2020
6075 Thunderstorm 22 1018 94 10000 2.1 10 11:21 23.03.2020
6076 Thunderstorm 22 1018 94 10000 2.1 10 10:58 23.03.2020
6077 Thunderstorm 22 1018 94 10000 2.1 10 10:39 23.03.2020
6078 Thunderstorm 22 1018 94 10000 2.1 10 10:21 23.03.2020
6079 Rain 22 1019 85 0 0.89 3 09:48 23.03.2020
6080 Rain 22 1019 85 0 0.89 3 09:21 23.03.2020
6081 Rain 22 1019 85 0 0.89 3 09:21 23.03.2020
6082 Rain 22 1019 85 0 0.89 3 08:58 23.03.2020
6083 Rain 23 1019 86 0 0.45 39 08:37 23.03.2020
6084 Thunderstorm 23 1019 88 10000 2.1 360 08:19 23.03.2020
6085 Thunderstorm 23 1019 88 10000 2.1 360 07:48 23.03.2020
6086 Thunderstorm 23 1019 88 10000 2.1 360 07:29 23.03.2020
6087 Rain 23 1020 86 0 1.34 26 06:52 23.03.2020
6088 Rain 23 1020 85 0 1.79 41 06:20 23.03.2020
6089 Rain 23 1020 84 0 2.24 23 05:34 23.03.2020
6090 Rain 24 1023 91 0 2.77 355 03:45 23.03.2020
6091 Clouds 25 1019 78 10000 3.1 40 02:37 23.03.2020
6092 Clouds 26 1019 78 10000 4.6 40 01:34 23.03.2020
6093 Clouds 26 1018 78 10000 3.1 30 00:40 23.03.2020
6094 Clouds 28 1017 69 10000 4.1 360 23:53 22.03.2020
6095 Clouds 28 1017 69 10000 4.1 360 23:27 22.03.2020
6096 Clouds 28 1017 62 10000 5.1 360 22:56 22.03.2020
6097 Clouds 29 1017 62 10000 5.1 360 22:36 22.03.2020
6098 Clouds 28 1017 62 10000 5.1 360 22:18 22.03.2020
6099 Clouds 29 1017 55 10000 5.7 360 21:39 22.03.2020
6100 Clouds 29 1017 55 10000 5.7 360 21:20 22.03.2020
6101 Clouds 29 1018 52 10000 5.1 340 20:56 22.03.2020
6102 Clouds 30 1018 52 10000 5.1 340 20:38 22.03.2020
6103 Clouds 30 1018 52 10000 5.1 340 20:20 22.03.2020
6104 Clouds 30 1019 52 10000 6.2 350 19:55 22.03.2020
6105 Clouds 30 1019 52 10000 6.2 350 19:36 22.03.2020
6106 Clouds 30 1019 52 10000 6.2 350 19:18 22.03.2020
6107 Clouds 30 1020 55 10000 5.1 350 18:41 22.03.2020
6108 Clouds 30 1020 55 10000 5.1 350 18:23 22.03.2020
6109 Clouds 29 1020 58 10000 5.1 20 17:59 22.03.2020
6110 Clouds 29 1020 58 10000 5.1 20 17:39 22.03.2020
6111 Clouds 29 1020 58 10000 5.1 20 17:21 22.03.2020
6112 Clouds 28 1021 61 10000 5.1 360 16:59 22.03.2020
6113 Clouds 28 1021 61 10000 5.1 360 16:41 22.03.2020
6114 Clouds 28 1021 61 10000 5.1 360 16:22 22.03.2020
6115 Clouds 28 1021 61 10000 5.1 360 15:58 22.03.2020
6116 Clouds 27 1020 65 10000 4.1 360 15:39 22.03.2020
6117 Clouds 25 1020 73 10000 4.1 30 14:47 22.03.2020
6118 Clouds 24 1020 73 10000 4.1 30 14:19 22.03.2020
6119 Clouds 23 1019 83 10000 3.1 360 13:58 22.03.2020
6120 Clouds 23 1019 83 10000 3.1 360 13:40 22.03.2020
6121 Clouds 23 1019 83 10000 3.1 360 13:19 22.03.2020
6122 Clouds 22 1019 88 10000 2.1 360 12:44 22.03.2020
6123 Clouds 21 1019 88 10000 2.1 360 12:21 22.03.2020
6124 Clear 23 1019 79 0 1.34 3 11:57 22.03.2020
6125 Clear 22 1019 78 0 1.34 355 11:39 22.03.2020
6126 Clouds 22 1017 83 10000 2.1 360 11:20 22.03.2020
6127 Clouds 22 1017 83 10000 2.1 360 10:43 22.03.2020
6128 Clouds 22 1017 83 10000 2.1 360 10:24 22.03.2020
6129 Clear 22 1018 79 0 1.79 2 09:49 22.03.2020
6130 Clear 22 1018 79 0 1.79 353 09:30 22.03.2020
6131 Clear 22 1018 79 0 1.79 14 08:55 22.03.2020
6132 Clear 22 1018 79 0 2.24 358 08:36 22.03.2020
6133 Clear 22 1018 79 0 2.24 358 08:36 22.03.2020
6134 Clouds 22 1018 88 10000 2.1 350 08:18 22.03.2020
6135 Clouds 22 1018 88 10000 2.1 350 07:48 22.03.2020
6136 Clouds 22 1018 88 10000 2.1 350 07:18 22.03.2020
6137 Clouds 23 1020 83 10000 2.1 10 05:54 22.03.2020
6138 Clouds 23 1020 83 10000 2.1 360 04:58 22.03.2020
6139 Clouds 24 1019 83 10000 2.1 30 02:43 22.03.2020
6140 Clouds 25 1018 78 10000 2.1 40 01:20 22.03.2020
6141 Clouds 26 1019 78 10000 4.57 20 00:35 22.03.2020
6142 Clouds 27 1018 74 10000 5.1 30 23:57 21.03.2020
6143 Clouds 27 1018 74 10000 5.1 30 23:38 21.03.2020
6144 Clouds 28 1018 74 10000 5.1 30 23:18 21.03.2020
6145 Clouds 29 1018 70 10000 5.1 360 22:38 21.03.2020
6146 Clouds 29 1018 70 10000 5.1 360 22:38 21.03.2020
6147 Clouds 29 1018 70 10000 5.1 360 22:20 21.03.2020
6148 Clouds 30 1018 70 10000 5.1 360 21:59 21.03.2020
6149 Clouds 30 1018 66 10000 5.1 360 21:39 21.03.2020
6150 Clouds 30 1018 66 10000 5.1 360 21:21 21.03.2020
6151 Clouds 30 1019 66 10000 5.1 360 20:45 21.03.2020
6152 Clouds 30 1019 66 10000 5.1 360 20:23 21.03.2020
6153 Clouds 30 1019 62 10000 6.2 360 19:57 21.03.2020
6154 Clouds 30 1019 62 10000 6.2 360 19:38 21.03.2020
6155 Clouds 30 1019 62 10000 6.2 360 19:19 21.03.2020
6156 Clouds 30 1020 66 10000 5.1 360 18:54 21.03.2020
6157 Clouds 30 1020 66 10000 5.1 360 18:36 21.03.2020
6158 Clouds 30 1020 66 10000 5.1 360 18:18 21.03.2020
6159 Clouds 29 1021 66 10000 5.1 360 17:42 21.03.2020
6160 Clouds 29 1021 66 10000 5.1 360 17:23 21.03.2020
6161 Clouds 28 1020 78 10000 5.1 360 16:43 21.03.2020
6162 Clouds 28 1020 78 10000 5.1 360 16:43 21.03.2020
6163 Clouds 27 1020 78 10000 5.1 360 16:24 21.03.2020
6164 Clouds 27 1020 78 10000 5.1 360 16:24 21.03.2020
6165 Clouds 27 1020 78 10000 5.1 360 15:59 21.03.2020
6166 Clouds 26 1020 83 10000 4.1 360 15:41 21.03.2020
6167 Clouds 26 1020 83 10000 4.1 360 15:23 21.03.2020
6168 Clouds 24 1019 83 10000 3.1 270 14:57 21.03.2020
6169 Clouds 24 1019 83 10000 3.1 270 14:39 21.03.2020
6170 Clouds 24 1019 83 10000 3.1 270 14:20 21.03.2020
6171 Clouds 23 1019 83 10000 3.1 270 13:58 21.03.2020
6172 Clouds 23 1019 83 10000 3.1 270 13:58 21.03.2020
6173 Rain 22 1019 88 7000 4.1 270 13:39 21.03.2020
6174 Rain 22 1019 88 7000 4.1 270 13:21 21.03.2020
6175 Rain 22 1019 94 10000 2.1 20 12:57 21.03.2020
6176 Rain 22 1019 94 10000 2.1 20 12:37 21.03.2020
6177 Rain 22 1019 94 10000 2.1 20 12:19 21.03.2020
6178 Clouds 22 1018 88 10000 5.1 40 11:55 21.03.2020
6179 Clouds 22 1018 88 10000 5.1 40 11:37 21.03.2020
6180 Clouds 22 1018 88 10000 5.1 40 11:18 21.03.2020
6181 Clouds 22 1018 88 10000 3.1 360 10:56 21.03.2020
6182 Clouds 22 1018 88 10000 3.1 360 10:38 21.03.2020
6183 Clouds 22 1018 88 10000 3.1 360 10:19 21.03.2020
6184 Clouds 22 1018 88 10000 3.1 10 09:41 21.03.2020
6185 Clouds 22 1018 88 10000 3.1 10 09:23 21.03.2020
6186 Clouds 22 1018 88 10000 2.1 10 08:59 21.03.2020
6187 Clouds 22 1018 88 10000 2.1 10 08:41 21.03.2020
6188 Clouds 22 1018 88 10000 2.1 10 08:22 21.03.2020
6189 Clouds 22 1019 88 10000 2.1 10 07:42 21.03.2020
6190 Clouds 23 1019 88 10000 2.1 10 07:23 21.03.2020
6191 Clouds 23 1019 83 10000 2.1 20 06:45 21.03.2020
6192 Clouds 23 1019 83 10000 2.1 20 06:26 21.03.2020
6193 Clouds 23 1020 83 10000 3.1 30 05:41 21.03.2020
6194 Clouds 23 1020 83 10000 3.1 30 04:37 21.03.2020
6195 Clouds 24 1019 78 10000 2.1 40 02:39 21.03.2020
6196 Clouds 25 1019 74 10000 3.1 50 01:57 21.03.2020
6197 Clouds 25 1019 74 10000 3.1 50 01:29 21.03.2020
6198 Clouds 26 1018 83 10000 4.67 13 00:47 21.03.2020
6199 Clouds 26 1018 83 10000 4.67 13 00:24 21.03.2020
6200 Clouds 27 1018 65 10000 4.1 40 23:48 20.03.2020
6201 Clouds 28 1018 65 10000 4.1 40 23:24 20.03.2020
6202 Clouds 28 1017 69 10000 4.1 40 22:55 20.03.2020
6203 Clouds 29 1017 69 10000 4.1 40 22:36 20.03.2020
6204 Clouds 29 1017 69 10000 4.1 40 22:18 20.03.2020
6205 Clouds 29 1017 66 10000 4.1 360 21:54 20.03.2020
6206 Clouds 29 1017 66 10000 4.1 360 21:36 20.03.2020
6207 Clouds 29 1017 66 10000 4.1 360 21:18 20.03.2020
6208 Clouds 29 1018 62 10000 5.1 360 20:41 20.03.2020
6209 Clouds 29 1018 62 10000 5.1 360 20:41 20.03.2020
6210 Clouds 30 1018 62 10000 5.1 360 20:21 20.03.2020
6211 Clouds 30 1018 62 10000 5.1 360 19:58 20.03.2020
6212 Clouds 29 1019 69 10000 5.1 360 19:40 20.03.2020
6213 Clouds 29 1019 69 10000 5.1 360 19:18 20.03.2020
6214 Rain 28 1019 78 10000 7.2 360 18:39 20.03.2020
6215 Rain 28 1019 78 10000 7.2 360 18:20 20.03.2020
6216 Rain 27 1020 83 8000 4.1 360 17:57 20.03.2020
6217 Rain 27 1020 83 8000 4.1 360 17:39 20.03.2020
6218 Rain 26 1020 83 8000 4.1 360 17:20 20.03.2020
6219 Rain 26 1021 74 10000 5.1 360 16:43 20.03.2020
6220 Rain 27 1021 74 10000 5.1 360 16:22 20.03.2020
6221 Rain 27 1021 74 10000 5.1 360 15:59 20.03.2020
6222 Clouds 26 1020 78 10000 5.1 360 15:41 20.03.2020
6223 Clouds 26 1020 78 10000 5.1 360 15:21 20.03.2020
6224 Clouds 25 1020 88 10000 3.1 360 14:43 20.03.2020
6225 Clouds 24 1020 88 10000 3.1 360 14:23 20.03.2020
6226 Rain 24 1022 82 0 2.24 26 13:55 20.03.2020
6227 Rain 23 1021 86 0 1.79 6 13:37 20.03.2020
6228 Rain 22 1020 100 8000 2.6 10 13:19 20.03.2020
6229 Rain 22 1020 100 8000 2.6 10 12:39 20.03.2020
6230 Rain 22 1020 100 8000 2.6 10 12:20 20.03.2020
6231 Rain 22 1020 100 8000 2.6 10 12:20 20.03.2020
6232 Clouds 22 1019 100 10000 1.5 0 11:54 20.03.2020
6233 Clouds 21 1019 100 10000 1.5 0 11:36 20.03.2020
6234 Clouds 21 1019 100 10000 1.5 0 11:18 20.03.2020
6235 Rain 22 1019 94 10000 2.1 40 10:41 20.03.2020
6236 Rain 22 1019 94 10000 2.1 40 10:20 20.03.2020
6237 Clouds 22 1019 94 10000 2.1 40 09:47 20.03.2020
6238 Rain 22 1019 94 10000 2.1 40 09:22 20.03.2020
6239 Rain 21 1019 94 10000 2.1 40 08:59 20.03.2020
6240 Rain 21 1019 94 10000 2.1 20 08:40 20.03.2020
6241 Rain 22 1019 94 10000 2.1 20 08:20 20.03.2020
6242 Rain 22 1019 100 8000 2.1 30 07:46 20.03.2020
6243 Rain 22 1020 100 10000 2.1 10 07:26 20.03.2020
6244 Rain 23 1020 100 10000 2.6 10 06:49 20.03.2020
6245 Rain 23 1020 100 10000 2.6 10 06:31 20.03.2020
6246 Clouds 24 1021 94 10000 2.6 20 04:49 20.03.2020
6247 Clouds 24 1020 94 10000 4.1 20 03:19 20.03.2020
6248 Clouds 24 1019 100 10000 2.1 20 01:51 20.03.2020
6249 Rain 25 1019 83 8000 6.2 70 00:46 20.03.2020
6250 Rain 25 1019 83 8000 6.2 70 00:25 20.03.2020
6251 Clouds 26 1019 74 10000 7.7 360 23:44 19.03.2020
6252 Clouds 26 1019 74 10000 7.7 360 23:25 19.03.2020
6253 Clouds 26 1018 65 10000 9.3 30 22:56 19.03.2020
6254 Rain 27 1018 65 10000 9.3 30 22:37 19.03.2020
6255 Rain 27 1018 65 10000 9.3 30 22:18 19.03.2020
6256 Rain 27 1018 58 8000 5.1 360 21:41 19.03.2020
6257 Rain 27 1018 58 8000 5.1 360 21:20 19.03.2020
6258 Clouds 29 1018 52 10000 5.1 60 20:56 19.03.2020
6259 Clouds 29 1018 52 10000 5.1 60 20:56 19.03.2020
6260 Clouds 30 1018 52 10000 5.1 60 20:38 19.03.2020
6261 Clouds 30 1018 52 10000 5.1 60 20:19 19.03.2020
6262 Clouds 29 1018 52 10000 5.1 360 19:55 19.03.2020
6263 Clouds 30 1018 52 10000 5.1 360 19:36 19.03.2020
6264 Clouds 30 1018 52 10000 5.1 360 19:18 19.03.2020
6265 Clouds 29 1019 66 10000 6.7 30 18:42 19.03.2020
6266 Clouds 29 1019 66 10000 6.7 30 18:22 19.03.2020
6267 Clouds 28 1021 66 10000 5.1 30 17:56 19.03.2020
6268 Clouds 28 1021 66 10000 5.1 30 17:38 19.03.2020
6269 Clouds 28 1021 66 10000 5.1 30 17:18 19.03.2020
6270 Clouds 28 1022 69 10000 7.7 360 16:43 19.03.2020
6271 Clouds 28 1022 69 10000 7.7 360 16:22 19.03.2020
6272 Clouds 27 1021 69 10000 8.7 360 15:44 19.03.2020
6273 Clouds 27 1021 69 10000 8.7 360 15:25 19.03.2020
6274 Clouds 26 1021 78 10000 4.1 30 14:55 19.03.2020
6275 Clouds 26 1021 78 10000 4.1 30 14:37 19.03.2020
6276 Clouds 25 1021 78 10000 4.1 30 14:18 19.03.2020
6277 Clouds 24 1018 83 10000 2.1 360 13:39 19.03.2020
6278 Clouds 24 1018 83 10000 2.1 360 13:19 19.03.2020
6279 Clouds 22 1019 94 10000 4.1 30 12:42 19.03.2020
6280 Clouds 22 1019 94 10000 4.1 30 12:24 19.03.2020
6281 Clouds 23 1019 94 10000 2.1 20 11:59 19.03.2020
6282 Clouds 23 1019 94 10000 2.1 20 11:41 19.03.2020
6283 Clouds 21 1019 94 10000 2.1 20 11:22 19.03.2020
6284 Clouds 22 1018 88 10000 3.1 20 10:44 19.03.2020
6285 Clouds 22 1018 88 10000 3.1 20 10:22 19.03.2020
6286 Clouds 22 1018 88 10000 3.1 20 09:58 19.03.2020
6287 Clouds 22 1018 88 10000 4.1 350 09:40 19.03.2020
6288 Clouds 22 1018 88 10000 4.1 350 09:20 19.03.2020
6289 Clouds 22 1018 88 10000 2.1 30 08:46 19.03.2020
6290 Clouds 22 1018 88 10000 2.1 30 08:22 19.03.2020
6291 Clouds 23 1019 88 10000 2.1 10 07:48 19.03.2020
6292 Clouds 23 1019 88 10000 2.1 10 07:30 19.03.2020
6293 Clouds 23 1019 88 10000 2.1 10 06:51 19.03.2020
6294 Clouds 23 1020 88 10000 3.1 20 05:53 19.03.2020
6295 Clouds 24 1020 88 10000 3.1 20 05:22 19.03.2020
6296 Clouds 24 1020 83 10000 2.1 20 04:41 19.03.2020
6297 Clouds 24 1020 83 10000 2.1 30 03:36 19.03.2020
6298 Clouds 26 1018 78 10000 2.1 30 01:27 19.03.2020
6299 Clouds 26 1016 78 10000 4.1 360 00:37 19.03.2020
6300 Clouds 27 1016 78 10000 4.1 360 23:58 18.03.2020
6301 Clouds 27 1016 78 10000 4.1 360 23:36 18.03.2020
6302 Clouds 27 1016 78 10000 4.1 360 23:18 18.03.2020
6303 Clouds 28 1016 69 10000 7.2 360 22:42 18.03.2020
6304 Clouds 28 1016 69 10000 7.2 360 22:22 18.03.2020
6305 Clouds 30 1017 58 10000 6.2 360 21:54 18.03.2020
6306 Clouds 30 1017 58 10000 6.2 360 21:36 18.03.2020
6307 Clouds 30 1017 58 10000 6.2 360 21:18 18.03.2020
6308 Clouds 30 1017 55 10000 6.2 360 20:41 18.03.2020
6309 Clouds 31 1017 55 10000 6.2 360 20:21 18.03.2020
6310 Clouds 31 1017 55 10000 6.2 360 19:58 18.03.2020
6311 Clouds 30 1018 66 10000 7.7 360 19:40 18.03.2020
6312 Clouds 30 1018 66 10000 7.7 360 19:21 18.03.2020
6313 Clouds 30 1018 66 10000 7.7 360 19:21 18.03.2020
6314 Clouds 30 1018 66 10000 6.2 20 18:42 18.03.2020
6315 Clouds 30 1018 66 10000 6.2 20 18:21 18.03.2020
6316 Clouds 30 1019 66 10000 5.1 360 17:59 18.03.2020
6317 Clouds 30 1019 66 10000 5.1 360 17:59 18.03.2020
6318 Clouds 30 1019 66 10000 5.1 360 17:41 18.03.2020
6319 Clouds 29 1019 66 10000 5.1 360 17:22 18.03.2020
6320 Clouds 29 1019 66 10000 5.1 360 16:58 18.03.2020
6321 Clouds 29 1019 66 10000 5.1 360 16:40 18.03.2020
6322 Clouds 29 1019 66 10000 5.1 360 16:20 18.03.2020
6323 Clouds 27 1019 78 10000 4.1 360 15:45 18.03.2020
6324 Clouds 27 1019 78 10000 4.1 360 15:23 18.03.2020
6325 Clouds 26 1019 83 10000 5.1 360 14:57 18.03.2020
6326 Clouds 26 1019 83 10000 5.1 360 14:39 18.03.2020
6327 Clouds 26 1019 83 10000 5.1 360 14:20 18.03.2020
6328 Clouds 26 1019 83 10000 5.1 360 14:20 18.03.2020
6329 Clouds 24 1019 88 10000 2.1 350 13:39 18.03.2020
6330 Clouds 24 1019 88 10000 2.1 350 13:19 18.03.2020
6331 Clouds 24 1019 88 10000 2.1 350 13:19 18.03.2020
6332 Clouds 22 1018 94 10000 2.1 10 12:42 18.03.2020
6333 Clouds 22 1018 94 10000 2.1 10 12:20 18.03.2020
6334 Clouds 22 1017 94 10000 2.1 10 11:41 18.03.2020
6335 Clouds 22 1017 94 10000 2.1 10 11:22 18.03.2020
6336 Clouds 22 1017 94 10000 3.1 360 10:59 18.03.2020
6337 Clouds 22 1017 94 10000 3.1 360 10:59 18.03.2020
6338 Clouds 22 1017 94 10000 3.1 360 10:39 18.03.2020
6339 Clouds 22 1017 94 10000 3.1 360 10:21 18.03.2020
6340 Clouds 22 1017 94 10000 3.1 360 09:59 18.03.2020
6341 Clouds 22 1016 94 10000 2.1 360 09:39 18.03.2020
6342 Clouds 22 1016 94 10000 2.1 360 09:21 18.03.2020
6343 Clouds 22 1017 88 10000 2.6 360 08:40 18.03.2020
6344 Clouds 23 1017 88 10000 2.6 360 08:21 18.03.2020
6345 Clouds 22 1017 88 10000 2.6 360 07:49 18.03.2020
6346 Clouds 22 1017 88 10000 2.6 360 07:31 18.03.2020
6347 Clouds 23 1018 94 10000 2.6 360 06:54 18.03.2020
6348 Clouds 22 1018 94 10000 2.6 360 06:35 18.03.2020
6349 Clouds 23 1019 94 10000 2.1 360 05:37 18.03.2020
6350 Clouds 23 1019 94 10000 3.1 360 04:29 18.03.2020
6351 Clouds 23 1019 88 10000 2.1 360 03:21 18.03.2020
6352 Clouds 23 1018 88 10000 2.6 350 02:32 18.03.2020
6353 Clouds 23 1017 78 10000 2.6 360 01:31 18.03.2020
6354 Clouds 24 1016 88 10000 5.1 360 00:42 18.03.2020
6355 Clouds 24 1016 88 10000 5.1 360 00:42 18.03.2020
6356 Clouds 24 1016 88 10000 5.1 360 00:21 18.03.2020
6357 Clouds 25 1016 69 10000 6.2 360 23:40 17.03.2020
6358 Clouds 26 1016 69 10000 6.2 360 23:19 17.03.2020
6359 Clouds 27 1016 65 10000 6.2 360 22:42 17.03.2020
6360 Clouds 27 1016 65 10000 6.2 360 22:24 17.03.2020
6361 Clouds 27 1016 65 10000 6.2 360 21:43 17.03.2020
6362 Clouds 27 1016 65 10000 6.2 360 21:23 17.03.2020
6363 Clouds 28 1017 62 10000 5.1 360 20:56 17.03.2020
6364 Clouds 28 1017 62 10000 5.1 360 20:37 17.03.2020
6365 Clouds 28 1017 62 10000 5.1 360 20:19 17.03.2020
6366 Clouds 29 1017 58 10000 6.2 360 19:41 17.03.2020
6367 Clouds 29 1017 58 10000 6.2 360 19:18 17.03.2020
6368 Clouds 28 1018 66 10000 6.2 350 18:56 17.03.2020
6369 Clouds 28 1018 66 10000 6.2 350 18:38 17.03.2020
6370 Clouds 28 1018 66 10000 6.2 350 18:20 17.03.2020
6371 Clouds 27 1019 65 10000 6.7 360 17:41 17.03.2020
6372 Clouds 27 1019 65 10000 6.7 360 17:23 17.03.2020
6373 Clouds 27 1019 69 10000 6.2 360 16:57 17.03.2020
6374 Clouds 27 1019 69 10000 6.2 360 16:39 17.03.2020
6375 Clouds 27 1019 69 10000 6.2 360 16:18 17.03.2020
6376 Clouds 26 1018 69 10000 6.2 360 15:44 17.03.2020
6377 Clouds 26 1018 69 10000 6.2 360 15:22 17.03.2020
6378 Clouds 24 1017 69 10000 5.1 350 14:44 17.03.2020
6379 Clouds 24 1017 69 10000 5.1 350 14:23 17.03.2020
6380 Clouds 22 1016 83 10000 5.49 339 13:56 17.03.2020
6381 Clouds 22 1016 83 10000 5.49 339 13:38 17.03.2020
6382 Clouds 22 1016 83 10000 5.49 339 13:20 17.03.2020
6383 Clouds 20 1017 82 10000 2.1 350 12:42 17.03.2020
6384 Clouds 20 1017 82 10000 2.1 350 12:22 17.03.2020
6385 Clouds 20 1017 82 10000 2.6 350 11:47 17.03.2020
6386 Clouds 20 1017 82 10000 2.6 350 11:29 17.03.2020
6387 Clouds 21 1016 77 10000 2.6 360 10:58 17.03.2020
6388 Clouds 21 1016 77 10000 2.6 360 10:38 17.03.2020
6389 Clouds 21 1016 77 10000 2.6 360 10:20 17.03.2020
6390 Clouds 21 1016 83 10000 2.6 350 09:59 17.03.2020
6391 Clouds 21 1016 83 10000 2.6 350 09:39 17.03.2020
6392 Clouds 21 1016 83 10000 2.6 350 09:19 17.03.2020
6393 Clouds 21 1016 83 10000 2.6 340 08:47 17.03.2020
6394 Clouds 21 1016 83 10000 2.6 340 08:22 17.03.2020
6395 Clouds 22 1017 78 10000 2.1 360 07:50 17.03.2020
6396 Clouds 22 1017 78 10000 2.1 360 07:26 17.03.2020
6397 Clouds 22 1017 78 10000 2.1 20 06:58 17.03.2020
6398 Clouds 22 1017 78 10000 2.1 20 06:33 17.03.2020
6399 Clouds 22 1018 78 10000 2.1 20 05:49 17.03.2020
6400 Clouds 23 1018 73 10000 3.1 10 03:41 17.03.2020
6401 Clouds 23 1017 73 10000 3.1 10 02:46 17.03.2020
6402 Clouds 24 1016 73 10000 2.1 20 01:43 17.03.2020
6403 Clouds 25 1016 73 10000 2.1 20 01:24 17.03.2020
6404 Clouds 25 1015 73 10000 5.1 360 00:31 17.03.2020
6405 Clouds 27 1014 65 10000 5.1 360 23:45 16.03.2020
6406 Clouds 27 1014 65 10000 5.1 360 23:25 16.03.2020
6407 Clouds 29 1014 58 10000 6.2 360 22:40 16.03.2020
6408 Clouds 29 1014 58 10000 6.2 360 22:22 16.03.2020
6409 Clouds 29 1015 58 10000 5.1 360 21:57 16.03.2020
6410 Clouds 29 1015 58 10000 5.1 360 21:57 16.03.2020
6411 Clouds 29 1015 58 10000 5.1 360 21:38 16.03.2020
6412 Clouds 29 1015 58 10000 5.1 360 21:20 16.03.2020
6413 Clouds 30 1017 58 10000 7.7 360 20:55 16.03.2020
6414 Clouds 30 1017 58 10000 7.7 360 20:37 16.03.2020
6415 Clouds 30 1017 58 10000 7.7 360 20:18 16.03.2020
6416 Clouds 30 1017 58 10000 7.7 360 20:18 16.03.2020
6417 Clouds 30 1017 58 10000 7.7 360 19:40 16.03.2020
6418 Clouds 30 1017 58 10000 7.7 360 19:20 16.03.2020
6419 Clouds 29 1018 65 10000 6.2 360 18:41 16.03.2020
6420 Clouds 29 1018 65 10000 6.2 360 18:20 16.03.2020
6421 Clouds 28 1017 61 10000 5.1 360 17:47 16.03.2020
6422 Clouds 28 1017 61 10000 5.1 360 17:26 16.03.2020
6423 Clouds 27 1018 69 10000 5.1 360 16:59 16.03.2020
6424 Clouds 27 1018 69 10000 5.1 360 16:41 16.03.2020
6425 Clouds 27 1018 69 10000 5.1 360 16:22 16.03.2020
6426 Clouds 26 1018 78 10000 5.1 360 15:44 16.03.2020
6427 Clouds 26 1018 78 10000 5.1 360 15:25 16.03.2020
6428 Clouds 24 1017 78 10000 5.1 360 14:49 16.03.2020
6429 Clouds 24 1017 78 10000 5.1 360 14:25 16.03.2020
6430 Clouds 22 1017 83 10000 5.1 270 13:55 16.03.2020
6431 Clouds 22 1017 83 10000 5.1 270 13:37 16.03.2020
6432 Clouds 22 1017 83 10000 5.1 270 13:18 16.03.2020
6433 Clouds 21 1017 88 10000 2.6 360 12:42 16.03.2020
6434 Clouds 21 1017 88 10000 2.6 360 12:23 16.03.2020
6435 Clouds 21 1016 93 10000 2.1 350 11:45 16.03.2020
6436 Clouds 19 1016 93 10000 2.1 350 11:26 16.03.2020
6437 Clouds 20 1016 88 10000 2.1 10 10:47 16.03.2020
6438 Clouds 21 1016 88 10000 2.1 10 10:25 16.03.2020
6439 Clouds 21 1016 88 10000 2.1 10 09:59 16.03.2020
6440 Clouds 21 1016 94 10000 1.5 0 09:40 16.03.2020
6441 Clouds 21 1016 94 10000 1.5 0 09:20 16.03.2020
6442 Clouds 22 1016 88 10000 2.1 350 08:43 16.03.2020
6443 Clouds 22 1016 88 10000 2.1 350 08:23 16.03.2020
6444 Clear 23 1019 91 0 5 353 07:44 16.03.2020
6445 Clear 23 1019 91 0 5 353 07:21 16.03.2020
6446 Clouds 23 1017 88 10000 2.1 10 06:46 16.03.2020
6447 Clouds 23 1017 88 10000 2.1 10 06:22 16.03.2020
6448 Clouds 23 1018 83 10000 2.1 10 04:26 16.03.2020
6449 Clouds 24 1016 73 10000 3.1 30 01:47 16.03.2020
6450 Clouds 26 1016 74 10000 7.7 10 00:46 16.03.2020
6451 Clouds 26 1016 74 10000 7.7 10 00:27 16.03.2020
6452 Clouds 27 1015 69 10000 4.1 360 23:40 15.03.2020
6453 Clouds 27 1015 69 10000 4.1 360 23:19 15.03.2020
6454 Clouds 28 1015 70 10000 5.1 360 22:42 15.03.2020
6455 Clouds 28 1015 70 10000 5.1 360 22:21 15.03.2020
6456 Clouds 29 1015 62 10000 5.1 360 21:39 15.03.2020
6457 Clouds 29 1015 62 10000 5.1 360 21:21 15.03.2020
6458 Clouds 30 1015 58 10000 5.1 360 20:58 15.03.2020
6459 Clouds 29 1015 58 10000 5.1 360 20:40 15.03.2020
6460 Clouds 30 1015 58 10000 5.1 360 20:19 15.03.2020
6461 Clouds 29 1016 62 10000 5.1 360 19:55 15.03.2020
6462 Clouds 30 1016 62 10000 5.1 360 19:37 15.03.2020
6463 Clouds 30 1016 62 10000 5.1 360 19:18 15.03.2020
6464 Clouds 29 1018 62 10000 6.2 360 18:42 15.03.2020
6465 Clouds 29 1018 62 10000 6.2 360 18:24 15.03.2020
6466 Clouds 29 1018 66 10000 6.2 360 17:59 15.03.2020
6467 Clouds 29 1018 66 10000 6.2 360 17:39 15.03.2020
6468 Clouds 29 1018 66 10000 6.2 360 17:20 15.03.2020
6469 Clouds 28 1019 69 10000 7.2 360 16:55 15.03.2020
6470 Clouds 28 1019 69 10000 7.2 360 16:36 15.03.2020
6471 Clouds 28 1019 69 10000 7.2 360 16:18 15.03.2020
6472 Clouds 27 1018 78 10000 7.2 360 15:41 15.03.2020
6473 Clouds 27 1018 78 10000 7.2 360 15:20 15.03.2020
6474 Clouds 25 1018 94 10000 5.1 360 14:47 15.03.2020
6475 Clouds 25 1018 94 10000 5.1 360 14:26 15.03.2020
6476 Clouds 22 1017 94 10000 4.16 358 13:59 15.03.2020
6477 Clouds 23 1017 94 10000 4.16 358 13:39 15.03.2020
6478 Clouds 23 1017 94 10000 4.21 358 13:21 15.03.2020
6479 Clouds 22 1018 94 10000 2.1 360 12:44 15.03.2020
6480 Clouds 22 1018 94 10000 2.1 360 12:26 15.03.2020
6481 Clouds 21 1017 94 10000 3.1 10 11:59 15.03.2020
6482 Clouds 21 1017 94 10000 3.1 10 11:40 15.03.2020
6483 Clouds 21 1017 94 10000 3.1 10 11:22 15.03.2020
6484 Clouds 21 1017 94 10000 2.1 350 10:56 15.03.2020
6485 Clouds 21 1017 94 10000 2.1 350 10:37 15.03.2020
6486 Clouds 21 1017 94 10000 2.1 350 10:18 15.03.2020
6487 Clouds 22 1017 94 10000 2.6 360 09:40 15.03.2020
6488 Clouds 22 1017 94 10000 2.6 360 09:21 15.03.2020
6489 Clouds 22 1017 88 10000 3.1 10 08:42 15.03.2020
6490 Clouds 22 1017 88 10000 3.1 10 08:21 15.03.2020
6491 Clouds 22 1017 94 10000 2.6 30 07:51 15.03.2020
6492 Clouds 22 1017 94 10000 2.6 30 07:31 15.03.2020
6493 Clouds 22 1018 94 10000 2.1 30 06:52 15.03.2020
6494 Clouds 23 1018 88 10000 2.1 40 05:50 15.03.2020
6495 Clouds 23 1018 88 10000 2.1 40 05:18 15.03.2020
6496 Clouds 24 1018 88 10000 2.1 20 04:43 15.03.2020
6497 Clouds 24 1018 88 10000 2.1 20 04:24 15.03.2020
6498 Clouds 24 1018 83 10000 2.1 50 03:38 15.03.2020
6499 Clouds 24 1017 78 10000 3.1 20 02:37 15.03.2020
6500 Clouds 25 1016 78 10000 3.1 40 01:34 15.03.2020
6501 Clouds 26 1016 78 10000 5.1 360 00:45 15.03.2020
6502 Clouds 26 1016 78 10000 5.1 360 00:22 15.03.2020
6503 Clouds 27 1016 69 10000 7.7 360 23:42 14.03.2020
6504 Clouds 28 1016 69 10000 7.7 360 23:22 14.03.2020
6505 Clouds 29 1015 66 10000 9.3 360 22:59 14.03.2020
6506 Clouds 29 1015 66 10000 9.3 360 22:41 14.03.2020
6507 Clouds 29 1015 66 10000 9.3 360 22:23 14.03.2020
6508 Clouds 30 1015 62 10000 5.1 360 21:56 14.03.2020
6509 Clouds 30 1015 62 10000 5.1 360 21:36 14.03.2020
6510 Clouds 30 1015 62 10000 5.1 360 21:18 14.03.2020
6511 Clouds 30 1016 70 10000 7.2 60 20:58 14.03.2020
6512 Clouds 30 1016 70 10000 7.2 60 20:39 14.03.2020
6513 Clouds 30 1016 70 10000 7.2 60 20:19 14.03.2020
6514 Clouds 30 1016 62 10000 6.2 30 19:42 14.03.2020
6515 Clouds 30 1016 62 10000 6.2 30 19:42 14.03.2020
6516 Clouds 30 1016 62 10000 6.2 30 19:24 14.03.2020
6517 Clouds 28 1018 69 8000 10.3 30 18:41 14.03.2020
6518 Clouds 28 1018 69 8000 10.3 30 18:22 14.03.2020
6519 Clouds 29 1019 62 10000 7.7 30 17:56 14.03.2020
6520 Clouds 29 1019 62 10000 7.7 30 17:37 14.03.2020
6521 Clouds 29 1019 62 10000 7.7 30 17:19 14.03.2020
6522 Clouds 28 1019 69 10000 6.2 360 16:40 14.03.2020
6523 Clouds 28 1019 69 10000 6.2 360 16:22 14.03.2020
6524 Clouds 27 1019 69 10000 4.1 360 15:54 14.03.2020
6525 Clouds 27 1019 69 10000 4.1 360 15:26 14.03.2020
6526 Clouds 26 1019 74 10000 3.1 360 14:47 14.03.2020
6527 Clouds 26 1019 74 10000 3.1 360 14:24 14.03.2020
6528 Clouds 24 1019 83 10000 3.1 30 13:58 14.03.2020
6529 Clouds 24 1019 83 10000 3.1 30 13:39 14.03.2020
6530 -273 0 0 0 0 0 13:21 14.03.2020
6531 Clouds 22 1017 100 10000 2.1 20 12:47 14.03.2020
6532 Clouds 22 1017 100 10000 2.1 20 12:27 14.03.2020
6533 Clouds 23 1017 100 10000 2.1 50 11:56 14.03.2020
6534 Clouds 20 1017 100 10000 2.1 50 11:38 14.03.2020
6535 Clouds 20 1017 100 10000 2.1 50 11:19 14.03.2020
6536 Clouds 21 1016 100 10000 2.1 30 10:44 14.03.2020
6537 Clouds 21 1016 100 10000 2.1 30 10:25 14.03.2020
6538 Clouds 22 1016 94 10000 2.1 20 09:47 14.03.2020
6539 Clouds 22 1016 94 10000 2.1 20 09:24 14.03.2020
6540 Clouds 22 1016 94 10000 3.1 20 08:54 14.03.2020
6541 Clouds 22 1016 94 10000 3.1 20 08:35 14.03.2020
6542 Clouds 22 1017 94 10000 3.1 352 07:56 14.03.2020
6543 Clouds 22 1017 94 10000 3.1 352 07:38 14.03.2020
6544 Clouds 23 1017 94 10000 3.1 352 07:19 14.03.2020
6545 Clouds 23 1017 94 10000 3.1 352 06:41 14.03.2020
6546 Clouds 23 1017 100 10000 3.1 352 05:47 14.03.2020
6547 Clouds 23 1017 100 10000 3.1 352 05:47 14.03.2020
6548 Clouds 24 1017 94 10000 2.1 20 04:42 14.03.2020
6549 Clouds 24 1016 94 10000 3.14 352 03:24 14.03.2020
6550 Clouds 25 1016 88 10000 2.1 70 02:25 14.03.2020
6551 Rain 26 1013 83 10000 3.1 360 00:57 14.03.2020
6552 Clouds 27 1013 70 10000 4.1 70 23:51 13.03.2020
6553 Clouds 27 1013 70 10000 4.1 70 23:30 13.03.2020
6554 Clouds 28 1013 66 10000 4.1 50 22:52 13.03.2020
6555 Clouds 28 1013 66 10000 4.1 50 22:52 13.03.2020
6556 Clouds 28 1013 66 10000 4.1 50 22:26 13.03.2020
6557 Clouds 29 1014 62 10000 5.1 360 21:44 13.03.2020
6558 Clouds 29 1014 62 10000 5.1 360 21:22 13.03.2020
6559 Rain 28 1014 58 10000 2.1 40 20:59 13.03.2020
6560 Rain 28 1014 58 10000 2.1 40 20:41 13.03.2020
6561 Rain 28 1014 58 10000 2.1 40 20:21 13.03.2020
6562 Clouds 29 1014 58 10000 5.1 360 19:48 13.03.2020
6563 Clouds 30 1014 58 10000 5.1 360 19:30 13.03.2020
6564 Clouds 30 1015 58 10000 3.1 70 18:49 13.03.2020
6565 Clouds 30 1015 58 10000 3.1 70 18:31 13.03.2020
6566 Clouds 30 1016 62 10000 3.6 60 17:57 13.03.2020
6567 Clouds 30 1016 62 10000 3.6 60 17:39 13.03.2020
6568 Clouds 30 1016 62 10000 3.6 60 17:20 13.03.2020
6569 Clouds 29 1016 69 10000 3.1 330 16:42 13.03.2020
6570 Clouds 29 1016 69 10000 3.1 330 16:24 13.03.2020
6571 Clouds 28 1016 69 10000 3.1 330 15:58 13.03.2020
6572 Clouds 27 1015 88 10000 2.5 25 15:38 13.03.2020
6573 Clouds 27 1015 88 10000 2.5 25 15:20 13.03.2020
6574 Clouds 25 1015 94 10000 2.5 25 14:43 13.03.2020
6575 Clouds 23 1015 94 10000 2.5 25 14:22 13.03.2020
6576 Clouds 23 1014 94 10000 2.24 349 13:57 13.03.2020
6577 Clouds 23 1014 94 10000 2.24 349 13:39 13.03.2020
6578 Clouds 22 1014 94 10000 2.32 347 13:19 13.03.2020
6579 Clouds 23 1014 94 10000 2.1 20 12:54 13.03.2020
6580 Clouds 22 1014 94 10000 2.1 20 12:36 13.03.2020
6581 Clouds 22 1014 94 10000 2.1 20 12:18 13.03.2020
6582 Clouds 22 1014 100 10000 2.1 20 11:42 13.03.2020
6583 Clouds 22 1014 100 10000 2.1 20 11:24 13.03.2020
6584 Clouds 22 1013 94 10000 2.1 0 10:48 13.03.2020
6585 Clouds 23 1013 94 10000 2.1 0 10:28 13.03.2020
6586 Clouds 23 1013 100 10000 4.1 40 09:59 13.03.2020
6587 Clouds 23 1013 100 10000 4.1 40 09:41 13.03.2020
6588 Clouds 23 1013 100 10000 4.1 40 09:22 13.03.2020
6589 Clouds 23 1014 88 10000 1.71 344 08:45 13.03.2020
6590 Clouds 23 1014 88 10000 1.71 344 08:23 13.03.2020
6591 Clouds 23 1014 88 10000 2.1 30 07:50 13.03.2020
6592 Clouds 23 1014 88 10000 2.1 30 07:28 13.03.2020
6593 Clouds 24 1015 88 10000 2.1 30 06:53 13.03.2020
6594 Clouds 24 1015 88 10000 2.1 30 06:32 13.03.2020
6595 Clouds 24 1015 88 10000 2.1 10 05:54 13.03.2020
6596 Clouds 24 1015 88 10000 2.1 10 05:24 13.03.2020
6597 Clouds 24 1015 83 10000 2.1 50 04:38 13.03.2020
6598 Clouds 24 1014 83 10000 2.1 70 03:42 13.03.2020
6599 Clouds 25 1013 78 10000 2.1 30 01:47 13.03.2020
6600 Clouds 26 1013 78 10000 2.1 30 01:19 13.03.2020
6601 Clouds 26 1013 88 10000 1.23 127 00:53 13.03.2020
6602 Clouds 26 1013 88 10000 1.23 127 00:24 13.03.2020
6603 Clouds 27 1012 78 10000 2.6 110 23:50 12.03.2020
6604 Clouds 27 1012 78 10000 2.6 110 23:27 12.03.2020
6605 Clouds 27 1012 83 10000 3.1 90 22:56 12.03.2020
6606 Clouds 27 1012 83 10000 3.1 90 22:38 12.03.2020
6607 Clouds 27 1012 83 10000 3.1 90 22:20 12.03.2020
6608 Rain 28 1012 78 8000 4.1 160 21:43 12.03.2020
6609 Rain 27 1012 78 8000 4.1 160 21:25 12.03.2020
6610 Clouds 27 1012 78 10000 4.1 150 20:57 12.03.2020
6611 Clouds 27 1012 78 10000 4.1 150 20:37 12.03.2020
6612 Clouds 27 1012 78 10000 4.1 150 20:37 12.03.2020
6613 Clouds 27 1012 78 10000 4.1 150 20:18 12.03.2020
6614 Clouds 27 1013 78 10000 2.1 170 19:39 12.03.2020
6615 Clouds 26 1013 78 10000 2.1 170 19:20 12.03.2020
6616 Rain 26 1014 78 8000 3.1 180 18:43 12.03.2020
6617 Rain 26 1014 78 8000 3.1 180 18:24 12.03.2020
6618 Rain 27 1014 74 8000 3.1 150 17:57 12.03.2020
6619 Rain 26 1014 74 8000 3.1 150 17:38 12.03.2020
6620 Rain 26 1014 74 8000 3.1 150 17:38 12.03.2020
6621 Rain 26 1014 74 8000 3.1 150 17:19 12.03.2020
6622 Clouds 26 1014 74 10000 3.1 70 16:54 12.03.2020
6623 Clouds 27 1014 74 10000 3.1 70 16:36 12.03.2020
6624 Clouds 27 1014 74 10000 3.1 70 16:18 12.03.2020
6625 Clouds 27 1014 74 10000 1.51 88 15:43 12.03.2020
6626 Clouds 27 1014 74 10000 1.51 88 15:24 12.03.2020
6627 Clouds 25 1013 88 10000 1.51 88 14:40 12.03.2020
6628 Clouds 24 1013 88 10000 1.51 88 14:21 12.03.2020
6629 Clouds 23 1013 100 10000 2.1 10 13:41 12.03.2020
6630 Clouds 23 1013 100 10000 2.1 10 13:22 12.03.2020
6631 Clouds 23 1012 94 10000 2.1 10 12:56 12.03.2020
6632 Clouds 22 1012 94 10000 2.1 10 12:38 12.03.2020
6633 Clouds 22 1012 94 10000 2.1 10 12:19 12.03.2020
6634 Clouds 22 1012 94 10000 2.1 350 11:56 12.03.2020
6635 Clouds 22 1012 94 10000 2.1 350 11:37 12.03.2020
6636 Clouds 21 1012 94 10000 2.1 350 11:19 12.03.2020
6637 Clouds 21 1012 94 10000 2.1 350 11:19 12.03.2020
6638 Clouds 21 1012 94 10000 2.1 10 10:57 12.03.2020
6639 Clouds 21 1012 94 10000 2.1 10 10:57 12.03.2020
6640 Clouds 21 1012 94 10000 2.1 10 10:39 12.03.2020
6641 Clouds 22 1012 94 10000 2.1 10 10:21 12.03.2020
6642 Clouds 23 1012 88 10000 2.1 10 09:43 12.03.2020
6643 Clouds 23 1012 88 10000 2.1 10 09:43 12.03.2020
6644 Clouds 23 1012 88 10000 2.1 10 09:25 12.03.2020
6645 Clouds 23 1012 94 10000 2.02 336 08:41 12.03.2020
6646 Clouds 23 1012 94 10000 2.17 336 08:20 12.03.2020
6647 Clouds 23 1013 94 10000 2.17 336 07:53 12.03.2020
6648 Clouds 23 1013 94 10000 2.17 336 07:23 12.03.2020
6649 Clouds 23 1014 88 10000 1.5 0 06:52 12.03.2020
6650 Clouds 23 1014 88 10000 1.5 0 05:41 12.03.2020
6651 Clouds 24 1014 83 10000 2.1 40 04:29 12.03.2020
6652 Clouds 24 1014 78 10000 2.1 50 02:38 12.03.2020
6653 Clouds 24 1013 78 10000 3.1 70 01:31 12.03.2020
6654 Clouds 26 1013 83 10000 3.1 30 00:44 12.03.2020
6655 Clouds 26 1013 83 10000 3.1 30 00:26 12.03.2020
6656 Clouds 26 1013 78 10000 3.1 90 23:45 11.03.2020
6657 Clouds 26 1013 78 10000 3.1 90 23:24 11.03.2020
6658 Clouds 28 1014 69 10000 5.1 90 22:48 11.03.2020
6659 Clouds 28 1014 69 10000 5.1 90 22:29 11.03.2020
6660 Clouds 28 1014 69 10000 5.1 90 21:59 11.03.2020
6661 Clouds 28 1014 74 10000 5.1 120 21:41 11.03.2020
6662 Clouds 28 1014 74 10000 5.1 120 21:22 11.03.2020
6663 Clouds 28 1014 74 10000 5.1 120 21:22 11.03.2020
6664 Clouds 29 1015 66 10000 5.1 90 20:58 11.03.2020
6665 Clouds 29 1015 66 10000 5.1 90 20:39 11.03.2020
6666 Clouds 29 1015 66 10000 5.1 90 20:19 11.03.2020
6667 Clouds 29 1016 70 10000 5.1 90 19:43 11.03.2020
6668 Clouds 29 1016 70 10000 5.1 90 19:25 11.03.2020
6669 Clouds 29 1017 74 10000 5.1 30 18:58 11.03.2020
6670 Clouds 29 1017 74 10000 5.1 30 18:38 11.03.2020
6671 Clouds 29 1017 74 10000 5.1 30 18:20 11.03.2020
6672 Clouds 29 1017 70 10000 3.1 30 17:56 11.03.2020
6673 Clouds 29 1017 70 10000 3.1 30 17:37 11.03.2020
6674 Clouds 29 1017 70 10000 3.1 30 17:19 11.03.2020
6675 Clouds 28 1016 70 10000 5.1 90 16:45 11.03.2020
6676 Clouds 28 1016 70 10000 5.1 90 16:21 11.03.2020
6677 Clouds 26 1016 83 10000 4.1 30 15:44 11.03.2020
6678 Clouds 26 1016 83 10000 4.1 30 15:23 11.03.2020
6679 Clouds 24 1015 83 10000 2.8 28 14:56 11.03.2020
6680 Clouds 24 1015 83 10000 2.8 28 14:38 11.03.2020
6681 Clouds 23 1015 83 10000 2.78 340 14:19 11.03.2020
6682 Clouds 22 1015 94 10000 2.78 340 13:44 11.03.2020
6683 Clouds 22 1015 94 10000 2.78 340 13:25 11.03.2020
6684 Clouds 22 1015 100 10000 2.6 10 12:57 11.03.2020
6685 Clouds 22 1015 100 10000 2.6 10 12:39 11.03.2020
6686 Clouds 22 1015 100 10000 2.6 10 12:19 11.03.2020
6687 Clouds 21 1014 100 10000 2.1 360 11:41 11.03.2020
6688 Clouds 21 1014 100 10000 2.1 360 11:22 11.03.2020
6689 Clouds 21 1015 100 10000 2.1 360 10:49 11.03.2020
6690 Clouds 21 1015 100 10000 2.1 360 10:21 11.03.2020
6691 Clouds 22 1015 100 10000 2.1 360 10:00 11.03.2020
6692 Clouds 22 1015 100 10000 3.1 360 09:41 11.03.2020
6693 Clouds 22 1015 100 10000<